<?xml version="1.0" encoding="UTF-8" standalone="no" ?>
<gpx xmlns="http://www.topografix.com/GPX/1/1" xmlns:xsi="http://www.w3.org/2001/XMLSchema-instance" xsi:schemaLocation="http://www.topografix.com/GPX/1/1 http://www.topografix.com/GPX/1/1/gpx.xsd" version="1.1" creator="VisuGPX - https://www.visugpx.com">
  <metadata>
    <name>Sud Vercors 3jours Romeyer-Archiane-Chichilianne-Romeyer</name>
    <desc><![CDATA[Randonnée de 3 jours sur les hauts plateaux du Vercors avec nuits à Archiane et Chichilianne.]]></desc>
  </metadata>
  <trk>
    <name><![CDATA[J1]]></name>
    <desc><![CDATA[



]]></desc>
    <extensions>
      <line xmlns="http://www.topografix.com/GPX/gpx_style/0/2">
        <color>00ccff</color>
        <width>4</width>
      </line>
    </extensions>
    <trkseg>
      <trkpt lat="44.80654" lon="5.44665">
        <ele>1000</ele>
        <time>2024-05-24T07:12:01Z</time>
      </trkpt>
      <trkpt lat="44.80658" lon="5.44664">
        <ele>1000</ele>
        <time>2024-05-24T07:12:34Z</time>
      </trkpt>
      <trkpt lat="44.80583" lon="5.44575">
        <ele>1009</ele>
        <time>2024-05-24T07:15:38Z</time>
      </trkpt>
      <trkpt lat="44.80574" lon="5.44554">
        <ele>1010</ele>
        <time>2024-05-24T07:15:59Z</time>
      </trkpt>
      <trkpt lat="44.80568" lon="5.44544">
        <ele>1011</ele>
        <time>2024-05-24T07:16:13Z</time>
      </trkpt>
      <trkpt lat="44.8057" lon="5.44556">
        <ele>1015</ele>
        <time>2024-05-24T07:16:48Z</time>
      </trkpt>
      <trkpt lat="44.80575" lon="5.44567">
        <ele>1016</ele>
        <time>2024-05-24T07:16:57Z</time>
      </trkpt>
      <trkpt lat="44.80576" lon="5.4458">
        <ele>1017</ele>
        <time>2024-05-24T07:17:08Z</time>
      </trkpt>
      <trkpt lat="44.8058" lon="5.44603">
        <ele>1019</ele>
        <time>2024-05-24T07:17:29Z</time>
      </trkpt>
      <trkpt lat="44.80582" lon="5.44615">
        <ele>1020</ele>
        <time>2024-05-24T07:17:38Z</time>
      </trkpt>
      <trkpt lat="44.80585" lon="5.44628">
        <ele>1021</ele>
        <time>2024-05-24T07:17:48Z</time>
      </trkpt>
      <trkpt lat="44.80589" lon="5.44639">
        <ele>1022</ele>
        <time>2024-05-24T07:17:59Z</time>
      </trkpt>
      <trkpt lat="44.80592" lon="5.44652">
        <ele>1023</ele>
        <time>2024-05-24T07:18:12Z</time>
      </trkpt>
      <trkpt lat="44.806" lon="5.44674">
        <ele>1026</ele>
        <time>2024-05-24T07:18:37Z</time>
      </trkpt>
      <trkpt lat="44.80603" lon="5.44686">
        <ele>1028</ele>
        <time>2024-05-24T07:18:49Z</time>
      </trkpt>
      <trkpt lat="44.80604" lon="5.44699">
        <ele>1030</ele>
        <time>2024-05-24T07:19:01Z</time>
      </trkpt>
      <trkpt lat="44.80608" lon="5.44711">
        <ele>1031</ele>
        <time>2024-05-24T07:19:10Z</time>
      </trkpt>
      <trkpt lat="44.80611" lon="5.44722">
        <ele>1032</ele>
        <time>2024-05-24T07:19:20Z</time>
      </trkpt>
      <trkpt lat="44.80617" lon="5.44733">
        <ele>1034</ele>
        <time>2024-05-24T07:19:32Z</time>
      </trkpt>
      <trkpt lat="44.80632" lon="5.44748">
        <ele>1036</ele>
        <time>2024-05-24T07:19:53Z</time>
      </trkpt>
      <trkpt lat="44.80637" lon="5.44759">
        <ele>1037</ele>
        <time>2024-05-24T07:20:03Z</time>
      </trkpt>
      <trkpt lat="44.80641" lon="5.44772">
        <ele>1038</ele>
        <time>2024-05-24T07:20:12Z</time>
      </trkpt>
      <trkpt lat="44.80644" lon="5.44784">
        <ele>1039</ele>
        <time>2024-05-24T07:20:23Z</time>
      </trkpt>
      <trkpt lat="44.80651" lon="5.44794">
        <ele>1041</ele>
        <time>2024-05-24T07:20:34Z</time>
      </trkpt>
      <trkpt lat="44.80658" lon="5.44803">
        <ele>1042</ele>
        <time>2024-05-24T07:20:43Z</time>
      </trkpt>
      <trkpt lat="44.80663" lon="5.44814">
        <ele>1044</ele>
        <time>2024-05-24T07:20:56Z</time>
      </trkpt>
      <trkpt lat="44.80671" lon="5.44821">
        <ele>1045</ele>
        <time>2024-05-24T07:21:05Z</time>
      </trkpt>
      <trkpt lat="44.8068" lon="5.44826">
        <ele>1046</ele>
        <time>2024-05-24T07:21:15Z</time>
      </trkpt>
      <trkpt lat="44.80689" lon="5.44832">
        <ele>1046</ele>
        <time>2024-05-24T07:21:24Z</time>
      </trkpt>
      <trkpt lat="44.807" lon="5.44852">
        <ele>1049</ele>
        <time>2024-05-24T07:21:46Z</time>
      </trkpt>
      <trkpt lat="44.80703" lon="5.44864">
        <ele>1051</ele>
        <time>2024-05-24T07:21:58Z</time>
      </trkpt>
      <trkpt lat="44.80703" lon="5.44878">
        <ele>1052</ele>
        <time>2024-05-24T07:22:09Z</time>
      </trkpt>
      <trkpt lat="44.80702" lon="5.44891">
        <ele>1053</ele>
        <time>2024-05-24T07:22:19Z</time>
      </trkpt>
      <trkpt lat="44.80706" lon="5.44903">
        <ele>1055</ele>
        <time>2024-05-24T07:22:30Z</time>
      </trkpt>
      <trkpt lat="44.80708" lon="5.44915">
        <ele>1057</ele>
        <time>2024-05-24T07:22:43Z</time>
      </trkpt>
      <trkpt lat="44.80705" lon="5.44928">
        <ele>1058</ele>
        <time>2024-05-24T07:22:51Z</time>
      </trkpt>
      <trkpt lat="44.80695" lon="5.44948">
        <ele>1060</ele>
        <time>2024-05-24T07:23:12Z</time>
      </trkpt>
      <trkpt lat="44.807" lon="5.44959">
        <ele>1061</ele>
        <time>2024-05-24T07:23:21Z</time>
      </trkpt>
      <trkpt lat="44.80714" lon="5.44973">
        <ele>1063</ele>
        <time>2024-05-24T07:23:41Z</time>
      </trkpt>
      <trkpt lat="44.8072" lon="5.44984">
        <ele>1063</ele>
        <time>2024-05-24T07:23:49Z</time>
      </trkpt>
      <trkpt lat="44.80728" lon="5.44991">
        <ele>1064</ele>
        <time>2024-05-24T07:23:59Z</time>
      </trkpt>
      <trkpt lat="44.80735" lon="5.45001">
        <ele>1066</ele>
        <time>2024-05-24T07:24:10Z</time>
      </trkpt>
      <trkpt lat="44.80744" lon="5.45003">
        <ele>1066</ele>
        <time>2024-05-24T07:24:19Z</time>
      </trkpt>
      <trkpt lat="44.80753" lon="5.45007">
        <ele>1068</ele>
        <time>2024-05-24T07:24:29Z</time>
      </trkpt>
      <trkpt lat="44.80762" lon="5.45012">
        <ele>1069</ele>
        <time>2024-05-24T07:24:38Z</time>
      </trkpt>
      <trkpt lat="44.8077" lon="5.45018">
        <ele>1070</ele>
        <time>2024-05-24T07:24:46Z</time>
      </trkpt>
      <trkpt lat="44.80779" lon="5.45025">
        <ele>1071</ele>
        <time>2024-05-24T07:24:56Z</time>
      </trkpt>
      <trkpt lat="44.80788" lon="5.45028">
        <ele>1073</ele>
        <time>2024-05-24T07:25:28Z</time>
      </trkpt>
      <trkpt lat="44.80799" lon="5.45033">
        <ele>1073</ele>
        <time>2024-05-24T07:26:02Z</time>
      </trkpt>
      <trkpt lat="44.80808" lon="5.45037">
        <ele>1074</ele>
        <time>2024-05-24T07:26:18Z</time>
      </trkpt>
      <trkpt lat="44.80824" lon="5.45026">
        <ele>1076</ele>
        <time>2024-05-24T07:26:41Z</time>
      </trkpt>
      <trkpt lat="44.80833" lon="5.45032">
        <ele>1076</ele>
        <time>2024-05-24T07:26:49Z</time>
      </trkpt>
      <trkpt lat="44.80841" lon="5.4504">
        <ele>1078</ele>
        <time>2024-05-24T07:26:57Z</time>
      </trkpt>
      <trkpt lat="44.80848" lon="5.45048">
        <ele>1079</ele>
        <time>2024-05-24T07:27:05Z</time>
      </trkpt>
      <trkpt lat="44.80855" lon="5.45055">
        <ele>1079</ele>
        <time>2024-05-24T07:27:14Z</time>
      </trkpt>
      <trkpt lat="44.80862" lon="5.45063">
        <ele>1080</ele>
        <time>2024-05-24T07:27:23Z</time>
      </trkpt>
      <trkpt lat="44.8087" lon="5.45086">
        <ele>1081</ele>
        <time>2024-05-24T07:27:43Z</time>
      </trkpt>
      <trkpt lat="44.80871" lon="5.45099">
        <ele>1082</ele>
        <time>2024-05-24T07:27:51Z</time>
      </trkpt>
      <trkpt lat="44.80872" lon="5.45112">
        <ele>1081</ele>
        <time>2024-05-24T07:28:02Z</time>
      </trkpt>
      <trkpt lat="44.80873" lon="5.45125">
        <ele>1080</ele>
        <time>2024-05-24T07:28:11Z</time>
      </trkpt>
      <trkpt lat="44.80873" lon="5.45138">
        <ele>1079</ele>
        <time>2024-05-24T07:28:22Z</time>
      </trkpt>
      <trkpt lat="44.80871" lon="5.45151">
        <ele>1079</ele>
        <time>2024-05-24T07:28:30Z</time>
      </trkpt>
      <trkpt lat="44.8087" lon="5.45165">
        <ele>1078</ele>
        <time>2024-05-24T07:28:37Z</time>
      </trkpt>
      <trkpt lat="44.8087" lon="5.45178">
        <ele>1077</ele>
        <time>2024-05-24T07:28:44Z</time>
      </trkpt>
      <trkpt lat="44.80864" lon="5.45188">
        <ele>1076</ele>
        <time>2024-05-24T07:28:52Z</time>
      </trkpt>
      <trkpt lat="44.80859" lon="5.45198">
        <ele>1075</ele>
        <time>2024-05-24T07:29:00Z</time>
      </trkpt>
      <trkpt lat="44.80855" lon="5.4521">
        <ele>1073</ele>
        <time>2024-05-24T07:29:11Z</time>
      </trkpt>
      <trkpt lat="44.80859" lon="5.45222">
        <ele>1072</ele>
        <time>2024-05-24T07:29:21Z</time>
      </trkpt>
      <trkpt lat="44.80857" lon="5.45235">
        <ele>1072</ele>
        <time>2024-05-24T07:29:30Z</time>
      </trkpt>
      <trkpt lat="44.80855" lon="5.45249">
        <ele>1071</ele>
        <time>2024-05-24T07:29:37Z</time>
      </trkpt>
      <trkpt lat="44.80852" lon="5.45261">
        <ele>1071</ele>
        <time>2024-05-24T07:29:44Z</time>
      </trkpt>
      <trkpt lat="44.8085" lon="5.45275">
        <ele>1070</ele>
        <time>2024-05-24T07:29:53Z</time>
      </trkpt>
      <trkpt lat="44.80847" lon="5.45288">
        <ele>1069</ele>
        <time>2024-05-24T07:30:02Z</time>
      </trkpt>
      <trkpt lat="44.80842" lon="5.453">
        <ele>1068</ele>
        <time>2024-05-24T07:30:11Z</time>
      </trkpt>
      <trkpt lat="44.80837" lon="5.45311">
        <ele>1068</ele>
        <time>2024-05-24T07:30:19Z</time>
      </trkpt>
      <trkpt lat="44.80835" lon="5.45324">
        <ele>1067</ele>
        <time>2024-05-24T07:30:30Z</time>
      </trkpt>
      <trkpt lat="44.80833" lon="5.45349">
        <ele>1065</ele>
        <time>2024-05-24T07:30:48Z</time>
      </trkpt>
      <trkpt lat="44.80831" lon="5.45362">
        <ele>1065</ele>
        <time>2024-05-24T07:30:57Z</time>
      </trkpt>
      <trkpt lat="44.80826" lon="5.45373">
        <ele>1064</ele>
        <time>2024-05-24T07:31:06Z</time>
      </trkpt>
      <trkpt lat="44.80829" lon="5.45386">
        <ele>1063</ele>
        <time>2024-05-24T07:31:17Z</time>
      </trkpt>
      <trkpt lat="44.80826" lon="5.45398">
        <ele>1063</ele>
        <time>2024-05-24T07:31:25Z</time>
      </trkpt>
      <trkpt lat="44.80824" lon="5.45412">
        <ele>1062</ele>
        <time>2024-05-24T07:31:34Z</time>
      </trkpt>
      <trkpt lat="44.80826" lon="5.45424">
        <ele>1061</ele>
        <time>2024-05-24T07:31:42Z</time>
      </trkpt>
      <trkpt lat="44.80824" lon="5.45438">
        <ele>1060</ele>
        <time>2024-05-24T07:31:51Z</time>
      </trkpt>
      <trkpt lat="44.8082" lon="5.4545">
        <ele>1060</ele>
        <time>2024-05-24T07:32:00Z</time>
      </trkpt>
      <trkpt lat="44.80812" lon="5.45457">
        <ele>1059</ele>
        <time>2024-05-24T07:32:06Z</time>
      </trkpt>
      <trkpt lat="44.80803" lon="5.45464">
        <ele>1058</ele>
        <time>2024-05-24T07:32:13Z</time>
      </trkpt>
      <trkpt lat="44.80794" lon="5.45471">
        <ele>1058</ele>
        <time>2024-05-24T07:32:22Z</time>
      </trkpt>
      <trkpt lat="44.80791" lon="5.45496">
        <ele>1056</ele>
        <time>2024-05-24T07:32:42Z</time>
      </trkpt>
      <trkpt lat="44.80788" lon="5.45508">
        <ele>1055</ele>
        <time>2024-05-24T07:32:52Z</time>
      </trkpt>
      <trkpt lat="44.80791" lon="5.4552">
        <ele>1055</ele>
        <time>2024-05-24T07:33:04Z</time>
      </trkpt>
      <trkpt lat="44.80807" lon="5.4553">
        <ele>1052</ele>
        <time>2024-05-24T07:33:28Z</time>
      </trkpt>
      <trkpt lat="44.80816" lon="5.45535">
        <ele>1051</ele>
        <time>2024-05-24T07:33:38Z</time>
      </trkpt>
      <trkpt lat="44.80825" lon="5.45537">
        <ele>1050</ele>
        <time>2024-05-24T07:33:50Z</time>
      </trkpt>
      <trkpt lat="44.80834" lon="5.45539">
        <ele>1049</ele>
        <time>2024-05-24T07:33:59Z</time>
      </trkpt>
      <trkpt lat="44.80844" lon="5.45538">
        <ele>1048</ele>
        <time>2024-05-24T07:34:08Z</time>
      </trkpt>
      <trkpt lat="44.80853" lon="5.45535">
        <ele>1047</ele>
        <time>2024-05-24T07:34:18Z</time>
      </trkpt>
      <trkpt lat="44.80862" lon="5.45535">
        <ele>1046</ele>
        <time>2024-05-24T07:34:28Z</time>
      </trkpt>
      <trkpt lat="44.80871" lon="5.45531">
        <ele>1046</ele>
        <time>2024-05-24T07:34:36Z</time>
      </trkpt>
      <trkpt lat="44.80879" lon="5.45524">
        <ele>1046</ele>
        <time>2024-05-24T07:34:45Z</time>
      </trkpt>
      <trkpt lat="44.80888" lon="5.45525">
        <ele>1044</ele>
        <time>2024-05-24T07:34:52Z</time>
      </trkpt>
      <trkpt lat="44.80898" lon="5.45526">
        <ele>1044</ele>
        <time>2024-05-24T07:35:00Z</time>
      </trkpt>
      <trkpt lat="44.80907" lon="5.45531">
        <ele>1042</ele>
        <time>2024-05-24T07:35:11Z</time>
      </trkpt>
      <trkpt lat="44.80916" lon="5.45534">
        <ele>1041</ele>
        <time>2024-05-24T07:35:19Z</time>
      </trkpt>
      <trkpt lat="44.80926" lon="5.45532">
        <ele>1041</ele>
        <time>2024-05-24T07:35:29Z</time>
      </trkpt>
      <trkpt lat="44.80936" lon="5.45533">
        <ele>1040</ele>
        <time>2024-05-24T07:35:38Z</time>
      </trkpt>
      <trkpt lat="44.80945" lon="5.45535">
        <ele>1040</ele>
        <time>2024-05-24T07:35:46Z</time>
      </trkpt>
      <trkpt lat="44.80955" lon="5.45533">
        <ele>1040</ele>
        <time>2024-05-24T07:35:55Z</time>
      </trkpt>
      <trkpt lat="44.80963" lon="5.45542">
        <ele>1040</ele>
        <time>2024-05-24T07:36:04Z</time>
      </trkpt>
      <trkpt lat="44.80975" lon="5.45559">
        <ele>1041</ele>
        <time>2024-05-24T07:36:28Z</time>
      </trkpt>
      <trkpt lat="44.8098" lon="5.45571">
        <ele>1041</ele>
        <time>2024-05-24T07:36:42Z</time>
      </trkpt>
      <trkpt lat="44.80984" lon="5.45583">
        <ele>1040</ele>
        <time>2024-05-24T07:36:53Z</time>
      </trkpt>
      <trkpt lat="44.8099" lon="5.45598">
        <ele>1040</ele>
        <time>2024-05-24T07:37:34Z</time>
      </trkpt>
      <trkpt lat="44.80997" lon="5.45607">
        <ele>1039</ele>
        <time>2024-05-24T07:37:45Z</time>
      </trkpt>
      <trkpt lat="44.81003" lon="5.45618">
        <ele>1038</ele>
        <time>2024-05-24T07:37:56Z</time>
      </trkpt>
      <trkpt lat="44.81005" lon="5.4563">
        <ele>1037</ele>
        <time>2024-05-24T07:38:05Z</time>
      </trkpt>
      <trkpt lat="44.81009" lon="5.45642">
        <ele>1036</ele>
        <time>2024-05-24T07:38:16Z</time>
      </trkpt>
      <trkpt lat="44.81013" lon="5.45654">
        <ele>1036</ele>
        <time>2024-05-24T07:38:28Z</time>
      </trkpt>
      <trkpt lat="44.81012" lon="5.45667">
        <ele>1035</ele>
        <time>2024-05-24T07:38:37Z</time>
      </trkpt>
      <trkpt lat="44.81008" lon="5.45681">
        <ele>1034</ele>
        <time>2024-05-24T07:38:44Z</time>
      </trkpt>
      <trkpt lat="44.81005" lon="5.45694">
        <ele>1034</ele>
        <time>2024-05-24T07:38:51Z</time>
      </trkpt>
      <trkpt lat="44.81002" lon="5.45707">
        <ele>1034</ele>
        <time>2024-05-24T07:38:59Z</time>
      </trkpt>
      <trkpt lat="44.81001" lon="5.4572">
        <ele>1033</ele>
        <time>2024-05-24T07:39:12Z</time>
      </trkpt>
      <trkpt lat="44.81001" lon="5.45734">
        <ele>1032</ele>
        <time>2024-05-24T07:39:21Z</time>
      </trkpt>
      <trkpt lat="44.80997" lon="5.45746">
        <ele>1032</ele>
        <time>2024-05-24T07:39:28Z</time>
      </trkpt>
      <trkpt lat="44.80992" lon="5.45756">
        <ele>1032</ele>
        <time>2024-05-24T07:39:38Z</time>
      </trkpt>
      <trkpt lat="44.80985" lon="5.45766">
        <ele>1031</ele>
        <time>2024-05-24T07:39:45Z</time>
      </trkpt>
      <trkpt lat="44.8097" lon="5.45781">
        <ele>1030</ele>
        <time>2024-05-24T07:40:05Z</time>
      </trkpt>
      <trkpt lat="44.80967" lon="5.45793">
        <ele>1029</ele>
        <time>2024-05-24T07:40:13Z</time>
      </trkpt>
      <trkpt lat="44.80967" lon="5.45808">
        <ele>1029</ele>
        <time>2024-05-24T07:40:20Z</time>
      </trkpt>
      <trkpt lat="44.80966" lon="5.45821">
        <ele>1028</ele>
        <time>2024-05-24T07:40:29Z</time>
      </trkpt>
      <trkpt lat="44.80968" lon="5.45834">
        <ele>1027</ele>
        <time>2024-05-24T07:40:36Z</time>
      </trkpt>
      <trkpt lat="44.80973" lon="5.45845">
        <ele>1027</ele>
        <time>2024-05-24T07:40:44Z</time>
      </trkpt>
      <trkpt lat="44.80978" lon="5.45857">
        <ele>1026</ele>
        <time>2024-05-24T07:40:53Z</time>
      </trkpt>
      <trkpt lat="44.80982" lon="5.45869">
        <ele>1026</ele>
        <time>2024-05-24T07:41:03Z</time>
      </trkpt>
      <trkpt lat="44.80985" lon="5.45882">
        <ele>1025</ele>
        <time>2024-05-24T07:41:12Z</time>
      </trkpt>
      <trkpt lat="44.80989" lon="5.45894">
        <ele>1025</ele>
        <time>2024-05-24T07:41:20Z</time>
      </trkpt>
      <trkpt lat="44.80994" lon="5.45918">
        <ele>1023</ele>
        <time>2024-05-24T07:41:38Z</time>
      </trkpt>
      <trkpt lat="44.81008" lon="5.45935">
        <ele>1022</ele>
        <time>2024-05-24T07:41:54Z</time>
      </trkpt>
      <trkpt lat="44.81017" lon="5.45935">
        <ele>1022</ele>
        <time>2024-05-24T07:42:05Z</time>
      </trkpt>
      <trkpt lat="44.81023" lon="5.45925">
        <ele>1021</ele>
        <time>2024-05-24T07:42:19Z</time>
      </trkpt>
      <trkpt lat="44.81038" lon="5.45909">
        <ele>1020</ele>
        <time>2024-05-24T07:42:34Z</time>
      </trkpt>
      <trkpt lat="44.81048" lon="5.45907">
        <ele>1019</ele>
        <time>2024-05-24T07:42:42Z</time>
      </trkpt>
      <trkpt lat="44.81063" lon="5.45914">
        <ele>1018</ele>
        <time>2024-05-24T07:43:19Z</time>
      </trkpt>
      <trkpt lat="44.81077" lon="5.45932">
        <ele>1018</ele>
        <time>2024-05-24T07:43:41Z</time>
      </trkpt>
      <trkpt lat="44.81084" lon="5.4594">
        <ele>1017</ele>
        <time>2024-05-24T07:43:49Z</time>
      </trkpt>
      <trkpt lat="44.81089" lon="5.45952">
        <ele>1017</ele>
        <time>2024-05-24T07:43:59Z</time>
      </trkpt>
      <trkpt lat="44.81096" lon="5.4596">
        <ele>1017</ele>
        <time>2024-05-24T07:44:09Z</time>
      </trkpt>
      <trkpt lat="44.81097" lon="5.45985">
        <ele>1018</ele>
        <time>2024-05-24T07:44:31Z</time>
      </trkpt>
      <trkpt lat="44.81096" lon="5.45997">
        <ele>1019</ele>
        <time>2024-05-24T07:44:39Z</time>
      </trkpt>
      <trkpt lat="44.81102" lon="5.46021">
        <ele>1021</ele>
        <time>2024-05-24T07:45:02Z</time>
      </trkpt>
      <trkpt lat="44.81094" lon="5.46042">
        <ele>1023</ele>
        <time>2024-05-24T07:45:24Z</time>
      </trkpt>
      <trkpt lat="44.81095" lon="5.46055">
        <ele>1025</ele>
        <time>2024-05-24T07:45:41Z</time>
      </trkpt>
      <trkpt lat="44.81095" lon="5.46079">
        <ele>1028</ele>
        <time>2024-05-24T07:46:09Z</time>
      </trkpt>
      <trkpt lat="44.81097" lon="5.46103">
        <ele>1032</ele>
        <time>2024-05-24T07:46:42Z</time>
      </trkpt>
      <trkpt lat="44.81096" lon="5.46129">
        <ele>1035</ele>
        <time>2024-05-24T07:47:09Z</time>
      </trkpt>
      <trkpt lat="44.811" lon="5.46141">
        <ele>1037</ele>
        <time>2024-05-24T07:47:26Z</time>
      </trkpt>
      <trkpt lat="44.811" lon="5.46154">
        <ele>1038</ele>
        <time>2024-05-24T07:47:41Z</time>
      </trkpt>
      <trkpt lat="44.811" lon="5.46179">
        <ele>1042</ele>
        <time>2024-05-24T07:48:10Z</time>
      </trkpt>
      <trkpt lat="44.81099" lon="5.46192">
        <ele>1044</ele>
        <time>2024-05-24T07:48:31Z</time>
      </trkpt>
      <trkpt lat="44.81096" lon="5.46204">
        <ele>1046</ele>
        <time>2024-05-24T07:48:45Z</time>
      </trkpt>
      <trkpt lat="44.81102" lon="5.46225">
        <ele>1049</ele>
        <time>2024-05-24T07:49:09Z</time>
      </trkpt>
      <trkpt lat="44.8111" lon="5.46247">
        <ele>1053</ele>
        <time>2024-05-24T07:49:43Z</time>
      </trkpt>
      <trkpt lat="44.81117" lon="5.46269">
        <ele>1057</ele>
        <time>2024-05-24T07:50:20Z</time>
      </trkpt>
      <trkpt lat="44.81124" lon="5.46277">
        <ele>1058</ele>
        <time>2024-05-24T07:50:30Z</time>
      </trkpt>
      <trkpt lat="44.81134" lon="5.46288">
        <ele>1060</ele>
        <time>2024-05-24T07:51:07Z</time>
      </trkpt>
      <trkpt lat="44.8114" lon="5.46298">
        <ele>1062</ele>
        <time>2024-05-24T07:51:22Z</time>
      </trkpt>
      <trkpt lat="44.81149" lon="5.46303">
        <ele>1063</ele>
        <time>2024-05-24T07:51:34Z</time>
      </trkpt>
      <trkpt lat="44.81156" lon="5.46313">
        <ele>1065</ele>
        <time>2024-05-24T07:51:45Z</time>
      </trkpt>
      <trkpt lat="44.81168" lon="5.46331">
        <ele>1068</ele>
        <time>2024-05-24T07:52:13Z</time>
      </trkpt>
      <trkpt lat="44.8117" lon="5.46343">
        <ele>1071</ele>
        <time>2024-05-24T07:52:28Z</time>
      </trkpt>
      <trkpt lat="44.81177" lon="5.46353">
        <ele>1072</ele>
        <time>2024-05-24T07:52:44Z</time>
      </trkpt>
      <trkpt lat="44.81182" lon="5.46364">
        <ele>1074</ele>
        <time>2024-05-24T07:52:58Z</time>
      </trkpt>
      <trkpt lat="44.81192" lon="5.46385">
        <ele>1077</ele>
        <time>2024-05-24T07:53:18Z</time>
      </trkpt>
      <trkpt lat="44.81198" lon="5.46395">
        <ele>1078</ele>
        <time>2024-05-24T07:53:32Z</time>
      </trkpt>
      <trkpt lat="44.81204" lon="5.46405">
        <ele>1080</ele>
        <time>2024-05-24T07:53:54Z</time>
      </trkpt>
      <trkpt lat="44.81201" lon="5.46418">
        <ele>1080</ele>
        <time>2024-05-24T07:54:20Z</time>
      </trkpt>
      <trkpt lat="44.81218" lon="5.46418">
        <ele>1082</ele>
        <time>2024-05-24T07:55:27Z</time>
      </trkpt>
      <trkpt lat="44.81226" lon="5.46424">
        <ele>1084</ele>
        <time>2024-05-24T07:55:42Z</time>
      </trkpt>
      <trkpt lat="44.81241" lon="5.46435">
        <ele>1087</ele>
        <time>2024-05-24T07:56:13Z</time>
      </trkpt>
      <trkpt lat="44.8125" lon="5.4644">
        <ele>1089</ele>
        <time>2024-05-24T07:56:22Z</time>
      </trkpt>
      <trkpt lat="44.81268" lon="5.46446">
        <ele>1092</ele>
        <time>2024-05-24T07:56:51Z</time>
      </trkpt>
      <trkpt lat="44.81284" lon="5.46456">
        <ele>1096</ele>
        <time>2024-05-24T07:57:17Z</time>
      </trkpt>
      <trkpt lat="44.81294" lon="5.46457">
        <ele>1098</ele>
        <time>2024-05-24T07:57:31Z</time>
      </trkpt>
      <trkpt lat="44.81303" lon="5.46461">
        <ele>1099</ele>
        <time>2024-05-24T07:57:44Z</time>
      </trkpt>
      <trkpt lat="44.8131" lon="5.46469">
        <ele>1101</ele>
        <time>2024-05-24T07:57:55Z</time>
      </trkpt>
      <trkpt lat="44.81318" lon="5.46476">
        <ele>1102</ele>
        <time>2024-05-24T07:58:06Z</time>
      </trkpt>
      <trkpt lat="44.81327" lon="5.46479">
        <ele>1103</ele>
        <time>2024-05-24T07:58:19Z</time>
      </trkpt>
      <trkpt lat="44.81335" lon="5.46486">
        <ele>1105</ele>
        <time>2024-05-24T07:58:32Z</time>
      </trkpt>
      <trkpt lat="44.81342" lon="5.46495">
        <ele>1106</ele>
        <time>2024-05-24T07:58:42Z</time>
      </trkpt>
      <trkpt lat="44.81351" lon="5.46499">
        <ele>1107</ele>
        <time>2024-05-24T07:58:51Z</time>
      </trkpt>
      <trkpt lat="44.81359" lon="5.46506">
        <ele>1107</ele>
        <time>2024-05-24T07:59:00Z</time>
      </trkpt>
      <trkpt lat="44.81367" lon="5.46514">
        <ele>1108</ele>
        <time>2024-05-24T07:59:11Z</time>
      </trkpt>
      <trkpt lat="44.81383" lon="5.46527">
        <ele>1110</ele>
        <time>2024-05-24T07:59:37Z</time>
      </trkpt>
      <trkpt lat="44.81391" lon="5.46533">
        <ele>1111</ele>
        <time>2024-05-24T07:59:46Z</time>
      </trkpt>
      <trkpt lat="44.81399" lon="5.46539">
        <ele>1112</ele>
        <time>2024-05-24T07:59:55Z</time>
      </trkpt>
      <trkpt lat="44.81404" lon="5.46551">
        <ele>1114</ele>
        <time>2024-05-24T08:00:07Z</time>
      </trkpt>
      <trkpt lat="44.8141" lon="5.4656">
        <ele>1115</ele>
        <time>2024-05-24T08:00:19Z</time>
      </trkpt>
      <trkpt lat="44.81416" lon="5.4657">
        <ele>1117</ele>
        <time>2024-05-24T08:00:33Z</time>
      </trkpt>
      <trkpt lat="44.81423" lon="5.4658">
        <ele>1118</ele>
        <time>2024-05-24T08:00:44Z</time>
      </trkpt>
      <trkpt lat="44.81427" lon="5.46591">
        <ele>1120</ele>
        <time>2024-05-24T08:00:55Z</time>
      </trkpt>
      <trkpt lat="44.8144" lon="5.46609">
        <ele>1125</ele>
        <time>2024-05-24T08:01:26Z</time>
      </trkpt>
      <trkpt lat="44.81445" lon="5.4662">
        <ele>1126</ele>
        <time>2024-05-24T08:01:39Z</time>
      </trkpt>
      <trkpt lat="44.81454" lon="5.46624">
        <ele>1128</ele>
        <time>2024-05-24T08:01:54Z</time>
      </trkpt>
      <trkpt lat="44.81465" lon="5.46643">
        <ele>1131</ele>
        <time>2024-05-24T08:02:19Z</time>
      </trkpt>
      <trkpt lat="44.81472" lon="5.46651">
        <ele>1134</ele>
        <time>2024-05-24T08:02:37Z</time>
      </trkpt>
      <trkpt lat="44.81478" lon="5.46661">
        <ele>1136</ele>
        <time>2024-05-24T08:02:48Z</time>
      </trkpt>
      <trkpt lat="44.81485" lon="5.46671">
        <ele>1137</ele>
        <time>2024-05-24T08:03:03Z</time>
      </trkpt>
      <trkpt lat="44.81491" lon="5.4668">
        <ele>1139</ele>
        <time>2024-05-24T08:03:18Z</time>
      </trkpt>
      <trkpt lat="44.815" lon="5.46685">
        <ele>1141</ele>
        <time>2024-05-24T08:03:29Z</time>
      </trkpt>
      <trkpt lat="44.81511" lon="5.46704">
        <ele>1145</ele>
        <time>2024-05-24T08:03:59Z</time>
      </trkpt>
      <trkpt lat="44.81516" lon="5.46716">
        <ele>1147</ele>
        <time>2024-05-24T08:04:11Z</time>
      </trkpt>
      <trkpt lat="44.81528" lon="5.46732">
        <ele>1151</ele>
        <time>2024-05-24T08:04:42Z</time>
      </trkpt>
      <trkpt lat="44.81535" lon="5.46741">
        <ele>1153</ele>
        <time>2024-05-24T08:05:02Z</time>
      </trkpt>
      <trkpt lat="44.81543" lon="5.46749">
        <ele>1155</ele>
        <time>2024-05-24T08:05:13Z</time>
      </trkpt>
      <trkpt lat="44.81551" lon="5.46755">
        <ele>1157</ele>
        <time>2024-05-24T08:05:26Z</time>
      </trkpt>
      <trkpt lat="44.81558" lon="5.46764">
        <ele>1159</ele>
        <time>2024-05-24T08:05:40Z</time>
      </trkpt>
      <trkpt lat="44.81565" lon="5.46773">
        <ele>1160</ele>
        <time>2024-05-24T08:05:51Z</time>
      </trkpt>
      <trkpt lat="44.81565" lon="5.46791">
        <ele>1163</ele>
        <time>2024-05-24T08:07:01Z</time>
      </trkpt>
      <trkpt lat="44.81581" lon="5.468">
        <ele>1166</ele>
        <time>2024-05-24T08:07:26Z</time>
      </trkpt>
      <trkpt lat="44.81588" lon="5.46809">
        <ele>1168</ele>
        <time>2024-05-24T08:07:38Z</time>
      </trkpt>
      <trkpt lat="44.81596" lon="5.46816">
        <ele>1170</ele>
        <time>2024-05-24T08:07:53Z</time>
      </trkpt>
      <trkpt lat="44.8159" lon="5.4683">
        <ele>1174</ele>
        <time>2024-05-24T08:08:19Z</time>
      </trkpt>
      <trkpt lat="44.81581" lon="5.46831">
        <ele>1176</ele>
        <time>2024-05-24T08:08:30Z</time>
      </trkpt>
      <trkpt lat="44.81571" lon="5.46832">
        <ele>1177</ele>
        <time>2024-05-24T08:08:40Z</time>
      </trkpt>
      <trkpt lat="44.81562" lon="5.46834">
        <ele>1178</ele>
        <time>2024-05-24T08:08:54Z</time>
      </trkpt>
      <trkpt lat="44.81553" lon="5.46829">
        <ele>1179</ele>
        <time>2024-05-24T08:09:08Z</time>
      </trkpt>
      <trkpt lat="44.81544" lon="5.4683">
        <ele>1181</ele>
        <time>2024-05-24T08:09:20Z</time>
      </trkpt>
      <trkpt lat="44.81536" lon="5.46834">
        <ele>1183</ele>
        <time>2024-05-24T08:09:41Z</time>
      </trkpt>
      <trkpt lat="44.81527" lon="5.46832">
        <ele>1184</ele>
        <time>2024-05-24T08:09:52Z</time>
      </trkpt>
      <trkpt lat="44.81517" lon="5.46833">
        <ele>1185</ele>
        <time>2024-05-24T08:10:02Z</time>
      </trkpt>
      <trkpt lat="44.81507" lon="5.46831">
        <ele>1186</ele>
        <time>2024-05-24T08:10:13Z</time>
      </trkpt>
      <trkpt lat="44.81498" lon="5.46834">
        <ele>1188</ele>
        <time>2024-05-24T08:10:25Z</time>
      </trkpt>
      <trkpt lat="44.81505" lon="5.4685">
        <ele>1193</ele>
        <time>2024-05-24T08:11:06Z</time>
      </trkpt>
      <trkpt lat="44.81518" lon="5.46867">
        <ele>1196</ele>
        <time>2024-05-24T08:11:46Z</time>
      </trkpt>
      <trkpt lat="44.81525" lon="5.46877">
        <ele>1197</ele>
        <time>2024-05-24T08:12:04Z</time>
      </trkpt>
      <trkpt lat="44.81541" lon="5.46885">
        <ele>1200</ele>
        <time>2024-05-24T08:13:14Z</time>
      </trkpt>
      <trkpt lat="44.8155" lon="5.4689">
        <ele>1200</ele>
        <time>2024-05-24T08:13:23Z</time>
      </trkpt>
      <trkpt lat="44.81562" lon="5.46909">
        <ele>1203</ele>
        <time>2024-05-24T08:13:57Z</time>
      </trkpt>
      <trkpt lat="44.8157" lon="5.46916">
        <ele>1204</ele>
        <time>2024-05-24T08:14:09Z</time>
      </trkpt>
      <trkpt lat="44.81578" lon="5.46924">
        <ele>1205</ele>
        <time>2024-05-24T08:14:17Z</time>
      </trkpt>
      <trkpt lat="44.81585" lon="5.46933">
        <ele>1206</ele>
        <time>2024-05-24T08:14:29Z</time>
      </trkpt>
      <trkpt lat="44.81592" lon="5.46943">
        <ele>1208</ele>
        <time>2024-05-24T08:14:40Z</time>
      </trkpt>
      <trkpt lat="44.81599" lon="5.46953">
        <ele>1209</ele>
        <time>2024-05-24T08:14:50Z</time>
      </trkpt>
      <trkpt lat="44.81605" lon="5.46962">
        <ele>1209</ele>
        <time>2024-05-24T08:14:59Z</time>
      </trkpt>
      <trkpt lat="44.81604" lon="5.46983">
        <ele>1215</ele>
        <time>2024-05-24T08:15:42Z</time>
      </trkpt>
      <trkpt lat="44.81596" lon="5.46989">
        <ele>1217</ele>
        <time>2024-05-24T08:15:55Z</time>
      </trkpt>
      <trkpt lat="44.81587" lon="5.46994">
        <ele>1218</ele>
        <time>2024-05-24T08:16:07Z</time>
      </trkpt>
      <trkpt lat="44.81577" lon="5.4699">
        <ele>1219</ele>
        <time>2024-05-24T08:16:24Z</time>
      </trkpt>
      <trkpt lat="44.81568" lon="5.46991">
        <ele>1222</ele>
        <time>2024-05-24T08:16:37Z</time>
      </trkpt>
      <trkpt lat="44.81558" lon="5.46992">
        <ele>1224</ele>
        <time>2024-05-24T08:16:55Z</time>
      </trkpt>
      <trkpt lat="44.81542" lon="5.47003">
        <ele>1226</ele>
        <time>2024-05-24T08:17:18Z</time>
      </trkpt>
      <trkpt lat="44.81532" lon="5.47005">
        <ele>1230</ele>
        <time>2024-05-24T08:17:43Z</time>
      </trkpt>
      <trkpt lat="44.81524" lon="5.47002">
        <ele>1232</ele>
        <time>2024-05-24T08:18:32Z</time>
      </trkpt>
      <trkpt lat="44.81515" lon="5.46997">
        <ele>1233</ele>
        <time>2024-05-24T08:18:44Z</time>
      </trkpt>
      <trkpt lat="44.81507" lon="5.4699">
        <ele>1235</ele>
        <time>2024-05-24T08:18:58Z</time>
      </trkpt>
      <trkpt lat="44.81499" lon="5.46984">
        <ele>1236</ele>
        <time>2024-05-24T08:19:09Z</time>
      </trkpt>
      <trkpt lat="44.81491" lon="5.46978">
        <ele>1238</ele>
        <time>2024-05-24T08:19:24Z</time>
      </trkpt>
      <trkpt lat="44.81484" lon="5.46969">
        <ele>1240</ele>
        <time>2024-05-24T08:19:41Z</time>
      </trkpt>
      <trkpt lat="44.81475" lon="5.46964">
        <ele>1242</ele>
        <time>2024-05-24T08:19:52Z</time>
      </trkpt>
      <trkpt lat="44.81466" lon="5.46958">
        <ele>1243</ele>
        <time>2024-05-24T08:20:02Z</time>
      </trkpt>
      <trkpt lat="44.81448" lon="5.46962">
        <ele>1247</ele>
        <time>2024-05-24T08:20:39Z</time>
      </trkpt>
      <trkpt lat="44.81439" lon="5.46963">
        <ele>1249</ele>
        <time>2024-05-24T08:20:53Z</time>
      </trkpt>
      <trkpt lat="44.81422" lon="5.46957">
        <ele>1251</ele>
        <time>2024-05-24T08:21:19Z</time>
      </trkpt>
      <trkpt lat="44.81413" lon="5.46954">
        <ele>1253</ele>
        <time>2024-05-24T08:21:36Z</time>
      </trkpt>
      <trkpt lat="44.81406" lon="5.46945">
        <ele>1254</ele>
        <time>2024-05-24T08:21:46Z</time>
      </trkpt>
      <trkpt lat="44.814" lon="5.46921">
        <ele>1256</ele>
        <time>2024-05-24T08:22:14Z</time>
      </trkpt>
      <trkpt lat="44.81391" lon="5.46916">
        <ele>1258</ele>
        <time>2024-05-24T08:22:25Z</time>
      </trkpt>
      <trkpt lat="44.81384" lon="5.46908">
        <ele>1260</ele>
        <time>2024-05-24T08:22:38Z</time>
      </trkpt>
      <trkpt lat="44.81378" lon="5.46898">
        <ele>1263</ele>
        <time>2024-05-24T08:23:00Z</time>
      </trkpt>
      <trkpt lat="44.81372" lon="5.46888">
        <ele>1264</ele>
        <time>2024-05-24T08:23:11Z</time>
      </trkpt>
      <trkpt lat="44.81365" lon="5.4688">
        <ele>1266</ele>
        <time>2024-05-24T08:23:26Z</time>
      </trkpt>
      <trkpt lat="44.81355" lon="5.46878">
        <ele>1268</ele>
        <time>2024-05-24T08:23:37Z</time>
      </trkpt>
      <trkpt lat="44.81347" lon="5.46872">
        <ele>1270</ele>
        <time>2024-05-24T08:23:56Z</time>
      </trkpt>
      <trkpt lat="44.81337" lon="5.4686">
        <ele>1276</ele>
        <time>2024-05-24T08:24:40Z</time>
      </trkpt>
      <trkpt lat="44.81332" lon="5.46872">
        <ele>1280</ele>
        <time>2024-05-24T08:25:14Z</time>
      </trkpt>
      <trkpt lat="44.81314" lon="5.46873">
        <ele>1285</ele>
        <time>2024-05-24T08:25:51Z</time>
      </trkpt>
      <trkpt lat="44.81305" lon="5.4687">
        <ele>1286</ele>
        <time>2024-05-24T08:26:07Z</time>
      </trkpt>
      <trkpt lat="44.81298" lon="5.46891">
        <ele>1289</ele>
        <time>2024-05-24T08:26:31Z</time>
      </trkpt>
      <trkpt lat="44.81283" lon="5.46901">
        <ele>1291</ele>
        <time>2024-05-24T08:26:55Z</time>
      </trkpt>
      <trkpt lat="44.81273" lon="5.46899">
        <ele>1292</ele>
        <time>2024-05-24T08:27:06Z</time>
      </trkpt>
      <trkpt lat="44.81265" lon="5.4689">
        <ele>1292</ele>
        <time>2024-05-24T08:27:12Z</time>
      </trkpt>
      <trkpt lat="44.81258" lon="5.46882">
        <ele>1293</ele>
        <time>2024-05-24T08:27:30Z</time>
      </trkpt>
      <trkpt lat="44.8125" lon="5.46874">
        <ele>1295</ele>
        <time>2024-05-24T08:27:50Z</time>
      </trkpt>
      <trkpt lat="44.81234" lon="5.4688">
        <ele>1299</ele>
        <time>2024-05-24T08:28:27Z</time>
      </trkpt>
      <trkpt lat="44.81218" lon="5.4688">
        <ele>1302</ele>
        <time>2024-05-24T08:28:55Z</time>
      </trkpt>
      <trkpt lat="44.81202" lon="5.46884">
        <ele>1305</ele>
        <time>2024-05-24T08:29:21Z</time>
      </trkpt>
      <trkpt lat="44.81194" lon="5.46876">
        <ele>1307</ele>
        <time>2024-05-24T08:29:37Z</time>
      </trkpt>
      <trkpt lat="44.81185" lon="5.46879">
        <ele>1309</ele>
        <time>2024-05-24T08:30:07Z</time>
      </trkpt>
      <trkpt lat="44.81168" lon="5.4687">
        <ele>1311</ele>
        <time>2024-05-24T08:30:25Z</time>
      </trkpt>
      <trkpt lat="44.8116" lon="5.46867">
        <ele>1312</ele>
        <time>2024-05-24T08:30:36Z</time>
      </trkpt>
      <trkpt lat="44.81142" lon="5.46866">
        <ele>1316</ele>
        <time>2024-05-24T08:31:17Z</time>
      </trkpt>
      <trkpt lat="44.81133" lon="5.46862">
        <ele>1318</ele>
        <time>2024-05-24T08:31:37Z</time>
      </trkpt>
      <trkpt lat="44.81124" lon="5.46862">
        <ele>1322</ele>
        <time>2024-05-24T08:32:09Z</time>
      </trkpt>
      <trkpt lat="44.81114" lon="5.4686">
        <ele>1323</ele>
        <time>2024-05-24T08:32:19Z</time>
      </trkpt>
      <trkpt lat="44.81105" lon="5.46857">
        <ele>1324</ele>
        <time>2024-05-24T08:32:30Z</time>
      </trkpt>
      <trkpt lat="44.81092" lon="5.46842">
        <ele>1325</ele>
        <time>2024-05-24T08:32:57Z</time>
      </trkpt>
      <trkpt lat="44.81076" lon="5.46833">
        <ele>1326</ele>
        <time>2024-05-24T08:33:40Z</time>
      </trkpt>
      <trkpt lat="44.81074" lon="5.46845">
        <ele>1328</ele>
        <time>2024-05-24T08:34:45Z</time>
      </trkpt>
      <trkpt lat="44.81073" lon="5.46832">
        <ele>1328</ele>
        <time>2024-05-24T08:35:19Z</time>
      </trkpt>
      <trkpt lat="44.81064" lon="5.46836">
        <ele>1328</ele>
        <time>2024-05-24T08:35:44Z</time>
      </trkpt>
      <trkpt lat="44.81055" lon="5.46841">
        <ele>1329</ele>
        <time>2024-05-24T08:35:54Z</time>
      </trkpt>
      <trkpt lat="44.81046" lon="5.46824">
        <ele>1332</ele>
        <time>2024-05-24T08:36:23Z</time>
      </trkpt>
      <trkpt lat="44.81042" lon="5.46812">
        <ele>1333</ele>
        <time>2024-05-24T08:36:33Z</time>
      </trkpt>
      <trkpt lat="44.81036" lon="5.4679">
        <ele>1336</ele>
        <time>2024-05-24T08:36:59Z</time>
      </trkpt>
      <trkpt lat="44.81035" lon="5.46775">
        <ele>1338</ele>
        <time>2024-05-24T08:37:06Z</time>
      </trkpt>
      <trkpt lat="44.81028" lon="5.46755">
        <ele>1343</ele>
        <time>2024-05-24T08:37:35Z</time>
      </trkpt>
      <trkpt lat="44.81017" lon="5.46744">
        <ele>1345</ele>
        <time>2024-05-24T08:39:26Z</time>
      </trkpt>
      <trkpt lat="44.81008" lon="5.46745">
        <ele>1346</ele>
        <time>2024-05-24T08:39:44Z</time>
      </trkpt>
      <trkpt lat="44.80999" lon="5.46746">
        <ele>1349</ele>
        <time>2024-05-24T08:40:10Z</time>
      </trkpt>
      <trkpt lat="44.8099" lon="5.46744">
        <ele>1350</ele>
        <time>2024-05-24T08:40:23Z</time>
      </trkpt>
      <trkpt lat="44.80995" lon="5.46741">
        <ele>1354</ele>
        <time>2024-05-24T08:41:06Z</time>
      </trkpt>
      <trkpt lat="44.81008" lon="5.46753">
        <ele>1357</ele>
        <time>2024-05-24T08:41:34Z</time>
      </trkpt>
      <trkpt lat="44.81016" lon="5.46763">
        <ele>1360</ele>
        <time>2024-05-24T08:41:55Z</time>
      </trkpt>
      <trkpt lat="44.8102" lon="5.46775">
        <ele>1362</ele>
        <time>2024-05-24T08:42:06Z</time>
      </trkpt>
      <trkpt lat="44.81021" lon="5.46789">
        <ele>1365</ele>
        <time>2024-05-24T08:42:29Z</time>
      </trkpt>
      <trkpt lat="44.81012" lon="5.46793">
        <ele>1366</ele>
        <time>2024-05-24T08:42:42Z</time>
      </trkpt>
      <trkpt lat="44.81003" lon="5.46791">
        <ele>1370</ele>
        <time>2024-05-24T08:43:02Z</time>
      </trkpt>
      <trkpt lat="44.80994" lon="5.46786">
        <ele>1371</ele>
        <time>2024-05-24T08:43:16Z</time>
      </trkpt>
      <trkpt lat="44.80985" lon="5.46778">
        <ele>1372</ele>
        <time>2024-05-24T08:43:34Z</time>
      </trkpt>
      <trkpt lat="44.80976" lon="5.46774">
        <ele>1374</ele>
        <time>2024-05-24T08:43:48Z</time>
      </trkpt>
      <trkpt lat="44.80958" lon="5.46767">
        <ele>1378</ele>
        <time>2024-05-24T08:44:16Z</time>
      </trkpt>
      <trkpt lat="44.8095" lon="5.4676">
        <ele>1379</ele>
        <time>2024-05-24T08:44:25Z</time>
      </trkpt>
      <trkpt lat="44.80942" lon="5.46753">
        <ele>1380</ele>
        <time>2024-05-24T08:44:34Z</time>
      </trkpt>
      <trkpt lat="44.80929" lon="5.46751">
        <ele>1390</ele>
        <time>2024-05-24T08:45:42Z</time>
      </trkpt>
      <trkpt lat="44.80937" lon="5.46765">
        <ele>1397</ele>
        <time>2024-05-24T08:46:31Z</time>
      </trkpt>
      <trkpt lat="44.80942" lon="5.46776">
        <ele>1399</ele>
        <time>2024-05-24T08:46:45Z</time>
      </trkpt>
      <trkpt lat="44.80948" lon="5.46785">
        <ele>1401</ele>
        <time>2024-05-24T08:47:04Z</time>
      </trkpt>
      <trkpt lat="44.80949" lon="5.46798">
        <ele>1404</ele>
        <time>2024-05-24T08:47:20Z</time>
      </trkpt>
      <trkpt lat="44.80955" lon="5.46808">
        <ele>1407</ele>
        <time>2024-05-24T08:47:44Z</time>
      </trkpt>
      <trkpt lat="44.80943" lon="5.46814">
        <ele>1410</ele>
        <time>2024-05-24T08:48:14Z</time>
      </trkpt>
      <trkpt lat="44.80934" lon="5.4681">
        <ele>1413</ele>
        <time>2024-05-24T08:48:33Z</time>
      </trkpt>
      <trkpt lat="44.80926" lon="5.46805">
        <ele>1415</ele>
        <time>2024-05-24T08:48:54Z</time>
      </trkpt>
      <trkpt lat="44.80908" lon="5.468">
        <ele>1423</ele>
        <time>2024-05-24T08:49:57Z</time>
      </trkpt>
      <trkpt lat="44.80895" lon="5.4681">
        <ele>1427</ele>
        <time>2024-05-24T08:50:23Z</time>
      </trkpt>
      <trkpt lat="44.80881" lon="5.46823">
        <ele>1430</ele>
        <time>2024-05-24T08:50:47Z</time>
      </trkpt>
      <trkpt lat="44.80875" lon="5.46846">
        <ele>1434</ele>
        <time>2024-05-24T08:51:19Z</time>
      </trkpt>
      <trkpt lat="44.80871" lon="5.46858">
        <ele>1435</ele>
        <time>2024-05-24T08:51:34Z</time>
      </trkpt>
      <trkpt lat="44.80873" lon="5.46871">
        <ele>1437</ele>
        <time>2024-05-24T08:51:47Z</time>
      </trkpt>
      <trkpt lat="44.80872" lon="5.46895">
        <ele>1441</ele>
        <time>2024-05-24T08:52:23Z</time>
      </trkpt>
      <trkpt lat="44.80875" lon="5.46921">
        <ele>1444</ele>
        <time>2024-05-24T08:53:08Z</time>
      </trkpt>
      <trkpt lat="44.8088" lon="5.4691">
        <ele>1446</ele>
        <time>2024-05-24T08:53:47Z</time>
      </trkpt>
      <trkpt lat="44.80887" lon="5.469">
        <ele>1447</ele>
        <time>2024-05-24T08:53:59Z</time>
      </trkpt>
      <trkpt lat="44.80895" lon="5.46896">
        <ele>1449</ele>
        <time>2024-05-24T08:54:11Z</time>
      </trkpt>
      <trkpt lat="44.80904" lon="5.46888">
        <ele>1450</ele>
        <time>2024-05-24T08:54:20Z</time>
      </trkpt>
      <trkpt lat="44.80912" lon="5.46882">
        <ele>1450</ele>
        <time>2024-05-24T08:54:28Z</time>
      </trkpt>
      <trkpt lat="44.80922" lon="5.46879">
        <ele>1450</ele>
        <time>2024-05-24T08:54:37Z</time>
      </trkpt>
      <trkpt lat="44.80935" lon="5.46877">
        <ele>1453</ele>
        <time>2024-05-24T08:55:03Z</time>
      </trkpt>
      <trkpt lat="44.80933" lon="5.46898">
        <ele>1460</ele>
        <time>2024-05-24T08:55:55Z</time>
      </trkpt>
      <trkpt lat="44.80934" lon="5.46914">
        <ele>1461</ele>
        <time>2024-05-24T08:56:09Z</time>
      </trkpt>
      <trkpt lat="44.80933" lon="5.46927">
        <ele>1463</ele>
        <time>2024-05-24T08:56:20Z</time>
      </trkpt>
      <trkpt lat="44.80929" lon="5.46947">
        <ele>1464</ele>
        <time>2024-05-24T08:56:59Z</time>
      </trkpt>
      <trkpt lat="44.80932" lon="5.4696">
        <ele>1468</ele>
        <time>2024-05-24T08:57:20Z</time>
      </trkpt>
      <trkpt lat="44.80933" lon="5.46973">
        <ele>1471</ele>
        <time>2024-05-24T08:57:45Z</time>
      </trkpt>
      <trkpt lat="44.80938" lon="5.46996">
        <ele>1474</ele>
        <time>2024-05-24T08:58:31Z</time>
      </trkpt>
      <trkpt lat="44.80934" lon="5.46999">
        <ele>1474</ele>
        <time>2024-05-24T09:00:18Z</time>
      </trkpt>
      <trkpt lat="44.80937" lon="5.47007">
        <ele>1473</ele>
        <time>2024-05-24T09:02:58Z</time>
      </trkpt>
      <trkpt lat="44.8094" lon="5.47014">
        <ele>1473</ele>
        <time>2024-05-24T09:04:34Z</time>
      </trkpt>
      <trkpt lat="44.80942" lon="5.47001">
        <ele>1473</ele>
        <time>2024-05-24T09:04:47Z</time>
      </trkpt>
      <trkpt lat="44.80935" lon="5.46991">
        <ele>1473</ele>
        <time>2024-05-24T09:06:44Z</time>
      </trkpt>
      <trkpt lat="44.80941" lon="5.47008">
        <ele>1475</ele>
        <time>2024-05-24T09:07:43Z</time>
      </trkpt>
      <trkpt lat="44.80942" lon="5.47022">
        <ele>1478</ele>
        <time>2024-05-24T09:08:02Z</time>
      </trkpt>
      <trkpt lat="44.80941" lon="5.47047">
        <ele>1482</ele>
        <time>2024-05-24T09:08:34Z</time>
      </trkpt>
      <trkpt lat="44.80941" lon="5.4706">
        <ele>1484</ele>
        <time>2024-05-24T09:08:45Z</time>
      </trkpt>
      <trkpt lat="44.80936" lon="5.4707">
        <ele>1485</ele>
        <time>2024-05-24T09:08:58Z</time>
      </trkpt>
      <trkpt lat="44.8093" lon="5.47081">
        <ele>1487</ele>
        <time>2024-05-24T09:09:13Z</time>
      </trkpt>
      <trkpt lat="44.80924" lon="5.47105">
        <ele>1491</ele>
        <time>2024-05-24T09:09:38Z</time>
      </trkpt>
      <trkpt lat="44.80918" lon="5.47128">
        <ele>1495</ele>
        <time>2024-05-24T09:10:14Z</time>
      </trkpt>
      <trkpt lat="44.80918" lon="5.4714">
        <ele>1496</ele>
        <time>2024-05-24T09:10:23Z</time>
      </trkpt>
      <trkpt lat="44.80917" lon="5.47153">
        <ele>1498</ele>
        <time>2024-05-24T09:10:39Z</time>
      </trkpt>
      <trkpt lat="44.80915" lon="5.47165">
        <ele>1503</ele>
        <time>2024-05-24T09:11:11Z</time>
      </trkpt>
      <trkpt lat="44.80911" lon="5.47177">
        <ele>1505</ele>
        <time>2024-05-24T09:11:22Z</time>
      </trkpt>
      <trkpt lat="44.80897" lon="5.47177">
        <ele>1509</ele>
        <time>2024-05-24T09:11:52Z</time>
      </trkpt>
      <trkpt lat="44.80887" lon="5.47174">
        <ele>1512</ele>
        <time>2024-05-24T09:12:13Z</time>
      </trkpt>
      <trkpt lat="44.80878" lon="5.47176">
        <ele>1516</ele>
        <time>2024-05-24T09:12:36Z</time>
      </trkpt>
      <trkpt lat="44.80889" lon="5.47191">
        <ele>1518</ele>
        <time>2024-05-24T09:13:11Z</time>
      </trkpt>
      <trkpt lat="44.80896" lon="5.47202">
        <ele>1521</ele>
        <time>2024-05-24T09:13:35Z</time>
      </trkpt>
      <trkpt lat="44.80904" lon="5.47208">
        <ele>1522</ele>
        <time>2024-05-24T09:13:45Z</time>
      </trkpt>
      <trkpt lat="44.80908" lon="5.4722">
        <ele>1523</ele>
        <time>2024-05-24T09:13:57Z</time>
      </trkpt>
      <trkpt lat="44.80915" lon="5.47229">
        <ele>1525</ele>
        <time>2024-05-24T09:14:18Z</time>
      </trkpt>
      <trkpt lat="44.80921" lon="5.47249">
        <ele>1529</ele>
        <time>2024-05-24T09:14:54Z</time>
      </trkpt>
      <trkpt lat="44.80928" lon="5.47257">
        <ele>1532</ele>
        <time>2024-05-24T09:15:12Z</time>
      </trkpt>
      <trkpt lat="44.8093" lon="5.4727">
        <ele>1533</ele>
        <time>2024-05-24T09:15:25Z</time>
      </trkpt>
      <trkpt lat="44.80941" lon="5.47261">
        <ele>1536</ele>
        <time>2024-05-24T09:15:59Z</time>
      </trkpt>
      <trkpt lat="44.80944" lon="5.47273">
        <ele>1536</ele>
        <time>2024-05-24T09:17:50Z</time>
      </trkpt>
      <trkpt lat="44.80945" lon="5.47268">
        <ele>1536</ele>
        <time>2024-05-24T09:18:48Z</time>
      </trkpt>
      <trkpt lat="44.80948" lon="5.47267">
        <ele>1536</ele>
        <time>2024-05-24T09:20:32Z</time>
      </trkpt>
      <trkpt lat="44.80939" lon="5.47269">
        <ele>1536</ele>
        <time>2024-05-24T09:20:41Z</time>
      </trkpt>
      <trkpt lat="44.80929" lon="5.47271">
        <ele>1536</ele>
        <time>2024-05-24T09:20:50Z</time>
      </trkpt>
      <trkpt lat="44.80924" lon="5.47292">
        <ele>1535</ele>
        <time>2024-05-24T09:21:18Z</time>
      </trkpt>
      <trkpt lat="44.80923" lon="5.47305">
        <ele>1536</ele>
        <time>2024-05-24T09:21:26Z</time>
      </trkpt>
      <trkpt lat="44.8092" lon="5.47318">
        <ele>1536</ele>
        <time>2024-05-24T09:21:34Z</time>
      </trkpt>
      <trkpt lat="44.80914" lon="5.47328">
        <ele>1538</ele>
        <time>2024-05-24T09:21:45Z</time>
      </trkpt>
      <trkpt lat="44.80905" lon="5.47334">
        <ele>1539</ele>
        <time>2024-05-24T09:21:57Z</time>
      </trkpt>
      <trkpt lat="44.80891" lon="5.47349">
        <ele>1541</ele>
        <time>2024-05-24T09:22:19Z</time>
      </trkpt>
      <trkpt lat="44.80884" lon="5.47357">
        <ele>1542</ele>
        <time>2024-05-24T09:22:30Z</time>
      </trkpt>
      <trkpt lat="44.80877" lon="5.47365">
        <ele>1543</ele>
        <time>2024-05-24T09:22:44Z</time>
      </trkpt>
      <trkpt lat="44.80869" lon="5.47372">
        <ele>1545</ele>
        <time>2024-05-24T09:22:58Z</time>
      </trkpt>
      <trkpt lat="44.8086" lon="5.47378">
        <ele>1546</ele>
        <time>2024-05-24T09:23:09Z</time>
      </trkpt>
      <trkpt lat="44.80851" lon="5.47382">
        <ele>1547</ele>
        <time>2024-05-24T09:23:23Z</time>
      </trkpt>
      <trkpt lat="44.80836" lon="5.47395">
        <ele>1554</ele>
        <time>2024-05-24T09:24:14Z</time>
      </trkpt>
      <trkpt lat="44.80827" lon="5.47399">
        <ele>1556</ele>
        <time>2024-05-24T09:24:25Z</time>
      </trkpt>
      <trkpt lat="44.80819" lon="5.47405">
        <ele>1558</ele>
        <time>2024-05-24T09:24:40Z</time>
      </trkpt>
      <trkpt lat="44.8081" lon="5.47407">
        <ele>1559</ele>
        <time>2024-05-24T09:24:52Z</time>
      </trkpt>
      <trkpt lat="44.80801" lon="5.47411">
        <ele>1562</ele>
        <time>2024-05-24T09:25:13Z</time>
      </trkpt>
      <trkpt lat="44.80792" lon="5.47411">
        <ele>1564</ele>
        <time>2024-05-24T09:25:34Z</time>
      </trkpt>
      <trkpt lat="44.80791" lon="5.4743">
        <ele>1570</ele>
        <time>2024-05-24T09:26:12Z</time>
      </trkpt>
      <trkpt lat="44.80784" lon="5.47438">
        <ele>1571</ele>
        <time>2024-05-24T09:26:24Z</time>
      </trkpt>
      <trkpt lat="44.80771" lon="5.47454">
        <ele>1576</ele>
        <time>2024-05-24T09:26:55Z</time>
      </trkpt>
      <trkpt lat="44.80763" lon="5.4745">
        <ele>1576</ele>
        <time>2024-05-24T09:27:02Z</time>
      </trkpt>
      <trkpt lat="44.80755" lon="5.47459">
        <ele>1579</ele>
        <time>2024-05-24T09:27:28Z</time>
      </trkpt>
      <trkpt lat="44.8075" lon="5.4747">
        <ele>1581</ele>
        <time>2024-05-24T09:27:41Z</time>
      </trkpt>
      <trkpt lat="44.80741" lon="5.47489">
        <ele>1584</ele>
        <time>2024-05-24T09:28:08Z</time>
      </trkpt>
      <trkpt lat="44.80734" lon="5.47512">
        <ele>1587</ele>
        <time>2024-05-24T09:28:34Z</time>
      </trkpt>
      <trkpt lat="44.80727" lon="5.47521">
        <ele>1588</ele>
        <time>2024-05-24T09:28:44Z</time>
      </trkpt>
      <trkpt lat="44.80716" lon="5.4754">
        <ele>1592</ele>
        <time>2024-05-24T09:29:15Z</time>
      </trkpt>
      <trkpt lat="44.80714" lon="5.47565">
        <ele>1596</ele>
        <time>2024-05-24T09:29:51Z</time>
      </trkpt>
      <trkpt lat="44.80702" lon="5.47581">
        <ele>1600</ele>
        <time>2024-05-24T09:30:21Z</time>
      </trkpt>
      <trkpt lat="44.80694" lon="5.47588">
        <ele>1602</ele>
        <time>2024-05-24T09:30:38Z</time>
      </trkpt>
      <trkpt lat="44.80688" lon="5.476">
        <ele>1605</ele>
        <time>2024-05-24T09:30:57Z</time>
      </trkpt>
      <trkpt lat="44.80692" lon="5.47612">
        <ele>1605</ele>
        <time>2024-05-24T09:31:11Z</time>
      </trkpt>
      <trkpt lat="44.80679" lon="5.47618">
        <ele>1607</ele>
        <time>2024-05-24T09:31:32Z</time>
      </trkpt>
      <trkpt lat="44.80669" lon="5.47619">
        <ele>1608</ele>
        <time>2024-05-24T09:31:43Z</time>
      </trkpt>
      <trkpt lat="44.80654" lon="5.47631">
        <ele>1611</ele>
        <time>2024-05-24T09:32:12Z</time>
      </trkpt>
      <trkpt lat="44.80636" lon="5.47637">
        <ele>1615</ele>
        <time>2024-05-24T09:32:35Z</time>
      </trkpt>
      <trkpt lat="44.80628" lon="5.47644">
        <ele>1616</ele>
        <time>2024-05-24T09:32:47Z</time>
      </trkpt>
      <trkpt lat="44.8062" lon="5.47649">
        <ele>1616</ele>
        <time>2024-05-24T09:33:12Z</time>
      </trkpt>
      <trkpt lat="44.80618" lon="5.47631">
        <ele>1616</ele>
        <time>2024-05-24T09:33:51Z</time>
      </trkpt>
      <trkpt lat="44.80611" lon="5.47624">
        <ele>1616</ele>
        <time>2024-05-24T09:34:02Z</time>
      </trkpt>
      <trkpt lat="44.80602" lon="5.47626">
        <ele>1616</ele>
        <time>2024-05-24T09:34:11Z</time>
      </trkpt>
      <trkpt lat="44.80583" lon="5.47628">
        <ele>1616</ele>
        <time>2024-05-24T09:34:32Z</time>
      </trkpt>
      <trkpt lat="44.80573" lon="5.47629">
        <ele>1617</ele>
        <time>2024-05-24T09:34:42Z</time>
      </trkpt>
      <trkpt lat="44.80564" lon="5.4763">
        <ele>1617</ele>
        <time>2024-05-24T09:34:54Z</time>
      </trkpt>
      <trkpt lat="44.80547" lon="5.47631">
        <ele>1618</ele>
        <time>2024-05-24T09:35:21Z</time>
      </trkpt>
      <trkpt lat="44.80538" lon="5.47629">
        <ele>1617</ele>
        <time>2024-05-24T09:35:38Z</time>
      </trkpt>
      <trkpt lat="44.80528" lon="5.47628">
        <ele>1616</ele>
        <time>2024-05-24T09:35:48Z</time>
      </trkpt>
      <trkpt lat="44.80511" lon="5.47627">
        <ele>1612</ele>
        <time>2024-05-24T09:36:23Z</time>
      </trkpt>
      <trkpt lat="44.80501" lon="5.47629">
        <ele>1611</ele>
        <time>2024-05-24T09:36:32Z</time>
      </trkpt>
      <trkpt lat="44.80492" lon="5.47633">
        <ele>1610</ele>
        <time>2024-05-24T09:36:40Z</time>
      </trkpt>
      <trkpt lat="44.80485" lon="5.47641">
        <ele>1608</ele>
        <time>2024-05-24T09:37:00Z</time>
      </trkpt>
      <trkpt lat="44.80468" lon="5.47637">
        <ele>1604</ele>
        <time>2024-05-24T09:37:24Z</time>
      </trkpt>
      <trkpt lat="44.80459" lon="5.47636">
        <ele>1602</ele>
        <time>2024-05-24T09:37:39Z</time>
      </trkpt>
      <trkpt lat="44.80449" lon="5.47638">
        <ele>1602</ele>
        <time>2024-05-24T09:37:46Z</time>
      </trkpt>
      <trkpt lat="44.80439" lon="5.47638">
        <ele>1601</ele>
        <time>2024-05-24T09:37:53Z</time>
      </trkpt>
      <trkpt lat="44.80431" lon="5.47631">
        <ele>1601</ele>
        <time>2024-05-24T09:38:03Z</time>
      </trkpt>
      <trkpt lat="44.80414" lon="5.47626">
        <ele>1603</ele>
        <time>2024-05-24T09:38:23Z</time>
      </trkpt>
      <trkpt lat="44.80405" lon="5.4762">
        <ele>1605</ele>
        <time>2024-05-24T09:38:40Z</time>
      </trkpt>
      <trkpt lat="44.80397" lon="5.47615">
        <ele>1605</ele>
        <time>2024-05-24T09:38:53Z</time>
      </trkpt>
      <trkpt lat="44.80389" lon="5.47607">
        <ele>1605</ele>
        <time>2024-05-24T09:39:02Z</time>
      </trkpt>
      <trkpt lat="44.80379" lon="5.47606">
        <ele>1605</ele>
        <time>2024-05-24T09:39:10Z</time>
      </trkpt>
      <trkpt lat="44.8037" lon="5.47607">
        <ele>1606</ele>
        <time>2024-05-24T09:39:23Z</time>
      </trkpt>
      <trkpt lat="44.80361" lon="5.4761">
        <ele>1606</ele>
        <time>2024-05-24T09:39:33Z</time>
      </trkpt>
      <trkpt lat="44.80352" lon="5.47612">
        <ele>1607</ele>
        <time>2024-05-24T09:39:43Z</time>
      </trkpt>
      <trkpt lat="44.80342" lon="5.47613">
        <ele>1608</ele>
        <time>2024-05-24T09:39:54Z</time>
      </trkpt>
      <trkpt lat="44.80333" lon="5.47614">
        <ele>1610</ele>
        <time>2024-05-24T09:40:09Z</time>
      </trkpt>
      <trkpt lat="44.80325" lon="5.47621">
        <ele>1611</ele>
        <time>2024-05-24T09:40:22Z</time>
      </trkpt>
      <trkpt lat="44.80315" lon="5.47623">
        <ele>1613</ele>
        <time>2024-05-24T09:40:36Z</time>
      </trkpt>
      <trkpt lat="44.80306" lon="5.47628">
        <ele>1613</ele>
        <time>2024-05-24T09:40:43Z</time>
      </trkpt>
      <trkpt lat="44.80297" lon="5.47631">
        <ele>1614</ele>
        <time>2024-05-24T09:40:50Z</time>
      </trkpt>
      <trkpt lat="44.80287" lon="5.4763">
        <ele>1614</ele>
        <time>2024-05-24T09:40:59Z</time>
      </trkpt>
      <trkpt lat="44.80272" lon="5.47635">
        <ele>1616</ele>
        <time>2024-05-24T09:41:23Z</time>
      </trkpt>
      <trkpt lat="44.80264" lon="5.47642">
        <ele>1617</ele>
        <time>2024-05-24T09:41:32Z</time>
      </trkpt>
      <trkpt lat="44.80256" lon="5.47649">
        <ele>1617</ele>
        <time>2024-05-24T09:41:44Z</time>
      </trkpt>
      <trkpt lat="44.80247" lon="5.47651">
        <ele>1618</ele>
        <time>2024-05-24T09:41:55Z</time>
      </trkpt>
      <trkpt lat="44.80238" lon="5.47652">
        <ele>1620</ele>
        <time>2024-05-24T09:42:10Z</time>
      </trkpt>
      <trkpt lat="44.80229" lon="5.47656">
        <ele>1622</ele>
        <time>2024-05-24T09:42:24Z</time>
      </trkpt>
      <trkpt lat="44.8022" lon="5.47658">
        <ele>1624</ele>
        <time>2024-05-24T09:42:37Z</time>
      </trkpt>
      <trkpt lat="44.80208" lon="5.47675">
        <ele>1629</ele>
        <time>2024-05-24T09:43:09Z</time>
      </trkpt>
      <trkpt lat="44.8021" lon="5.47687">
        <ele>1629</ele>
        <time>2024-05-24T09:43:35Z</time>
      </trkpt>
      <trkpt lat="44.80195" lon="5.47694">
        <ele>1630</ele>
        <time>2024-05-24T09:43:52Z</time>
      </trkpt>
      <trkpt lat="44.80185" lon="5.47697">
        <ele>1630</ele>
        <time>2024-05-24T09:44:01Z</time>
      </trkpt>
      <trkpt lat="44.80176" lon="5.47699">
        <ele>1631</ele>
        <time>2024-05-24T09:44:11Z</time>
      </trkpt>
      <trkpt lat="44.80167" lon="5.477">
        <ele>1633</ele>
        <time>2024-05-24T09:44:25Z</time>
      </trkpt>
      <trkpt lat="44.80153" lon="5.47704">
        <ele>1638</ele>
        <time>2024-05-24T09:45:04Z</time>
      </trkpt>
      <trkpt lat="44.80144" lon="5.47706">
        <ele>1641</ele>
        <time>2024-05-24T09:45:23Z</time>
      </trkpt>
      <trkpt lat="44.80127" lon="5.47712">
        <ele>1646</ele>
        <time>2024-05-24T09:46:31Z</time>
      </trkpt>
      <trkpt lat="44.80118" lon="5.47718">
        <ele>1648</ele>
        <time>2024-05-24T09:46:41Z</time>
      </trkpt>
      <trkpt lat="44.80099" lon="5.47709">
        <ele>1648</ele>
        <time>2024-05-24T09:47:21Z</time>
      </trkpt>
      <trkpt lat="44.8009" lon="5.47704">
        <ele>1647</ele>
        <time>2024-05-24T09:47:29Z</time>
      </trkpt>
      <trkpt lat="44.80081" lon="5.47708">
        <ele>1647</ele>
        <time>2024-05-24T09:47:39Z</time>
      </trkpt>
      <trkpt lat="44.80073" lon="5.47713">
        <ele>1645</ele>
        <time>2024-05-24T09:47:57Z</time>
      </trkpt>
      <trkpt lat="44.8006" lon="5.4773">
        <ele>1642</ele>
        <time>2024-05-24T09:48:47Z</time>
      </trkpt>
      <trkpt lat="44.80049" lon="5.47737">
        <ele>1641</ele>
        <time>2024-05-24T09:49:40Z</time>
      </trkpt>
      <trkpt lat="44.8004" lon="5.47734">
        <ele>1642</ele>
        <time>2024-05-24T09:49:54Z</time>
      </trkpt>
      <trkpt lat="44.80037" lon="5.47721">
        <ele>1642</ele>
        <time>2024-05-24T09:51:33Z</time>
      </trkpt>
      <trkpt lat="44.80031" lon="5.47713">
        <ele>1640</ele>
        <time>2024-05-24T09:53:12Z</time>
      </trkpt>
      <trkpt lat="44.80031" lon="5.47727">
        <ele>1641</ele>
        <time>2024-05-24T09:55:22Z</time>
      </trkpt>
      <trkpt lat="44.80036" lon="5.47714">
        <ele>1641</ele>
        <time>2024-05-24T09:55:57Z</time>
      </trkpt>
      <trkpt lat="44.80036" lon="5.47708">
        <ele>1641</ele>
        <time>2024-05-24T09:58:12Z</time>
      </trkpt>
      <trkpt lat="44.80035" lon="5.47716">
        <ele>1642</ele>
        <time>2024-05-24T10:00:08Z</time>
      </trkpt>
      <trkpt lat="44.80036" lon="5.47713">
        <ele>1642</ele>
        <time>2024-05-24T10:01:32Z</time>
      </trkpt>
      <trkpt lat="44.80037" lon="5.47711">
        <ele>1641</ele>
        <time>2024-05-24T10:06:41Z</time>
      </trkpt>
      <trkpt lat="44.80031" lon="5.47719">
        <ele>1641</ele>
        <time>2024-05-24T10:08:13Z</time>
      </trkpt>
      <trkpt lat="44.80029" lon="5.47715">
        <ele>1639</ele>
        <time>2024-05-24T10:10:34Z</time>
      </trkpt>
      <trkpt lat="44.80032" lon="5.47711">
        <ele>1642</ele>
        <time>2024-05-24T10:12:25Z</time>
      </trkpt>
      <trkpt lat="44.80039" lon="5.47695">
        <ele>1646</ele>
        <time>2024-05-24T10:14:52Z</time>
      </trkpt>
      <trkpt lat="44.80039" lon="5.47695">
        <ele>1647</ele>
        <time>2024-05-24T10:18:00Z</time>
      </trkpt>
      <trkpt lat="44.80037" lon="5.47717">
        <ele>1643</ele>
        <time>2024-05-24T10:20:05Z</time>
      </trkpt>
      <trkpt lat="44.80038" lon="5.47713">
        <ele>1643</ele>
        <time>2024-05-24T10:23:59Z</time>
      </trkpt>
      <trkpt lat="44.80035" lon="5.47714">
        <ele>1643</ele>
        <time>2024-05-24T10:25:40Z</time>
      </trkpt>
      <trkpt lat="44.8004" lon="5.47717">
        <ele>1644</ele>
        <time>2024-05-24T10:30:41Z</time>
      </trkpt>
      <trkpt lat="44.80035" lon="5.47717">
        <ele>1644</ele>
        <time>2024-05-24T10:38:41Z</time>
      </trkpt>
      <trkpt lat="44.8002" lon="5.4772">
        <ele>1640</ele>
        <time>2024-05-24T10:39:24Z</time>
      </trkpt>
      <trkpt lat="44.80003" lon="5.47721">
        <ele>1634</ele>
        <time>2024-05-24T10:40:37Z</time>
      </trkpt>
      <trkpt lat="44.79994" lon="5.47719">
        <ele>1633</ele>
        <time>2024-05-24T10:40:50Z</time>
      </trkpt>
      <trkpt lat="44.79986" lon="5.47713">
        <ele>1630</ele>
        <time>2024-05-24T10:41:07Z</time>
      </trkpt>
      <trkpt lat="44.79977" lon="5.47716">
        <ele>1627</ele>
        <time>2024-05-24T10:41:21Z</time>
      </trkpt>
      <trkpt lat="44.79968" lon="5.47714">
        <ele>1626</ele>
        <time>2024-05-24T10:41:30Z</time>
      </trkpt>
      <trkpt lat="44.79958" lon="5.47713">
        <ele>1624</ele>
        <time>2024-05-24T10:41:38Z</time>
      </trkpt>
      <trkpt lat="44.7995" lon="5.47721">
        <ele>1622</ele>
        <time>2024-05-24T10:41:47Z</time>
      </trkpt>
      <trkpt lat="44.79943" lon="5.47731">
        <ele>1622</ele>
        <time>2024-05-24T10:41:55Z</time>
      </trkpt>
      <trkpt lat="44.79935" lon="5.47739">
        <ele>1621</ele>
        <time>2024-05-24T10:42:04Z</time>
      </trkpt>
      <trkpt lat="44.79926" lon="5.47744">
        <ele>1621</ele>
        <time>2024-05-24T10:42:13Z</time>
      </trkpt>
      <trkpt lat="44.79917" lon="5.4774">
        <ele>1619</ele>
        <time>2024-05-24T10:42:22Z</time>
      </trkpt>
      <trkpt lat="44.79909" lon="5.47736">
        <ele>1619</ele>
        <time>2024-05-24T10:42:30Z</time>
      </trkpt>
      <trkpt lat="44.79899" lon="5.47736">
        <ele>1618</ele>
        <time>2024-05-24T10:42:41Z</time>
      </trkpt>
      <trkpt lat="44.7989" lon="5.47736">
        <ele>1618</ele>
        <time>2024-05-24T10:42:50Z</time>
      </trkpt>
      <trkpt lat="44.79881" lon="5.47735">
        <ele>1619</ele>
        <time>2024-05-24T10:43:03Z</time>
      </trkpt>
      <trkpt lat="44.79873" lon="5.47741">
        <ele>1617</ele>
        <time>2024-05-24T10:43:19Z</time>
      </trkpt>
      <trkpt lat="44.79856" lon="5.47752">
        <ele>1613</ele>
        <time>2024-05-24T10:43:45Z</time>
      </trkpt>
      <trkpt lat="44.79839" lon="5.47753">
        <ele>1611</ele>
        <time>2024-05-24T10:44:08Z</time>
      </trkpt>
      <trkpt lat="44.79829" lon="5.47751">
        <ele>1610</ele>
        <time>2024-05-24T10:44:19Z</time>
      </trkpt>
      <trkpt lat="44.79814" lon="5.47764">
        <ele>1609</ele>
        <time>2024-05-24T10:44:38Z</time>
      </trkpt>
      <trkpt lat="44.79805" lon="5.47768">
        <ele>1610</ele>
        <time>2024-05-24T10:44:47Z</time>
      </trkpt>
      <trkpt lat="44.79788" lon="5.47761">
        <ele>1607</ele>
        <time>2024-05-24T10:45:09Z</time>
      </trkpt>
      <trkpt lat="44.79779" lon="5.47754">
        <ele>1606</ele>
        <time>2024-05-24T10:45:24Z</time>
      </trkpt>
      <trkpt lat="44.7977" lon="5.47751">
        <ele>1605</ele>
        <time>2024-05-24T10:45:34Z</time>
      </trkpt>
      <trkpt lat="44.79761" lon="5.47752">
        <ele>1604</ele>
        <time>2024-05-24T10:45:44Z</time>
      </trkpt>
      <trkpt lat="44.79743" lon="5.47758">
        <ele>1605</ele>
        <time>2024-05-24T10:46:03Z</time>
      </trkpt>
      <trkpt lat="44.79734" lon="5.47756">
        <ele>1606</ele>
        <time>2024-05-24T10:46:16Z</time>
      </trkpt>
      <trkpt lat="44.79725" lon="5.47753">
        <ele>1606</ele>
        <time>2024-05-24T10:46:30Z</time>
      </trkpt>
      <trkpt lat="44.79709" lon="5.47762">
        <ele>1607</ele>
        <time>2024-05-24T10:46:53Z</time>
      </trkpt>
      <trkpt lat="44.797" lon="5.47767">
        <ele>1608</ele>
        <time>2024-05-24T10:47:05Z</time>
      </trkpt>
      <trkpt lat="44.7969" lon="5.47764">
        <ele>1608</ele>
        <time>2024-05-24T10:47:14Z</time>
      </trkpt>
      <trkpt lat="44.79675" lon="5.47772">
        <ele>1607</ele>
        <time>2024-05-24T10:47:38Z</time>
      </trkpt>
      <trkpt lat="44.79662" lon="5.47791">
        <ele>1603</ele>
        <time>2024-05-24T10:48:02Z</time>
      </trkpt>
      <trkpt lat="44.79655" lon="5.47799">
        <ele>1603</ele>
        <time>2024-05-24T10:48:11Z</time>
      </trkpt>
      <trkpt lat="44.79645" lon="5.478">
        <ele>1605</ele>
        <time>2024-05-24T10:48:21Z</time>
      </trkpt>
      <trkpt lat="44.79636" lon="5.47802">
        <ele>1606</ele>
        <time>2024-05-24T10:48:32Z</time>
      </trkpt>
      <trkpt lat="44.79626" lon="5.47806">
        <ele>1607</ele>
        <time>2024-05-24T10:48:44Z</time>
      </trkpt>
      <trkpt lat="44.79611" lon="5.47793">
        <ele>1608</ele>
        <time>2024-05-24T10:49:01Z</time>
      </trkpt>
      <trkpt lat="44.79606" lon="5.47782">
        <ele>1608</ele>
        <time>2024-05-24T10:49:10Z</time>
      </trkpt>
      <trkpt lat="44.79601" lon="5.47772">
        <ele>1607</ele>
        <time>2024-05-24T10:49:21Z</time>
      </trkpt>
      <trkpt lat="44.79597" lon="5.4776">
        <ele>1607</ele>
        <time>2024-05-24T10:49:32Z</time>
      </trkpt>
      <trkpt lat="44.79596" lon="5.47747">
        <ele>1607</ele>
        <time>2024-05-24T10:49:42Z</time>
      </trkpt>
      <trkpt lat="44.79595" lon="5.47734">
        <ele>1607</ele>
        <time>2024-05-24T10:49:52Z</time>
      </trkpt>
      <trkpt lat="44.79592" lon="5.4772">
        <ele>1608</ele>
        <time>2024-05-24T10:50:00Z</time>
      </trkpt>
      <trkpt lat="44.79588" lon="5.47708">
        <ele>1607</ele>
        <time>2024-05-24T10:50:08Z</time>
      </trkpt>
      <trkpt lat="44.79571" lon="5.47702">
        <ele>1604</ele>
        <time>2024-05-24T10:50:34Z</time>
      </trkpt>
      <trkpt lat="44.79565" lon="5.47693">
        <ele>1603</ele>
        <time>2024-05-24T10:50:44Z</time>
      </trkpt>
      <trkpt lat="44.79558" lon="5.47685">
        <ele>1602</ele>
        <time>2024-05-24T10:50:55Z</time>
      </trkpt>
      <trkpt lat="44.79542" lon="5.47697">
        <ele>1604</ele>
        <time>2024-05-24T10:51:20Z</time>
      </trkpt>
      <trkpt lat="44.79535" lon="5.47705">
        <ele>1604</ele>
        <time>2024-05-24T10:51:30Z</time>
      </trkpt>
      <trkpt lat="44.79526" lon="5.47707">
        <ele>1605</ele>
        <time>2024-05-24T10:51:38Z</time>
      </trkpt>
      <trkpt lat="44.79519" lon="5.47699">
        <ele>1606</ele>
        <time>2024-05-24T10:51:46Z</time>
      </trkpt>
      <trkpt lat="44.79512" lon="5.47676">
        <ele>1608</ele>
        <time>2024-05-24T10:52:19Z</time>
      </trkpt>
      <trkpt lat="44.79502" lon="5.47671">
        <ele>1608</ele>
        <time>2024-05-24T10:52:29Z</time>
      </trkpt>
      <trkpt lat="44.79493" lon="5.47669">
        <ele>1608</ele>
        <time>2024-05-24T10:52:44Z</time>
      </trkpt>
      <trkpt lat="44.79485" lon="5.47673">
        <ele>1608</ele>
        <time>2024-05-24T10:52:54Z</time>
      </trkpt>
      <trkpt lat="44.79476" lon="5.47677">
        <ele>1609</ele>
        <time>2024-05-24T10:53:06Z</time>
      </trkpt>
      <trkpt lat="44.79473" lon="5.47689">
        <ele>1609</ele>
        <time>2024-05-24T10:53:14Z</time>
      </trkpt>
      <trkpt lat="44.79467" lon="5.47699">
        <ele>1608</ele>
        <time>2024-05-24T10:53:24Z</time>
      </trkpt>
      <trkpt lat="44.7946" lon="5.47705">
        <ele>1608</ele>
        <time>2024-05-24T10:53:35Z</time>
      </trkpt>
      <trkpt lat="44.79455" lon="5.47716">
        <ele>1607</ele>
        <time>2024-05-24T10:53:49Z</time>
      </trkpt>
      <trkpt lat="44.79456" lon="5.4773">
        <ele>1606</ele>
        <time>2024-05-24T10:53:59Z</time>
      </trkpt>
      <trkpt lat="44.79457" lon="5.47743">
        <ele>1604</ele>
        <time>2024-05-24T10:54:10Z</time>
      </trkpt>
      <trkpt lat="44.79459" lon="5.47756">
        <ele>1602</ele>
        <time>2024-05-24T10:54:23Z</time>
      </trkpt>
      <trkpt lat="44.79456" lon="5.47769">
        <ele>1600</ele>
        <time>2024-05-24T10:54:33Z</time>
      </trkpt>
      <trkpt lat="44.79451" lon="5.4778">
        <ele>1600</ele>
        <time>2024-05-24T10:54:41Z</time>
      </trkpt>
      <trkpt lat="44.79448" lon="5.47792">
        <ele>1599</ele>
        <time>2024-05-24T10:54:49Z</time>
      </trkpt>
      <trkpt lat="44.79445" lon="5.47805">
        <ele>1598</ele>
        <time>2024-05-24T10:54:59Z</time>
      </trkpt>
      <trkpt lat="44.79442" lon="5.47817">
        <ele>1597</ele>
        <time>2024-05-24T10:55:08Z</time>
      </trkpt>
      <trkpt lat="44.79436" lon="5.47842">
        <ele>1595</ele>
        <time>2024-05-24T10:55:26Z</time>
      </trkpt>
      <trkpt lat="44.79432" lon="5.47855">
        <ele>1595</ele>
        <time>2024-05-24T10:55:35Z</time>
      </trkpt>
      <trkpt lat="44.79429" lon="5.47867">
        <ele>1595</ele>
        <time>2024-05-24T10:55:44Z</time>
      </trkpt>
      <trkpt lat="44.79424" lon="5.47879">
        <ele>1594</ele>
        <time>2024-05-24T10:55:52Z</time>
      </trkpt>
      <trkpt lat="44.79419" lon="5.47891">
        <ele>1594</ele>
        <time>2024-05-24T10:56:02Z</time>
      </trkpt>
      <trkpt lat="44.79415" lon="5.47902">
        <ele>1593</ele>
        <time>2024-05-24T10:56:10Z</time>
      </trkpt>
      <trkpt lat="44.79409" lon="5.47912">
        <ele>1593</ele>
        <time>2024-05-24T10:56:19Z</time>
      </trkpt>
      <trkpt lat="44.79396" lon="5.4793">
        <ele>1591</ele>
        <time>2024-05-24T10:56:39Z</time>
      </trkpt>
      <trkpt lat="44.79392" lon="5.47942">
        <ele>1591</ele>
        <time>2024-05-24T10:56:46Z</time>
      </trkpt>
      <trkpt lat="44.79391" lon="5.47955">
        <ele>1590</ele>
        <time>2024-05-24T10:56:56Z</time>
      </trkpt>
      <trkpt lat="44.7939" lon="5.47969">
        <ele>1589</ele>
        <time>2024-05-24T10:57:05Z</time>
      </trkpt>
      <trkpt lat="44.79389" lon="5.47982">
        <ele>1589</ele>
        <time>2024-05-24T10:57:13Z</time>
      </trkpt>
      <trkpt lat="44.79376" lon="5.48">
        <ele>1587</ele>
        <time>2024-05-24T10:57:33Z</time>
      </trkpt>
      <trkpt lat="44.79368" lon="5.48004">
        <ele>1586</ele>
        <time>2024-05-24T10:57:43Z</time>
      </trkpt>
      <trkpt lat="44.7935" lon="5.48005">
        <ele>1586</ele>
        <time>2024-05-24T10:57:58Z</time>
      </trkpt>
      <trkpt lat="44.79341" lon="5.48005">
        <ele>1585</ele>
        <time>2024-05-24T10:58:06Z</time>
      </trkpt>
      <trkpt lat="44.79333" lon="5.48011">
        <ele>1585</ele>
        <time>2024-05-24T10:58:13Z</time>
      </trkpt>
      <trkpt lat="44.79326" lon="5.48021">
        <ele>1585</ele>
        <time>2024-05-24T10:58:21Z</time>
      </trkpt>
      <trkpt lat="44.79309" lon="5.48028">
        <ele>1585</ele>
        <time>2024-05-24T10:58:42Z</time>
      </trkpt>
      <trkpt lat="44.79299" lon="5.48029">
        <ele>1586</ele>
        <time>2024-05-24T10:58:51Z</time>
      </trkpt>
      <trkpt lat="44.7929" lon="5.48032">
        <ele>1587</ele>
        <time>2024-05-24T10:58:58Z</time>
      </trkpt>
      <trkpt lat="44.79281" lon="5.48034">
        <ele>1585</ele>
        <time>2024-05-24T10:59:07Z</time>
      </trkpt>
      <trkpt lat="44.79272" lon="5.48039">
        <ele>1585</ele>
        <time>2024-05-24T10:59:19Z</time>
      </trkpt>
      <trkpt lat="44.79262" lon="5.4804">
        <ele>1586</ele>
        <time>2024-05-24T10:59:31Z</time>
      </trkpt>
      <trkpt lat="44.79245" lon="5.48034">
        <ele>1586</ele>
        <time>2024-05-24T10:59:48Z</time>
      </trkpt>
      <trkpt lat="44.79238" lon="5.48026">
        <ele>1587</ele>
        <time>2024-05-24T10:59:57Z</time>
      </trkpt>
      <trkpt lat="44.7923" lon="5.48017">
        <ele>1587</ele>
        <time>2024-05-24T11:00:07Z</time>
      </trkpt>
      <trkpt lat="44.79221" lon="5.48011">
        <ele>1587</ele>
        <time>2024-05-24T11:00:16Z</time>
      </trkpt>
      <trkpt lat="44.79213" lon="5.48006">
        <ele>1587</ele>
        <time>2024-05-24T11:00:24Z</time>
      </trkpt>
      <trkpt lat="44.79205" lon="5.47999">
        <ele>1587</ele>
        <time>2024-05-24T11:00:34Z</time>
      </trkpt>
      <trkpt lat="44.79198" lon="5.47989">
        <ele>1587</ele>
        <time>2024-05-24T11:00:42Z</time>
      </trkpt>
      <trkpt lat="44.7919" lon="5.47981">
        <ele>1587</ele>
        <time>2024-05-24T11:00:50Z</time>
      </trkpt>
      <trkpt lat="44.79183" lon="5.47973">
        <ele>1587</ele>
        <time>2024-05-24T11:01:00Z</time>
      </trkpt>
      <trkpt lat="44.79178" lon="5.47962">
        <ele>1587</ele>
        <time>2024-05-24T11:01:07Z</time>
      </trkpt>
      <trkpt lat="44.79171" lon="5.47952">
        <ele>1587</ele>
        <time>2024-05-24T11:01:17Z</time>
      </trkpt>
      <trkpt lat="44.79165" lon="5.47942">
        <ele>1587</ele>
        <time>2024-05-24T11:01:26Z</time>
      </trkpt>
      <trkpt lat="44.79161" lon="5.4793">
        <ele>1586</ele>
        <time>2024-05-24T11:01:34Z</time>
      </trkpt>
      <trkpt lat="44.79157" lon="5.47916">
        <ele>1586</ele>
        <time>2024-05-24T11:01:42Z</time>
      </trkpt>
      <trkpt lat="44.79151" lon="5.47906">
        <ele>1586</ele>
        <time>2024-05-24T11:01:53Z</time>
      </trkpt>
      <trkpt lat="44.79144" lon="5.47896">
        <ele>1586</ele>
        <time>2024-05-24T11:02:02Z</time>
      </trkpt>
      <trkpt lat="44.79137" lon="5.47887">
        <ele>1586</ele>
        <time>2024-05-24T11:02:11Z</time>
      </trkpt>
      <trkpt lat="44.79132" lon="5.47876">
        <ele>1586</ele>
        <time>2024-05-24T11:02:19Z</time>
      </trkpt>
      <trkpt lat="44.79123" lon="5.47868">
        <ele>1586</ele>
        <time>2024-05-24T11:02:28Z</time>
      </trkpt>
      <trkpt lat="44.79118" lon="5.47858">
        <ele>1586</ele>
        <time>2024-05-24T11:02:37Z</time>
      </trkpt>
      <trkpt lat="44.79114" lon="5.47847">
        <ele>1586</ele>
        <time>2024-05-24T11:02:44Z</time>
      </trkpt>
      <trkpt lat="44.7911" lon="5.47834">
        <ele>1586</ele>
        <time>2024-05-24T11:02:52Z</time>
      </trkpt>
      <trkpt lat="44.79098" lon="5.47814">
        <ele>1586</ele>
        <time>2024-05-24T11:03:09Z</time>
      </trkpt>
      <trkpt lat="44.79092" lon="5.47804">
        <ele>1586</ele>
        <time>2024-05-24T11:03:19Z</time>
      </trkpt>
      <trkpt lat="44.79085" lon="5.47796">
        <ele>1586</ele>
        <time>2024-05-24T11:03:28Z</time>
      </trkpt>
      <trkpt lat="44.79079" lon="5.47786">
        <ele>1586</ele>
        <time>2024-05-24T11:03:35Z</time>
      </trkpt>
      <trkpt lat="44.79075" lon="5.47775">
        <ele>1586</ele>
        <time>2024-05-24T11:03:44Z</time>
      </trkpt>
      <trkpt lat="44.79068" lon="5.47766">
        <ele>1587</ele>
        <time>2024-05-24T11:03:53Z</time>
      </trkpt>
      <trkpt lat="44.79061" lon="5.47757">
        <ele>1587</ele>
        <time>2024-05-24T11:04:03Z</time>
      </trkpt>
      <trkpt lat="44.79055" lon="5.47746">
        <ele>1586</ele>
        <time>2024-05-24T11:04:11Z</time>
      </trkpt>
      <trkpt lat="44.7905" lon="5.47735">
        <ele>1586</ele>
        <time>2024-05-24T11:04:20Z</time>
      </trkpt>
      <trkpt lat="44.79044" lon="5.47724">
        <ele>1586</ele>
        <time>2024-05-24T11:04:30Z</time>
      </trkpt>
      <trkpt lat="44.79035" lon="5.47721">
        <ele>1586</ele>
        <time>2024-05-24T11:04:40Z</time>
      </trkpt>
      <trkpt lat="44.79029" lon="5.47711">
        <ele>1585</ele>
        <time>2024-05-24T11:04:48Z</time>
      </trkpt>
      <trkpt lat="44.79023" lon="5.47701">
        <ele>1585</ele>
        <time>2024-05-24T11:04:55Z</time>
      </trkpt>
      <trkpt lat="44.79016" lon="5.47691">
        <ele>1585</ele>
        <time>2024-05-24T11:05:04Z</time>
      </trkpt>
      <trkpt lat="44.79007" lon="5.47687">
        <ele>1584</ele>
        <time>2024-05-24T11:05:13Z</time>
      </trkpt>
      <trkpt lat="44.78999" lon="5.47679">
        <ele>1584</ele>
        <time>2024-05-24T11:05:22Z</time>
      </trkpt>
      <trkpt lat="44.78992" lon="5.47671">
        <ele>1584</ele>
        <time>2024-05-24T11:05:29Z</time>
      </trkpt>
      <trkpt lat="44.78983" lon="5.47665">
        <ele>1584</ele>
        <time>2024-05-24T11:05:39Z</time>
      </trkpt>
      <trkpt lat="44.78974" lon="5.47663">
        <ele>1583</ele>
        <time>2024-05-24T11:05:47Z</time>
      </trkpt>
      <trkpt lat="44.78965" lon="5.47665">
        <ele>1583</ele>
        <time>2024-05-24T11:05:54Z</time>
      </trkpt>
      <trkpt lat="44.78955" lon="5.47666">
        <ele>1583</ele>
        <time>2024-05-24T11:06:04Z</time>
      </trkpt>
      <trkpt lat="44.78946" lon="5.47662">
        <ele>1582</ele>
        <time>2024-05-24T11:06:11Z</time>
      </trkpt>
      <trkpt lat="44.78937" lon="5.47658">
        <ele>1582</ele>
        <time>2024-05-24T11:06:20Z</time>
      </trkpt>
      <trkpt lat="44.78928" lon="5.47656">
        <ele>1582</ele>
        <time>2024-05-24T11:06:29Z</time>
      </trkpt>
      <trkpt lat="44.78919" lon="5.47657">
        <ele>1583</ele>
        <time>2024-05-24T11:06:38Z</time>
      </trkpt>
      <trkpt lat="44.7891" lon="5.47657">
        <ele>1583</ele>
        <time>2024-05-24T11:06:48Z</time>
      </trkpt>
      <trkpt lat="44.78901" lon="5.47662">
        <ele>1583</ele>
        <time>2024-05-24T11:06:55Z</time>
      </trkpt>
      <trkpt lat="44.78893" lon="5.4767">
        <ele>1582</ele>
        <time>2024-05-24T11:07:04Z</time>
      </trkpt>
      <trkpt lat="44.78884" lon="5.47672">
        <ele>1581</ele>
        <time>2024-05-24T11:07:12Z</time>
      </trkpt>
      <trkpt lat="44.78874" lon="5.47668">
        <ele>1580</ele>
        <time>2024-05-24T11:07:21Z</time>
      </trkpt>
      <trkpt lat="44.78867" lon="5.47659">
        <ele>1579</ele>
        <time>2024-05-24T11:07:31Z</time>
      </trkpt>
      <trkpt lat="44.78862" lon="5.47649">
        <ele>1579</ele>
        <time>2024-05-24T11:07:43Z</time>
      </trkpt>
      <trkpt lat="44.78857" lon="5.47643">
        <ele>1579</ele>
        <time>2024-05-24T11:08:57Z</time>
      </trkpt>
      <trkpt lat="44.78854" lon="5.47625">
        <ele>1579</ele>
        <time>2024-05-24T11:11:10Z</time>
      </trkpt>
      <trkpt lat="44.78845" lon="5.47624">
        <ele>1579</ele>
        <time>2024-05-24T11:11:21Z</time>
      </trkpt>
      <trkpt lat="44.78835" lon="5.47625">
        <ele>1580</ele>
        <time>2024-05-24T11:11:37Z</time>
      </trkpt>
      <trkpt lat="44.78826" lon="5.47625">
        <ele>1580</ele>
        <time>2024-05-24T11:11:45Z</time>
      </trkpt>
      <trkpt lat="44.78817" lon="5.4762">
        <ele>1581</ele>
        <time>2024-05-24T11:11:53Z</time>
      </trkpt>
      <trkpt lat="44.788" lon="5.47616">
        <ele>1582</ele>
        <time>2024-05-24T11:12:13Z</time>
      </trkpt>
      <trkpt lat="44.78788" lon="5.47601">
        <ele>1585</ele>
        <time>2024-05-24T11:12:37Z</time>
      </trkpt>
      <trkpt lat="44.78773" lon="5.47588">
        <ele>1587</ele>
        <time>2024-05-24T11:12:59Z</time>
      </trkpt>
      <trkpt lat="44.78765" lon="5.47567">
        <ele>1590</ele>
        <time>2024-05-24T11:13:24Z</time>
      </trkpt>
      <trkpt lat="44.78761" lon="5.47556">
        <ele>1592</ele>
        <time>2024-05-24T11:13:36Z</time>
      </trkpt>
      <trkpt lat="44.78744" lon="5.47558">
        <ele>1596</ele>
        <time>2024-05-24T11:14:04Z</time>
      </trkpt>
      <trkpt lat="44.78736" lon="5.47549">
        <ele>1597</ele>
        <time>2024-05-24T11:14:17Z</time>
      </trkpt>
      <trkpt lat="44.78729" lon="5.47542">
        <ele>1599</ele>
        <time>2024-05-24T11:14:28Z</time>
      </trkpt>
      <trkpt lat="44.78722" lon="5.47533">
        <ele>1602</ele>
        <time>2024-05-24T11:14:44Z</time>
      </trkpt>
      <trkpt lat="44.7871" lon="5.4752">
        <ele>1606</ele>
        <time>2024-05-24T11:15:12Z</time>
      </trkpt>
      <trkpt lat="44.787" lon="5.47516">
        <ele>1607</ele>
        <time>2024-05-24T11:15:22Z</time>
      </trkpt>
      <trkpt lat="44.78692" lon="5.47511">
        <ele>1608</ele>
        <time>2024-05-24T11:15:30Z</time>
      </trkpt>
      <trkpt lat="44.78683" lon="5.47509">
        <ele>1608</ele>
        <time>2024-05-24T11:15:43Z</time>
      </trkpt>
      <trkpt lat="44.78673" lon="5.4751">
        <ele>1609</ele>
        <time>2024-05-24T11:15:54Z</time>
      </trkpt>
      <trkpt lat="44.78655" lon="5.47515">
        <ele>1611</ele>
        <time>2024-05-24T11:16:16Z</time>
      </trkpt>
      <trkpt lat="44.78648" lon="5.47507">
        <ele>1612</ele>
        <time>2024-05-24T11:16:25Z</time>
      </trkpt>
      <trkpt lat="44.7863" lon="5.47511">
        <ele>1614</ele>
        <time>2024-05-24T11:16:52Z</time>
      </trkpt>
      <trkpt lat="44.78614" lon="5.47508">
        <ele>1613</ele>
        <time>2024-05-24T11:17:24Z</time>
      </trkpt>
      <trkpt lat="44.78605" lon="5.47506">
        <ele>1613</ele>
        <time>2024-05-24T11:17:35Z</time>
      </trkpt>
      <trkpt lat="44.78596" lon="5.47502">
        <ele>1613</ele>
        <time>2024-05-24T11:17:44Z</time>
      </trkpt>
      <trkpt lat="44.78587" lon="5.47495">
        <ele>1615</ele>
        <time>2024-05-24T11:17:56Z</time>
      </trkpt>
      <trkpt lat="44.78582" lon="5.47484">
        <ele>1616</ele>
        <time>2024-05-24T11:18:05Z</time>
      </trkpt>
      <trkpt lat="44.78576" lon="5.47473">
        <ele>1616</ele>
        <time>2024-05-24T11:18:13Z</time>
      </trkpt>
      <trkpt lat="44.7857" lon="5.47463">
        <ele>1617</ele>
        <time>2024-05-24T11:18:20Z</time>
      </trkpt>
      <trkpt lat="44.78563" lon="5.47454">
        <ele>1618</ele>
        <time>2024-05-24T11:18:31Z</time>
      </trkpt>
      <trkpt lat="44.78556" lon="5.47444">
        <ele>1619</ele>
        <time>2024-05-24T11:18:40Z</time>
      </trkpt>
      <trkpt lat="44.78548" lon="5.47437">
        <ele>1620</ele>
        <time>2024-05-24T11:18:51Z</time>
      </trkpt>
      <trkpt lat="44.78539" lon="5.47438">
        <ele>1620</ele>
        <time>2024-05-24T11:19:03Z</time>
      </trkpt>
      <trkpt lat="44.78531" lon="5.47446">
        <ele>1620</ele>
        <time>2024-05-24T11:19:11Z</time>
      </trkpt>
      <trkpt lat="44.78525" lon="5.47456">
        <ele>1619</ele>
        <time>2024-05-24T11:19:18Z</time>
      </trkpt>
      <trkpt lat="44.78516" lon="5.4746">
        <ele>1618</ele>
        <time>2024-05-24T11:19:29Z</time>
      </trkpt>
      <trkpt lat="44.78507" lon="5.47462">
        <ele>1618</ele>
        <time>2024-05-24T11:19:37Z</time>
      </trkpt>
      <trkpt lat="44.78499" lon="5.47456">
        <ele>1619</ele>
        <time>2024-05-24T11:19:49Z</time>
      </trkpt>
      <trkpt lat="44.78489" lon="5.47459">
        <ele>1619</ele>
        <time>2024-05-24T11:19:58Z</time>
      </trkpt>
      <trkpt lat="44.78477" lon="5.47468">
        <ele>1617</ele>
        <time>2024-05-24T11:20:19Z</time>
      </trkpt>
      <trkpt lat="44.78473" lon="5.4748">
        <ele>1615</ele>
        <time>2024-05-24T11:20:27Z</time>
      </trkpt>
      <trkpt lat="44.78464" lon="5.47501">
        <ele>1614</ele>
        <time>2024-05-24T11:20:41Z</time>
      </trkpt>
      <trkpt lat="44.78458" lon="5.47512">
        <ele>1614</ele>
        <time>2024-05-24T11:20:47Z</time>
      </trkpt>
      <trkpt lat="44.78454" lon="5.47524">
        <ele>1614</ele>
        <time>2024-05-24T11:20:55Z</time>
      </trkpt>
      <trkpt lat="44.78448" lon="5.47535">
        <ele>1614</ele>
        <time>2024-05-24T11:21:07Z</time>
      </trkpt>
      <trkpt lat="44.78441" lon="5.47543">
        <ele>1615</ele>
        <time>2024-05-24T11:21:23Z</time>
      </trkpt>
      <trkpt lat="44.78435" lon="5.47553">
        <ele>1616</ele>
        <time>2024-05-24T11:21:29Z</time>
      </trkpt>
      <trkpt lat="44.78419" lon="5.47558">
        <ele>1617</ele>
        <time>2024-05-24T11:21:55Z</time>
      </trkpt>
      <trkpt lat="44.7841" lon="5.47562">
        <ele>1617</ele>
        <time>2024-05-24T11:22:05Z</time>
      </trkpt>
      <trkpt lat="44.78395" lon="5.47571">
        <ele>1619</ele>
        <time>2024-05-24T11:22:27Z</time>
      </trkpt>
      <trkpt lat="44.78389" lon="5.47582">
        <ele>1617</ele>
        <time>2024-05-24T11:22:41Z</time>
      </trkpt>
      <trkpt lat="44.78385" lon="5.47594">
        <ele>1616</ele>
        <time>2024-05-24T11:22:49Z</time>
      </trkpt>
      <trkpt lat="44.78376" lon="5.47599">
        <ele>1615</ele>
        <time>2024-05-24T11:22:59Z</time>
      </trkpt>
      <trkpt lat="44.78366" lon="5.476">
        <ele>1614</ele>
        <time>2024-05-24T11:23:17Z</time>
      </trkpt>
      <trkpt lat="44.78356" lon="5.47603">
        <ele>1616</ele>
        <time>2024-05-24T11:23:26Z</time>
      </trkpt>
      <trkpt lat="44.78348" lon="5.47608">
        <ele>1617</ele>
        <time>2024-05-24T11:23:35Z</time>
      </trkpt>
      <trkpt lat="44.7834" lon="5.47616">
        <ele>1617</ele>
        <time>2024-05-24T11:23:44Z</time>
      </trkpt>
      <trkpt lat="44.78333" lon="5.47625">
        <ele>1618</ele>
        <time>2024-05-24T11:23:54Z</time>
      </trkpt>
      <trkpt lat="44.78324" lon="5.47627">
        <ele>1619</ele>
        <time>2024-05-24T11:24:03Z</time>
      </trkpt>
      <trkpt lat="44.78308" lon="5.47629">
        <ele>1621</ele>
        <time>2024-05-24T11:24:41Z</time>
      </trkpt>
      <trkpt lat="44.78309" lon="5.47643">
        <ele>1620</ele>
        <time>2024-05-24T11:25:59Z</time>
      </trkpt>
      <trkpt lat="44.78312" lon="5.47628">
        <ele>1620</ele>
        <time>2024-05-24T11:28:20Z</time>
      </trkpt>
      <trkpt lat="44.78301" lon="5.47639">
        <ele>1620</ele>
        <time>2024-05-24T11:31:55Z</time>
      </trkpt>
      <trkpt lat="44.78291" lon="5.47626">
        <ele>1619</ele>
        <time>2024-05-24T11:32:43Z</time>
      </trkpt>
      <trkpt lat="44.78281" lon="5.47626">
        <ele>1618</ele>
        <time>2024-05-24T11:32:50Z</time>
      </trkpt>
      <trkpt lat="44.78271" lon="5.47622">
        <ele>1618</ele>
        <time>2024-05-24T11:33:02Z</time>
      </trkpt>
      <trkpt lat="44.78264" lon="5.47614">
        <ele>1618</ele>
        <time>2024-05-24T11:33:13Z</time>
      </trkpt>
      <trkpt lat="44.78256" lon="5.47606">
        <ele>1618</ele>
        <time>2024-05-24T11:33:23Z</time>
      </trkpt>
      <trkpt lat="44.78241" lon="5.47595">
        <ele>1617</ele>
        <time>2024-05-24T11:33:43Z</time>
      </trkpt>
      <trkpt lat="44.78232" lon="5.47593">
        <ele>1617</ele>
        <time>2024-05-24T11:33:50Z</time>
      </trkpt>
      <trkpt lat="44.78224" lon="5.47586">
        <ele>1617</ele>
        <time>2024-05-24T11:33:57Z</time>
      </trkpt>
      <trkpt lat="44.78216" lon="5.47579">
        <ele>1618</ele>
        <time>2024-05-24T11:34:06Z</time>
      </trkpt>
      <trkpt lat="44.78212" lon="5.47566">
        <ele>1618</ele>
        <time>2024-05-24T11:34:52Z</time>
      </trkpt>
      <trkpt lat="44.78215" lon="5.47554">
        <ele>1618</ele>
        <time>2024-05-24T11:35:01Z</time>
      </trkpt>
      <trkpt lat="44.78215" lon="5.47531">
        <ele>1620</ele>
        <time>2024-05-24T11:35:22Z</time>
      </trkpt>
      <trkpt lat="44.78216" lon="5.47518">
        <ele>1621</ele>
        <time>2024-05-24T11:35:30Z</time>
      </trkpt>
      <trkpt lat="44.78217" lon="5.47493">
        <ele>1623</ele>
        <time>2024-05-24T11:35:50Z</time>
      </trkpt>
      <trkpt lat="44.78212" lon="5.47483">
        <ele>1624</ele>
        <time>2024-05-24T11:36:01Z</time>
      </trkpt>
      <trkpt lat="44.78207" lon="5.47471">
        <ele>1625</ele>
        <time>2024-05-24T11:36:10Z</time>
      </trkpt>
      <trkpt lat="44.78199" lon="5.47451">
        <ele>1625</ele>
        <time>2024-05-24T11:36:40Z</time>
      </trkpt>
      <trkpt lat="44.78198" lon="5.47439">
        <ele>1624</ele>
        <time>2024-05-24T11:36:49Z</time>
      </trkpt>
      <trkpt lat="44.78198" lon="5.47425">
        <ele>1624</ele>
        <time>2024-05-24T11:36:58Z</time>
      </trkpt>
      <trkpt lat="44.78192" lon="5.47415">
        <ele>1625</ele>
        <time>2024-05-24T11:37:12Z</time>
      </trkpt>
      <trkpt lat="44.78188" lon="5.47404">
        <ele>1626</ele>
        <time>2024-05-24T11:37:27Z</time>
      </trkpt>
      <trkpt lat="44.78182" lon="5.47393">
        <ele>1629</ele>
        <time>2024-05-24T11:37:52Z</time>
      </trkpt>
      <trkpt lat="44.78173" lon="5.47394">
        <ele>1629</ele>
        <time>2024-05-24T11:38:06Z</time>
      </trkpt>
      <trkpt lat="44.78158" lon="5.47385">
        <ele>1631</ele>
        <time>2024-05-24T11:38:29Z</time>
      </trkpt>
      <trkpt lat="44.78149" lon="5.47407">
        <ele>1631</ele>
        <time>2024-05-24T11:38:50Z</time>
      </trkpt>
      <trkpt lat="44.7814" lon="5.47411">
        <ele>1631</ele>
        <time>2024-05-24T11:38:58Z</time>
      </trkpt>
      <trkpt lat="44.78131" lon="5.47413">
        <ele>1630</ele>
        <time>2024-05-24T11:39:06Z</time>
      </trkpt>
      <trkpt lat="44.78122" lon="5.4742">
        <ele>1629</ele>
        <time>2024-05-24T11:39:15Z</time>
      </trkpt>
      <trkpt lat="44.78107" lon="5.47433">
        <ele>1629</ele>
        <time>2024-05-24T11:39:33Z</time>
      </trkpt>
      <trkpt lat="44.781" lon="5.47441">
        <ele>1629</ele>
        <time>2024-05-24T11:39:44Z</time>
      </trkpt>
      <trkpt lat="44.78091" lon="5.47446">
        <ele>1628</ele>
        <time>2024-05-24T11:39:55Z</time>
      </trkpt>
      <trkpt lat="44.78075" lon="5.47457">
        <ele>1627</ele>
        <time>2024-05-24T11:40:15Z</time>
      </trkpt>
      <trkpt lat="44.78066" lon="5.47463">
        <ele>1626</ele>
        <time>2024-05-24T11:40:25Z</time>
      </trkpt>
      <trkpt lat="44.78057" lon="5.47464">
        <ele>1625</ele>
        <time>2024-05-24T11:40:33Z</time>
      </trkpt>
      <trkpt lat="44.78048" lon="5.47468">
        <ele>1624</ele>
        <time>2024-05-24T11:40:44Z</time>
      </trkpt>
      <trkpt lat="44.78039" lon="5.47473">
        <ele>1624</ele>
        <time>2024-05-24T11:40:51Z</time>
      </trkpt>
      <trkpt lat="44.78024" lon="5.47461">
        <ele>1623</ele>
        <time>2024-05-24T11:41:14Z</time>
      </trkpt>
      <trkpt lat="44.78015" lon="5.4746">
        <ele>1623</ele>
        <time>2024-05-24T11:42:06Z</time>
      </trkpt>
      <trkpt lat="44.78009" lon="5.47471">
        <ele>1622</ele>
        <time>2024-05-24T11:42:25Z</time>
      </trkpt>
      <trkpt lat="44.78006" lon="5.47484">
        <ele>1621</ele>
        <time>2024-05-24T11:42:33Z</time>
      </trkpt>
      <trkpt lat="44.77998" lon="5.4749">
        <ele>1619</ele>
        <time>2024-05-24T11:42:48Z</time>
      </trkpt>
      <trkpt lat="44.77989" lon="5.47493">
        <ele>1618</ele>
        <time>2024-05-24T11:42:59Z</time>
      </trkpt>
      <trkpt lat="44.7798" lon="5.4749">
        <ele>1617</ele>
        <time>2024-05-24T11:43:12Z</time>
      </trkpt>
      <trkpt lat="44.77976" lon="5.47495">
        <ele>1617</ele>
        <time>2024-05-24T11:43:59Z</time>
      </trkpt>
      <trkpt lat="44.77971" lon="5.47496">
        <ele>1617</ele>
        <time>2024-05-24T11:45:15Z</time>
      </trkpt>
      <trkpt lat="44.77975" lon="5.47493">
        <ele>1617</ele>
        <time>2024-05-24T11:46:38Z</time>
      </trkpt>
      <trkpt lat="44.77963" lon="5.47495">
        <ele>1618</ele>
        <time>2024-05-24T11:47:46Z</time>
      </trkpt>
      <trkpt lat="44.77947" lon="5.4749">
        <ele>1619</ele>
        <time>2024-05-24T11:48:03Z</time>
      </trkpt>
      <trkpt lat="44.7793" lon="5.47502">
        <ele>1619</ele>
        <time>2024-05-24T11:48:23Z</time>
      </trkpt>
      <trkpt lat="44.7792" lon="5.47504">
        <ele>1619</ele>
        <time>2024-05-24T11:48:31Z</time>
      </trkpt>
      <trkpt lat="44.77911" lon="5.47503">
        <ele>1619</ele>
        <time>2024-05-24T11:48:41Z</time>
      </trkpt>
      <trkpt lat="44.77901" lon="5.47504">
        <ele>1619</ele>
        <time>2024-05-24T11:48:50Z</time>
      </trkpt>
      <trkpt lat="44.77892" lon="5.4751">
        <ele>1618</ele>
        <time>2024-05-24T11:48:57Z</time>
      </trkpt>
      <trkpt lat="44.77874" lon="5.47502">
        <ele>1618</ele>
        <time>2024-05-24T11:49:15Z</time>
      </trkpt>
      <trkpt lat="44.77866" lon="5.47497">
        <ele>1618</ele>
        <time>2024-05-24T11:49:23Z</time>
      </trkpt>
      <trkpt lat="44.77858" lon="5.4749">
        <ele>1618</ele>
        <time>2024-05-24T11:49:34Z</time>
      </trkpt>
      <trkpt lat="44.7785" lon="5.47483">
        <ele>1619</ele>
        <time>2024-05-24T11:49:44Z</time>
      </trkpt>
      <trkpt lat="44.77842" lon="5.47474">
        <ele>1618</ele>
        <time>2024-05-24T11:49:52Z</time>
      </trkpt>
      <trkpt lat="44.77834" lon="5.47468">
        <ele>1618</ele>
        <time>2024-05-24T11:50:03Z</time>
      </trkpt>
      <trkpt lat="44.77825" lon="5.47465">
        <ele>1618</ele>
        <time>2024-05-24T11:50:13Z</time>
      </trkpt>
      <trkpt lat="44.77816" lon="5.47464">
        <ele>1618</ele>
        <time>2024-05-24T11:50:21Z</time>
      </trkpt>
      <trkpt lat="44.77806" lon="5.47461">
        <ele>1618</ele>
        <time>2024-05-24T11:50:33Z</time>
      </trkpt>
      <trkpt lat="44.77797" lon="5.47464">
        <ele>1618</ele>
        <time>2024-05-24T11:50:40Z</time>
      </trkpt>
      <trkpt lat="44.77781" lon="5.47462">
        <ele>1617</ele>
        <time>2024-05-24T11:50:59Z</time>
      </trkpt>
      <trkpt lat="44.77766" lon="5.4747">
        <ele>1617</ele>
        <time>2024-05-24T11:51:17Z</time>
      </trkpt>
      <trkpt lat="44.77758" lon="5.47477">
        <ele>1617</ele>
        <time>2024-05-24T11:51:24Z</time>
      </trkpt>
      <trkpt lat="44.7775" lon="5.47485">
        <ele>1617</ele>
        <time>2024-05-24T11:51:33Z</time>
      </trkpt>
      <trkpt lat="44.77742" lon="5.4749">
        <ele>1617</ele>
        <time>2024-05-24T11:51:42Z</time>
      </trkpt>
      <trkpt lat="44.77735" lon="5.47499">
        <ele>1617</ele>
        <time>2024-05-24T11:51:50Z</time>
      </trkpt>
      <trkpt lat="44.77718" lon="5.47497">
        <ele>1617</ele>
        <time>2024-05-24T11:52:22Z</time>
      </trkpt>
      <trkpt lat="44.77708" lon="5.47498">
        <ele>1617</ele>
        <time>2024-05-24T11:52:36Z</time>
      </trkpt>
      <trkpt lat="44.77702" lon="5.47508">
        <ele>1617</ele>
        <time>2024-05-24T11:52:42Z</time>
      </trkpt>
      <trkpt lat="44.77694" lon="5.47515">
        <ele>1617</ele>
        <time>2024-05-24T11:52:50Z</time>
      </trkpt>
      <trkpt lat="44.77687" lon="5.47523">
        <ele>1617</ele>
        <time>2024-05-24T11:52:57Z</time>
      </trkpt>
      <trkpt lat="44.77681" lon="5.47533">
        <ele>1617</ele>
        <time>2024-05-24T11:53:04Z</time>
      </trkpt>
      <trkpt lat="44.77676" lon="5.47545">
        <ele>1617</ele>
        <time>2024-05-24T11:53:12Z</time>
      </trkpt>
      <trkpt lat="44.77669" lon="5.47555">
        <ele>1617</ele>
        <time>2024-05-24T11:53:22Z</time>
      </trkpt>
      <trkpt lat="44.7766" lon="5.47557">
        <ele>1617</ele>
        <time>2024-05-24T11:53:32Z</time>
      </trkpt>
      <trkpt lat="44.77651" lon="5.47563">
        <ele>1617</ele>
        <time>2024-05-24T11:53:41Z</time>
      </trkpt>
      <trkpt lat="44.7764" lon="5.47582">
        <ele>1616</ele>
        <time>2024-05-24T11:53:58Z</time>
      </trkpt>
      <trkpt lat="44.77635" lon="5.47594">
        <ele>1615</ele>
        <time>2024-05-24T11:54:08Z</time>
      </trkpt>
      <trkpt lat="44.7763" lon="5.47605">
        <ele>1615</ele>
        <time>2024-05-24T11:54:21Z</time>
      </trkpt>
      <trkpt lat="44.77622" lon="5.47627">
        <ele>1612</ele>
        <time>2024-05-24T11:54:48Z</time>
      </trkpt>
      <trkpt lat="44.77615" lon="5.47635">
        <ele>1611</ele>
        <time>2024-05-24T11:55:03Z</time>
      </trkpt>
      <trkpt lat="44.77607" lon="5.47641">
        <ele>1609</ele>
        <time>2024-05-24T11:55:16Z</time>
      </trkpt>
      <trkpt lat="44.77603" lon="5.47653">
        <ele>1609</ele>
        <time>2024-05-24T11:55:25Z</time>
      </trkpt>
      <trkpt lat="44.77601" lon="5.47666">
        <ele>1609</ele>
        <time>2024-05-24T11:55:34Z</time>
      </trkpt>
      <trkpt lat="44.77596" lon="5.47676">
        <ele>1609</ele>
        <time>2024-05-24T11:55:45Z</time>
      </trkpt>
      <trkpt lat="44.77589" lon="5.47684">
        <ele>1610</ele>
        <time>2024-05-24T11:55:59Z</time>
      </trkpt>
      <trkpt lat="44.77578" lon="5.47704">
        <ele>1610</ele>
        <time>2024-05-24T11:56:20Z</time>
      </trkpt>
      <trkpt lat="44.77567" lon="5.47723">
        <ele>1609</ele>
        <time>2024-05-24T11:56:43Z</time>
      </trkpt>
      <trkpt lat="44.77558" lon="5.47727">
        <ele>1610</ele>
        <time>2024-05-24T11:56:55Z</time>
      </trkpt>
      <trkpt lat="44.7755" lon="5.47734">
        <ele>1610</ele>
        <time>2024-05-24T11:57:03Z</time>
      </trkpt>
      <trkpt lat="44.77541" lon="5.47739">
        <ele>1609</ele>
        <time>2024-05-24T11:57:11Z</time>
      </trkpt>
      <trkpt lat="44.77532" lon="5.4774">
        <ele>1609</ele>
        <time>2024-05-24T11:57:23Z</time>
      </trkpt>
      <trkpt lat="44.77523" lon="5.47744">
        <ele>1609</ele>
        <time>2024-05-24T11:57:34Z</time>
      </trkpt>
      <trkpt lat="44.77506" lon="5.47747">
        <ele>1608</ele>
        <time>2024-05-24T11:57:59Z</time>
      </trkpt>
      <trkpt lat="44.77489" lon="5.47746">
        <ele>1608</ele>
        <time>2024-05-24T11:58:19Z</time>
      </trkpt>
      <trkpt lat="44.7748" lon="5.47748">
        <ele>1609</ele>
        <time>2024-05-24T11:58:27Z</time>
      </trkpt>
      <trkpt lat="44.7747" lon="5.47749">
        <ele>1609</ele>
        <time>2024-05-24T11:58:35Z</time>
      </trkpt>
      <trkpt lat="44.77462" lon="5.47743">
        <ele>1608</ele>
        <time>2024-05-24T11:58:46Z</time>
      </trkpt>
      <trkpt lat="44.77445" lon="5.47742">
        <ele>1608</ele>
        <time>2024-05-24T11:59:02Z</time>
      </trkpt>
      <trkpt lat="44.77436" lon="5.47746">
        <ele>1607</ele>
        <time>2024-05-24T11:59:12Z</time>
      </trkpt>
      <trkpt lat="44.77427" lon="5.47751">
        <ele>1606</ele>
        <time>2024-05-24T11:59:29Z</time>
      </trkpt>
      <trkpt lat="44.77418" lon="5.47749">
        <ele>1606</ele>
        <time>2024-05-24T12:01:06Z</time>
      </trkpt>
      <trkpt lat="44.77403" lon="5.47746">
        <ele>1605</ele>
        <time>2024-05-24T12:01:46Z</time>
      </trkpt>
      <trkpt lat="44.77394" lon="5.47742">
        <ele>1605</ele>
        <time>2024-05-24T12:01:58Z</time>
      </trkpt>
      <trkpt lat="44.77385" lon="5.47744">
        <ele>1604</ele>
        <time>2024-05-24T12:02:12Z</time>
      </trkpt>
      <trkpt lat="44.77375" lon="5.47753">
        <ele>1603</ele>
        <time>2024-05-24T12:03:26Z</time>
      </trkpt>
      <trkpt lat="44.77359" lon="5.47766">
        <ele>1603</ele>
        <time>2024-05-24T12:03:51Z</time>
      </trkpt>
      <trkpt lat="44.77349" lon="5.47786">
        <ele>1602</ele>
        <time>2024-05-24T12:04:18Z</time>
      </trkpt>
      <trkpt lat="44.77342" lon="5.47793">
        <ele>1603</ele>
        <time>2024-05-24T12:04:31Z</time>
      </trkpt>
      <trkpt lat="44.77335" lon="5.47801">
        <ele>1603</ele>
        <time>2024-05-24T12:04:39Z</time>
      </trkpt>
      <trkpt lat="44.77328" lon="5.4781">
        <ele>1603</ele>
        <time>2024-05-24T12:04:50Z</time>
      </trkpt>
      <trkpt lat="44.77323" lon="5.47821">
        <ele>1603</ele>
        <time>2024-05-24T12:05:02Z</time>
      </trkpt>
      <trkpt lat="44.77317" lon="5.47832">
        <ele>1603</ele>
        <time>2024-05-24T12:05:12Z</time>
      </trkpt>
      <trkpt lat="44.77312" lon="5.47842">
        <ele>1603</ele>
        <time>2024-05-24T12:05:23Z</time>
      </trkpt>
      <trkpt lat="44.77307" lon="5.47855">
        <ele>1604</ele>
        <time>2024-05-24T12:05:32Z</time>
      </trkpt>
      <trkpt lat="44.77301" lon="5.47865">
        <ele>1604</ele>
        <time>2024-05-24T12:05:47Z</time>
      </trkpt>
      <trkpt lat="44.77292" lon="5.47873">
        <ele>1603</ele>
        <time>2024-05-24T12:05:56Z</time>
      </trkpt>
      <trkpt lat="44.77285" lon="5.47882">
        <ele>1603</ele>
        <time>2024-05-24T12:06:05Z</time>
      </trkpt>
      <trkpt lat="44.77277" lon="5.47889">
        <ele>1603</ele>
        <time>2024-05-24T12:06:13Z</time>
      </trkpt>
      <trkpt lat="44.7727" lon="5.47898">
        <ele>1602</ele>
        <time>2024-05-24T12:06:22Z</time>
      </trkpt>
      <trkpt lat="44.77262" lon="5.47904">
        <ele>1602</ele>
        <time>2024-05-24T12:06:32Z</time>
      </trkpt>
      <trkpt lat="44.77256" lon="5.47913">
        <ele>1601</ele>
        <time>2024-05-24T12:06:40Z</time>
      </trkpt>
      <trkpt lat="44.77247" lon="5.47919">
        <ele>1601</ele>
        <time>2024-05-24T12:06:51Z</time>
      </trkpt>
      <trkpt lat="44.7723" lon="5.47923">
        <ele>1600</ele>
        <time>2024-05-24T12:07:19Z</time>
      </trkpt>
      <trkpt lat="44.77224" lon="5.47914">
        <ele>1598</ele>
        <time>2024-05-24T12:07:56Z</time>
      </trkpt>
      <trkpt lat="44.77212" lon="5.47923">
        <ele>1595</ele>
        <time>2024-05-24T12:10:09Z</time>
      </trkpt>
      <trkpt lat="44.772" lon="5.47922">
        <ele>1590</ele>
        <time>2024-05-24T12:10:36Z</time>
      </trkpt>
      <trkpt lat="44.77185" lon="5.47916">
        <ele>1586</ele>
        <time>2024-05-24T12:11:04Z</time>
      </trkpt>
      <trkpt lat="44.77179" lon="5.47906">
        <ele>1583</ele>
        <time>2024-05-24T12:11:17Z</time>
      </trkpt>
      <trkpt lat="44.77165" lon="5.47891">
        <ele>1579</ele>
        <time>2024-05-24T12:11:45Z</time>
      </trkpt>
      <trkpt lat="44.77149" lon="5.47882">
        <ele>1575</ele>
        <time>2024-05-24T12:12:23Z</time>
      </trkpt>
      <trkpt lat="44.77142" lon="5.47873">
        <ele>1574</ele>
        <time>2024-05-24T12:12:32Z</time>
      </trkpt>
      <trkpt lat="44.77125" lon="5.47872">
        <ele>1572</ele>
        <time>2024-05-24T12:12:55Z</time>
      </trkpt>
      <trkpt lat="44.77115" lon="5.4787">
        <ele>1570</ele>
        <time>2024-05-24T12:13:05Z</time>
      </trkpt>
      <trkpt lat="44.77108" lon="5.47862">
        <ele>1569</ele>
        <time>2024-05-24T12:13:16Z</time>
      </trkpt>
      <trkpt lat="44.77101" lon="5.47855">
        <ele>1567</ele>
        <time>2024-05-24T12:13:34Z</time>
      </trkpt>
      <trkpt lat="44.77092" lon="5.47858">
        <ele>1566</ele>
        <time>2024-05-24T12:13:47Z</time>
      </trkpt>
      <trkpt lat="44.77095" lon="5.47874">
        <ele>1560</ele>
        <time>2024-05-24T12:14:35Z</time>
      </trkpt>
      <trkpt lat="44.77101" lon="5.47884">
        <ele>1558</ele>
        <time>2024-05-24T12:14:45Z</time>
      </trkpt>
      <trkpt lat="44.77112" lon="5.47903">
        <ele>1550</ele>
        <time>2024-05-24T12:15:29Z</time>
      </trkpt>
      <trkpt lat="44.77116" lon="5.47914">
        <ele>1548</ele>
        <time>2024-05-24T12:15:43Z</time>
      </trkpt>
      <trkpt lat="44.77123" lon="5.47923">
        <ele>1544</ele>
        <time>2024-05-24T12:16:03Z</time>
      </trkpt>
      <trkpt lat="44.77129" lon="5.47934">
        <ele>1543</ele>
        <time>2024-05-24T12:16:10Z</time>
      </trkpt>
      <trkpt lat="44.77118" lon="5.47941">
        <ele>1536</ele>
        <time>2024-05-24T12:16:43Z</time>
      </trkpt>
      <trkpt lat="44.7711" lon="5.47946">
        <ele>1534</ele>
        <time>2024-05-24T12:16:58Z</time>
      </trkpt>
      <trkpt lat="44.77094" lon="5.47943">
        <ele>1529</ele>
        <time>2024-05-24T12:17:28Z</time>
      </trkpt>
      <trkpt lat="44.77076" lon="5.47941">
        <ele>1525</ele>
        <time>2024-05-24T12:17:57Z</time>
      </trkpt>
      <trkpt lat="44.77067" lon="5.47946">
        <ele>1523</ele>
        <time>2024-05-24T12:18:13Z</time>
      </trkpt>
      <trkpt lat="44.77057" lon="5.47939">
        <ele>1519</ele>
        <time>2024-05-24T12:18:58Z</time>
      </trkpt>
      <trkpt lat="44.7705" lon="5.47951">
        <ele>1515</ele>
        <time>2024-05-24T12:19:45Z</time>
      </trkpt>
      <trkpt lat="44.77065" lon="5.47964">
        <ele>1508</ele>
        <time>2024-05-24T12:20:21Z</time>
      </trkpt>
      <trkpt lat="44.77054" lon="5.47975">
        <ele>1502</ele>
        <time>2024-05-24T12:20:57Z</time>
      </trkpt>
      <trkpt lat="44.77045" lon="5.47981">
        <ele>1498</ele>
        <time>2024-05-24T12:21:16Z</time>
      </trkpt>
      <trkpt lat="44.77053" lon="5.47999">
        <ele>1490</ele>
        <time>2024-05-24T12:22:14Z</time>
      </trkpt>
      <trkpt lat="44.77044" lon="5.48">
        <ele>1488</ele>
        <time>2024-05-24T12:22:34Z</time>
      </trkpt>
      <trkpt lat="44.77026" lon="5.48006">
        <ele>1484</ele>
        <time>2024-05-24T12:23:03Z</time>
      </trkpt>
      <trkpt lat="44.77016" lon="5.48024">
        <ele>1475</ele>
        <time>2024-05-24T12:24:05Z</time>
      </trkpt>
      <trkpt lat="44.77025" lon="5.48026">
        <ele>1473</ele>
        <time>2024-05-24T12:24:18Z</time>
      </trkpt>
      <trkpt lat="44.77034" lon="5.48027">
        <ele>1471</ele>
        <time>2024-05-24T12:24:30Z</time>
      </trkpt>
      <trkpt lat="44.77046" lon="5.4804">
        <ele>1463</ele>
        <time>2024-05-24T12:25:19Z</time>
      </trkpt>
      <trkpt lat="44.77053" lon="5.48049">
        <ele>1460</ele>
        <time>2024-05-24T12:25:31Z</time>
      </trkpt>
      <trkpt lat="44.77062" lon="5.48051">
        <ele>1460</ele>
        <time>2024-05-24T12:25:40Z</time>
      </trkpt>
      <trkpt lat="44.7707" lon="5.48059">
        <ele>1458</ele>
        <time>2024-05-24T12:25:50Z</time>
      </trkpt>
      <trkpt lat="44.77065" lon="5.4807">
        <ele>1455</ele>
        <time>2024-05-24T12:26:09Z</time>
      </trkpt>
      <trkpt lat="44.7707" lon="5.48086">
        <ele>1447</ele>
        <time>2024-05-24T12:27:05Z</time>
      </trkpt>
      <trkpt lat="44.77083" lon="5.48101">
        <ele>1441</ele>
        <time>2024-05-24T12:27:50Z</time>
      </trkpt>
      <trkpt lat="44.77077" lon="5.48116">
        <ele>1435</ele>
        <time>2024-05-24T12:28:33Z</time>
      </trkpt>
      <trkpt lat="44.77062" lon="5.48117">
        <ele>1428</ele>
        <time>2024-05-24T12:29:29Z</time>
      </trkpt>
      <trkpt lat="44.77053" lon="5.48141">
        <ele>1420</ele>
        <time>2024-05-24T12:30:15Z</time>
      </trkpt>
      <trkpt lat="44.77058" lon="5.48154">
        <ele>1417</ele>
        <time>2024-05-24T12:31:27Z</time>
      </trkpt>
      <trkpt lat="44.77047" lon="5.48152">
        <ele>1414</ele>
        <time>2024-05-24T12:32:34Z</time>
      </trkpt>
      <trkpt lat="44.77037" lon="5.48153">
        <ele>1412</ele>
        <time>2024-05-24T12:32:50Z</time>
      </trkpt>
      <trkpt lat="44.77028" lon="5.48153">
        <ele>1410</ele>
        <time>2024-05-24T12:33:10Z</time>
      </trkpt>
      <trkpt lat="44.77012" lon="5.48145">
        <ele>1405</ele>
        <time>2024-05-24T12:33:53Z</time>
      </trkpt>
      <trkpt lat="44.77002" lon="5.48144">
        <ele>1403</ele>
        <time>2024-05-24T12:34:06Z</time>
      </trkpt>
      <trkpt lat="44.76993" lon="5.48142">
        <ele>1402</ele>
        <time>2024-05-24T12:34:22Z</time>
      </trkpt>
      <trkpt lat="44.76975" lon="5.48148">
        <ele>1400</ele>
        <time>2024-05-24T12:34:44Z</time>
      </trkpt>
      <trkpt lat="44.76967" lon="5.48152">
        <ele>1399</ele>
        <time>2024-05-24T12:34:56Z</time>
      </trkpt>
      <trkpt lat="44.76958" lon="5.48159">
        <ele>1399</ele>
        <time>2024-05-24T12:35:07Z</time>
      </trkpt>
      <trkpt lat="44.7695" lon="5.48164">
        <ele>1399</ele>
        <time>2024-05-24T12:35:20Z</time>
      </trkpt>
      <trkpt lat="44.7694" lon="5.48168">
        <ele>1399</ele>
        <time>2024-05-24T12:35:29Z</time>
      </trkpt>
      <trkpt lat="44.76931" lon="5.48167">
        <ele>1399</ele>
        <time>2024-05-24T12:35:39Z</time>
      </trkpt>
      <trkpt lat="44.76922" lon="5.48167">
        <ele>1398</ele>
        <time>2024-05-24T12:35:53Z</time>
      </trkpt>
      <trkpt lat="44.76905" lon="5.48161">
        <ele>1396</ele>
        <time>2024-05-24T12:36:18Z</time>
      </trkpt>
      <trkpt lat="44.76896" lon="5.48159">
        <ele>1395</ele>
        <time>2024-05-24T12:36:27Z</time>
      </trkpt>
      <trkpt lat="44.76878" lon="5.48156">
        <ele>1394</ele>
        <time>2024-05-24T12:36:48Z</time>
      </trkpt>
      <trkpt lat="44.76868" lon="5.48151">
        <ele>1391</ele>
        <time>2024-05-24T12:37:05Z</time>
      </trkpt>
      <trkpt lat="44.76859" lon="5.4815">
        <ele>1390</ele>
        <time>2024-05-24T12:37:14Z</time>
      </trkpt>
      <trkpt lat="44.76849" lon="5.48151">
        <ele>1389</ele>
        <time>2024-05-24T12:37:22Z</time>
      </trkpt>
      <trkpt lat="44.7684" lon="5.48156">
        <ele>1389</ele>
        <time>2024-05-24T12:37:28Z</time>
      </trkpt>
      <trkpt lat="44.7683" lon="5.48154">
        <ele>1388</ele>
        <time>2024-05-24T12:37:41Z</time>
      </trkpt>
      <trkpt lat="44.76812" lon="5.48153">
        <ele>1387</ele>
        <time>2024-05-24T12:38:00Z</time>
      </trkpt>
      <trkpt lat="44.76802" lon="5.48154">
        <ele>1386</ele>
        <time>2024-05-24T12:38:06Z</time>
      </trkpt>
      <trkpt lat="44.76793" lon="5.48155">
        <ele>1386</ele>
        <time>2024-05-24T12:38:17Z</time>
      </trkpt>
      <trkpt lat="44.76783" lon="5.48156">
        <ele>1387</ele>
        <time>2024-05-24T12:38:29Z</time>
      </trkpt>
      <trkpt lat="44.76774" lon="5.48155">
        <ele>1387</ele>
        <time>2024-05-24T12:38:39Z</time>
      </trkpt>
      <trkpt lat="44.76765" lon="5.48154">
        <ele>1387</ele>
        <time>2024-05-24T12:38:53Z</time>
      </trkpt>
      <trkpt lat="44.76756" lon="5.48151">
        <ele>1387</ele>
        <time>2024-05-24T12:39:04Z</time>
      </trkpt>
      <trkpt lat="44.76747" lon="5.48151">
        <ele>1388</ele>
        <time>2024-05-24T12:39:15Z</time>
      </trkpt>
      <trkpt lat="44.76737" lon="5.48146">
        <ele>1386</ele>
        <time>2024-05-24T12:39:26Z</time>
      </trkpt>
      <trkpt lat="44.76722" lon="5.48132">
        <ele>1380</ele>
        <time>2024-05-24T12:39:58Z</time>
      </trkpt>
      <trkpt lat="44.76705" lon="5.48135">
        <ele>1378</ele>
        <time>2024-05-24T12:40:24Z</time>
      </trkpt>
      <trkpt lat="44.76697" lon="5.48129">
        <ele>1377</ele>
        <time>2024-05-24T12:40:35Z</time>
      </trkpt>
      <trkpt lat="44.76689" lon="5.48122">
        <ele>1377</ele>
        <time>2024-05-24T12:40:42Z</time>
      </trkpt>
      <trkpt lat="44.7668" lon="5.48119">
        <ele>1377</ele>
        <time>2024-05-24T12:40:51Z</time>
      </trkpt>
      <trkpt lat="44.76675" lon="5.48109">
        <ele>1376</ele>
        <time>2024-05-24T12:41:01Z</time>
      </trkpt>
      <trkpt lat="44.7666" lon="5.48096">
        <ele>1375</ele>
        <time>2024-05-24T12:41:31Z</time>
      </trkpt>
      <trkpt lat="44.76651" lon="5.48093">
        <ele>1374</ele>
        <time>2024-05-24T12:41:50Z</time>
      </trkpt>
      <trkpt lat="44.76642" lon="5.48094">
        <ele>1373</ele>
        <time>2024-05-24T12:41:58Z</time>
      </trkpt>
      <trkpt lat="44.76632" lon="5.48095">
        <ele>1373</ele>
        <time>2024-05-24T12:42:21Z</time>
      </trkpt>
      <trkpt lat="44.76623" lon="5.48097">
        <ele>1373</ele>
        <time>2024-05-24T12:42:39Z</time>
      </trkpt>
      <trkpt lat="44.76614" lon="5.481">
        <ele>1372</ele>
        <time>2024-05-24T12:42:51Z</time>
      </trkpt>
      <trkpt lat="44.76605" lon="5.481">
        <ele>1372</ele>
        <time>2024-05-24T12:43:05Z</time>
      </trkpt>
      <trkpt lat="44.76602" lon="5.48112">
        <ele>1372</ele>
        <time>2024-05-24T12:43:32Z</time>
      </trkpt>
      <trkpt lat="44.76592" lon="5.48114">
        <ele>1372</ele>
        <time>2024-05-24T12:43:43Z</time>
      </trkpt>
      <trkpt lat="44.76579" lon="5.48099">
        <ele>1371</ele>
        <time>2024-05-24T12:44:10Z</time>
      </trkpt>
      <trkpt lat="44.76571" lon="5.48091">
        <ele>1369</ele>
        <time>2024-05-24T12:44:22Z</time>
      </trkpt>
      <trkpt lat="44.76563" lon="5.48087">
        <ele>1368</ele>
        <time>2024-05-24T12:44:31Z</time>
      </trkpt>
      <trkpt lat="44.76557" lon="5.48078">
        <ele>1367</ele>
        <time>2024-05-24T12:44:47Z</time>
      </trkpt>
      <trkpt lat="44.76548" lon="5.48076">
        <ele>1367</ele>
        <time>2024-05-24T12:45:02Z</time>
      </trkpt>
      <trkpt lat="44.76538" lon="5.48076">
        <ele>1367</ele>
        <time>2024-05-24T12:45:16Z</time>
      </trkpt>
      <trkpt lat="44.76529" lon="5.48074">
        <ele>1368</ele>
        <time>2024-05-24T12:45:31Z</time>
      </trkpt>
      <trkpt lat="44.7652" lon="5.48072">
        <ele>1368</ele>
        <time>2024-05-24T12:45:43Z</time>
      </trkpt>
      <trkpt lat="44.76511" lon="5.4807">
        <ele>1365</ele>
        <time>2024-05-24T12:46:17Z</time>
      </trkpt>
      <trkpt lat="44.76502" lon="5.48066">
        <ele>1364</ele>
        <time>2024-05-24T12:46:25Z</time>
      </trkpt>
      <trkpt lat="44.76493" lon="5.48062">
        <ele>1364</ele>
        <time>2024-05-24T12:46:35Z</time>
      </trkpt>
      <trkpt lat="44.76476" lon="5.4807">
        <ele>1362</ele>
        <time>2024-05-24T12:47:11Z</time>
      </trkpt>
      <trkpt lat="44.76466" lon="5.48071">
        <ele>1362</ele>
        <time>2024-05-24T12:47:19Z</time>
      </trkpt>
      <trkpt lat="44.7645" lon="5.48076">
        <ele>1359</ele>
        <time>2024-05-24T12:47:49Z</time>
      </trkpt>
      <trkpt lat="44.76441" lon="5.48076">
        <ele>1358</ele>
        <time>2024-05-24T12:48:04Z</time>
      </trkpt>
      <trkpt lat="44.76428" lon="5.48077">
        <ele>1355</ele>
        <time>2024-05-24T12:49:19Z</time>
      </trkpt>
      <trkpt lat="44.76207" lon="5.48385">
        <ele>1333</ele>
        <time>2024-05-24T12:57:28Z</time>
      </trkpt>
      <trkpt lat="44.76215" lon="5.48396">
        <ele>1333</ele>
        <time>2024-05-24T12:57:31Z</time>
      </trkpt>
      <trkpt lat="44.76208" lon="5.48414">
        <ele>1333</ele>
        <time>2024-05-24T12:57:46Z</time>
      </trkpt>
      <trkpt lat="44.76199" lon="5.48418">
        <ele>1332</ele>
        <time>2024-05-24T12:57:56Z</time>
      </trkpt>
      <trkpt lat="44.76137" lon="5.48462">
        <ele>1327</ele>
        <time>2024-05-24T12:59:23Z</time>
      </trkpt>
      <trkpt lat="44.76126" lon="5.4846">
        <ele>1327</ele>
        <time>2024-05-24T12:59:26Z</time>
      </trkpt>
      <trkpt lat="44.76117" lon="5.4846">
        <ele>1327</ele>
        <time>2024-05-24T12:59:33Z</time>
      </trkpt>
      <trkpt lat="44.76107" lon="5.48464">
        <ele>1327</ele>
        <time>2024-05-24T12:59:40Z</time>
      </trkpt>
      <trkpt lat="44.76098" lon="5.48477">
        <ele>1327</ele>
        <time>2024-05-24T12:59:59Z</time>
      </trkpt>
      <trkpt lat="44.75818" lon="5.48599">
        <ele>1265</ele>
        <time>2024-05-24T13:08:44Z</time>
      </trkpt>
      <trkpt lat="44.75809" lon="5.48602">
        <ele>1263</ele>
        <time>2024-05-24T13:08:54Z</time>
      </trkpt>
      <trkpt lat="44.758" lon="5.486">
        <ele>1261</ele>
        <time>2024-05-24T13:09:05Z</time>
      </trkpt>
      <trkpt lat="44.7579" lon="5.48601">
        <ele>1259</ele>
        <time>2024-05-24T13:09:13Z</time>
      </trkpt>
      <trkpt lat="44.75781" lon="5.48604">
        <ele>1257</ele>
        <time>2024-05-24T13:09:23Z</time>
      </trkpt>
      <trkpt lat="44.75772" lon="5.48606">
        <ele>1254</ele>
        <time>2024-05-24T13:09:36Z</time>
      </trkpt>
      <trkpt lat="44.75762" lon="5.48605">
        <ele>1252</ele>
        <time>2024-05-24T13:09:49Z</time>
      </trkpt>
      <trkpt lat="44.75753" lon="5.48611">
        <ele>1247</ele>
        <time>2024-05-24T13:10:15Z</time>
      </trkpt>
      <trkpt lat="44.75737" lon="5.48621">
        <ele>1241</ele>
        <time>2024-05-24T13:10:45Z</time>
      </trkpt>
      <trkpt lat="44.75727" lon="5.48637">
        <ele>1235</ele>
        <time>2024-05-24T13:11:16Z</time>
      </trkpt>
      <trkpt lat="44.75714" lon="5.48655">
        <ele>1231</ele>
        <time>2024-05-24T13:11:42Z</time>
      </trkpt>
      <trkpt lat="44.75706" lon="5.48667">
        <ele>1227</ele>
        <time>2024-05-24T13:16:56Z</time>
      </trkpt>
      <trkpt lat="44.75695" lon="5.48668">
        <ele>1223</ele>
        <time>2024-05-24T13:17:56Z</time>
      </trkpt>
      <trkpt lat="44.75687" lon="5.48688">
        <ele>1217</ele>
        <time>2024-05-24T13:18:29Z</time>
      </trkpt>
      <trkpt lat="44.75677" lon="5.48702">
        <ele>1211</ele>
        <time>2024-05-24T13:18:57Z</time>
      </trkpt>
      <trkpt lat="44.7567" lon="5.48711">
        <ele>1208</ele>
        <time>2024-05-24T13:19:13Z</time>
      </trkpt>
      <trkpt lat="44.75653" lon="5.48717">
        <ele>1203</ele>
        <time>2024-05-24T13:19:40Z</time>
      </trkpt>
      <trkpt lat="44.75645" lon="5.48731">
        <ele>1198</ele>
        <time>2024-05-24T13:20:04Z</time>
      </trkpt>
      <trkpt lat="44.75634" lon="5.48744">
        <ele>1193</ele>
        <time>2024-05-24T13:20:28Z</time>
      </trkpt>
      <trkpt lat="44.75627" lon="5.48751">
        <ele>1191</ele>
        <time>2024-05-24T13:20:40Z</time>
      </trkpt>
      <trkpt lat="44.75609" lon="5.48758">
        <ele>1186</ele>
        <time>2024-05-24T13:21:02Z</time>
      </trkpt>
      <trkpt lat="44.75601" lon="5.48777">
        <ele>1182</ele>
        <time>2024-05-24T13:21:29Z</time>
      </trkpt>
      <trkpt lat="44.75599" lon="5.48801">
        <ele>1178</ele>
        <time>2024-05-24T13:21:46Z</time>
      </trkpt>
      <trkpt lat="44.7559" lon="5.48808">
        <ele>1177</ele>
        <time>2024-05-24T13:21:59Z</time>
      </trkpt>
      <trkpt lat="44.75583" lon="5.48817">
        <ele>1175</ele>
        <time>2024-05-24T13:22:10Z</time>
      </trkpt>
      <trkpt lat="44.75575" lon="5.48839">
        <ele>1169</ele>
        <time>2024-05-24T13:22:36Z</time>
      </trkpt>
      <trkpt lat="44.75561" lon="5.48855">
        <ele>1164</ele>
        <time>2024-05-24T13:23:06Z</time>
      </trkpt>
      <trkpt lat="44.75548" lon="5.48869">
        <ele>1158</ele>
        <time>2024-05-24T13:23:36Z</time>
      </trkpt>
      <trkpt lat="44.75541" lon="5.48877">
        <ele>1156</ele>
        <time>2024-05-24T13:23:50Z</time>
      </trkpt>
      <trkpt lat="44.75529" lon="5.48895">
        <ele>1149</ele>
        <time>2024-05-24T13:24:24Z</time>
      </trkpt>
      <trkpt lat="44.75519" lon="5.48912">
        <ele>1145</ele>
        <time>2024-05-24T13:24:48Z</time>
      </trkpt>
      <trkpt lat="44.75512" lon="5.48931">
        <ele>1144</ele>
        <time>2024-05-24T13:25:12Z</time>
      </trkpt>
      <trkpt lat="44.75505" lon="5.48953">
        <ele>1141</ele>
        <time>2024-05-24T13:25:35Z</time>
      </trkpt>
      <trkpt lat="44.755" lon="5.48975">
        <ele>1135</ele>
        <time>2024-05-24T13:26:02Z</time>
      </trkpt>
      <trkpt lat="44.75497" lon="5.48987">
        <ele>1132</ele>
        <time>2024-05-24T13:26:19Z</time>
      </trkpt>
      <trkpt lat="44.7549" lon="5.48996">
        <ele>1129</ele>
        <time>2024-05-24T13:26:34Z</time>
      </trkpt>
      <trkpt lat="44.75487" lon="5.49008">
        <ele>1125</ele>
        <time>2024-05-24T13:26:49Z</time>
      </trkpt>
      <trkpt lat="44.75478" lon="5.49026">
        <ele>1118</ele>
        <time>2024-05-24T13:27:21Z</time>
      </trkpt>
      <trkpt lat="44.7547" lon="5.49034">
        <ele>1116</ele>
        <time>2024-05-24T13:27:34Z</time>
      </trkpt>
      <trkpt lat="44.75463" lon="5.49053">
        <ele>1111</ele>
        <time>2024-05-24T13:28:00Z</time>
      </trkpt>
      <trkpt lat="44.75459" lon="5.49064">
        <ele>1108</ele>
        <time>2024-05-24T13:28:13Z</time>
      </trkpt>
      <trkpt lat="44.75456" lon="5.49076">
        <ele>1105</ele>
        <time>2024-05-24T13:28:30Z</time>
      </trkpt>
      <trkpt lat="44.75447" lon="5.4908">
        <ele>1102</ele>
        <time>2024-05-24T13:28:42Z</time>
      </trkpt>
      <trkpt lat="44.75438" lon="5.49079">
        <ele>1099</ele>
        <time>2024-05-24T13:28:58Z</time>
      </trkpt>
      <trkpt lat="44.75431" lon="5.49071">
        <ele>1097</ele>
        <time>2024-05-24T13:29:14Z</time>
      </trkpt>
      <trkpt lat="44.75415" lon="5.49078">
        <ele>1091</ele>
        <time>2024-05-24T13:29:48Z</time>
      </trkpt>
      <trkpt lat="44.75411" lon="5.49066">
        <ele>1089</ele>
        <time>2024-05-24T13:30:00Z</time>
      </trkpt>
      <trkpt lat="44.7541" lon="5.49053">
        <ele>1088</ele>
        <time>2024-05-24T13:30:10Z</time>
      </trkpt>
      <trkpt lat="44.75406" lon="5.49041">
        <ele>1084</ele>
        <time>2024-05-24T13:30:26Z</time>
      </trkpt>
      <trkpt lat="44.75399" lon="5.49057">
        <ele>1080</ele>
        <time>2024-05-24T13:30:57Z</time>
      </trkpt>
      <trkpt lat="44.7539" lon="5.49071">
        <ele>1075</ele>
        <time>2024-05-24T13:31:46Z</time>
      </trkpt>
      <trkpt lat="44.75384" lon="5.49094">
        <ele>1069</ele>
        <time>2024-05-24T13:32:20Z</time>
      </trkpt>
      <trkpt lat="44.7538" lon="5.49105">
        <ele>1067</ele>
        <time>2024-05-24T13:32:35Z</time>
      </trkpt>
      <trkpt lat="44.75379" lon="5.49118">
        <ele>1064</ele>
        <time>2024-05-24T13:32:50Z</time>
      </trkpt>
      <trkpt lat="44.75382" lon="5.4913">
        <ele>1062</ele>
        <time>2024-05-24T13:33:01Z</time>
      </trkpt>
      <trkpt lat="44.75382" lon="5.49154">
        <ele>1056</ele>
        <time>2024-05-24T13:33:31Z</time>
      </trkpt>
      <trkpt lat="44.75387" lon="5.49166">
        <ele>1051</ele>
        <time>2024-05-24T13:34:01Z</time>
      </trkpt>
      <trkpt lat="44.75382" lon="5.49181">
        <ele>1047</ele>
        <time>2024-05-24T13:34:28Z</time>
      </trkpt>
      <trkpt lat="44.75373" lon="5.49176">
        <ele>1045</ele>
        <time>2024-05-24T13:34:37Z</time>
      </trkpt>
      <trkpt lat="44.75364" lon="5.49171">
        <ele>1044</ele>
        <time>2024-05-24T13:34:45Z</time>
      </trkpt>
      <trkpt lat="44.75356" lon="5.49182">
        <ele>1037</ele>
        <time>2024-05-24T13:35:16Z</time>
      </trkpt>
      <trkpt lat="44.75345" lon="5.49196">
        <ele>1030</ele>
        <time>2024-05-24T13:35:51Z</time>
      </trkpt>
      <trkpt lat="44.75327" lon="5.49198">
        <ele>1026</ele>
        <time>2024-05-24T13:36:12Z</time>
      </trkpt>
      <trkpt lat="44.75321" lon="5.49208">
        <ele>1024</ele>
        <time>2024-05-24T13:36:24Z</time>
      </trkpt>
      <trkpt lat="44.75315" lon="5.49219">
        <ele>1021</ele>
        <time>2024-05-24T13:36:37Z</time>
      </trkpt>
      <trkpt lat="44.75308" lon="5.49242">
        <ele>1017</ele>
        <time>2024-05-24T13:37:00Z</time>
      </trkpt>
      <trkpt lat="44.75299" lon="5.49234">
        <ele>1014</ele>
        <time>2024-05-24T13:38:40Z</time>
      </trkpt>
      <trkpt lat="44.75303" lon="5.4924">
        <ele>1014</ele>
        <time>2024-05-24T13:39:32Z</time>
      </trkpt>
      <trkpt lat="44.75294" lon="5.49241">
        <ele>1013</ele>
        <time>2024-05-24T13:42:10Z</time>
      </trkpt>
      <trkpt lat="44.7528" lon="5.49246">
        <ele>1007</ele>
        <time>2024-05-24T13:42:47Z</time>
      </trkpt>
      <trkpt lat="44.75268" lon="5.49264">
        <ele>1002</ele>
        <time>2024-05-24T13:43:24Z</time>
      </trkpt>
      <trkpt lat="44.75259" lon="5.49272">
        <ele>999</ele>
        <time>2024-05-24T13:43:37Z</time>
      </trkpt>
      <trkpt lat="44.75253" lon="5.49281">
        <ele>997</ele>
        <time>2024-05-24T13:43:47Z</time>
      </trkpt>
      <trkpt lat="44.75248" lon="5.49293">
        <ele>995</ele>
        <time>2024-05-24T13:44:03Z</time>
      </trkpt>
      <trkpt lat="44.75231" lon="5.49289">
        <ele>989</ele>
        <time>2024-05-24T13:44:27Z</time>
      </trkpt>
      <trkpt lat="44.75218" lon="5.49308">
        <ele>983</ele>
        <time>2024-05-24T13:45:03Z</time>
      </trkpt>
      <trkpt lat="44.75227" lon="5.49327">
        <ele>980</ele>
        <time>2024-05-24T13:45:30Z</time>
      </trkpt>
      <trkpt lat="44.75225" lon="5.4934">
        <ele>978</ele>
        <time>2024-05-24T13:45:49Z</time>
      </trkpt>
      <trkpt lat="44.7522" lon="5.4935">
        <ele>975</ele>
        <time>2024-05-24T13:46:05Z</time>
      </trkpt>
      <trkpt lat="44.75211" lon="5.49362">
        <ele>974</ele>
        <time>2024-05-24T13:46:31Z</time>
      </trkpt>
      <trkpt lat="44.75195" lon="5.49369">
        <ele>971</ele>
        <time>2024-05-24T13:46:54Z</time>
      </trkpt>
      <trkpt lat="44.75186" lon="5.49364">
        <ele>969</ele>
        <time>2024-05-24T13:47:04Z</time>
      </trkpt>
      <trkpt lat="44.75177" lon="5.49362">
        <ele>967</ele>
        <time>2024-05-24T13:47:12Z</time>
      </trkpt>
      <trkpt lat="44.7517" lon="5.49372">
        <ele>965</ele>
        <time>2024-05-24T13:47:21Z</time>
      </trkpt>
      <trkpt lat="44.75168" lon="5.49384">
        <ele>965</ele>
        <time>2024-05-24T13:47:28Z</time>
      </trkpt>
      <trkpt lat="44.75158" lon="5.49406">
        <ele>962</ele>
        <time>2024-05-24T13:47:51Z</time>
      </trkpt>
      <trkpt lat="44.75143" lon="5.49419">
        <ele>958</ele>
        <time>2024-05-24T13:48:14Z</time>
      </trkpt>
      <trkpt lat="44.75134" lon="5.49442">
        <ele>953</ele>
        <time>2024-05-24T13:48:39Z</time>
      </trkpt>
      <trkpt lat="44.75126" lon="5.4943">
        <ele>948</ele>
        <time>2024-05-24T13:49:04Z</time>
      </trkpt>
      <trkpt lat="44.75126" lon="5.49416">
        <ele>946</ele>
        <time>2024-05-24T13:49:15Z</time>
      </trkpt>
      <trkpt lat="44.75124" lon="5.49404">
        <ele>942</ele>
        <time>2024-05-24T13:49:31Z</time>
      </trkpt>
      <trkpt lat="44.75119" lon="5.49393">
        <ele>940</ele>
        <time>2024-05-24T13:49:43Z</time>
      </trkpt>
      <trkpt lat="44.7512" lon="5.4938">
        <ele>938</ele>
        <time>2024-05-24T13:49:55Z</time>
      </trkpt>
      <trkpt lat="44.75115" lon="5.49372">
        <ele>933</ele>
        <time>2024-05-24T13:50:42Z</time>
      </trkpt>
      <trkpt lat="44.75108" lon="5.49381">
        <ele>932</ele>
        <time>2024-05-24T13:50:54Z</time>
      </trkpt>
      <trkpt lat="44.751" lon="5.49389">
        <ele>930</ele>
        <time>2024-05-24T13:51:06Z</time>
      </trkpt>
      <trkpt lat="44.75095" lon="5.494">
        <ele>928</ele>
        <time>2024-05-24T13:51:16Z</time>
      </trkpt>
      <trkpt lat="44.7508" lon="5.49409">
        <ele>925</ele>
        <time>2024-05-24T13:51:40Z</time>
      </trkpt>
      <trkpt lat="44.75067" lon="5.49428">
        <ele>920</ele>
        <time>2024-05-24T13:52:03Z</time>
      </trkpt>
      <trkpt lat="44.75059" lon="5.49434">
        <ele>918</ele>
        <time>2024-05-24T13:52:15Z</time>
      </trkpt>
      <trkpt lat="44.75043" lon="5.49443">
        <ele>912</ele>
        <time>2024-05-24T13:52:42Z</time>
      </trkpt>
      <trkpt lat="44.75036" lon="5.49451">
        <ele>910</ele>
        <time>2024-05-24T13:52:59Z</time>
      </trkpt>
      <trkpt lat="44.75018" lon="5.49453">
        <ele>905</ele>
        <time>2024-05-24T13:53:22Z</time>
      </trkpt>
      <trkpt lat="44.75011" lon="5.49463">
        <ele>903</ele>
        <time>2024-05-24T13:53:33Z</time>
      </trkpt>
      <trkpt lat="44.74998" lon="5.49475">
        <ele>900</ele>
        <time>2024-05-24T13:54:10Z</time>
      </trkpt>
      <trkpt lat="44.74983" lon="5.49482">
        <ele>897</ele>
        <time>2024-05-24T13:54:30Z</time>
      </trkpt>
      <trkpt lat="44.74977" lon="5.49491">
        <ele>893</ele>
        <time>2024-05-24T13:54:49Z</time>
      </trkpt>
      <trkpt lat="44.74971" lon="5.49501">
        <ele>892</ele>
        <time>2024-05-24T13:54:58Z</time>
      </trkpt>
      <trkpt lat="44.74963" lon="5.4951">
        <ele>890</ele>
        <time>2024-05-24T13:55:07Z</time>
      </trkpt>
      <trkpt lat="44.74952" lon="5.49526">
        <ele>885</ele>
        <time>2024-05-24T13:55:45Z</time>
      </trkpt>
      <trkpt lat="44.74938" lon="5.49522">
        <ele>881</ele>
        <time>2024-05-24T13:57:03Z</time>
      </trkpt>
      <trkpt lat="44.74932" lon="5.49541">
        <ele>881</ele>
        <time>2024-05-24T13:59:15Z</time>
      </trkpt>
      <trkpt lat="44.74926" lon="5.49558">
        <ele>876</ele>
        <time>2024-05-24T14:00:09Z</time>
      </trkpt>
      <trkpt lat="44.74926" lon="5.49571">
        <ele>874</ele>
        <time>2024-05-24T14:00:22Z</time>
      </trkpt>
      <trkpt lat="44.74924" lon="5.49584">
        <ele>872</ele>
        <time>2024-05-24T14:00:33Z</time>
      </trkpt>
      <trkpt lat="44.74922" lon="5.49597">
        <ele>870</ele>
        <time>2024-05-24T14:00:42Z</time>
      </trkpt>
      <trkpt lat="44.74917" lon="5.49607">
        <ele>869</ele>
        <time>2024-05-24T14:00:52Z</time>
      </trkpt>
      <trkpt lat="44.74913" lon="5.49619">
        <ele>868</ele>
        <time>2024-05-24T14:01:00Z</time>
      </trkpt>
      <trkpt lat="44.74909" lon="5.49631">
        <ele>866</ele>
        <time>2024-05-24T14:01:09Z</time>
      </trkpt>
      <trkpt lat="44.74909" lon="5.49644">
        <ele>864</ele>
        <time>2024-05-24T14:01:23Z</time>
      </trkpt>
      <trkpt lat="44.74904" lon="5.49655">
        <ele>862</ele>
        <time>2024-05-24T14:01:34Z</time>
      </trkpt>
      <trkpt lat="44.74899" lon="5.49666">
        <ele>860</ele>
        <time>2024-05-24T14:01:45Z</time>
      </trkpt>
      <trkpt lat="44.74892" lon="5.49674">
        <ele>859</ele>
        <time>2024-05-24T14:01:57Z</time>
      </trkpt>
      <trkpt lat="44.74876" lon="5.49686">
        <ele>856</ele>
        <time>2024-05-24T14:02:20Z</time>
      </trkpt>
      <trkpt lat="44.74868" lon="5.49682">
        <ele>854</ele>
        <time>2024-05-24T14:02:31Z</time>
      </trkpt>
      <trkpt lat="44.74858" lon="5.49687">
        <ele>853</ele>
        <time>2024-05-24T14:02:43Z</time>
      </trkpt>
      <trkpt lat="44.7485" lon="5.49694">
        <ele>851</ele>
        <time>2024-05-24T14:02:55Z</time>
      </trkpt>
      <trkpt lat="44.74843" lon="5.49702">
        <ele>849</ele>
        <time>2024-05-24T14:03:04Z</time>
      </trkpt>
      <trkpt lat="44.74835" lon="5.4971">
        <ele>847</ele>
        <time>2024-05-24T14:03:16Z</time>
      </trkpt>
      <trkpt lat="44.7483" lon="5.49721">
        <ele>846</ele>
        <time>2024-05-24T14:03:23Z</time>
      </trkpt>
      <trkpt lat="44.7483" lon="5.49734">
        <ele>844</ele>
        <time>2024-05-24T14:03:36Z</time>
      </trkpt>
      <trkpt lat="44.74829" lon="5.49747">
        <ele>844</ele>
        <time>2024-05-24T14:03:44Z</time>
      </trkpt>
      <trkpt lat="44.74823" lon="5.49758">
        <ele>843</ele>
        <time>2024-05-24T14:03:51Z</time>
      </trkpt>
      <trkpt lat="44.74814" lon="5.49764">
        <ele>843</ele>
        <time>2024-05-24T14:03:59Z</time>
      </trkpt>
      <trkpt lat="44.74808" lon="5.49774">
        <ele>842</ele>
        <time>2024-05-24T14:04:08Z</time>
      </trkpt>
      <trkpt lat="44.74794" lon="5.49788">
        <ele>839</ele>
        <time>2024-05-24T14:04:29Z</time>
      </trkpt>
      <trkpt lat="44.74786" lon="5.49795">
        <ele>837</ele>
        <time>2024-05-24T14:04:41Z</time>
      </trkpt>
      <trkpt lat="44.74782" lon="5.49807">
        <ele>835</ele>
        <time>2024-05-24T14:04:51Z</time>
      </trkpt>
      <trkpt lat="44.74777" lon="5.49818">
        <ele>834</ele>
        <time>2024-05-24T14:05:00Z</time>
      </trkpt>
      <trkpt lat="44.74775" lon="5.49842">
        <ele>830</ele>
        <time>2024-05-24T14:05:21Z</time>
      </trkpt>
      <trkpt lat="44.74765" lon="5.49863">
        <ele>828</ele>
        <time>2024-05-24T14:05:44Z</time>
      </trkpt>
      <trkpt lat="44.74767" lon="5.49876">
        <ele>826</ele>
        <time>2024-05-24T14:05:54Z</time>
      </trkpt>
      <trkpt lat="44.74767" lon="5.49889">
        <ele>825</ele>
        <time>2024-05-24T14:06:02Z</time>
      </trkpt>
      <trkpt lat="44.74767" lon="5.49902">
        <ele>823</ele>
        <time>2024-05-24T14:06:14Z</time>
      </trkpt>
      <trkpt lat="44.74766" lon="5.49915">
        <ele>822</ele>
        <time>2024-05-24T14:06:24Z</time>
      </trkpt>
      <trkpt lat="44.74763" lon="5.49929">
        <ele>821</ele>
        <time>2024-05-24T14:06:33Z</time>
      </trkpt>
      <trkpt lat="44.74763" lon="5.49942">
        <ele>820</ele>
        <time>2024-05-24T14:06:42Z</time>
      </trkpt>
      <trkpt lat="44.74762" lon="5.49955">
        <ele>819</ele>
        <time>2024-05-24T14:06:51Z</time>
      </trkpt>
      <trkpt lat="44.74759" lon="5.49967">
        <ele>818</ele>
        <time>2024-05-24T14:07:02Z</time>
      </trkpt>
      <trkpt lat="44.74759" lon="5.4998">
        <ele>817</ele>
        <time>2024-05-24T14:07:12Z</time>
      </trkpt>
      <trkpt lat="44.74762" lon="5.49994">
        <ele>817</ele>
        <time>2024-05-24T14:07:22Z</time>
      </trkpt>
      <trkpt lat="44.74762" lon="5.50008">
        <ele>816</ele>
        <time>2024-05-24T14:07:29Z</time>
      </trkpt>
      <trkpt lat="44.7476" lon="5.50021">
        <ele>816</ele>
        <time>2024-05-24T14:07:36Z</time>
      </trkpt>
      <trkpt lat="44.74756" lon="5.50033">
        <ele>815</ele>
        <time>2024-05-24T14:07:44Z</time>
      </trkpt>
      <trkpt lat="44.74753" lon="5.50046">
        <ele>814</ele>
        <time>2024-05-24T14:07:52Z</time>
      </trkpt>
      <trkpt lat="44.74749" lon="5.50072">
        <ele>812</ele>
        <time>2024-05-24T14:08:10Z</time>
      </trkpt>
      <trkpt lat="44.74746" lon="5.50086">
        <ele>812</ele>
        <time>2024-05-24T14:08:18Z</time>
      </trkpt>
      <trkpt lat="44.74743" lon="5.50099">
        <ele>811</ele>
        <time>2024-05-24T14:08:25Z</time>
      </trkpt>
      <trkpt lat="44.74741" lon="5.50112">
        <ele>810</ele>
        <time>2024-05-24T14:08:36Z</time>
      </trkpt>
      <trkpt lat="44.7474" lon="5.50125">
        <ele>809</ele>
        <time>2024-05-24T14:08:47Z</time>
      </trkpt>
      <trkpt lat="44.74739" lon="5.50138">
        <ele>808</ele>
        <time>2024-05-24T14:08:55Z</time>
      </trkpt>
      <trkpt lat="44.74734" lon="5.50149">
        <ele>807</ele>
        <time>2024-05-24T14:09:05Z</time>
      </trkpt>
      <trkpt lat="44.74728" lon="5.5016">
        <ele>806</ele>
        <time>2024-05-24T14:09:14Z</time>
      </trkpt>
      <trkpt lat="44.74725" lon="5.50172">
        <ele>804</ele>
        <time>2024-05-24T14:09:26Z</time>
      </trkpt>
      <trkpt lat="44.74724" lon="5.50186">
        <ele>804</ele>
        <time>2024-05-24T14:09:35Z</time>
      </trkpt>
      <trkpt lat="44.74722" lon="5.50199">
        <ele>803</ele>
        <time>2024-05-24T14:09:44Z</time>
      </trkpt>
      <trkpt lat="44.74718" lon="5.50212">
        <ele>803</ele>
        <time>2024-05-24T14:09:53Z</time>
      </trkpt>
      <trkpt lat="44.74714" lon="5.50224">
        <ele>802</ele>
        <time>2024-05-24T14:10:01Z</time>
      </trkpt>
      <trkpt lat="44.74712" lon="5.50238">
        <ele>802</ele>
        <time>2024-05-24T14:10:09Z</time>
      </trkpt>
      <trkpt lat="44.74712" lon="5.50251">
        <ele>802</ele>
        <time>2024-05-24T14:10:17Z</time>
      </trkpt>
      <trkpt lat="44.74711" lon="5.50264">
        <ele>802</ele>
        <time>2024-05-24T14:10:26Z</time>
      </trkpt>
      <trkpt lat="44.74709" lon="5.50276">
        <ele>801</ele>
        <time>2024-05-24T14:10:36Z</time>
      </trkpt>
      <trkpt lat="44.74704" lon="5.50287">
        <ele>801</ele>
        <time>2024-05-24T14:10:42Z</time>
      </trkpt>
      <trkpt lat="44.74697" lon="5.50297">
        <ele>801</ele>
        <time>2024-05-24T14:10:49Z</time>
      </trkpt>
      <trkpt lat="44.74686" lon="5.50318">
        <ele>801</ele>
        <time>2024-05-24T14:11:07Z</time>
      </trkpt>
      <trkpt lat="44.74679" lon="5.50327">
        <ele>801</ele>
        <time>2024-05-24T14:11:15Z</time>
      </trkpt>
      <trkpt lat="44.74672" lon="5.50336">
        <ele>801</ele>
        <time>2024-05-24T14:11:23Z</time>
      </trkpt>
      <trkpt lat="44.74666" lon="5.50348">
        <ele>801</ele>
        <time>2024-05-24T14:11:31Z</time>
      </trkpt>
      <trkpt lat="44.74661" lon="5.50358">
        <ele>801</ele>
        <time>2024-05-24T14:11:40Z</time>
      </trkpt>
      <trkpt lat="44.74657" lon="5.50371">
        <ele>800</ele>
        <time>2024-05-24T14:11:46Z</time>
      </trkpt>
      <trkpt lat="44.74654" lon="5.50383">
        <ele>800</ele>
        <time>2024-05-24T14:11:58Z</time>
      </trkpt>
      <trkpt lat="44.7465" lon="5.50395">
        <ele>800</ele>
        <time>2024-05-24T14:12:06Z</time>
      </trkpt>
      <trkpt lat="44.74642" lon="5.50416">
        <ele>799</ele>
        <time>2024-05-24T14:12:25Z</time>
      </trkpt>
      <trkpt lat="44.74639" lon="5.50429">
        <ele>798</ele>
        <time>2024-05-24T14:12:40Z</time>
      </trkpt>
      <trkpt lat="44.74632" lon="5.50416">
        <ele>796</ele>
        <time>2024-05-24T14:13:08Z</time>
      </trkpt>
      <trkpt lat="44.74624" lon="5.50424">
        <ele>795</ele>
        <time>2024-05-24T14:13:17Z</time>
      </trkpt>
      <trkpt lat="44.74616" lon="5.50432">
        <ele>794</ele>
        <time>2024-05-24T14:13:24Z</time>
      </trkpt>
      <trkpt lat="44.74607" lon="5.5043">
        <ele>792</ele>
        <time>2024-05-24T14:13:39Z</time>
        <extensions>
          <visugpx:TrkExtension xmlns:visugpx="https://www.visugpx.com/editgpx/">
            <visugpx:node>1</visugpx:node>
            </visugpx:TrkExtension>
        </extensions>
      </trkpt>
      <trkpt lat="44.74576" lon="5.50424">
        <ele>770</ele>
        <time>2024-05-25T05:53:04Z</time>
      </trkpt>
      <trkpt lat="44.74573" lon="5.50434">
        <ele>769</ele>
        <time>2024-05-25T05:53:15Z</time>
      </trkpt>
      <trkpt lat="44.74575" lon="5.50446">
        <ele>768</ele>
        <time>2024-05-25T05:53:29Z</time>
      </trkpt>
      <trkpt lat="44.74572" lon="5.50458">
        <ele>767</ele>
        <time>2024-05-25T05:53:40Z</time>
      </trkpt>
      <trkpt lat="44.74565" lon="5.50468">
        <ele>766</ele>
        <time>2024-05-25T05:53:49Z</time>
      </trkpt>
      <trkpt lat="44.74557" lon="5.50476">
        <ele>765</ele>
        <time>2024-05-25T05:53:58Z</time>
      </trkpt>
      <trkpt lat="44.74555" lon="5.50487">
        <ele>763</ele>
        <time>2024-05-25T05:54:12Z</time>
      </trkpt>
      <trkpt lat="44.74548" lon="5.50496">
        <ele>761</ele>
        <time>2024-05-25T05:54:24Z</time>
      </trkpt>
      <trkpt lat="44.74542" lon="5.50505">
        <ele>759</ele>
        <time>2024-05-25T05:54:35Z</time>
      </trkpt>
      <trkpt lat="44.74534" lon="5.50512">
        <ele>757</ele>
        <time>2024-05-25T05:54:44Z</time>
      </trkpt>
      <trkpt lat="44.74525" lon="5.50519">
        <ele>756</ele>
        <time>2024-05-25T05:54:53Z</time>
      </trkpt>
      <trkpt lat="44.74517" lon="5.50524">
        <ele>755</ele>
        <time>2024-05-25T05:55:01Z</time>
      </trkpt>
      <trkpt lat="44.74507" lon="5.50523">
        <ele>754</ele>
        <time>2024-05-25T05:55:15Z</time>
      </trkpt>
      <trkpt lat="44.74498" lon="5.50524">
        <ele>753</ele>
        <time>2024-05-25T05:55:22Z</time>
      </trkpt>
      <trkpt lat="44.74488" lon="5.50528">
        <ele>753</ele>
        <time>2024-05-25T05:55:31Z</time>
      </trkpt>
      <trkpt lat="44.74478" lon="5.50529">
        <ele>753</ele>
        <time>2024-05-25T05:55:40Z</time>
      </trkpt>
      <trkpt lat="44.74469" lon="5.5053">
        <ele>755</ele>
        <time>2024-05-25T05:56:00Z</time>
      </trkpt>
      <trkpt lat="44.7446" lon="5.50532">
        <ele>755</ele>
        <time>2024-05-25T05:56:07Z</time>
      </trkpt>
      <trkpt lat="44.74451" lon="5.50536">
        <ele>756</ele>
        <time>2024-05-25T05:56:15Z</time>
      </trkpt>
      <trkpt lat="44.74443" lon="5.50542">
        <ele>757</ele>
        <time>2024-05-25T05:56:26Z</time>
      </trkpt>
      <trkpt lat="44.74434" lon="5.50546">
        <ele>759</ele>
        <time>2024-05-25T05:56:36Z</time>
      </trkpt>
      <trkpt lat="44.74426" lon="5.50553">
        <ele>759</ele>
        <time>2024-05-25T05:56:44Z</time>
      </trkpt>
      <trkpt lat="44.74418" lon="5.50561">
        <ele>759</ele>
        <time>2024-05-25T05:56:55Z</time>
      </trkpt>
      <trkpt lat="44.7441" lon="5.50568">
        <ele>759</ele>
        <time>2024-05-25T05:57:10Z</time>
      </trkpt>
      <trkpt lat="44.74404" lon="5.50577">
        <ele>759</ele>
        <time>2024-05-25T05:57:19Z</time>
      </trkpt>
      <trkpt lat="44.74397" lon="5.50587">
        <ele>759</ele>
        <time>2024-05-25T05:57:30Z</time>
      </trkpt>
      <trkpt lat="44.74389" lon="5.50592">
        <ele>759</ele>
        <time>2024-05-25T05:57:39Z</time>
      </trkpt>
      <trkpt lat="44.7438" lon="5.50595">
        <ele>760</ele>
        <time>2024-05-25T05:57:49Z</time>
      </trkpt>
      <trkpt lat="44.74371" lon="5.50595">
        <ele>760</ele>
        <time>2024-05-25T05:57:56Z</time>
      </trkpt>
      <trkpt lat="44.74362" lon="5.50596">
        <ele>761</ele>
        <time>2024-05-25T05:58:12Z</time>
      </trkpt>
      <trkpt lat="44.74353" lon="5.50603">
        <ele>761</ele>
        <time>2024-05-25T05:58:20Z</time>
      </trkpt>
      <trkpt lat="44.74344" lon="5.50609">
        <ele>761</ele>
        <time>2024-05-25T05:58:29Z</time>
      </trkpt>
      <trkpt lat="44.74335" lon="5.50615">
        <ele>761</ele>
        <time>2024-05-25T05:58:38Z</time>
      </trkpt>
      <trkpt lat="44.74327" lon="5.50623">
        <ele>762</ele>
        <time>2024-05-25T05:58:45Z</time>
      </trkpt>
      <trkpt lat="44.74322" lon="5.50635">
        <ele>761</ele>
        <time>2024-05-25T05:58:53Z</time>
      </trkpt>
      <trkpt lat="44.7432" lon="5.50647">
        <ele>761</ele>
        <time>2024-05-25T05:59:00Z</time>
      </trkpt>
      <trkpt lat="44.74314" lon="5.50658">
        <ele>759</ele>
        <time>2024-05-25T05:59:09Z</time>
      </trkpt>
      <trkpt lat="44.74306" lon="5.50665">
        <ele>758</ele>
        <time>2024-05-25T05:59:17Z</time>
      </trkpt>
      <trkpt lat="44.74298" lon="5.5067">
        <ele>757</ele>
        <time>2024-05-25T05:59:23Z</time>
      </trkpt>
      <trkpt lat="44.74289" lon="5.50677">
        <ele>756</ele>
        <time>2024-05-25T05:59:29Z</time>
      </trkpt>
      <trkpt lat="44.74282" lon="5.50685">
        <ele>755</ele>
        <time>2024-05-25T05:59:37Z</time>
      </trkpt>
      <trkpt lat="44.74276" lon="5.50694">
        <ele>752</ele>
        <time>2024-05-25T05:59:51Z</time>
      </trkpt>
      <trkpt lat="44.74267" lon="5.50699">
        <ele>751</ele>
        <time>2024-05-25T06:00:00Z</time>
      </trkpt>
      <trkpt lat="44.7426" lon="5.50707">
        <ele>748</ele>
        <time>2024-05-25T06:00:14Z</time>
      </trkpt>
      <trkpt lat="44.74254" lon="5.50718">
        <ele>747</ele>
        <time>2024-05-25T06:00:24Z</time>
      </trkpt>
      <trkpt lat="44.74249" lon="5.50729">
        <ele>745</ele>
        <time>2024-05-25T06:00:31Z</time>
      </trkpt>
      <trkpt lat="44.74245" lon="5.50742">
        <ele>745</ele>
        <time>2024-05-25T06:00:39Z</time>
      </trkpt>
      <trkpt lat="44.74242" lon="5.50752">
        <ele>744</ele>
        <time>2024-05-25T06:00:48Z</time>
      </trkpt>
      <trkpt lat="44.74239" lon="5.50763">
        <ele>744</ele>
        <time>2024-05-25T06:00:57Z</time>
      </trkpt>
      <trkpt lat="44.74235" lon="5.50774">
        <ele>744</ele>
        <time>2024-05-25T06:01:06Z</time>
      </trkpt>
      <trkpt lat="44.74228" lon="5.50785">
        <ele>744</ele>
        <time>2024-05-25T06:01:14Z</time>
      </trkpt>
      <trkpt lat="44.74221" lon="5.50795">
        <ele>745</ele>
        <time>2024-05-25T06:01:21Z</time>
      </trkpt>
      <trkpt lat="44.74217" lon="5.50807">
        <ele>745</ele>
        <time>2024-05-25T06:01:30Z</time>
      </trkpt>
      <trkpt lat="44.74213" lon="5.50818">
        <ele>746</ele>
        <time>2024-05-25T06:01:42Z</time>
      </trkpt>
      <trkpt lat="44.74207" lon="5.50828">
        <ele>746</ele>
        <time>2024-05-25T06:01:53Z</time>
      </trkpt>
      <trkpt lat="44.74204" lon="5.5084">
        <ele>747</ele>
        <time>2024-05-25T06:02:06Z</time>
      </trkpt>
      <trkpt lat="44.74202" lon="5.50852">
        <ele>748</ele>
        <time>2024-05-25T06:02:19Z</time>
      </trkpt>
      <trkpt lat="44.742" lon="5.50863">
        <ele>749</ele>
        <time>2024-05-25T06:02:30Z</time>
      </trkpt>
      <trkpt lat="44.74196" lon="5.50874">
        <ele>750</ele>
        <time>2024-05-25T06:02:41Z</time>
      </trkpt>
      <trkpt lat="44.74191" lon="5.50883">
        <ele>751</ele>
        <time>2024-05-25T06:02:50Z</time>
      </trkpt>
      <trkpt lat="44.74183" lon="5.5089">
        <ele>751</ele>
        <time>2024-05-25T06:02:55Z</time>
      </trkpt>
      <trkpt lat="44.74174" lon="5.50899">
        <ele>751</ele>
        <time>2024-05-25T06:03:00Z</time>
      </trkpt>
      <trkpt lat="44.74167" lon="5.50909">
        <ele>751</ele>
        <time>2024-05-25T06:03:06Z</time>
      </trkpt>
      <trkpt lat="44.74158" lon="5.50918">
        <ele>751</ele>
        <time>2024-05-25T06:03:11Z</time>
      </trkpt>
      <trkpt lat="44.74149" lon="5.50926">
        <ele>752</ele>
        <time>2024-05-25T06:03:16Z</time>
      </trkpt>
      <trkpt lat="44.74142" lon="5.50933">
        <ele>752</ele>
        <time>2024-05-25T06:03:25Z</time>
      </trkpt>
      <trkpt lat="44.74137" lon="5.50944">
        <ele>752</ele>
        <time>2024-05-25T06:03:33Z</time>
      </trkpt>
      <trkpt lat="44.74132" lon="5.50939">
        <ele>753</ele>
        <time>2024-05-25T06:04:02Z</time>
      </trkpt>
      <trkpt lat="44.74136" lon="5.50949">
        <ele>753</ele>
        <time>2024-05-25T06:04:16Z</time>
      </trkpt>
      <trkpt lat="44.74146" lon="5.50949">
        <ele>753</ele>
        <time>2024-05-25T06:04:24Z</time>
      </trkpt>
      <trkpt lat="44.74149" lon="5.50948">
        <ele>754</ele>
        <time>2024-05-25T06:04:32Z</time>
      </trkpt>
      <trkpt lat="44.74139" lon="5.50946">
        <ele>754</ele>
        <time>2024-05-25T06:04:40Z</time>
      </trkpt>
      <trkpt lat="44.74129" lon="5.50948">
        <ele>754</ele>
        <time>2024-05-25T06:04:48Z</time>
      </trkpt>
      <trkpt lat="44.7412" lon="5.50953">
        <ele>754</ele>
        <time>2024-05-25T06:04:52Z</time>
      </trkpt>
      <trkpt lat="44.74114" lon="5.50961">
        <ele>754</ele>
        <time>2024-05-25T06:05:02Z</time>
      </trkpt>
      <trkpt lat="44.74117" lon="5.50968">
        <ele>757</ele>
        <time>2024-05-25T06:05:22Z</time>
      </trkpt>
      <trkpt lat="44.7411" lon="5.50975">
        <ele>761</ele>
        <time>2024-05-25T06:05:51Z</time>
      </trkpt>
      <trkpt lat="44.74102" lon="5.50978">
        <ele>763</ele>
        <time>2024-05-25T06:06:14Z</time>
      </trkpt>
      <trkpt lat="44.74093" lon="5.50985">
        <ele>764</ele>
        <time>2024-05-25T06:06:28Z</time>
      </trkpt>
      <trkpt lat="44.74085" lon="5.5099">
        <ele>765</ele>
        <time>2024-05-25T06:06:34Z</time>
      </trkpt>
      <trkpt lat="44.74076" lon="5.50994">
        <ele>766</ele>
        <time>2024-05-25T06:06:41Z</time>
      </trkpt>
      <trkpt lat="44.74067" lon="5.50997">
        <ele>767</ele>
        <time>2024-05-25T06:06:52Z</time>
      </trkpt>
      <trkpt lat="44.74058" lon="5.50997">
        <ele>768</ele>
        <time>2024-05-25T06:06:58Z</time>
      </trkpt>
      <trkpt lat="44.74049" lon="5.51001">
        <ele>769</ele>
        <time>2024-05-25T06:07:07Z</time>
      </trkpt>
      <trkpt lat="44.74049" lon="5.51009">
        <ele>771</ele>
        <time>2024-05-25T06:07:15Z</time>
      </trkpt>
      <trkpt lat="44.74052" lon="5.51017">
        <ele>772</ele>
        <time>2024-05-25T06:07:36Z</time>
      </trkpt>
      <trkpt lat="44.74056" lon="5.5101">
        <ele>773</ele>
        <time>2024-05-25T06:07:47Z</time>
      </trkpt>
      <trkpt lat="44.74066" lon="5.51007">
        <ele>774</ele>
        <time>2024-05-25T06:07:52Z</time>
      </trkpt>
      <trkpt lat="44.74075" lon="5.51005">
        <ele>774</ele>
        <time>2024-05-25T06:07:55Z</time>
      </trkpt>
      <trkpt lat="44.74084" lon="5.51001">
        <ele>775</ele>
        <time>2024-05-25T06:08:05Z</time>
      </trkpt>
      <trkpt lat="44.74092" lon="5.50996">
        <ele>776</ele>
        <time>2024-05-25T06:08:17Z</time>
      </trkpt>
      <trkpt lat="44.74094" lon="5.50997">
        <ele>777</ele>
        <time>2024-05-25T06:08:35Z</time>
      </trkpt>
      <trkpt lat="44.74085" lon="5.51001">
        <ele>779</ele>
        <time>2024-05-25T06:08:53Z</time>
      </trkpt>
      <trkpt lat="44.74076" lon="5.51004">
        <ele>780</ele>
        <time>2024-05-25T06:08:58Z</time>
      </trkpt>
      <trkpt lat="44.74067" lon="5.51006">
        <ele>780</ele>
        <time>2024-05-25T06:09:02Z</time>
      </trkpt>
      <trkpt lat="44.7406" lon="5.51014">
        <ele>781</ele>
        <time>2024-05-25T06:09:10Z</time>
      </trkpt>
      <trkpt lat="44.74051" lon="5.51022">
        <ele>783</ele>
        <time>2024-05-25T06:09:20Z</time>
      </trkpt>
      <trkpt lat="44.74043" lon="5.51026">
        <ele>783</ele>
        <time>2024-05-25T06:09:24Z</time>
      </trkpt>
      <trkpt lat="44.74033" lon="5.51031">
        <ele>783</ele>
        <time>2024-05-25T06:09:28Z</time>
      </trkpt>
      <trkpt lat="44.74024" lon="5.51036">
        <ele>784</ele>
        <time>2024-05-25T06:09:32Z</time>
      </trkpt>
      <trkpt lat="44.74016" lon="5.5104">
        <ele>785</ele>
        <time>2024-05-25T06:09:40Z</time>
      </trkpt>
      <trkpt lat="44.74015" lon="5.51051">
        <ele>786</ele>
        <time>2024-05-25T06:09:53Z</time>
      </trkpt>
      <trkpt lat="44.74014" lon="5.51063">
        <ele>788</ele>
        <time>2024-05-25T06:10:06Z</time>
      </trkpt>
      <trkpt lat="44.7401" lon="5.51074">
        <ele>789</ele>
        <time>2024-05-25T06:10:21Z</time>
      </trkpt>
      <trkpt lat="44.74002" lon="5.51082">
        <ele>789</ele>
        <time>2024-05-25T06:10:29Z</time>
      </trkpt>
      <trkpt lat="44.74006" lon="5.51093">
        <ele>790</ele>
        <time>2024-05-25T06:10:39Z</time>
      </trkpt>
      <trkpt lat="44.74008" lon="5.51105">
        <ele>790</ele>
        <time>2024-05-25T06:10:47Z</time>
      </trkpt>
      <trkpt lat="44.7401" lon="5.51118">
        <ele>790</ele>
        <time>2024-05-25T06:10:56Z</time>
      </trkpt>
      <trkpt lat="44.74007" lon="5.51129">
        <ele>791</ele>
        <time>2024-05-25T06:11:14Z</time>
      </trkpt>
      <trkpt lat="44.74009" lon="5.51142">
        <ele>791</ele>
        <time>2024-05-25T06:11:24Z</time>
      </trkpt>
      <trkpt lat="44.74001" lon="5.51143">
        <ele>791</ele>
        <time>2024-05-25T06:11:33Z</time>
      </trkpt>
      <trkpt lat="44.73993" lon="5.51139">
        <ele>792</ele>
        <time>2024-05-25T06:11:41Z</time>
      </trkpt>
      <trkpt lat="44.73986" lon="5.51133">
        <ele>793</ele>
        <time>2024-05-25T06:11:54Z</time>
      </trkpt>
      <trkpt lat="44.73988" lon="5.51125">
        <ele>793</ele>
        <time>2024-05-25T06:12:15Z</time>
      </trkpt>
      <trkpt lat="44.73981" lon="5.51117">
        <ele>793</ele>
        <time>2024-05-25T06:12:22Z</time>
      </trkpt>
      <trkpt lat="44.73977" lon="5.51108">
        <ele>794</ele>
        <time>2024-05-25T06:12:39Z</time>
      </trkpt>
      <trkpt lat="44.73971" lon="5.51106">
        <ele>796</ele>
        <time>2024-05-25T06:12:51Z</time>
      </trkpt>
      <trkpt lat="44.7397" lon="5.51107">
        <ele>797</ele>
        <time>2024-05-25T06:13:08Z</time>
      </trkpt>
      <trkpt lat="44.73961" lon="5.5111">
        <ele>797</ele>
        <time>2024-05-25T06:13:24Z</time>
      </trkpt>
      <trkpt lat="44.73956" lon="5.51116">
        <ele>797</ele>
        <time>2024-05-25T06:13:44Z</time>
      </trkpt>
      <trkpt lat="44.7395" lon="5.51111">
        <ele>798</ele>
        <time>2024-05-25T06:13:58Z</time>
      </trkpt>
      <trkpt lat="44.73954" lon="5.51123">
        <ele>798</ele>
        <time>2024-05-25T06:14:06Z</time>
      </trkpt>
      <trkpt lat="44.73947" lon="5.51127">
        <ele>799</ele>
        <time>2024-05-25T06:14:11Z</time>
      </trkpt>
      <trkpt lat="44.73939" lon="5.51135">
        <ele>799</ele>
        <time>2024-05-25T06:14:18Z</time>
      </trkpt>
      <trkpt lat="44.73934" lon="5.51145">
        <ele>799</ele>
        <time>2024-05-25T06:14:29Z</time>
      </trkpt>
      <trkpt lat="44.73925" lon="5.51138">
        <ele>802</ele>
        <time>2024-05-25T06:14:45Z</time>
      </trkpt>
      <trkpt lat="44.73915" lon="5.51137">
        <ele>803</ele>
        <time>2024-05-25T06:14:52Z</time>
      </trkpt>
      <trkpt lat="44.73906" lon="5.51139">
        <ele>805</ele>
        <time>2024-05-25T06:15:00Z</time>
      </trkpt>
      <trkpt lat="44.73902" lon="5.51147">
        <ele>807</ele>
        <time>2024-05-25T06:15:14Z</time>
      </trkpt>
      <trkpt lat="44.73895" lon="5.51155">
        <ele>809</ele>
        <time>2024-05-25T06:15:27Z</time>
      </trkpt>
      <trkpt lat="44.73889" lon="5.51164">
        <ele>810</ele>
        <time>2024-05-25T06:15:37Z</time>
      </trkpt>
      <trkpt lat="44.73885" lon="5.51175">
        <ele>811</ele>
        <time>2024-05-25T06:15:48Z</time>
      </trkpt>
      <trkpt lat="44.73877" lon="5.5118">
        <ele>812</ele>
        <time>2024-05-25T06:15:57Z</time>
      </trkpt>
      <trkpt lat="44.73868" lon="5.51184">
        <ele>813</ele>
        <time>2024-05-25T06:16:04Z</time>
      </trkpt>
      <trkpt lat="44.73858" lon="5.51187">
        <ele>814</ele>
        <time>2024-05-25T06:16:13Z</time>
      </trkpt>
      <trkpt lat="44.73851" lon="5.51194">
        <ele>816</ele>
        <time>2024-05-25T06:16:21Z</time>
      </trkpt>
      <trkpt lat="44.73843" lon="5.51199">
        <ele>817</ele>
        <time>2024-05-25T06:16:31Z</time>
      </trkpt>
      <trkpt lat="44.73834" lon="5.51204">
        <ele>818</ele>
        <time>2024-05-25T06:16:44Z</time>
      </trkpt>
      <trkpt lat="44.73826" lon="5.51211">
        <ele>819</ele>
        <time>2024-05-25T06:16:54Z</time>
      </trkpt>
      <trkpt lat="44.7382" lon="5.5122">
        <ele>821</ele>
        <time>2024-05-25T06:17:05Z</time>
      </trkpt>
      <trkpt lat="44.73814" lon="5.5123">
        <ele>822</ele>
        <time>2024-05-25T06:17:16Z</time>
      </trkpt>
      <trkpt lat="44.73806" lon="5.51238">
        <ele>823</ele>
        <time>2024-05-25T06:17:25Z</time>
      </trkpt>
      <trkpt lat="44.738" lon="5.51248">
        <ele>824</ele>
        <time>2024-05-25T06:17:34Z</time>
      </trkpt>
      <trkpt lat="44.73795" lon="5.5126">
        <ele>824</ele>
        <time>2024-05-25T06:17:44Z</time>
      </trkpt>
      <trkpt lat="44.73789" lon="5.51268">
        <ele>825</ele>
        <time>2024-05-25T06:17:57Z</time>
      </trkpt>
      <trkpt lat="44.73786" lon="5.51279">
        <ele>826</ele>
        <time>2024-05-25T06:18:05Z</time>
      </trkpt>
      <trkpt lat="44.73782" lon="5.51291">
        <ele>827</ele>
        <time>2024-05-25T06:18:13Z</time>
      </trkpt>
      <trkpt lat="44.73775" lon="5.513">
        <ele>827</ele>
        <time>2024-05-25T06:18:23Z</time>
      </trkpt>
      <trkpt lat="44.73766" lon="5.51305">
        <ele>828</ele>
        <time>2024-05-25T06:18:33Z</time>
      </trkpt>
      <trkpt lat="44.73757" lon="5.51311">
        <ele>830</ele>
        <time>2024-05-25T06:18:47Z</time>
      </trkpt>
      <trkpt lat="44.7375" lon="5.51317">
        <ele>831</ele>
        <time>2024-05-25T06:18:57Z</time>
      </trkpt>
      <trkpt lat="44.73743" lon="5.51326">
        <ele>832</ele>
        <time>2024-05-25T06:19:08Z</time>
      </trkpt>
      <trkpt lat="44.73738" lon="5.51337">
        <ele>833</ele>
        <time>2024-05-25T06:19:18Z</time>
      </trkpt>
      <trkpt lat="44.73734" lon="5.51349">
        <ele>834</ele>
        <time>2024-05-25T06:19:30Z</time>
      </trkpt>
      <trkpt lat="44.73729" lon="5.51359">
        <ele>834</ele>
        <time>2024-05-25T06:19:43Z</time>
      </trkpt>
      <trkpt lat="44.73721" lon="5.51366">
        <ele>835</ele>
        <time>2024-05-25T06:19:52Z</time>
      </trkpt>
      <trkpt lat="44.73714" lon="5.51374">
        <ele>836</ele>
        <time>2024-05-25T06:20:03Z</time>
      </trkpt>
      <trkpt lat="44.73707" lon="5.51381">
        <ele>836</ele>
        <time>2024-05-25T06:20:16Z</time>
      </trkpt>
      <trkpt lat="44.737" lon="5.5139">
        <ele>837</ele>
        <time>2024-05-25T06:20:27Z</time>
      </trkpt>
      <trkpt lat="44.73696" lon="5.51402">
        <ele>838</ele>
        <time>2024-05-25T06:20:36Z</time>
      </trkpt>
      <trkpt lat="44.73697" lon="5.51415">
        <ele>839</ele>
        <time>2024-05-25T06:20:47Z</time>
      </trkpt>
      <trkpt lat="44.73701" lon="5.51426">
        <ele>841</ele>
        <time>2024-05-25T06:21:00Z</time>
      </trkpt>
      <trkpt lat="44.73701" lon="5.51438">
        <ele>842</ele>
        <time>2024-05-25T06:21:10Z</time>
      </trkpt>
      <trkpt lat="44.73693" lon="5.5144">
        <ele>843</ele>
        <time>2024-05-25T06:21:25Z</time>
      </trkpt>
      <trkpt lat="44.73684" lon="5.51435">
        <ele>843</ele>
        <time>2024-05-25T06:21:34Z</time>
      </trkpt>
      <trkpt lat="44.73675" lon="5.51434">
        <ele>844</ele>
        <time>2024-05-25T06:21:43Z</time>
      </trkpt>
      <trkpt lat="44.73671" lon="5.51442">
        <ele>846</ele>
        <time>2024-05-25T06:21:57Z</time>
      </trkpt>
      <trkpt lat="44.73661" lon="5.51444">
        <ele>848</ele>
        <time>2024-05-25T06:22:14Z</time>
      </trkpt>
      <trkpt lat="44.73652" lon="5.51449">
        <ele>849</ele>
        <time>2024-05-25T06:22:26Z</time>
      </trkpt>
      <trkpt lat="44.73643" lon="5.51453">
        <ele>852</ele>
        <time>2024-05-25T06:22:44Z</time>
      </trkpt>
      <trkpt lat="44.73634" lon="5.51459">
        <ele>854</ele>
        <time>2024-05-25T06:22:56Z</time>
      </trkpt>
      <trkpt lat="44.73625" lon="5.51463">
        <ele>856</ele>
        <time>2024-05-25T06:23:11Z</time>
      </trkpt>
      <trkpt lat="44.73615" lon="5.51465">
        <ele>857</ele>
        <time>2024-05-25T06:23:21Z</time>
      </trkpt>
      <trkpt lat="44.73607" lon="5.51471">
        <ele>859</ele>
        <time>2024-05-25T06:23:39Z</time>
      </trkpt>
      <trkpt lat="44.73598" lon="5.51476">
        <ele>861</ele>
        <time>2024-05-25T06:23:50Z</time>
      </trkpt>
      <trkpt lat="44.73589" lon="5.51475">
        <ele>862</ele>
        <time>2024-05-25T06:23:57Z</time>
      </trkpt>
      <trkpt lat="44.73583" lon="5.51485">
        <ele>865</ele>
        <time>2024-05-25T06:24:16Z</time>
      </trkpt>
      <trkpt lat="44.73577" lon="5.51494">
        <ele>866</ele>
        <time>2024-05-25T06:24:29Z</time>
      </trkpt>
      <trkpt lat="44.73572" lon="5.51503">
        <ele>868</ele>
        <time>2024-05-25T06:24:39Z</time>
      </trkpt>
      <trkpt lat="44.73565" lon="5.51512">
        <ele>869</ele>
        <time>2024-05-25T06:24:49Z</time>
      </trkpt>
      <trkpt lat="44.73558" lon="5.51519">
        <ele>870</ele>
        <time>2024-05-25T06:24:59Z</time>
      </trkpt>
      <trkpt lat="44.73557" lon="5.51535">
        <ele>873</ele>
        <time>2024-05-25T06:25:23Z</time>
      </trkpt>
      <trkpt lat="44.73554" lon="5.51547">
        <ele>875</ele>
        <time>2024-05-25T06:25:35Z</time>
      </trkpt>
      <trkpt lat="44.73555" lon="5.51561">
        <ele>877</ele>
        <time>2024-05-25T06:25:50Z</time>
      </trkpt>
      <trkpt lat="44.73553" lon="5.51574">
        <ele>878</ele>
        <time>2024-05-25T06:26:02Z</time>
      </trkpt>
      <trkpt lat="44.73547" lon="5.51582">
        <ele>881</ele>
        <time>2024-05-25T06:26:19Z</time>
      </trkpt>
      <trkpt lat="44.73546" lon="5.51591">
        <ele>885</ele>
        <time>2024-05-25T06:26:51Z</time>
      </trkpt>
      <trkpt lat="44.73549" lon="5.51603">
        <ele>887</ele>
        <time>2024-05-25T06:27:03Z</time>
      </trkpt>
      <trkpt lat="44.73545" lon="5.51615">
        <ele>889</ele>
        <time>2024-05-25T06:27:16Z</time>
      </trkpt>
      <trkpt lat="44.73541" lon="5.51626">
        <ele>891</ele>
        <time>2024-05-25T06:27:34Z</time>
      </trkpt>
      <trkpt lat="44.73543" lon="5.51628">
        <ele>895</ele>
        <time>2024-05-25T06:28:02Z</time>
      </trkpt>
      <trkpt lat="44.73549" lon="5.51619">
        <ele>897</ele>
        <time>2024-05-25T06:28:16Z</time>
      </trkpt>
      <trkpt lat="44.73557" lon="5.51623">
        <ele>899</ele>
        <time>2024-05-25T06:28:31Z</time>
      </trkpt>
      <trkpt lat="44.73564" lon="5.51615">
        <ele>901</ele>
        <time>2024-05-25T06:28:45Z</time>
      </trkpt>
      <trkpt lat="44.73572" lon="5.5161">
        <ele>903</ele>
        <time>2024-05-25T06:29:01Z</time>
      </trkpt>
      <trkpt lat="44.7358" lon="5.51605">
        <ele>904</ele>
        <time>2024-05-25T06:29:18Z</time>
      </trkpt>
      <trkpt lat="44.73589" lon="5.51602">
        <ele>907</ele>
        <time>2024-05-25T06:29:39Z</time>
      </trkpt>
      <trkpt lat="44.73597" lon="5.51603">
        <ele>909</ele>
        <time>2024-05-25T06:29:55Z</time>
      </trkpt>
      <trkpt lat="44.73594" lon="5.51615">
        <ele>911</ele>
        <time>2024-05-25T06:30:12Z</time>
      </trkpt>
      <trkpt lat="44.7359" lon="5.51625">
        <ele>912</ele>
        <time>2024-05-25T06:30:24Z</time>
      </trkpt>
      <trkpt lat="44.73589" lon="5.51637">
        <ele>915</ele>
        <time>2024-05-25T06:30:42Z</time>
      </trkpt>
      <trkpt lat="44.73582" lon="5.51645">
        <ele>917</ele>
        <time>2024-05-25T06:31:00Z</time>
      </trkpt>
      <trkpt lat="44.7358" lon="5.51657">
        <ele>918</ele>
        <time>2024-05-25T06:31:11Z</time>
      </trkpt>
      <trkpt lat="44.7358" lon="5.51671">
        <ele>919</ele>
        <time>2024-05-25T06:31:22Z</time>
      </trkpt>
      <trkpt lat="44.73577" lon="5.51684">
        <ele>920</ele>
        <time>2024-05-25T06:31:30Z</time>
      </trkpt>
      <trkpt lat="44.73575" lon="5.51694">
        <ele>923</ele>
        <time>2024-05-25T06:31:53Z</time>
      </trkpt>
      <trkpt lat="44.7357" lon="5.51704">
        <ele>925</ele>
        <time>2024-05-25T06:32:06Z</time>
      </trkpt>
      <trkpt lat="44.73565" lon="5.51714">
        <ele>926</ele>
        <time>2024-05-25T06:32:18Z</time>
      </trkpt>
      <trkpt lat="44.73559" lon="5.51725">
        <ele>929</ele>
        <time>2024-05-25T06:32:37Z</time>
      </trkpt>
      <trkpt lat="44.73555" lon="5.51735">
        <ele>930</ele>
        <time>2024-05-25T06:32:49Z</time>
      </trkpt>
      <trkpt lat="44.73546" lon="5.51739">
        <ele>931</ele>
        <time>2024-05-25T06:32:59Z</time>
      </trkpt>
      <trkpt lat="44.73539" lon="5.51746">
        <ele>933</ele>
        <time>2024-05-25T06:33:13Z</time>
      </trkpt>
      <trkpt lat="44.73532" lon="5.51754">
        <ele>936</ele>
        <time>2024-05-25T06:33:32Z</time>
      </trkpt>
      <trkpt lat="44.7353" lon="5.51767">
        <ele>938</ele>
        <time>2024-05-25T06:33:45Z</time>
      </trkpt>
      <trkpt lat="44.73527" lon="5.51776">
        <ele>938</ele>
        <time>2024-05-25T06:33:53Z</time>
      </trkpt>
      <trkpt lat="44.7352" lon="5.51783">
        <ele>940</ele>
        <time>2024-05-25T06:34:06Z</time>
      </trkpt>
      <trkpt lat="44.73514" lon="5.51791">
        <ele>942</ele>
        <time>2024-05-25T06:34:21Z</time>
      </trkpt>
      <trkpt lat="44.73507" lon="5.51799">
        <ele>945</ele>
        <time>2024-05-25T06:34:38Z</time>
      </trkpt>
      <trkpt lat="44.73502" lon="5.51809">
        <ele>947</ele>
        <time>2024-05-25T06:34:51Z</time>
      </trkpt>
      <trkpt lat="44.73495" lon="5.51818">
        <ele>948</ele>
        <time>2024-05-25T06:35:07Z</time>
      </trkpt>
      <trkpt lat="44.73488" lon="5.51826">
        <ele>950</ele>
        <time>2024-05-25T06:35:19Z</time>
      </trkpt>
      <trkpt lat="44.73479" lon="5.5183">
        <ele>952</ele>
        <time>2024-05-25T06:35:31Z</time>
      </trkpt>
      <trkpt lat="44.73474" lon="5.51836">
        <ele>954</ele>
        <time>2024-05-25T06:35:45Z</time>
      </trkpt>
      <trkpt lat="44.73475" lon="5.51849">
        <ele>955</ele>
        <time>2024-05-25T06:35:56Z</time>
      </trkpt>
      <trkpt lat="44.7347" lon="5.51856">
        <ele>958</ele>
        <time>2024-05-25T06:36:11Z</time>
      </trkpt>
      <trkpt lat="44.73464" lon="5.51865">
        <ele>959</ele>
        <time>2024-05-25T06:36:24Z</time>
      </trkpt>
      <trkpt lat="44.73462" lon="5.51878">
        <ele>962</ele>
        <time>2024-05-25T06:36:40Z</time>
      </trkpt>
      <trkpt lat="44.73456" lon="5.51887">
        <ele>966</ele>
        <time>2024-05-25T06:37:02Z</time>
      </trkpt>
      <trkpt lat="44.73453" lon="5.51899">
        <ele>968</ele>
        <time>2024-05-25T06:37:19Z</time>
      </trkpt>
      <trkpt lat="44.73445" lon="5.51906">
        <ele>970</ele>
        <time>2024-05-25T06:37:30Z</time>
      </trkpt>
      <trkpt lat="44.7344" lon="5.51917">
        <ele>971</ele>
        <time>2024-05-25T06:37:41Z</time>
      </trkpt>
      <trkpt lat="44.73438" lon="5.51929">
        <ele>973</ele>
        <time>2024-05-25T06:37:58Z</time>
      </trkpt>
      <trkpt lat="44.73435" lon="5.5194">
        <ele>975</ele>
        <time>2024-05-25T06:38:11Z</time>
      </trkpt>
      <trkpt lat="44.73437" lon="5.5195">
        <ele>976</ele>
        <time>2024-05-25T06:38:23Z</time>
      </trkpt>
      <trkpt lat="44.7343" lon="5.5196">
        <ele>978</ele>
        <time>2024-05-25T06:38:38Z</time>
      </trkpt>
      <trkpt lat="44.73429" lon="5.51972">
        <ele>981</ele>
        <time>2024-05-25T06:38:56Z</time>
      </trkpt>
      <trkpt lat="44.7343" lon="5.51984">
        <ele>984</ele>
        <time>2024-05-25T06:39:19Z</time>
      </trkpt>
      <trkpt lat="44.73425" lon="5.51995">
        <ele>987</ele>
        <time>2024-05-25T06:39:37Z</time>
      </trkpt>
      <trkpt lat="44.73425" lon="5.52008">
        <ele>988</ele>
        <time>2024-05-25T06:39:47Z</time>
      </trkpt>
      <trkpt lat="44.7342" lon="5.52018">
        <ele>989</ele>
        <time>2024-05-25T06:39:58Z</time>
      </trkpt>
      <trkpt lat="44.73421" lon="5.52032">
        <ele>989</ele>
        <time>2024-05-25T06:40:09Z</time>
      </trkpt>
      <trkpt lat="44.73422" lon="5.52044">
        <ele>992</ele>
        <time>2024-05-25T06:40:27Z</time>
      </trkpt>
      <trkpt lat="44.73422" lon="5.52057">
        <ele>994</ele>
        <time>2024-05-25T06:40:41Z</time>
      </trkpt>
      <trkpt lat="44.73424" lon="5.5207">
        <ele>995</ele>
        <time>2024-05-25T06:40:51Z</time>
      </trkpt>
      <trkpt lat="44.73423" lon="5.52082">
        <ele>998</ele>
        <time>2024-05-25T06:41:14Z</time>
      </trkpt>
      <trkpt lat="44.7342" lon="5.52094">
        <ele>1000</ele>
        <time>2024-05-25T06:41:31Z</time>
      </trkpt>
      <trkpt lat="44.73413" lon="5.52104">
        <ele>1002</ele>
        <time>2024-05-25T06:41:42Z</time>
      </trkpt>
      <trkpt lat="44.73404" lon="5.52108">
        <ele>1003</ele>
        <time>2024-05-25T06:41:52Z</time>
      </trkpt>
      <trkpt lat="44.73397" lon="5.52116">
        <ele>1004</ele>
        <time>2024-05-25T06:42:04Z</time>
      </trkpt>
      <trkpt lat="44.73389" lon="5.52123">
        <ele>1005</ele>
        <time>2024-05-25T06:42:14Z</time>
      </trkpt>
      <trkpt lat="44.73384" lon="5.52133">
        <ele>1007</ele>
        <time>2024-05-25T06:42:26Z</time>
      </trkpt>
      <trkpt lat="44.73379" lon="5.52145">
        <ele>1009</ele>
        <time>2024-05-25T06:42:40Z</time>
      </trkpt>
      <trkpt lat="44.7337" lon="5.52148">
        <ele>1011</ele>
        <time>2024-05-25T06:42:52Z</time>
      </trkpt>
      <trkpt lat="44.73364" lon="5.52158">
        <ele>1013</ele>
        <time>2024-05-25T06:43:07Z</time>
      </trkpt>
      <trkpt lat="44.73359" lon="5.52164">
        <ele>1016</ele>
        <time>2024-05-25T06:43:30Z</time>
      </trkpt>
      <trkpt lat="44.73352" lon="5.52169">
        <ele>1018</ele>
        <time>2024-05-25T06:43:44Z</time>
      </trkpt>
      <trkpt lat="44.73352" lon="5.5218">
        <ele>1020</ele>
        <time>2024-05-25T06:43:56Z</time>
      </trkpt>
      <trkpt lat="44.73344" lon="5.52182">
        <ele>1022</ele>
        <time>2024-05-25T06:44:09Z</time>
      </trkpt>
      <trkpt lat="44.73336" lon="5.52176">
        <ele>1024</ele>
        <time>2024-05-25T06:44:25Z</time>
      </trkpt>
      <trkpt lat="44.73337" lon="5.52187">
        <ele>1026</ele>
        <time>2024-05-25T06:44:36Z</time>
      </trkpt>
      <trkpt lat="44.73338" lon="5.522">
        <ele>1029</ele>
        <time>2024-05-25T06:44:57Z</time>
      </trkpt>
      <trkpt lat="44.73333" lon="5.52207">
        <ele>1031</ele>
        <time>2024-05-25T06:45:11Z</time>
      </trkpt>
      <trkpt lat="44.73331" lon="5.52219">
        <ele>1033</ele>
        <time>2024-05-25T06:45:24Z</time>
      </trkpt>
      <trkpt lat="44.73329" lon="5.52232">
        <ele>1035</ele>
        <time>2024-05-25T06:45:37Z</time>
      </trkpt>
      <trkpt lat="44.73325" lon="5.52242">
        <ele>1036</ele>
        <time>2024-05-25T06:45:48Z</time>
      </trkpt>
      <trkpt lat="44.73325" lon="5.52253">
        <ele>1037</ele>
        <time>2024-05-25T06:46:00Z</time>
      </trkpt>
      <trkpt lat="44.73319" lon="5.52263">
        <ele>1038</ele>
        <time>2024-05-25T06:46:13Z</time>
      </trkpt>
      <trkpt lat="44.73317" lon="5.52275">
        <ele>1039</ele>
        <time>2024-05-25T06:46:29Z</time>
      </trkpt>
      <trkpt lat="44.73313" lon="5.52288">
        <ele>1042</ele>
        <time>2024-05-25T06:46:46Z</time>
      </trkpt>
      <trkpt lat="44.7331" lon="5.52301">
        <ele>1045</ele>
        <time>2024-05-25T06:47:11Z</time>
      </trkpt>
      <trkpt lat="44.73307" lon="5.52313">
        <ele>1046</ele>
        <time>2024-05-25T06:47:21Z</time>
      </trkpt>
      <trkpt lat="44.73307" lon="5.52326">
        <ele>1047</ele>
        <time>2024-05-25T06:47:32Z</time>
      </trkpt>
      <trkpt lat="44.73305" lon="5.52338">
        <ele>1048</ele>
        <time>2024-05-25T06:47:43Z</time>
      </trkpt>
      <trkpt lat="44.73307" lon="5.52351">
        <ele>1049</ele>
        <time>2024-05-25T06:47:54Z</time>
      </trkpt>
      <trkpt lat="44.73298" lon="5.52355">
        <ele>1051</ele>
        <time>2024-05-25T06:48:09Z</time>
      </trkpt>
      <trkpt lat="44.7329" lon="5.52362">
        <ele>1052</ele>
        <time>2024-05-25T06:48:17Z</time>
      </trkpt>
      <trkpt lat="44.73283" lon="5.52369">
        <ele>1055</ele>
        <time>2024-05-25T06:48:36Z</time>
      </trkpt>
      <trkpt lat="44.73273" lon="5.5237">
        <ele>1057</ele>
        <time>2024-05-25T06:48:52Z</time>
      </trkpt>
      <trkpt lat="44.73265" lon="5.52371">
        <ele>1058</ele>
        <time>2024-05-25T06:49:04Z</time>
      </trkpt>
      <trkpt lat="44.73261" lon="5.52382">
        <ele>1058</ele>
        <time>2024-05-25T06:49:12Z</time>
      </trkpt>
      <trkpt lat="44.73254" lon="5.5239">
        <ele>1058</ele>
        <time>2024-05-25T06:49:18Z</time>
      </trkpt>
      <trkpt lat="44.73248" lon="5.52398">
        <ele>1059</ele>
        <time>2024-05-25T06:49:27Z</time>
      </trkpt>
      <trkpt lat="44.73241" lon="5.52404">
        <ele>1059</ele>
        <time>2024-05-25T06:49:39Z</time>
      </trkpt>
      <trkpt lat="44.73233" lon="5.52414">
        <ele>1059</ele>
        <time>2024-05-25T06:49:46Z</time>
      </trkpt>
      <trkpt lat="44.73229" lon="5.52425">
        <ele>1059</ele>
        <time>2024-05-25T06:49:54Z</time>
      </trkpt>
      <trkpt lat="44.73231" lon="5.52438">
        <ele>1060</ele>
        <time>2024-05-25T06:50:00Z</time>
      </trkpt>
      <trkpt lat="44.73227" lon="5.5245">
        <ele>1061</ele>
        <time>2024-05-25T06:50:10Z</time>
      </trkpt>
      <trkpt lat="44.73222" lon="5.52462">
        <ele>1062</ele>
        <time>2024-05-25T06:50:22Z</time>
      </trkpt>
      <trkpt lat="44.7322" lon="5.52474">
        <ele>1062</ele>
        <time>2024-05-25T06:50:32Z</time>
      </trkpt>
      <trkpt lat="44.73215" lon="5.52485">
        <ele>1062</ele>
        <time>2024-05-25T06:50:42Z</time>
      </trkpt>
      <trkpt lat="44.73207" lon="5.5249">
        <ele>1063</ele>
        <time>2024-05-25T06:50:53Z</time>
      </trkpt>
      <trkpt lat="44.73205" lon="5.52502">
        <ele>1064</ele>
        <time>2024-05-25T06:51:06Z</time>
      </trkpt>
      <trkpt lat="44.73197" lon="5.52506">
        <ele>1064</ele>
        <time>2024-05-25T06:51:14Z</time>
      </trkpt>
      <trkpt lat="44.73196" lon="5.52517">
        <ele>1065</ele>
        <time>2024-05-25T06:51:26Z</time>
      </trkpt>
      <trkpt lat="44.73195" lon="5.5253">
        <ele>1065</ele>
        <time>2024-05-25T06:51:37Z</time>
      </trkpt>
      <trkpt lat="44.7319" lon="5.52542">
        <ele>1066</ele>
        <time>2024-05-25T06:51:47Z</time>
      </trkpt>
      <trkpt lat="44.73187" lon="5.52554">
        <ele>1067</ele>
        <time>2024-05-25T06:51:56Z</time>
      </trkpt>
      <trkpt lat="44.73184" lon="5.52565">
        <ele>1068</ele>
        <time>2024-05-25T06:52:08Z</time>
      </trkpt>
      <trkpt lat="44.73179" lon="5.52575">
        <ele>1069</ele>
        <time>2024-05-25T06:52:21Z</time>
      </trkpt>
      <trkpt lat="44.73178" lon="5.52588">
        <ele>1070</ele>
        <time>2024-05-25T06:52:32Z</time>
      </trkpt>
      <trkpt lat="44.73177" lon="5.52601">
        <ele>1070</ele>
        <time>2024-05-25T06:52:46Z</time>
      </trkpt>
      <trkpt lat="44.73173" lon="5.52613">
        <ele>1070</ele>
        <time>2024-05-25T06:52:55Z</time>
      </trkpt>
      <trkpt lat="44.73169" lon="5.52624">
        <ele>1069</ele>
        <time>2024-05-25T06:53:04Z</time>
      </trkpt>
      <trkpt lat="44.73166" lon="5.52637">
        <ele>1068</ele>
        <time>2024-05-25T06:53:15Z</time>
      </trkpt>
      <trkpt lat="44.73166" lon="5.52649">
        <ele>1068</ele>
        <time>2024-05-25T06:53:21Z</time>
      </trkpt>
      <trkpt lat="44.73167" lon="5.52662">
        <ele>1069</ele>
        <time>2024-05-25T06:53:29Z</time>
      </trkpt>
      <trkpt lat="44.7317" lon="5.52675">
        <ele>1070</ele>
        <time>2024-05-25T06:53:39Z</time>
      </trkpt>
      <trkpt lat="44.73172" lon="5.52687">
        <ele>1073</ele>
        <time>2024-05-25T06:53:55Z</time>
      </trkpt>
      <trkpt lat="44.73169" lon="5.52698">
        <ele>1073</ele>
        <time>2024-05-25T06:54:04Z</time>
      </trkpt>
      <trkpt lat="44.73164" lon="5.52708">
        <ele>1074</ele>
        <time>2024-05-25T06:54:14Z</time>
      </trkpt>
      <trkpt lat="44.73161" lon="5.5272">
        <ele>1076</ele>
        <time>2024-05-25T06:54:25Z</time>
      </trkpt>
      <trkpt lat="44.73157" lon="5.52732">
        <ele>1077</ele>
        <time>2024-05-25T06:54:40Z</time>
      </trkpt>
      <trkpt lat="44.7315" lon="5.52739">
        <ele>1077</ele>
        <time>2024-05-25T06:54:50Z</time>
      </trkpt>
      <trkpt lat="44.73144" lon="5.52749">
        <ele>1077</ele>
        <time>2024-05-25T06:55:00Z</time>
      </trkpt>
      <trkpt lat="44.73134" lon="5.52752">
        <ele>1077</ele>
        <time>2024-05-25T06:55:07Z</time>
      </trkpt>
      <trkpt lat="44.73128" lon="5.5276">
        <ele>1077</ele>
        <time>2024-05-25T06:55:16Z</time>
      </trkpt>
      <trkpt lat="44.73119" lon="5.52766">
        <ele>1076</ele>
        <time>2024-05-25T06:55:27Z</time>
      </trkpt>
      <trkpt lat="44.73111" lon="5.52771">
        <ele>1076</ele>
        <time>2024-05-25T06:55:36Z</time>
      </trkpt>
      <trkpt lat="44.73105" lon="5.52782">
        <ele>1076</ele>
        <time>2024-05-25T06:55:44Z</time>
      </trkpt>
      <trkpt lat="44.73098" lon="5.52789">
        <ele>1077</ele>
        <time>2024-05-25T06:55:56Z</time>
      </trkpt>
      <trkpt lat="44.73091" lon="5.52798">
        <ele>1077</ele>
        <time>2024-05-25T06:56:06Z</time>
      </trkpt>
      <trkpt lat="44.73083" lon="5.52805">
        <ele>1078</ele>
        <time>2024-05-25T06:56:17Z</time>
      </trkpt>
      <trkpt lat="44.73075" lon="5.52812">
        <ele>1078</ele>
        <time>2024-05-25T06:56:27Z</time>
      </trkpt>
      <trkpt lat="44.73074" lon="5.52823">
        <ele>1080</ele>
        <time>2024-05-25T06:56:41Z</time>
      </trkpt>
      <trkpt lat="44.73069" lon="5.52835">
        <ele>1082</ele>
        <time>2024-05-25T06:56:55Z</time>
      </trkpt>
      <trkpt lat="44.73065" lon="5.52848">
        <ele>1083</ele>
        <time>2024-05-25T06:57:06Z</time>
      </trkpt>
      <trkpt lat="44.73064" lon="5.5286">
        <ele>1084</ele>
        <time>2024-05-25T06:57:18Z</time>
      </trkpt>
      <trkpt lat="44.73064" lon="5.52872">
        <ele>1087</ele>
        <time>2024-05-25T06:57:38Z</time>
      </trkpt>
      <trkpt lat="44.73062" lon="5.52884">
        <ele>1090</ele>
        <time>2024-05-25T06:57:55Z</time>
      </trkpt>
      <trkpt lat="44.73063" lon="5.52898">
        <ele>1091</ele>
        <time>2024-05-25T06:58:06Z</time>
      </trkpt>
      <trkpt lat="44.73069" lon="5.52903">
        <ele>1092</ele>
        <time>2024-05-25T06:58:24Z</time>
      </trkpt>
      <trkpt lat="44.73071" lon="5.52912">
        <ele>1092</ele>
        <time>2024-05-25T06:59:17Z</time>
      </trkpt>
      <trkpt lat="44.73072" lon="5.52925">
        <ele>1093</ele>
        <time>2024-05-25T06:59:30Z</time>
      </trkpt>
      <trkpt lat="44.73072" lon="5.52938">
        <ele>1095</ele>
        <time>2024-05-25T06:59:44Z</time>
      </trkpt>
      <trkpt lat="44.73068" lon="5.5295">
        <ele>1097</ele>
        <time>2024-05-25T06:59:55Z</time>
      </trkpt>
      <trkpt lat="44.73062" lon="5.52959">
        <ele>1099</ele>
        <time>2024-05-25T07:00:07Z</time>
      </trkpt>
      <trkpt lat="44.73063" lon="5.52973">
        <ele>1100</ele>
        <time>2024-05-25T07:00:18Z</time>
      </trkpt>
      <trkpt lat="44.73064" lon="5.52987">
        <ele>1101</ele>
        <time>2024-05-25T07:00:27Z</time>
      </trkpt>
      <trkpt lat="44.73062" lon="5.52999">
        <ele>1102</ele>
        <time>2024-05-25T07:00:38Z</time>
      </trkpt>
      <trkpt lat="44.73061" lon="5.53013">
        <ele>1104</ele>
        <time>2024-05-25T07:00:53Z</time>
      </trkpt>
      <trkpt lat="44.73057" lon="5.53024">
        <ele>1106</ele>
        <time>2024-05-25T07:01:06Z</time>
      </trkpt>
      <trkpt lat="44.73052" lon="5.53034">
        <ele>1108</ele>
        <time>2024-05-25T07:01:20Z</time>
      </trkpt>
      <trkpt lat="44.73046" lon="5.53042">
        <ele>1112</ele>
        <time>2024-05-25T07:01:55Z</time>
      </trkpt>
      <trkpt lat="44.73046" lon="5.53051">
        <ele>1112</ele>
        <time>2024-05-25T07:02:43Z</time>
      </trkpt>
      <trkpt lat="44.73044" lon="5.53041">
        <ele>1112</ele>
        <time>2024-05-25T07:03:01Z</time>
      </trkpt>
      <trkpt lat="44.7305" lon="5.53051">
        <ele>1112</ele>
        <time>2024-05-25T07:03:15Z</time>
      </trkpt>
      <trkpt lat="44.73057" lon="5.53056">
        <ele>1112</ele>
        <time>2024-05-25T07:03:28Z</time>
      </trkpt>
      <trkpt lat="44.73062" lon="5.53065">
        <ele>1112</ele>
        <time>2024-05-25T07:03:41Z</time>
      </trkpt>
      <trkpt lat="44.73052" lon="5.53058">
        <ele>1112</ele>
        <time>2024-05-25T07:03:48Z</time>
      </trkpt>
      <trkpt lat="44.73045" lon="5.53051">
        <ele>1112</ele>
        <time>2024-05-25T07:04:02Z</time>
      </trkpt>
      <trkpt lat="44.73041" lon="5.53041">
        <ele>1112</ele>
        <time>2024-05-25T07:04:29Z</time>
      </trkpt>
      <trkpt lat="44.73043" lon="5.53044">
        <ele>1112</ele>
        <time>2024-05-25T07:05:19Z</time>
      </trkpt>
      <trkpt lat="44.73044" lon="5.53043">
        <ele>1112</ele>
        <time>2024-05-25T07:06:04Z</time>
      </trkpt>
      <trkpt lat="44.73048" lon="5.53048">
        <ele>1112</ele>
        <time>2024-05-25T07:06:20Z</time>
      </trkpt>
      <trkpt lat="44.73047" lon="5.53048">
        <ele>1112</ele>
        <time>2024-05-25T07:06:53Z</time>
      </trkpt>
      <trkpt lat="44.73044" lon="5.5305">
        <ele>1112</ele>
        <time>2024-05-25T07:07:58Z</time>
      </trkpt>
      <trkpt lat="44.7305" lon="5.53042">
        <ele>1112</ele>
        <time>2024-05-25T07:08:13Z</time>
      </trkpt>
      <trkpt lat="44.73059" lon="5.5304">
        <ele>1113</ele>
        <time>2024-05-25T07:08:24Z</time>
      </trkpt>
      <trkpt lat="44.73067" lon="5.53035">
        <ele>1115</ele>
        <time>2024-05-25T07:08:41Z</time>
      </trkpt>
      <trkpt lat="44.73076" lon="5.53032">
        <ele>1117</ele>
        <time>2024-05-25T07:08:54Z</time>
      </trkpt>
      <trkpt lat="44.7308" lon="5.53019">
        <ele>1119</ele>
        <time>2024-05-25T07:09:09Z</time>
      </trkpt>
      <trkpt lat="44.73083" lon="5.53009">
        <ele>1121</ele>
        <time>2024-05-25T07:09:22Z</time>
      </trkpt>
      <trkpt lat="44.73091" lon="5.53">
        <ele>1121</ele>
        <time>2024-05-25T07:09:31Z</time>
      </trkpt>
      <trkpt lat="44.73099" lon="5.52992">
        <ele>1122</ele>
        <time>2024-05-25T07:09:41Z</time>
      </trkpt>
      <trkpt lat="44.73102" lon="5.5298">
        <ele>1123</ele>
        <time>2024-05-25T07:09:54Z</time>
      </trkpt>
      <trkpt lat="44.73108" lon="5.52969">
        <ele>1124</ele>
        <time>2024-05-25T07:10:05Z</time>
      </trkpt>
      <trkpt lat="44.73114" lon="5.52959">
        <ele>1124</ele>
        <time>2024-05-25T07:10:13Z</time>
      </trkpt>
      <trkpt lat="44.7312" lon="5.52949">
        <ele>1125</ele>
        <time>2024-05-25T07:10:24Z</time>
      </trkpt>
      <trkpt lat="44.73125" lon="5.52938">
        <ele>1126</ele>
        <time>2024-05-25T07:10:35Z</time>
      </trkpt>
      <trkpt lat="44.73131" lon="5.52928">
        <ele>1128</ele>
        <time>2024-05-25T07:10:47Z</time>
      </trkpt>
      <trkpt lat="44.7314" lon="5.52921">
        <ele>1129</ele>
        <time>2024-05-25T07:10:57Z</time>
      </trkpt>
      <trkpt lat="44.73146" lon="5.52912">
        <ele>1129</ele>
        <time>2024-05-25T07:11:07Z</time>
      </trkpt>
      <trkpt lat="44.73155" lon="5.52905">
        <ele>1130</ele>
        <time>2024-05-25T07:11:18Z</time>
      </trkpt>
      <trkpt lat="44.73163" lon="5.529">
        <ele>1131</ele>
        <time>2024-05-25T07:11:28Z</time>
      </trkpt>
      <trkpt lat="44.73171" lon="5.52895">
        <ele>1133</ele>
        <time>2024-05-25T07:11:37Z</time>
      </trkpt>
      <trkpt lat="44.73179" lon="5.52886">
        <ele>1135</ele>
        <time>2024-05-25T07:11:51Z</time>
      </trkpt>
      <trkpt lat="44.73181" lon="5.52874">
        <ele>1136</ele>
        <time>2024-05-25T07:12:02Z</time>
      </trkpt>
      <trkpt lat="44.73186" lon="5.52862">
        <ele>1137</ele>
        <time>2024-05-25T07:12:14Z</time>
      </trkpt>
      <trkpt lat="44.73188" lon="5.52849">
        <ele>1138</ele>
        <time>2024-05-25T07:12:21Z</time>
      </trkpt>
      <trkpt lat="44.73195" lon="5.52853">
        <ele>1138</ele>
        <time>2024-05-25T07:12:44Z</time>
      </trkpt>
      <trkpt lat="44.73192" lon="5.52865">
        <ele>1140</ele>
        <time>2024-05-25T07:13:17Z</time>
      </trkpt>
      <trkpt lat="44.73191" lon="5.52879">
        <ele>1142</ele>
        <time>2024-05-25T07:13:27Z</time>
      </trkpt>
      <trkpt lat="44.73187" lon="5.52891">
        <ele>1143</ele>
        <time>2024-05-25T07:13:37Z</time>
      </trkpt>
      <trkpt lat="44.73184" lon="5.52904">
        <ele>1144</ele>
        <time>2024-05-25T07:13:49Z</time>
      </trkpt>
      <trkpt lat="44.73181" lon="5.52916">
        <ele>1147</ele>
        <time>2024-05-25T07:14:05Z</time>
      </trkpt>
      <trkpt lat="44.73177" lon="5.52926">
        <ele>1149</ele>
        <time>2024-05-25T07:14:21Z</time>
      </trkpt>
      <trkpt lat="44.73174" lon="5.52939">
        <ele>1150</ele>
        <time>2024-05-25T07:14:32Z</time>
      </trkpt>
      <trkpt lat="44.73172" lon="5.52951">
        <ele>1151</ele>
        <time>2024-05-25T07:14:43Z</time>
      </trkpt>
      <trkpt lat="44.73169" lon="5.52963">
        <ele>1151</ele>
        <time>2024-05-25T07:14:51Z</time>
      </trkpt>
      <trkpt lat="44.73164" lon="5.52975">
        <ele>1152</ele>
        <time>2024-05-25T07:15:02Z</time>
      </trkpt>
      <trkpt lat="44.73161" lon="5.52987">
        <ele>1153</ele>
        <time>2024-05-25T07:15:14Z</time>
      </trkpt>
      <trkpt lat="44.73154" lon="5.52992">
        <ele>1154</ele>
        <time>2024-05-25T07:15:30Z</time>
      </trkpt>
      <trkpt lat="44.73151" lon="5.52992">
        <ele>1154</ele>
        <time>2024-05-25T07:17:48Z</time>
      </trkpt>
      <trkpt lat="44.73154" lon="5.52997">
        <ele>1154</ele>
        <time>2024-05-25T07:18:07Z</time>
      </trkpt>
      <trkpt lat="44.7315" lon="5.52991">
        <ele>1153</ele>
        <time>2024-05-25T07:18:47Z</time>
      </trkpt>
      <trkpt lat="44.73151" lon="5.53">
        <ele>1154</ele>
        <time>2024-05-25T07:19:33Z</time>
      </trkpt>
      <trkpt lat="44.73152" lon="5.53008">
        <ele>1153</ele>
        <time>2024-05-25T07:20:06Z</time>
      </trkpt>
      <trkpt lat="44.73147" lon="5.53019">
        <ele>1153</ele>
        <time>2024-05-25T07:20:18Z</time>
      </trkpt>
      <trkpt lat="44.73142" lon="5.53032">
        <ele>1153</ele>
        <time>2024-05-25T07:20:28Z</time>
      </trkpt>
      <trkpt lat="44.73139" lon="5.53044">
        <ele>1152</ele>
        <time>2024-05-25T07:20:36Z</time>
      </trkpt>
      <trkpt lat="44.73135" lon="5.53057">
        <ele>1152</ele>
        <time>2024-05-25T07:20:45Z</time>
      </trkpt>
      <trkpt lat="44.73134" lon="5.53068">
        <ele>1152</ele>
        <time>2024-05-25T07:20:57Z</time>
      </trkpt>
      <trkpt lat="44.73136" lon="5.53081">
        <ele>1153</ele>
        <time>2024-05-25T07:21:08Z</time>
      </trkpt>
      <trkpt lat="44.73138" lon="5.53094">
        <ele>1154</ele>
        <time>2024-05-25T07:21:15Z</time>
      </trkpt>
      <trkpt lat="44.73137" lon="5.53107">
        <ele>1156</ele>
        <time>2024-05-25T07:21:25Z</time>
      </trkpt>
      <trkpt lat="44.73133" lon="5.53118">
        <ele>1157</ele>
        <time>2024-05-25T07:21:39Z</time>
      </trkpt>
      <trkpt lat="44.73136" lon="5.53131">
        <ele>1158</ele>
        <time>2024-05-25T07:21:51Z</time>
      </trkpt>
      <trkpt lat="44.73136" lon="5.53145">
        <ele>1159</ele>
        <time>2024-05-25T07:22:02Z</time>
      </trkpt>
      <trkpt lat="44.73133" lon="5.53154">
        <ele>1161</ele>
        <time>2024-05-25T07:22:16Z</time>
      </trkpt>
      <trkpt lat="44.73137" lon="5.53143">
        <ele>1163</ele>
        <time>2024-05-25T07:22:27Z</time>
      </trkpt>
      <trkpt lat="44.73143" lon="5.53134">
        <ele>1165</ele>
        <time>2024-05-25T07:22:40Z</time>
      </trkpt>
      <trkpt lat="44.73152" lon="5.53132">
        <ele>1166</ele>
        <time>2024-05-25T07:22:53Z</time>
      </trkpt>
      <trkpt lat="44.73159" lon="5.53126">
        <ele>1168</ele>
        <time>2024-05-25T07:23:05Z</time>
      </trkpt>
      <trkpt lat="44.73162" lon="5.53114">
        <ele>1169</ele>
        <time>2024-05-25T07:23:16Z</time>
      </trkpt>
      <trkpt lat="44.7317" lon="5.53107">
        <ele>1171</ele>
        <time>2024-05-25T07:23:27Z</time>
      </trkpt>
      <trkpt lat="44.7318" lon="5.53104">
        <ele>1172</ele>
        <time>2024-05-25T07:23:42Z</time>
      </trkpt>
      <trkpt lat="44.73179" lon="5.53116">
        <ele>1174</ele>
        <time>2024-05-25T07:24:02Z</time>
      </trkpt>
      <trkpt lat="44.73175" lon="5.53126">
        <ele>1175</ele>
        <time>2024-05-25T07:24:17Z</time>
      </trkpt>
      <trkpt lat="44.73171" lon="5.53138">
        <ele>1176</ele>
        <time>2024-05-25T07:24:30Z</time>
      </trkpt>
      <trkpt lat="44.73166" lon="5.53149">
        <ele>1177</ele>
        <time>2024-05-25T07:24:43Z</time>
      </trkpt>
      <trkpt lat="44.73166" lon="5.53161">
        <ele>1178</ele>
        <time>2024-05-25T07:24:55Z</time>
      </trkpt>
      <trkpt lat="44.73164" lon="5.53173">
        <ele>1179</ele>
        <time>2024-05-25T07:25:03Z</time>
      </trkpt>
      <trkpt lat="44.73155" lon="5.53178">
        <ele>1180</ele>
        <time>2024-05-25T07:25:12Z</time>
      </trkpt>
      <trkpt lat="44.73158" lon="5.53188">
        <ele>1184</ele>
        <time>2024-05-25T07:25:32Z</time>
      </trkpt>
      <trkpt lat="44.73163" lon="5.53198">
        <ele>1185</ele>
        <time>2024-05-25T07:25:44Z</time>
      </trkpt>
      <trkpt lat="44.73168" lon="5.5321">
        <ele>1188</ele>
        <time>2024-05-25T07:26:02Z</time>
      </trkpt>
      <trkpt lat="44.73174" lon="5.53219">
        <ele>1190</ele>
        <time>2024-05-25T07:26:15Z</time>
      </trkpt>
      <trkpt lat="44.73183" lon="5.53225">
        <ele>1192</ele>
        <time>2024-05-25T07:26:32Z</time>
      </trkpt>
      <trkpt lat="44.73192" lon="5.53226">
        <ele>1195</ele>
        <time>2024-05-25T07:26:49Z</time>
      </trkpt>
      <trkpt lat="44.732" lon="5.53224">
        <ele>1197</ele>
        <time>2024-05-25T07:27:09Z</time>
      </trkpt>
      <trkpt lat="44.73206" lon="5.53231">
        <ele>1201</ele>
        <time>2024-05-25T07:27:46Z</time>
      </trkpt>
      <trkpt lat="44.73208" lon="5.53244">
        <ele>1201</ele>
        <time>2024-05-25T07:27:54Z</time>
      </trkpt>
      <trkpt lat="44.73205" lon="5.53256">
        <ele>1202</ele>
        <time>2024-05-25T07:28:02Z</time>
      </trkpt>
      <trkpt lat="44.73209" lon="5.53267">
        <ele>1202</ele>
        <time>2024-05-25T07:28:18Z</time>
      </trkpt>
      <trkpt lat="44.73215" lon="5.53278">
        <ele>1203</ele>
        <time>2024-05-25T07:28:26Z</time>
      </trkpt>
      <trkpt lat="44.73218" lon="5.5329">
        <ele>1204</ele>
        <time>2024-05-25T07:28:37Z</time>
      </trkpt>
      <trkpt lat="44.73223" lon="5.53281">
        <ele>1209</ele>
        <time>2024-05-25T07:29:13Z</time>
      </trkpt>
      <trkpt lat="44.73229" lon="5.53272">
        <ele>1211</ele>
        <time>2024-05-25T07:29:29Z</time>
      </trkpt>
      <trkpt lat="44.73238" lon="5.5327">
        <ele>1214</ele>
        <time>2024-05-25T07:29:46Z</time>
      </trkpt>
      <trkpt lat="44.73247" lon="5.53264">
        <ele>1215</ele>
        <time>2024-05-25T07:29:58Z</time>
      </trkpt>
      <trkpt lat="44.73255" lon="5.53258">
        <ele>1217</ele>
        <time>2024-05-25T07:30:10Z</time>
      </trkpt>
      <trkpt lat="44.73259" lon="5.53249">
        <ele>1220</ele>
        <time>2024-05-25T07:30:28Z</time>
      </trkpt>
      <trkpt lat="44.73267" lon="5.53246">
        <ele>1222</ele>
        <time>2024-05-25T07:30:41Z</time>
      </trkpt>
      <trkpt lat="44.73275" lon="5.53239">
        <ele>1224</ele>
        <time>2024-05-25T07:30:59Z</time>
      </trkpt>
      <trkpt lat="44.73283" lon="5.53233">
        <ele>1226</ele>
        <time>2024-05-25T07:31:13Z</time>
      </trkpt>
      <trkpt lat="44.73291" lon="5.53231">
        <ele>1228</ele>
        <time>2024-05-25T07:31:27Z</time>
      </trkpt>
      <trkpt lat="44.73295" lon="5.53241">
        <ele>1230</ele>
        <time>2024-05-25T07:31:40Z</time>
      </trkpt>
      <trkpt lat="44.73299" lon="5.53252">
        <ele>1234</ele>
        <time>2024-05-25T07:32:32Z</time>
      </trkpt>
      <trkpt lat="44.73307" lon="5.53258">
        <ele>1239</ele>
        <time>2024-05-25T07:33:00Z</time>
      </trkpt>
      <trkpt lat="44.73315" lon="5.53262">
        <ele>1241</ele>
        <time>2024-05-25T07:33:15Z</time>
      </trkpt>
      <trkpt lat="44.73319" lon="5.53274">
        <ele>1243</ele>
        <time>2024-05-25T07:33:28Z</time>
      </trkpt>
      <trkpt lat="44.73321" lon="5.53287">
        <ele>1245</ele>
        <time>2024-05-25T07:33:41Z</time>
      </trkpt>
      <trkpt lat="44.73324" lon="5.53299">
        <ele>1245</ele>
        <time>2024-05-25T07:33:49Z</time>
      </trkpt>
      <trkpt lat="44.7332" lon="5.53304">
        <ele>1247</ele>
        <time>2024-05-25T07:34:11Z</time>
      </trkpt>
      <trkpt lat="44.73316" lon="5.53309">
        <ele>1247</ele>
        <time>2024-05-25T07:34:40Z</time>
      </trkpt>
      <trkpt lat="44.73321" lon="5.5332">
        <ele>1249</ele>
        <time>2024-05-25T07:35:04Z</time>
      </trkpt>
      <trkpt lat="44.73327" lon="5.5333">
        <ele>1251</ele>
        <time>2024-05-25T07:35:12Z</time>
      </trkpt>
      <trkpt lat="44.73331" lon="5.53341">
        <ele>1253</ele>
        <time>2024-05-25T07:35:25Z</time>
      </trkpt>
      <trkpt lat="44.73337" lon="5.5335">
        <ele>1254</ele>
        <time>2024-05-25T07:35:40Z</time>
      </trkpt>
      <trkpt lat="44.73342" lon="5.53362">
        <ele>1256</ele>
        <time>2024-05-25T07:35:56Z</time>
      </trkpt>
      <trkpt lat="44.73348" lon="5.53371">
        <ele>1256</ele>
        <time>2024-05-25T07:36:06Z</time>
      </trkpt>
      <trkpt lat="44.73353" lon="5.53383">
        <ele>1257</ele>
        <time>2024-05-25T07:36:17Z</time>
      </trkpt>
      <trkpt lat="44.7336" lon="5.53391">
        <ele>1258</ele>
        <time>2024-05-25T07:36:26Z</time>
      </trkpt>
      <trkpt lat="44.73365" lon="5.53403">
        <ele>1260</ele>
        <time>2024-05-25T07:36:36Z</time>
      </trkpt>
      <trkpt lat="44.73372" lon="5.5341">
        <ele>1261</ele>
        <time>2024-05-25T07:36:47Z</time>
      </trkpt>
      <trkpt lat="44.73377" lon="5.53421">
        <ele>1264</ele>
        <time>2024-05-25T07:37:11Z</time>
      </trkpt>
      <trkpt lat="44.73385" lon="5.53429">
        <ele>1267</ele>
        <time>2024-05-25T07:37:30Z</time>
      </trkpt>
      <trkpt lat="44.73393" lon="5.53437">
        <ele>1268</ele>
        <time>2024-05-25T07:37:42Z</time>
      </trkpt>
      <trkpt lat="44.73402" lon="5.53439">
        <ele>1271</ele>
        <time>2024-05-25T07:38:03Z</time>
      </trkpt>
      <trkpt lat="44.7341" lon="5.53434">
        <ele>1276</ele>
        <time>2024-05-25T07:38:31Z</time>
      </trkpt>
      <trkpt lat="44.73419" lon="5.53435">
        <ele>1279</ele>
        <time>2024-05-25T07:38:56Z</time>
      </trkpt>
      <trkpt lat="44.73428" lon="5.53438">
        <ele>1283</ele>
        <time>2024-05-25T07:39:20Z</time>
      </trkpt>
      <trkpt lat="44.73437" lon="5.53441">
        <ele>1285</ele>
        <time>2024-05-25T07:39:36Z</time>
      </trkpt>
      <trkpt lat="44.73443" lon="5.5345">
        <ele>1287</ele>
        <time>2024-05-25T07:39:54Z</time>
      </trkpt>
      <trkpt lat="44.73452" lon="5.53448">
        <ele>1289</ele>
        <time>2024-05-25T07:40:05Z</time>
      </trkpt>
      <trkpt lat="44.73461" lon="5.53445">
        <ele>1293</ele>
        <time>2024-05-25T07:40:28Z</time>
      </trkpt>
      <trkpt lat="44.73469" lon="5.5345">
        <ele>1296</ele>
        <time>2024-05-25T07:40:50Z</time>
      </trkpt>
      <trkpt lat="44.73478" lon="5.53452">
        <ele>1298</ele>
        <time>2024-05-25T07:41:04Z</time>
      </trkpt>
      <trkpt lat="44.73487" lon="5.53455">
        <ele>1300</ele>
        <time>2024-05-25T07:41:16Z</time>
      </trkpt>
      <trkpt lat="44.73494" lon="5.5345">
        <ele>1302</ele>
        <time>2024-05-25T07:41:34Z</time>
      </trkpt>
      <trkpt lat="44.735" lon="5.53441">
        <ele>1305</ele>
        <time>2024-05-25T07:41:55Z</time>
      </trkpt>
      <trkpt lat="44.73509" lon="5.53442">
        <ele>1307</ele>
        <time>2024-05-25T07:42:13Z</time>
      </trkpt>
      <trkpt lat="44.73518" lon="5.53439">
        <ele>1310</ele>
        <time>2024-05-25T07:42:30Z</time>
      </trkpt>
      <trkpt lat="44.73527" lon="5.53441">
        <ele>1312</ele>
        <time>2024-05-25T07:42:48Z</time>
      </trkpt>
      <trkpt lat="44.73535" lon="5.5344">
        <ele>1316</ele>
        <time>2024-05-25T07:43:15Z</time>
      </trkpt>
      <trkpt lat="44.73533" lon="5.53428">
        <ele>1317</ele>
        <time>2024-05-25T07:43:25Z</time>
      </trkpt>
      <trkpt lat="44.73541" lon="5.53426">
        <ele>1320</ele>
        <time>2024-05-25T07:43:53Z</time>
      </trkpt>
      <trkpt lat="44.73549" lon="5.53432">
        <ele>1323</ele>
        <time>2024-05-25T07:44:08Z</time>
      </trkpt>
      <trkpt lat="44.73557" lon="5.53439">
        <ele>1325</ele>
        <time>2024-05-25T07:44:21Z</time>
      </trkpt>
      <trkpt lat="44.73565" lon="5.53443">
        <ele>1328</ele>
        <time>2024-05-25T07:44:43Z</time>
      </trkpt>
      <trkpt lat="44.73574" lon="5.53446">
        <ele>1330</ele>
        <time>2024-05-25T07:44:57Z</time>
      </trkpt>
      <trkpt lat="44.73582" lon="5.5345">
        <ele>1332</ele>
        <time>2024-05-25T07:45:16Z</time>
      </trkpt>
      <trkpt lat="44.73592" lon="5.53454">
        <ele>1334</ele>
        <time>2024-05-25T07:45:29Z</time>
      </trkpt>
      <trkpt lat="44.73601" lon="5.53457">
        <ele>1336</ele>
        <time>2024-05-25T07:45:44Z</time>
      </trkpt>
      <trkpt lat="44.73608" lon="5.53465">
        <ele>1337</ele>
        <time>2024-05-25T07:45:56Z</time>
      </trkpt>
      <trkpt lat="44.73617" lon="5.53468">
        <ele>1337</ele>
        <time>2024-05-25T07:46:06Z</time>
      </trkpt>
      <trkpt lat="44.73621" lon="5.53476">
        <ele>1337</ele>
        <time>2024-05-25T07:46:36Z</time>
      </trkpt>
      <trkpt lat="44.7362" lon="5.53471">
        <ele>1337</ele>
        <time>2024-05-25T07:47:45Z</time>
      </trkpt>
      <trkpt lat="44.73623" lon="5.53465">
        <ele>1337</ele>
        <time>2024-05-25T07:48:41Z</time>
      </trkpt>
      <trkpt lat="44.73632" lon="5.5346">
        <ele>1337</ele>
        <time>2024-05-25T07:48:51Z</time>
      </trkpt>
      <trkpt lat="44.7364" lon="5.53458">
        <ele>1338</ele>
        <time>2024-05-25T07:49:01Z</time>
      </trkpt>
      <trkpt lat="44.73647" lon="5.5346">
        <ele>1339</ele>
        <time>2024-05-25T07:50:09Z</time>
      </trkpt>
      <trkpt lat="44.73656" lon="5.53455">
        <ele>1340</ele>
        <time>2024-05-25T07:50:23Z</time>
      </trkpt>
      <trkpt lat="44.73665" lon="5.53451">
        <ele>1342</ele>
        <time>2024-05-25T07:50:40Z</time>
      </trkpt>
      <trkpt lat="44.73674" lon="5.5345">
        <ele>1342</ele>
        <time>2024-05-25T07:50:52Z</time>
      </trkpt>
      <trkpt lat="44.73683" lon="5.5345">
        <ele>1344</ele>
        <time>2024-05-25T07:51:04Z</time>
      </trkpt>
      <trkpt lat="44.73692" lon="5.53447">
        <ele>1345</ele>
        <time>2024-05-25T07:51:13Z</time>
      </trkpt>
      <trkpt lat="44.73701" lon="5.53443">
        <ele>1347</ele>
        <time>2024-05-25T07:51:26Z</time>
      </trkpt>
      <trkpt lat="44.73709" lon="5.53435">
        <ele>1348</ele>
        <time>2024-05-25T07:51:37Z</time>
      </trkpt>
      <trkpt lat="44.73717" lon="5.53431">
        <ele>1350</ele>
        <time>2024-05-25T07:51:52Z</time>
      </trkpt>
      <trkpt lat="44.73726" lon="5.53426">
        <ele>1352</ele>
        <time>2024-05-25T07:52:06Z</time>
      </trkpt>
      <trkpt lat="44.73732" lon="5.53417">
        <ele>1354</ele>
        <time>2024-05-25T07:52:16Z</time>
      </trkpt>
      <trkpt lat="44.7374" lon="5.53409">
        <ele>1356</ele>
        <time>2024-05-25T07:52:31Z</time>
      </trkpt>
      <trkpt lat="44.73748" lon="5.53405">
        <ele>1358</ele>
        <time>2024-05-25T07:52:48Z</time>
      </trkpt>
      <trkpt lat="44.73757" lon="5.534">
        <ele>1359</ele>
        <time>2024-05-25T07:52:58Z</time>
      </trkpt>
      <trkpt lat="44.73766" lon="5.53399">
        <ele>1361</ele>
        <time>2024-05-25T07:53:11Z</time>
      </trkpt>
      <trkpt lat="44.73775" lon="5.53395">
        <ele>1362</ele>
        <time>2024-05-25T07:53:22Z</time>
      </trkpt>
      <trkpt lat="44.73784" lon="5.53393">
        <ele>1365</ele>
        <time>2024-05-25T07:53:37Z</time>
      </trkpt>
      <trkpt lat="44.73792" lon="5.53387">
        <ele>1367</ele>
        <time>2024-05-25T07:53:50Z</time>
      </trkpt>
      <trkpt lat="44.738" lon="5.53379">
        <ele>1367</ele>
        <time>2024-05-25T07:53:59Z</time>
      </trkpt>
      <trkpt lat="44.73809" lon="5.53376">
        <ele>1370</ele>
        <time>2024-05-25T07:54:17Z</time>
      </trkpt>
      <trkpt lat="44.73818" lon="5.53373">
        <ele>1372</ele>
        <time>2024-05-25T07:54:28Z</time>
      </trkpt>
      <trkpt lat="44.73825" lon="5.53366">
        <ele>1373</ele>
        <time>2024-05-25T07:54:39Z</time>
      </trkpt>
      <trkpt lat="44.73835" lon="5.53364">
        <ele>1377</ele>
        <time>2024-05-25T07:55:06Z</time>
      </trkpt>
      <trkpt lat="44.73844" lon="5.53361">
        <ele>1379</ele>
        <time>2024-05-25T07:55:20Z</time>
      </trkpt>
      <trkpt lat="44.73852" lon="5.53357">
        <ele>1381</ele>
        <time>2024-05-25T07:55:44Z</time>
      </trkpt>
      <trkpt lat="44.73861" lon="5.53354">
        <ele>1384</ele>
        <time>2024-05-25T07:56:01Z</time>
      </trkpt>
      <trkpt lat="44.73868" lon="5.53347">
        <ele>1386</ele>
        <time>2024-05-25T07:56:17Z</time>
      </trkpt>
      <trkpt lat="44.73877" lon="5.53349">
        <ele>1388</ele>
        <time>2024-05-25T07:56:36Z</time>
      </trkpt>
      <trkpt lat="44.73886" lon="5.53349">
        <ele>1390</ele>
        <time>2024-05-25T07:56:51Z</time>
      </trkpt>
      <trkpt lat="44.73896" lon="5.53351">
        <ele>1392</ele>
        <time>2024-05-25T07:57:09Z</time>
      </trkpt>
      <trkpt lat="44.73905" lon="5.53349">
        <ele>1394</ele>
        <time>2024-05-25T07:57:21Z</time>
      </trkpt>
      <trkpt lat="44.73914" lon="5.53349">
        <ele>1396</ele>
        <time>2024-05-25T07:57:30Z</time>
      </trkpt>
      <trkpt lat="44.73924" lon="5.53346">
        <ele>1397</ele>
        <time>2024-05-25T07:57:39Z</time>
      </trkpt>
      <trkpt lat="44.73933" lon="5.53344">
        <ele>1398</ele>
        <time>2024-05-25T07:57:48Z</time>
      </trkpt>
      <trkpt lat="44.73942" lon="5.53349">
        <ele>1401</ele>
        <time>2024-05-25T07:58:01Z</time>
      </trkpt>
      <trkpt lat="44.73951" lon="5.5335">
        <ele>1404</ele>
        <time>2024-05-25T07:58:16Z</time>
      </trkpt>
      <trkpt lat="44.73959" lon="5.53357">
        <ele>1406</ele>
        <time>2024-05-25T07:58:26Z</time>
      </trkpt>
      <trkpt lat="44.73968" lon="5.53363">
        <ele>1407</ele>
        <time>2024-05-25T07:58:35Z</time>
      </trkpt>
      <trkpt lat="44.73974" lon="5.5336">
        <ele>1408</ele>
        <time>2024-05-25T07:58:47Z</time>
      </trkpt>
      <trkpt lat="44.73968" lon="5.53351">
        <ele>1411</ele>
        <time>2024-05-25T07:59:01Z</time>
      </trkpt>
      <trkpt lat="44.73962" lon="5.5334">
        <ele>1412</ele>
        <time>2024-05-25T07:59:14Z</time>
      </trkpt>
      <trkpt lat="44.73956" lon="5.53333">
        <ele>1413</ele>
        <time>2024-05-25T07:59:26Z</time>
      </trkpt>
      <trkpt lat="44.73949" lon="5.53324">
        <ele>1415</ele>
        <time>2024-05-25T07:59:37Z</time>
      </trkpt>
      <trkpt lat="44.73943" lon="5.53314">
        <ele>1416</ele>
        <time>2024-05-25T07:59:49Z</time>
      </trkpt>
      <trkpt lat="44.73937" lon="5.53304">
        <ele>1419</ele>
        <time>2024-05-25T08:00:00Z</time>
      </trkpt>
      <trkpt lat="44.73929" lon="5.53299">
        <ele>1420</ele>
        <time>2024-05-25T08:00:17Z</time>
      </trkpt>
      <trkpt lat="44.73921" lon="5.53291">
        <ele>1422</ele>
        <time>2024-05-25T08:00:31Z</time>
      </trkpt>
      <trkpt lat="44.73912" lon="5.53287">
        <ele>1424</ele>
        <time>2024-05-25T08:00:42Z</time>
      </trkpt>
      <trkpt lat="44.73906" lon="5.53277">
        <ele>1426</ele>
        <time>2024-05-25T08:00:57Z</time>
      </trkpt>
      <trkpt lat="44.739" lon="5.53267">
        <ele>1428</ele>
        <time>2024-05-25T08:01:13Z</time>
      </trkpt>
      <trkpt lat="44.73892" lon="5.53262">
        <ele>1429</ele>
        <time>2024-05-25T08:01:24Z</time>
      </trkpt>
      <trkpt lat="44.73885" lon="5.53252">
        <ele>1431</ele>
        <time>2024-05-25T08:01:39Z</time>
      </trkpt>
      <trkpt lat="44.73877" lon="5.53248">
        <ele>1433</ele>
        <time>2024-05-25T08:01:51Z</time>
      </trkpt>
      <trkpt lat="44.73868" lon="5.53243">
        <ele>1434</ele>
        <time>2024-05-25T08:02:04Z</time>
      </trkpt>
      <trkpt lat="44.73859" lon="5.53239">
        <ele>1437</ele>
        <time>2024-05-25T08:02:20Z</time>
      </trkpt>
      <trkpt lat="44.73851" lon="5.53232">
        <ele>1439</ele>
        <time>2024-05-25T08:02:36Z</time>
      </trkpt>
      <trkpt lat="44.73842" lon="5.53231">
        <ele>1440</ele>
        <time>2024-05-25T08:02:50Z</time>
      </trkpt>
      <trkpt lat="44.73833" lon="5.5323">
        <ele>1442</ele>
        <time>2024-05-25T08:03:02Z</time>
      </trkpt>
      <trkpt lat="44.73823" lon="5.53229">
        <ele>1443</ele>
        <time>2024-05-25T08:03:14Z</time>
      </trkpt>
      <trkpt lat="44.73814" lon="5.5323">
        <ele>1445</ele>
        <time>2024-05-25T08:03:26Z</time>
      </trkpt>
      <trkpt lat="44.73804" lon="5.53231">
        <ele>1446</ele>
        <time>2024-05-25T08:03:38Z</time>
      </trkpt>
      <trkpt lat="44.73796" lon="5.53235">
        <ele>1447</ele>
        <time>2024-05-25T08:03:54Z</time>
      </trkpt>
      <trkpt lat="44.73786" lon="5.53235">
        <ele>1449</ele>
        <time>2024-05-25T08:04:07Z</time>
      </trkpt>
      <trkpt lat="44.73777" lon="5.53234">
        <ele>1450</ele>
        <time>2024-05-25T08:04:19Z</time>
      </trkpt>
      <trkpt lat="44.73768" lon="5.53233">
        <ele>1453</ele>
        <time>2024-05-25T08:04:31Z</time>
      </trkpt>
      <trkpt lat="44.73759" lon="5.53232">
        <ele>1455</ele>
        <time>2024-05-25T08:04:45Z</time>
      </trkpt>
      <trkpt lat="44.73752" lon="5.53224">
        <ele>1457</ele>
        <time>2024-05-25T08:05:03Z</time>
      </trkpt>
      <trkpt lat="44.73744" lon="5.53219">
        <ele>1459</ele>
        <time>2024-05-25T08:05:13Z</time>
      </trkpt>
      <trkpt lat="44.73734" lon="5.53215">
        <ele>1460</ele>
        <time>2024-05-25T08:05:22Z</time>
      </trkpt>
      <trkpt lat="44.73726" lon="5.5321">
        <ele>1463</ele>
        <time>2024-05-25T08:05:41Z</time>
      </trkpt>
      <trkpt lat="44.73717" lon="5.53208">
        <ele>1464</ele>
        <time>2024-05-25T08:05:59Z</time>
      </trkpt>
      <trkpt lat="44.73708" lon="5.53209">
        <ele>1466</ele>
        <time>2024-05-25T08:06:08Z</time>
      </trkpt>
      <trkpt lat="44.73701" lon="5.53202">
        <ele>1468</ele>
        <time>2024-05-25T08:06:20Z</time>
      </trkpt>
      <trkpt lat="44.73707" lon="5.53193">
        <ele>1468</ele>
        <time>2024-05-25T08:06:30Z</time>
      </trkpt>
      <trkpt lat="44.73712" lon="5.53183">
        <ele>1469</ele>
        <time>2024-05-25T08:06:44Z</time>
      </trkpt>
      <trkpt lat="44.73719" lon="5.53175">
        <ele>1470</ele>
        <time>2024-05-25T08:06:54Z</time>
      </trkpt>
      <trkpt lat="44.73727" lon="5.53169">
        <ele>1471</ele>
        <time>2024-05-25T08:07:04Z</time>
      </trkpt>
      <trkpt lat="44.73735" lon="5.53163">
        <ele>1473</ele>
        <time>2024-05-25T08:07:18Z</time>
      </trkpt>
      <trkpt lat="44.73743" lon="5.5316">
        <ele>1475</ele>
        <time>2024-05-25T08:07:33Z</time>
      </trkpt>
      <trkpt lat="44.73752" lon="5.53154">
        <ele>1477</ele>
        <time>2024-05-25T08:07:48Z</time>
      </trkpt>
      <trkpt lat="44.73759" lon="5.53146">
        <ele>1479</ele>
        <time>2024-05-25T08:08:01Z</time>
      </trkpt>
      <trkpt lat="44.73766" lon="5.53139">
        <ele>1482</ele>
        <time>2024-05-25T08:08:23Z</time>
      </trkpt>
      <trkpt lat="44.73775" lon="5.53138">
        <ele>1484</ele>
        <time>2024-05-25T08:08:35Z</time>
      </trkpt>
      <trkpt lat="44.73784" lon="5.53135">
        <ele>1486</ele>
        <time>2024-05-25T08:08:50Z</time>
      </trkpt>
      <trkpt lat="44.73794" lon="5.5313">
        <ele>1488</ele>
        <time>2024-05-25T08:09:07Z</time>
      </trkpt>
      <trkpt lat="44.73803" lon="5.53127">
        <ele>1490</ele>
        <time>2024-05-25T08:09:22Z</time>
      </trkpt>
      <trkpt lat="44.73811" lon="5.53121">
        <ele>1492</ele>
        <time>2024-05-25T08:09:36Z</time>
      </trkpt>
      <trkpt lat="44.7382" lon="5.53119">
        <ele>1494</ele>
        <time>2024-05-25T08:09:51Z</time>
      </trkpt>
      <trkpt lat="44.73829" lon="5.53114">
        <ele>1496</ele>
        <time>2024-05-25T08:10:06Z</time>
      </trkpt>
      <trkpt lat="44.73837" lon="5.53109">
        <ele>1497</ele>
        <time>2024-05-25T08:10:17Z</time>
      </trkpt>
      <trkpt lat="44.73847" lon="5.53108">
        <ele>1499</ele>
        <time>2024-05-25T08:10:30Z</time>
      </trkpt>
      <trkpt lat="44.73856" lon="5.53109">
        <ele>1501</ele>
        <time>2024-05-25T08:10:42Z</time>
      </trkpt>
      <trkpt lat="44.73865" lon="5.53105">
        <ele>1502</ele>
        <time>2024-05-25T08:10:53Z</time>
      </trkpt>
      <trkpt lat="44.73874" lon="5.53103">
        <ele>1504</ele>
        <time>2024-05-25T08:11:09Z</time>
      </trkpt>
      <trkpt lat="44.7388" lon="5.53104">
        <ele>1505</ele>
        <time>2024-05-25T08:11:28Z</time>
      </trkpt>
      <trkpt lat="44.7389" lon="5.53102">
        <ele>1506</ele>
        <time>2024-05-25T08:12:04Z</time>
      </trkpt>
      <trkpt lat="44.73899" lon="5.53102">
        <ele>1507</ele>
        <time>2024-05-25T08:12:14Z</time>
      </trkpt>
      <trkpt lat="44.73908" lon="5.531">
        <ele>1509</ele>
        <time>2024-05-25T08:12:27Z</time>
      </trkpt>
      <trkpt lat="44.73918" lon="5.53097">
        <ele>1510</ele>
        <time>2024-05-25T08:12:36Z</time>
      </trkpt>
      <trkpt lat="44.73927" lon="5.53095">
        <ele>1512</ele>
        <time>2024-05-25T08:12:50Z</time>
      </trkpt>
      <trkpt lat="44.73937" lon="5.53098">
        <ele>1514</ele>
        <time>2024-05-25T08:13:06Z</time>
      </trkpt>
      <trkpt lat="44.73946" lon="5.53094">
        <ele>1515</ele>
        <time>2024-05-25T08:13:16Z</time>
      </trkpt>
      <trkpt lat="44.73954" lon="5.53091">
        <ele>1516</ele>
        <time>2024-05-25T08:13:24Z</time>
      </trkpt>
      <trkpt lat="44.73964" lon="5.53093">
        <ele>1518</ele>
        <time>2024-05-25T08:13:43Z</time>
      </trkpt>
      <trkpt lat="44.73973" lon="5.53097">
        <ele>1518</ele>
        <time>2024-05-25T08:13:54Z</time>
      </trkpt>
      <trkpt lat="44.73982" lon="5.531">
        <ele>1520</ele>
        <time>2024-05-25T08:14:08Z</time>
      </trkpt>
      <trkpt lat="44.73991" lon="5.53101">
        <ele>1521</ele>
        <time>2024-05-25T08:14:17Z</time>
      </trkpt>
      <trkpt lat="44.74001" lon="5.53105">
        <ele>1523</ele>
        <time>2024-05-25T08:14:32Z</time>
      </trkpt>
      <trkpt lat="44.74009" lon="5.53112">
        <ele>1524</ele>
        <time>2024-05-25T08:14:44Z</time>
      </trkpt>
      <trkpt lat="44.74018" lon="5.53116">
        <ele>1526</ele>
        <time>2024-05-25T08:14:57Z</time>
      </trkpt>
      <trkpt lat="44.74027" lon="5.53122">
        <ele>1528</ele>
        <time>2024-05-25T08:15:06Z</time>
      </trkpt>
      <trkpt lat="44.74035" lon="5.53128">
        <ele>1528</ele>
        <time>2024-05-25T08:15:17Z</time>
      </trkpt>
      <trkpt lat="44.74042" lon="5.53135">
        <ele>1529</ele>
        <time>2024-05-25T08:15:27Z</time>
      </trkpt>
      <trkpt lat="44.74047" lon="5.53146">
        <ele>1530</ele>
        <time>2024-05-25T08:15:36Z</time>
      </trkpt>
      <trkpt lat="44.74052" lon="5.53158">
        <ele>1531</ele>
        <time>2024-05-25T08:15:45Z</time>
      </trkpt>
      <trkpt lat="44.74053" lon="5.53171">
        <ele>1531</ele>
        <time>2024-05-25T08:15:55Z</time>
      </trkpt>
      <trkpt lat="44.74059" lon="5.5318">
        <ele>1532</ele>
        <time>2024-05-25T08:16:09Z</time>
      </trkpt>
      <trkpt lat="44.74065" lon="5.53189">
        <ele>1534</ele>
        <time>2024-05-25T08:16:22Z</time>
      </trkpt>
      <trkpt lat="44.74075" lon="5.53189">
        <ele>1535</ele>
        <time>2024-05-25T08:16:30Z</time>
      </trkpt>
      <trkpt lat="44.74084" lon="5.53193">
        <ele>1538</ele>
        <time>2024-05-25T08:16:49Z</time>
      </trkpt>
      <trkpt lat="44.74092" lon="5.53188">
        <ele>1541</ele>
        <time>2024-05-25T08:17:06Z</time>
      </trkpt>
      <trkpt lat="44.741" lon="5.53186">
        <ele>1543</ele>
        <time>2024-05-25T08:17:23Z</time>
      </trkpt>
      <trkpt lat="44.74109" lon="5.53188">
        <ele>1545</ele>
        <time>2024-05-25T08:17:40Z</time>
      </trkpt>
      <trkpt lat="44.74118" lon="5.53188">
        <ele>1547</ele>
        <time>2024-05-25T08:17:51Z</time>
      </trkpt>
      <trkpt lat="44.74127" lon="5.53183">
        <ele>1548</ele>
        <time>2024-05-25T08:18:02Z</time>
      </trkpt>
      <trkpt lat="44.74133" lon="5.53177">
        <ele>1552</ele>
        <time>2024-05-25T08:20:03Z</time>
      </trkpt>
      <trkpt lat="44.74135" lon="5.53165">
        <ele>1552</ele>
        <time>2024-05-25T08:20:27Z</time>
      </trkpt>
      <trkpt lat="44.74139" lon="5.53153">
        <ele>1554</ele>
        <time>2024-05-25T08:20:40Z</time>
      </trkpt>
      <trkpt lat="44.74145" lon="5.53143">
        <ele>1555</ele>
        <time>2024-05-25T08:20:53Z</time>
      </trkpt>
      <trkpt lat="44.74153" lon="5.53135">
        <ele>1556</ele>
        <time>2024-05-25T08:21:04Z</time>
      </trkpt>
      <trkpt lat="44.74162" lon="5.5313">
        <ele>1557</ele>
        <time>2024-05-25T08:21:14Z</time>
      </trkpt>
      <trkpt lat="44.74166" lon="5.53119">
        <ele>1558</ele>
        <time>2024-05-25T08:21:24Z</time>
      </trkpt>
      <trkpt lat="44.74158" lon="5.53115">
        <ele>1559</ele>
        <time>2024-05-25T08:21:36Z</time>
      </trkpt>
      <trkpt lat="44.74148" lon="5.53118">
        <ele>1560</ele>
        <time>2024-05-25T08:21:46Z</time>
      </trkpt>
      <trkpt lat="44.74139" lon="5.53118">
        <ele>1561</ele>
        <time>2024-05-25T08:21:58Z</time>
      </trkpt>
      <trkpt lat="44.74129" lon="5.5312">
        <ele>1562</ele>
        <time>2024-05-25T08:22:09Z</time>
      </trkpt>
      <trkpt lat="44.74121" lon="5.53119">
        <ele>1564</ele>
        <time>2024-05-25T08:22:21Z</time>
      </trkpt>
      <trkpt lat="44.74122" lon="5.53108">
        <ele>1565</ele>
        <time>2024-05-25T08:22:33Z</time>
      </trkpt>
      <trkpt lat="44.74131" lon="5.53106">
        <ele>1567</ele>
        <time>2024-05-25T08:22:54Z</time>
      </trkpt>
      <trkpt lat="44.7414" lon="5.53101">
        <ele>1569</ele>
        <time>2024-05-25T08:23:06Z</time>
      </trkpt>
      <trkpt lat="44.74148" lon="5.53095">
        <ele>1570</ele>
        <time>2024-05-25T08:23:14Z</time>
      </trkpt>
      <trkpt lat="44.74158" lon="5.53095">
        <ele>1572</ele>
        <time>2024-05-25T08:23:25Z</time>
      </trkpt>
      <trkpt lat="44.74168" lon="5.53094">
        <ele>1574</ele>
        <time>2024-05-25T08:23:41Z</time>
      </trkpt>
      <trkpt lat="44.74177" lon="5.53096">
        <ele>1575</ele>
        <time>2024-05-25T08:23:50Z</time>
      </trkpt>
      <trkpt lat="44.74186" lon="5.53095">
        <ele>1575</ele>
        <time>2024-05-25T08:23:58Z</time>
      </trkpt>
      <trkpt lat="44.74195" lon="5.53092">
        <ele>1575</ele>
        <time>2024-05-25T08:24:08Z</time>
      </trkpt>
      <trkpt lat="44.74203" lon="5.53087">
        <ele>1576</ele>
        <time>2024-05-25T08:24:23Z</time>
      </trkpt>
      <trkpt lat="44.74213" lon="5.53086">
        <ele>1576</ele>
        <time>2024-05-25T08:24:31Z</time>
      </trkpt>
      <trkpt lat="44.74223" lon="5.53084">
        <ele>1577</ele>
        <time>2024-05-25T08:24:40Z</time>
      </trkpt>
      <trkpt lat="44.74232" lon="5.53083">
        <ele>1576</ele>
        <time>2024-05-25T08:24:51Z</time>
      </trkpt>
      <trkpt lat="44.7424" lon="5.53078">
        <ele>1575</ele>
        <time>2024-05-25T08:25:01Z</time>
      </trkpt>
      <trkpt lat="44.74248" lon="5.53072">
        <ele>1575</ele>
        <time>2024-05-25T08:25:13Z</time>
      </trkpt>
      <trkpt lat="44.74255" lon="5.53062">
        <ele>1574</ele>
        <time>2024-05-25T08:25:22Z</time>
      </trkpt>
      <trkpt lat="44.74262" lon="5.53053">
        <ele>1573</ele>
        <time>2024-05-25T08:25:32Z</time>
      </trkpt>
      <trkpt lat="44.74269" lon="5.53045">
        <ele>1573</ele>
        <time>2024-05-25T08:25:43Z</time>
      </trkpt>
      <trkpt lat="44.74277" lon="5.5304">
        <ele>1572</ele>
        <time>2024-05-25T08:26:09Z</time>
      </trkpt>
      <trkpt lat="44.74278" lon="5.53036">
        <ele>1572</ele>
        <time>2024-05-25T08:27:00Z</time>
      </trkpt>
      <trkpt lat="44.74278" lon="5.5304">
        <ele>1573</ele>
        <time>2024-05-25T08:28:14Z</time>
      </trkpt>
      <trkpt lat="44.74278" lon="5.5303">
        <ele>1572</ele>
        <time>2024-05-25T08:28:34Z</time>
      </trkpt>
      <trkpt lat="44.74285" lon="5.53033">
        <ele>1571</ele>
        <time>2024-05-25T08:28:46Z</time>
      </trkpt>
      <trkpt lat="44.74294" lon="5.53034">
        <ele>1571</ele>
        <time>2024-05-25T08:28:59Z</time>
      </trkpt>
      <trkpt lat="44.74303" lon="5.53034">
        <ele>1570</ele>
        <time>2024-05-25T08:29:09Z</time>
      </trkpt>
      <trkpt lat="44.74312" lon="5.53037">
        <ele>1570</ele>
        <time>2024-05-25T08:29:25Z</time>
      </trkpt>
      <trkpt lat="44.74322" lon="5.5304">
        <ele>1570</ele>
        <time>2024-05-25T08:29:34Z</time>
      </trkpt>
      <trkpt lat="44.74331" lon="5.53039">
        <ele>1570</ele>
        <time>2024-05-25T08:29:45Z</time>
      </trkpt>
      <trkpt lat="44.7434" lon="5.53038">
        <ele>1570</ele>
        <time>2024-05-25T08:29:57Z</time>
      </trkpt>
      <trkpt lat="44.74349" lon="5.53033">
        <ele>1570</ele>
        <time>2024-05-25T08:30:08Z</time>
      </trkpt>
      <trkpt lat="44.74358" lon="5.53027">
        <ele>1569</ele>
        <time>2024-05-25T08:30:19Z</time>
      </trkpt>
      <trkpt lat="44.74367" lon="5.53028">
        <ele>1569</ele>
        <time>2024-05-25T08:30:33Z</time>
      </trkpt>
      <trkpt lat="44.74374" lon="5.53035">
        <ele>1568</ele>
        <time>2024-05-25T08:30:42Z</time>
      </trkpt>
      <trkpt lat="44.74379" lon="5.53047">
        <ele>1569</ele>
        <time>2024-05-25T08:30:52Z</time>
      </trkpt>
      <trkpt lat="44.74381" lon="5.53059">
        <ele>1569</ele>
        <time>2024-05-25T08:31:02Z</time>
      </trkpt>
      <trkpt lat="44.74382" lon="5.53072">
        <ele>1569</ele>
        <time>2024-05-25T08:31:14Z</time>
      </trkpt>
      <trkpt lat="44.74389" lon="5.5308">
        <ele>1569</ele>
        <time>2024-05-25T08:31:24Z</time>
      </trkpt>
      <trkpt lat="44.74396" lon="5.53088">
        <ele>1570</ele>
        <time>2024-05-25T08:31:34Z</time>
      </trkpt>
      <trkpt lat="44.74401" lon="5.531">
        <ele>1571</ele>
        <time>2024-05-25T08:31:47Z</time>
      </trkpt>
      <trkpt lat="44.74402" lon="5.53112">
        <ele>1572</ele>
        <time>2024-05-25T08:31:57Z</time>
      </trkpt>
      <trkpt lat="44.74404" lon="5.53124">
        <ele>1574</ele>
        <time>2024-05-25T08:32:10Z</time>
      </trkpt>
      <trkpt lat="44.74404" lon="5.53137">
        <ele>1575</ele>
        <time>2024-05-25T08:32:22Z</time>
      </trkpt>
      <trkpt lat="44.74409" lon="5.53148">
        <ele>1575</ele>
        <time>2024-05-25T08:32:33Z</time>
      </trkpt>
      <trkpt lat="44.74414" lon="5.53158">
        <ele>1576</ele>
        <time>2024-05-25T08:32:45Z</time>
      </trkpt>
      <trkpt lat="44.74414" lon="5.53171">
        <ele>1577</ele>
        <time>2024-05-25T08:32:55Z</time>
      </trkpt>
      <trkpt lat="44.74413" lon="5.53183">
        <ele>1578</ele>
        <time>2024-05-25T08:33:05Z</time>
      </trkpt>
      <trkpt lat="44.74415" lon="5.53196">
        <ele>1578</ele>
        <time>2024-05-25T08:33:16Z</time>
      </trkpt>
      <trkpt lat="44.74413" lon="5.5321">
        <ele>1577</ele>
        <time>2024-05-25T08:33:27Z</time>
      </trkpt>
      <trkpt lat="44.74414" lon="5.53222">
        <ele>1577</ele>
        <time>2024-05-25T08:33:36Z</time>
      </trkpt>
      <trkpt lat="44.74415" lon="5.53235">
        <ele>1577</ele>
        <time>2024-05-25T08:33:45Z</time>
      </trkpt>
      <trkpt lat="44.74422" lon="5.53245">
        <ele>1577</ele>
        <time>2024-05-25T08:33:53Z</time>
      </trkpt>
      <trkpt lat="44.74429" lon="5.53254">
        <ele>1577</ele>
        <time>2024-05-25T08:34:04Z</time>
      </trkpt>
      <trkpt lat="44.74435" lon="5.53265">
        <ele>1578</ele>
        <time>2024-05-25T08:34:16Z</time>
      </trkpt>
      <trkpt lat="44.74443" lon="5.53272">
        <ele>1579</ele>
        <time>2024-05-25T08:34:29Z</time>
      </trkpt>
      <trkpt lat="44.74452" lon="5.53277">
        <ele>1580</ele>
        <time>2024-05-25T08:34:39Z</time>
      </trkpt>
      <trkpt lat="44.74459" lon="5.53284">
        <ele>1582</ele>
        <time>2024-05-25T08:34:49Z</time>
      </trkpt>
      <trkpt lat="44.74468" lon="5.5329">
        <ele>1582</ele>
        <time>2024-05-25T08:34:59Z</time>
      </trkpt>
      <trkpt lat="44.74477" lon="5.53292">
        <ele>1583</ele>
        <time>2024-05-25T08:35:07Z</time>
      </trkpt>
      <trkpt lat="44.74485" lon="5.53297">
        <ele>1583</ele>
        <time>2024-05-25T08:35:18Z</time>
      </trkpt>
      <trkpt lat="44.74495" lon="5.53295">
        <ele>1585</ele>
        <time>2024-05-25T08:35:30Z</time>
      </trkpt>
      <trkpt lat="44.74504" lon="5.53298">
        <ele>1585</ele>
        <time>2024-05-25T08:35:41Z</time>
      </trkpt>
      <trkpt lat="44.74513" lon="5.53295">
        <ele>1586</ele>
        <time>2024-05-25T08:35:56Z</time>
      </trkpt>
      <trkpt lat="44.74523" lon="5.53296">
        <ele>1586</ele>
        <time>2024-05-25T08:36:07Z</time>
      </trkpt>
      <trkpt lat="44.74531" lon="5.533">
        <ele>1587</ele>
        <time>2024-05-25T08:36:20Z</time>
      </trkpt>
      <trkpt lat="44.74541" lon="5.53299">
        <ele>1587</ele>
        <time>2024-05-25T08:36:32Z</time>
      </trkpt>
      <trkpt lat="44.74549" lon="5.53291">
        <ele>1587</ele>
        <time>2024-05-25T08:36:39Z</time>
      </trkpt>
      <trkpt lat="44.74559" lon="5.5329">
        <ele>1587</ele>
        <time>2024-05-25T08:36:46Z</time>
      </trkpt>
      <trkpt lat="44.74568" lon="5.53292">
        <ele>1587</ele>
        <time>2024-05-25T08:37:00Z</time>
      </trkpt>
      <trkpt lat="44.74577" lon="5.53291">
        <ele>1587</ele>
        <time>2024-05-25T08:37:09Z</time>
      </trkpt>
      <trkpt lat="44.74586" lon="5.53291">
        <ele>1587</ele>
        <time>2024-05-25T08:37:21Z</time>
      </trkpt>
      <trkpt lat="44.74595" lon="5.53288">
        <ele>1587</ele>
        <time>2024-05-25T08:37:38Z</time>
      </trkpt>
      <trkpt lat="44.74603" lon="5.53284">
        <ele>1588</ele>
        <time>2024-05-25T08:37:58Z</time>
      </trkpt>
      <trkpt lat="44.7461" lon="5.53275">
        <ele>1588</ele>
        <time>2024-05-25T08:38:08Z</time>
      </trkpt>
      <trkpt lat="44.74618" lon="5.53266">
        <ele>1588</ele>
        <time>2024-05-25T08:38:18Z</time>
      </trkpt>
      <trkpt lat="44.74627" lon="5.5326">
        <ele>1588</ele>
        <time>2024-05-25T08:38:26Z</time>
      </trkpt>
      <trkpt lat="44.74636" lon="5.53259">
        <ele>1589</ele>
        <time>2024-05-25T08:38:52Z</time>
      </trkpt>
      <trkpt lat="44.74646" lon="5.53257">
        <ele>1589</ele>
        <time>2024-05-25T08:39:00Z</time>
      </trkpt>
      <trkpt lat="44.74655" lon="5.53252">
        <ele>1589</ele>
        <time>2024-05-25T08:39:09Z</time>
      </trkpt>
      <trkpt lat="44.74664" lon="5.53248">
        <ele>1589</ele>
        <time>2024-05-25T08:39:17Z</time>
      </trkpt>
      <trkpt lat="44.74672" lon="5.5324">
        <ele>1588</ele>
        <time>2024-05-25T08:39:26Z</time>
      </trkpt>
      <trkpt lat="44.74681" lon="5.53238">
        <ele>1588</ele>
        <time>2024-05-25T08:39:33Z</time>
      </trkpt>
      <trkpt lat="44.7469" lon="5.53235">
        <ele>1588</ele>
        <time>2024-05-25T08:39:40Z</time>
      </trkpt>
      <trkpt lat="44.747" lon="5.53233">
        <ele>1588</ele>
        <time>2024-05-25T08:39:48Z</time>
      </trkpt>
      <trkpt lat="44.74709" lon="5.53237">
        <ele>1588</ele>
        <time>2024-05-25T08:39:57Z</time>
      </trkpt>
      <trkpt lat="44.74718" lon="5.53239">
        <ele>1588</ele>
        <time>2024-05-25T08:40:06Z</time>
      </trkpt>
      <trkpt lat="44.74727" lon="5.53247">
        <ele>1588</ele>
        <time>2024-05-25T08:40:14Z</time>
      </trkpt>
      <trkpt lat="44.74735" lon="5.53254">
        <ele>1588</ele>
        <time>2024-05-25T08:40:21Z</time>
      </trkpt>
      <trkpt lat="44.74743" lon="5.53261">
        <ele>1589</ele>
        <time>2024-05-25T08:40:31Z</time>
      </trkpt>
      <trkpt lat="44.74752" lon="5.53266">
        <ele>1589</ele>
        <time>2024-05-25T08:40:39Z</time>
      </trkpt>
      <trkpt lat="44.74761" lon="5.53267">
        <ele>1589</ele>
        <time>2024-05-25T08:40:46Z</time>
      </trkpt>
      <trkpt lat="44.7477" lon="5.53266">
        <ele>1589</ele>
        <time>2024-05-25T08:40:53Z</time>
      </trkpt>
      <trkpt lat="44.7478" lon="5.53266">
        <ele>1589</ele>
        <time>2024-05-25T08:41:01Z</time>
      </trkpt>
      <trkpt lat="44.74789" lon="5.53265">
        <ele>1589</ele>
        <time>2024-05-25T08:41:12Z</time>
      </trkpt>
      <trkpt lat="44.74798" lon="5.53267">
        <ele>1589</ele>
        <time>2024-05-25T08:41:22Z</time>
      </trkpt>
      <trkpt lat="44.74807" lon="5.53267">
        <ele>1589</ele>
        <time>2024-05-25T08:41:30Z</time>
      </trkpt>
      <trkpt lat="44.74816" lon="5.53261">
        <ele>1590</ele>
        <time>2024-05-25T08:41:37Z</time>
      </trkpt>
      <trkpt lat="44.74825" lon="5.53256">
        <ele>1590</ele>
        <time>2024-05-25T08:41:45Z</time>
      </trkpt>
      <trkpt lat="44.74833" lon="5.5325">
        <ele>1591</ele>
        <time>2024-05-25T08:41:53Z</time>
      </trkpt>
      <trkpt lat="44.74842" lon="5.53243">
        <ele>1591</ele>
        <time>2024-05-25T08:41:58Z</time>
      </trkpt>
      <trkpt lat="44.74849" lon="5.53235">
        <ele>1592</ele>
        <time>2024-05-25T08:42:06Z</time>
      </trkpt>
      <trkpt lat="44.74857" lon="5.53226">
        <ele>1593</ele>
        <time>2024-05-25T08:42:15Z</time>
      </trkpt>
      <trkpt lat="44.74864" lon="5.53218">
        <ele>1595</ele>
        <time>2024-05-25T08:42:31Z</time>
      </trkpt>
      <trkpt lat="44.7487" lon="5.53207">
        <ele>1596</ele>
        <time>2024-05-25T08:42:40Z</time>
      </trkpt>
      <trkpt lat="44.74875" lon="5.53196">
        <ele>1596</ele>
        <time>2024-05-25T08:42:48Z</time>
      </trkpt>
      <trkpt lat="44.74883" lon="5.53186">
        <ele>1597</ele>
        <time>2024-05-25T08:42:58Z</time>
      </trkpt>
      <trkpt lat="44.74889" lon="5.53177">
        <ele>1598</ele>
        <time>2024-05-25T08:43:07Z</time>
      </trkpt>
      <trkpt lat="44.74896" lon="5.53169">
        <ele>1599</ele>
        <time>2024-05-25T08:43:16Z</time>
      </trkpt>
      <trkpt lat="44.74903" lon="5.5316">
        <ele>1600</ele>
        <time>2024-05-25T08:43:24Z</time>
      </trkpt>
      <trkpt lat="44.74906" lon="5.53147">
        <ele>1601</ele>
        <time>2024-05-25T08:43:36Z</time>
      </trkpt>
      <trkpt lat="44.74907" lon="5.53134">
        <ele>1602</ele>
        <time>2024-05-25T08:43:49Z</time>
      </trkpt>
      <trkpt lat="44.74906" lon="5.53121">
        <ele>1603</ele>
        <time>2024-05-25T08:44:01Z</time>
      </trkpt>
      <trkpt lat="44.74906" lon="5.53109">
        <ele>1604</ele>
        <time>2024-05-25T08:44:13Z</time>
      </trkpt>
      <trkpt lat="44.74911" lon="5.53097">
        <ele>1605</ele>
        <time>2024-05-25T08:44:22Z</time>
      </trkpt>
      <trkpt lat="44.74914" lon="5.53085">
        <ele>1606</ele>
        <time>2024-05-25T08:44:33Z</time>
      </trkpt>
      <trkpt lat="44.74914" lon="5.53071">
        <ele>1608</ele>
        <time>2024-05-25T08:44:46Z</time>
      </trkpt>
      <trkpt lat="44.74918" lon="5.53059">
        <ele>1608</ele>
        <time>2024-05-25T08:44:57Z</time>
      </trkpt>
      <trkpt lat="44.74922" lon="5.53048">
        <ele>1609</ele>
        <time>2024-05-25T08:45:06Z</time>
      </trkpt>
      <trkpt lat="44.74925" lon="5.53035">
        <ele>1610</ele>
        <time>2024-05-25T08:45:16Z</time>
      </trkpt>
      <trkpt lat="44.74929" lon="5.53023">
        <ele>1610</ele>
        <time>2024-05-25T08:45:25Z</time>
      </trkpt>
      <trkpt lat="44.74936" lon="5.53015">
        <ele>1610</ele>
        <time>2024-05-25T08:45:34Z</time>
      </trkpt>
      <trkpt lat="44.74941" lon="5.53005">
        <ele>1611</ele>
        <time>2024-05-25T08:45:54Z</time>
      </trkpt>
      <trkpt lat="44.74948" lon="5.52995">
        <ele>1612</ele>
        <time>2024-05-25T08:46:03Z</time>
      </trkpt>
      <trkpt lat="44.74957" lon="5.52988">
        <ele>1612</ele>
        <time>2024-05-25T08:46:10Z</time>
      </trkpt>
      <trkpt lat="44.74964" lon="5.52979">
        <ele>1612</ele>
        <time>2024-05-25T08:46:18Z</time>
      </trkpt>
      <trkpt lat="44.7497" lon="5.52969">
        <ele>1612</ele>
        <time>2024-05-25T08:46:26Z</time>
      </trkpt>
      <trkpt lat="44.74976" lon="5.5296">
        <ele>1612</ele>
        <time>2024-05-25T08:46:38Z</time>
      </trkpt>
      <trkpt lat="44.74978" lon="5.52947">
        <ele>1613</ele>
        <time>2024-05-25T08:46:46Z</time>
      </trkpt>
      <trkpt lat="44.74984" lon="5.52936">
        <ele>1613</ele>
        <time>2024-05-25T08:46:54Z</time>
      </trkpt>
      <trkpt lat="44.74989" lon="5.52925">
        <ele>1614</ele>
        <time>2024-05-25T08:47:04Z</time>
      </trkpt>
      <trkpt lat="44.74995" lon="5.52914">
        <ele>1615</ele>
        <time>2024-05-25T08:47:14Z</time>
      </trkpt>
      <trkpt lat="44.75" lon="5.52903">
        <ele>1617</ele>
        <time>2024-05-25T08:47:28Z</time>
      </trkpt>
      <trkpt lat="44.75005" lon="5.52892">
        <ele>1618</ele>
        <time>2024-05-25T08:47:38Z</time>
      </trkpt>
      <trkpt lat="44.75012" lon="5.52884">
        <ele>1619</ele>
        <time>2024-05-25T08:47:51Z</time>
      </trkpt>
      <trkpt lat="44.75019" lon="5.52874">
        <ele>1620</ele>
        <time>2024-05-25T08:48:01Z</time>
      </trkpt>
      <trkpt lat="44.75023" lon="5.52864">
        <ele>1620</ele>
        <time>2024-05-25T08:48:15Z</time>
      </trkpt>
      <trkpt lat="44.75027" lon="5.52851">
        <ele>1620</ele>
        <time>2024-05-25T08:48:24Z</time>
      </trkpt>
      <trkpt lat="44.75026" lon="5.5284">
        <ele>1624</ele>
        <time>2024-05-25T08:48:46Z</time>
      </trkpt>
      <trkpt lat="44.75029" lon="5.52836">
        <ele>1624</ele>
        <time>2024-05-25T08:51:04Z</time>
      </trkpt>
      <trkpt lat="44.75026" lon="5.52837">
        <ele>1622</ele>
        <time>2024-05-25T08:52:51Z</time>
      </trkpt>
      <trkpt lat="44.75032" lon="5.52835">
        <ele>1624</ele>
        <time>2024-05-25T08:53:20Z</time>
      </trkpt>
      <trkpt lat="44.75037" lon="5.52841">
        <ele>1624</ele>
        <time>2024-05-25T08:53:43Z</time>
      </trkpt>
      <trkpt lat="44.75027" lon="5.52841">
        <ele>1624</ele>
        <time>2024-05-25T08:55:33Z</time>
      </trkpt>
      <trkpt lat="44.7503" lon="5.52838">
        <ele>1624</ele>
        <time>2024-05-25T08:56:41Z</time>
      </trkpt>
      <trkpt lat="44.75027" lon="5.52839">
        <ele>1624</ele>
        <time>2024-05-25T08:58:29Z</time>
      </trkpt>
      <trkpt lat="44.75032" lon="5.52834">
        <ele>1624</ele>
        <time>2024-05-25T08:58:58Z</time>
      </trkpt>
      <trkpt lat="44.75032" lon="5.52836">
        <ele>1625</ele>
        <time>2024-05-25T09:00:10Z</time>
      </trkpt>
      <trkpt lat="44.75029" lon="5.52838">
        <ele>1625</ele>
        <time>2024-05-25T09:01:58Z</time>
      </trkpt>
      <trkpt lat="44.75033" lon="5.52832">
        <ele>1625</ele>
        <time>2024-05-25T09:02:29Z</time>
      </trkpt>
      <trkpt lat="44.7504" lon="5.52825">
        <ele>1626</ele>
        <time>2024-05-25T09:02:38Z</time>
      </trkpt>
      <trkpt lat="44.75049" lon="5.5282">
        <ele>1626</ele>
        <time>2024-05-25T09:02:48Z</time>
      </trkpt>
      <trkpt lat="44.75055" lon="5.52811">
        <ele>1627</ele>
        <time>2024-05-25T09:02:59Z</time>
      </trkpt>
      <trkpt lat="44.75054" lon="5.52798">
        <ele>1627</ele>
        <time>2024-05-25T09:03:11Z</time>
      </trkpt>
      <trkpt lat="44.75056" lon="5.52785">
        <ele>1628</ele>
        <time>2024-05-25T09:03:20Z</time>
      </trkpt>
      <trkpt lat="44.75056" lon="5.52772">
        <ele>1628</ele>
        <time>2024-05-25T09:03:29Z</time>
      </trkpt>
      <trkpt lat="44.75057" lon="5.5276">
        <ele>1628</ele>
        <time>2024-05-25T09:03:41Z</time>
      </trkpt>
      <trkpt lat="44.75058" lon="5.52746">
        <ele>1629</ele>
        <time>2024-05-25T09:03:51Z</time>
      </trkpt>
      <trkpt lat="44.7506" lon="5.52734">
        <ele>1629</ele>
        <time>2024-05-25T09:04:00Z</time>
      </trkpt>
      <trkpt lat="44.7506" lon="5.5272">
        <ele>1630</ele>
        <time>2024-05-25T09:04:12Z</time>
      </trkpt>
      <trkpt lat="44.75063" lon="5.52707">
        <ele>1630</ele>
        <time>2024-05-25T09:04:21Z</time>
      </trkpt>
      <trkpt lat="44.75067" lon="5.52696">
        <ele>1631</ele>
        <time>2024-05-25T09:04:30Z</time>
      </trkpt>
      <trkpt lat="44.75068" lon="5.52684">
        <ele>1632</ele>
        <time>2024-05-25T09:04:41Z</time>
      </trkpt>
      <trkpt lat="44.75076" lon="5.52677">
        <ele>1633</ele>
        <time>2024-05-25T09:04:53Z</time>
      </trkpt>
      <trkpt lat="44.75084" lon="5.52684">
        <ele>1634</ele>
        <time>2024-05-25T09:05:13Z</time>
      </trkpt>
      <trkpt lat="44.75093" lon="5.52687">
        <ele>1635</ele>
        <time>2024-05-25T09:05:24Z</time>
      </trkpt>
      <trkpt lat="44.75101" lon="5.52691">
        <ele>1636</ele>
        <time>2024-05-25T09:05:41Z</time>
      </trkpt>
      <trkpt lat="44.75109" lon="5.52697">
        <ele>1636</ele>
        <time>2024-05-25T09:05:52Z</time>
      </trkpt>
      <trkpt lat="44.75113" lon="5.52708">
        <ele>1636</ele>
        <time>2024-05-25T09:06:01Z</time>
      </trkpt>
      <trkpt lat="44.75119" lon="5.52717">
        <ele>1638</ele>
        <time>2024-05-25T09:06:15Z</time>
      </trkpt>
      <trkpt lat="44.75129" lon="5.5272">
        <ele>1639</ele>
        <time>2024-05-25T09:06:26Z</time>
      </trkpt>
      <trkpt lat="44.75138" lon="5.52724">
        <ele>1640</ele>
        <time>2024-05-25T09:06:38Z</time>
      </trkpt>
      <trkpt lat="44.75148" lon="5.52726">
        <ele>1642</ele>
        <time>2024-05-25T09:06:51Z</time>
      </trkpt>
      <trkpt lat="44.75157" lon="5.5273">
        <ele>1643</ele>
        <time>2024-05-25T09:07:04Z</time>
      </trkpt>
      <trkpt lat="44.75165" lon="5.52734">
        <ele>1645</ele>
        <time>2024-05-25T09:07:15Z</time>
      </trkpt>
      <trkpt lat="44.75174" lon="5.52736">
        <ele>1646</ele>
        <time>2024-05-25T09:07:29Z</time>
      </trkpt>
      <trkpt lat="44.75182" lon="5.52742">
        <ele>1649</ele>
        <time>2024-05-25T09:07:42Z</time>
      </trkpt>
      <trkpt lat="44.75188" lon="5.52751">
        <ele>1651</ele>
        <time>2024-05-25T09:07:58Z</time>
      </trkpt>
      <trkpt lat="44.75197" lon="5.52751">
        <ele>1653</ele>
        <time>2024-05-25T09:08:12Z</time>
      </trkpt>
      <trkpt lat="44.75206" lon="5.52751">
        <ele>1655</ele>
        <time>2024-05-25T09:08:26Z</time>
      </trkpt>
      <trkpt lat="44.75216" lon="5.52753">
        <ele>1656</ele>
        <time>2024-05-25T09:08:35Z</time>
      </trkpt>
      <trkpt lat="44.75225" lon="5.52756">
        <ele>1657</ele>
        <time>2024-05-25T09:08:51Z</time>
      </trkpt>
      <trkpt lat="44.75235" lon="5.52756">
        <ele>1659</ele>
        <time>2024-05-25T09:09:01Z</time>
      </trkpt>
      <trkpt lat="44.75243" lon="5.52761">
        <ele>1660</ele>
        <time>2024-05-25T09:09:12Z</time>
      </trkpt>
      <trkpt lat="44.75252" lon="5.52766">
        <ele>1662</ele>
        <time>2024-05-25T09:09:25Z</time>
      </trkpt>
      <trkpt lat="44.75261" lon="5.52768">
        <ele>1663</ele>
        <time>2024-05-25T09:09:36Z</time>
      </trkpt>
      <trkpt lat="44.7527" lon="5.52766">
        <ele>1664</ele>
        <time>2024-05-25T09:09:49Z</time>
      </trkpt>
      <trkpt lat="44.7528" lon="5.52765">
        <ele>1666</ele>
        <time>2024-05-25T09:10:05Z</time>
      </trkpt>
      <trkpt lat="44.75289" lon="5.52762">
        <ele>1666</ele>
        <time>2024-05-25T09:10:14Z</time>
      </trkpt>
      <trkpt lat="44.75299" lon="5.52761">
        <ele>1668</ele>
        <time>2024-05-25T09:10:25Z</time>
      </trkpt>
      <trkpt lat="44.75306" lon="5.52754">
        <ele>1669</ele>
        <time>2024-05-25T09:10:36Z</time>
      </trkpt>
      <trkpt lat="44.75308" lon="5.52741">
        <ele>1670</ele>
        <time>2024-05-25T09:10:46Z</time>
      </trkpt>
      <trkpt lat="44.75313" lon="5.52731">
        <ele>1672</ele>
        <time>2024-05-25T09:10:58Z</time>
      </trkpt>
      <trkpt lat="44.75321" lon="5.52724">
        <ele>1673</ele>
        <time>2024-05-25T09:11:08Z</time>
      </trkpt>
      <trkpt lat="44.7533" lon="5.52718">
        <ele>1675</ele>
        <time>2024-05-25T09:11:21Z</time>
      </trkpt>
      <trkpt lat="44.75338" lon="5.52712">
        <ele>1676</ele>
        <time>2024-05-25T09:11:34Z</time>
      </trkpt>
      <trkpt lat="44.75347" lon="5.52706">
        <ele>1678</ele>
        <time>2024-05-25T09:11:47Z</time>
      </trkpt>
      <trkpt lat="44.75353" lon="5.52698">
        <ele>1680</ele>
        <time>2024-05-25T09:12:03Z</time>
      </trkpt>
      <trkpt lat="44.7536" lon="5.5269">
        <ele>1682</ele>
        <time>2024-05-25T09:12:16Z</time>
      </trkpt>
      <trkpt lat="44.75362" lon="5.52678">
        <ele>1684</ele>
        <time>2024-05-25T09:12:33Z</time>
      </trkpt>
      <trkpt lat="44.7536" lon="5.52665">
        <ele>1686</ele>
        <time>2024-05-25T09:12:46Z</time>
      </trkpt>
      <trkpt lat="44.75358" lon="5.52652">
        <ele>1688</ele>
        <time>2024-05-25T09:12:57Z</time>
      </trkpt>
      <trkpt lat="44.7536" lon="5.5264">
        <ele>1689</ele>
        <time>2024-05-25T09:13:08Z</time>
      </trkpt>
      <trkpt lat="44.75361" lon="5.52626">
        <ele>1691</ele>
        <time>2024-05-25T09:13:23Z</time>
      </trkpt>
      <trkpt lat="44.75363" lon="5.52614">
        <ele>1692</ele>
        <time>2024-05-25T09:13:34Z</time>
      </trkpt>
      <trkpt lat="44.75367" lon="5.52602">
        <ele>1694</ele>
        <time>2024-05-25T09:13:46Z</time>
      </trkpt>
      <trkpt lat="44.7537" lon="5.5259">
        <ele>1695</ele>
        <time>2024-05-25T09:13:57Z</time>
      </trkpt>
      <trkpt lat="44.75373" lon="5.52578">
        <ele>1696</ele>
        <time>2024-05-25T09:14:08Z</time>
      </trkpt>
      <trkpt lat="44.75376" lon="5.52565">
        <ele>1697</ele>
        <time>2024-05-25T09:14:23Z</time>
      </trkpt>
      <trkpt lat="44.75378" lon="5.52553">
        <ele>1699</ele>
        <time>2024-05-25T09:14:35Z</time>
      </trkpt>
      <trkpt lat="44.75381" lon="5.5254">
        <ele>1700</ele>
        <time>2024-05-25T09:14:47Z</time>
      </trkpt>
      <trkpt lat="44.75383" lon="5.52529">
        <ele>1700</ele>
        <time>2024-05-25T09:14:54Z</time>
      </trkpt>
      <trkpt lat="44.75385" lon="5.52515">
        <ele>1701</ele>
        <time>2024-05-25T09:15:05Z</time>
      </trkpt>
      <trkpt lat="44.75388" lon="5.52503">
        <ele>1702</ele>
        <time>2024-05-25T09:15:17Z</time>
      </trkpt>
      <trkpt lat="44.75394" lon="5.52493">
        <ele>1702</ele>
        <time>2024-05-25T09:15:27Z</time>
      </trkpt>
      <trkpt lat="44.75395" lon="5.52481">
        <ele>1702</ele>
        <time>2024-05-25T09:15:51Z</time>
      </trkpt>
      <trkpt lat="44.75395" lon="5.52467">
        <ele>1702</ele>
        <time>2024-05-25T09:16:02Z</time>
      </trkpt>
      <trkpt lat="44.754" lon="5.52457">
        <ele>1702</ele>
        <time>2024-05-25T09:16:12Z</time>
      </trkpt>
      <trkpt lat="44.75404" lon="5.52446">
        <ele>1701</ele>
        <time>2024-05-25T09:16:24Z</time>
      </trkpt>
      <trkpt lat="44.75408" lon="5.52433">
        <ele>1699</ele>
        <time>2024-05-25T09:16:37Z</time>
      </trkpt>
      <trkpt lat="44.7541" lon="5.52421">
        <ele>1698</ele>
        <time>2024-05-25T09:16:46Z</time>
      </trkpt>
      <trkpt lat="44.75414" lon="5.52408">
        <ele>1697</ele>
        <time>2024-05-25T09:16:55Z</time>
      </trkpt>
      <trkpt lat="44.75414" lon="5.52395">
        <ele>1695</ele>
        <time>2024-05-25T09:17:04Z</time>
      </trkpt>
      <trkpt lat="44.75415" lon="5.52381">
        <ele>1694</ele>
        <time>2024-05-25T09:17:15Z</time>
      </trkpt>
      <trkpt lat="44.75417" lon="5.52368">
        <ele>1692</ele>
        <time>2024-05-25T09:17:26Z</time>
      </trkpt>
      <trkpt lat="44.75422" lon="5.52356">
        <ele>1691</ele>
        <time>2024-05-25T09:17:34Z</time>
      </trkpt>
      <trkpt lat="44.75426" lon="5.52342">
        <ele>1690</ele>
        <time>2024-05-25T09:17:42Z</time>
      </trkpt>
      <trkpt lat="44.75429" lon="5.5233">
        <ele>1689</ele>
        <time>2024-05-25T09:17:49Z</time>
      </trkpt>
      <trkpt lat="44.75433" lon="5.52319">
        <ele>1688</ele>
        <time>2024-05-25T09:18:06Z</time>
      </trkpt>
      <trkpt lat="44.75439" lon="5.5231">
        <ele>1687</ele>
        <time>2024-05-25T09:18:19Z</time>
      </trkpt>
      <trkpt lat="44.75446" lon="5.52303">
        <ele>1685</ele>
        <time>2024-05-25T09:18:52Z</time>
      </trkpt>
      <trkpt lat="44.75454" lon="5.52298">
        <ele>1685</ele>
        <time>2024-05-25T09:19:04Z</time>
      </trkpt>
      <trkpt lat="44.75462" lon="5.52292">
        <ele>1684</ele>
        <time>2024-05-25T09:19:14Z</time>
      </trkpt>
      <trkpt lat="44.7547" lon="5.52284">
        <ele>1683</ele>
        <time>2024-05-25T09:19:24Z</time>
      </trkpt>
      <trkpt lat="44.75474" lon="5.52273">
        <ele>1682</ele>
        <time>2024-05-25T09:19:34Z</time>
      </trkpt>
      <trkpt lat="44.75483" lon="5.5227">
        <ele>1682</ele>
        <time>2024-05-25T09:19:45Z</time>
      </trkpt>
      <trkpt lat="44.75492" lon="5.52264">
        <ele>1680</ele>
        <time>2024-05-25T09:19:57Z</time>
      </trkpt>
      <trkpt lat="44.75502" lon="5.5226">
        <ele>1679</ele>
        <time>2024-05-25T09:20:05Z</time>
      </trkpt>
      <trkpt lat="44.7551" lon="5.52254">
        <ele>1678</ele>
        <time>2024-05-25T09:20:17Z</time>
      </trkpt>
      <trkpt lat="44.75519" lon="5.52252">
        <ele>1676</ele>
        <time>2024-05-25T09:20:26Z</time>
      </trkpt>
      <trkpt lat="44.75528" lon="5.52252">
        <ele>1675</ele>
        <time>2024-05-25T09:20:39Z</time>
      </trkpt>
      <trkpt lat="44.75537" lon="5.52248">
        <ele>1674</ele>
        <time>2024-05-25T09:20:47Z</time>
      </trkpt>
      <trkpt lat="44.75544" lon="5.5224">
        <ele>1672</ele>
        <time>2024-05-25T09:21:00Z</time>
      </trkpt>
      <trkpt lat="44.75554" lon="5.52238">
        <ele>1670</ele>
        <time>2024-05-25T09:21:08Z</time>
      </trkpt>
      <trkpt lat="44.75562" lon="5.52243">
        <ele>1668</ele>
        <time>2024-05-25T09:21:16Z</time>
      </trkpt>
      <trkpt lat="44.75571" lon="5.52242">
        <ele>1667</ele>
        <time>2024-05-25T09:21:27Z</time>
      </trkpt>
      <trkpt lat="44.7558" lon="5.52244">
        <ele>1666</ele>
        <time>2024-05-25T09:21:39Z</time>
      </trkpt>
      <trkpt lat="44.7559" lon="5.52245">
        <ele>1666</ele>
        <time>2024-05-25T09:21:46Z</time>
      </trkpt>
      <trkpt lat="44.75598" lon="5.52248">
        <ele>1665</ele>
        <time>2024-05-25T09:21:54Z</time>
      </trkpt>
      <trkpt lat="44.75608" lon="5.5225">
        <ele>1664</ele>
        <time>2024-05-25T09:22:04Z</time>
      </trkpt>
      <trkpt lat="44.75617" lon="5.52252">
        <ele>1663</ele>
        <time>2024-05-25T09:22:16Z</time>
      </trkpt>
      <trkpt lat="44.75627" lon="5.52249">
        <ele>1663</ele>
        <time>2024-05-25T09:22:25Z</time>
      </trkpt>
      <trkpt lat="44.75636" lon="5.52248">
        <ele>1662</ele>
        <time>2024-05-25T09:22:33Z</time>
      </trkpt>
      <trkpt lat="44.75645" lon="5.52246">
        <ele>1661</ele>
        <time>2024-05-25T09:22:42Z</time>
      </trkpt>
      <trkpt lat="44.75654" lon="5.52249">
        <ele>1661</ele>
        <time>2024-05-25T09:22:51Z</time>
      </trkpt>
      <trkpt lat="44.75662" lon="5.52255">
        <ele>1661</ele>
        <time>2024-05-25T09:22:59Z</time>
      </trkpt>
      <trkpt lat="44.7567" lon="5.52262">
        <ele>1661</ele>
        <time>2024-05-25T09:23:07Z</time>
      </trkpt>
      <trkpt lat="44.75677" lon="5.52271">
        <ele>1661</ele>
        <time>2024-05-25T09:23:18Z</time>
      </trkpt>
      <trkpt lat="44.75682" lon="5.52282">
        <ele>1662</ele>
        <time>2024-05-25T09:23:30Z</time>
      </trkpt>
      <trkpt lat="44.75689" lon="5.52291">
        <ele>1662</ele>
        <time>2024-05-25T09:23:48Z</time>
      </trkpt>
      <trkpt lat="44.75697" lon="5.52299">
        <ele>1663</ele>
        <time>2024-05-25T09:23:58Z</time>
      </trkpt>
      <trkpt lat="44.75703" lon="5.52307">
        <ele>1664</ele>
        <time>2024-05-25T09:24:11Z</time>
      </trkpt>
      <trkpt lat="44.75711" lon="5.52316">
        <ele>1665</ele>
        <time>2024-05-25T09:24:29Z</time>
      </trkpt>
      <trkpt lat="44.75719" lon="5.52323">
        <ele>1666</ele>
        <time>2024-05-25T09:24:40Z</time>
      </trkpt>
      <trkpt lat="44.75727" lon="5.52328">
        <ele>1667</ele>
        <time>2024-05-25T09:24:51Z</time>
      </trkpt>
      <trkpt lat="44.75735" lon="5.52334">
        <ele>1669</ele>
        <time>2024-05-25T09:25:05Z</time>
      </trkpt>
      <trkpt lat="44.75745" lon="5.52333">
        <ele>1670</ele>
        <time>2024-05-25T09:25:18Z</time>
      </trkpt>
      <trkpt lat="44.75754" lon="5.52334">
        <ele>1670</ele>
        <time>2024-05-25T09:25:28Z</time>
      </trkpt>
      <trkpt lat="44.75763" lon="5.52336">
        <ele>1671</ele>
        <time>2024-05-25T09:25:38Z</time>
      </trkpt>
      <trkpt lat="44.75772" lon="5.52338">
        <ele>1671</ele>
        <time>2024-05-25T09:25:49Z</time>
      </trkpt>
      <trkpt lat="44.75782" lon="5.5234">
        <ele>1672</ele>
        <time>2024-05-25T09:25:58Z</time>
      </trkpt>
      <trkpt lat="44.75791" lon="5.52338">
        <ele>1672</ele>
        <time>2024-05-25T09:26:07Z</time>
      </trkpt>
      <trkpt lat="44.758" lon="5.52334">
        <ele>1672</ele>
        <time>2024-05-25T09:26:18Z</time>
      </trkpt>
      <trkpt lat="44.75806" lon="5.52324">
        <ele>1672</ele>
        <time>2024-05-25T09:26:27Z</time>
      </trkpt>
      <trkpt lat="44.75814" lon="5.52316">
        <ele>1673</ele>
        <time>2024-05-25T09:26:37Z</time>
      </trkpt>
      <trkpt lat="44.75823" lon="5.52319">
        <ele>1674</ele>
        <time>2024-05-25T09:26:52Z</time>
      </trkpt>
      <trkpt lat="44.75831" lon="5.52324">
        <ele>1675</ele>
        <time>2024-05-25T09:27:02Z</time>
      </trkpt>
      <trkpt lat="44.75839" lon="5.52332">
        <ele>1676</ele>
        <time>2024-05-25T09:27:13Z</time>
      </trkpt>
      <trkpt lat="44.75847" lon="5.52341">
        <ele>1677</ele>
        <time>2024-05-25T09:27:25Z</time>
      </trkpt>
      <trkpt lat="44.75856" lon="5.52342">
        <ele>1678</ele>
        <time>2024-05-25T09:27:33Z</time>
      </trkpt>
      <trkpt lat="44.75865" lon="5.52343">
        <ele>1679</ele>
        <time>2024-05-25T09:27:46Z</time>
      </trkpt>
      <trkpt lat="44.75874" lon="5.52344">
        <ele>1680</ele>
        <time>2024-05-25T09:27:59Z</time>
      </trkpt>
      <trkpt lat="44.75884" lon="5.52344">
        <ele>1681</ele>
        <time>2024-05-25T09:28:08Z</time>
      </trkpt>
      <trkpt lat="44.75893" lon="5.52342">
        <ele>1682</ele>
        <time>2024-05-25T09:28:24Z</time>
      </trkpt>
      <trkpt lat="44.75901" lon="5.52338">
        <ele>1683</ele>
        <time>2024-05-25T09:28:35Z</time>
      </trkpt>
      <trkpt lat="44.7591" lon="5.52338">
        <ele>1684</ele>
        <time>2024-05-25T09:28:49Z</time>
      </trkpt>
      <trkpt lat="44.75919" lon="5.52339">
        <ele>1684</ele>
        <time>2024-05-25T09:28:58Z</time>
      </trkpt>
      <trkpt lat="44.75929" lon="5.52341">
        <ele>1686</ele>
        <time>2024-05-25T09:29:18Z</time>
      </trkpt>
      <trkpt lat="44.75939" lon="5.52342">
        <ele>1687</ele>
        <time>2024-05-25T09:29:26Z</time>
      </trkpt>
      <trkpt lat="44.75948" lon="5.52345">
        <ele>1689</ele>
        <time>2024-05-25T09:29:43Z</time>
      </trkpt>
      <trkpt lat="44.75957" lon="5.52348">
        <ele>1690</ele>
        <time>2024-05-25T09:29:54Z</time>
      </trkpt>
      <trkpt lat="44.75967" lon="5.52351">
        <ele>1691</ele>
        <time>2024-05-25T09:30:02Z</time>
      </trkpt>
      <trkpt lat="44.75974" lon="5.52358">
        <ele>1693</ele>
        <time>2024-05-25T09:30:18Z</time>
      </trkpt>
      <trkpt lat="44.75982" lon="5.52365">
        <ele>1695</ele>
        <time>2024-05-25T09:30:31Z</time>
      </trkpt>
      <trkpt lat="44.75991" lon="5.5237">
        <ele>1695</ele>
        <time>2024-05-25T09:30:40Z</time>
      </trkpt>
      <trkpt lat="44.75999" lon="5.52376">
        <ele>1696</ele>
        <time>2024-05-25T09:30:50Z</time>
      </trkpt>
      <trkpt lat="44.76008" lon="5.52378">
        <ele>1696</ele>
        <time>2024-05-25T09:31:01Z</time>
      </trkpt>
      <trkpt lat="44.76017" lon="5.52378">
        <ele>1695</ele>
        <time>2024-05-25T09:31:12Z</time>
      </trkpt>
      <trkpt lat="44.76027" lon="5.52373">
        <ele>1695</ele>
        <time>2024-05-25T09:31:22Z</time>
      </trkpt>
      <trkpt lat="44.76035" lon="5.52367">
        <ele>1695</ele>
        <time>2024-05-25T09:31:29Z</time>
      </trkpt>
      <trkpt lat="44.76042" lon="5.52358">
        <ele>1695</ele>
        <time>2024-05-25T09:31:39Z</time>
      </trkpt>
      <trkpt lat="44.76051" lon="5.52354">
        <ele>1695</ele>
        <time>2024-05-25T09:31:48Z</time>
      </trkpt>
      <trkpt lat="44.76061" lon="5.52354">
        <ele>1695</ele>
        <time>2024-05-25T09:31:56Z</time>
      </trkpt>
      <trkpt lat="44.7607" lon="5.52354">
        <ele>1696</ele>
        <time>2024-05-25T09:32:06Z</time>
      </trkpt>
      <trkpt lat="44.76079" lon="5.5235">
        <ele>1696</ele>
        <time>2024-05-25T09:32:16Z</time>
      </trkpt>
      <trkpt lat="44.76089" lon="5.52348">
        <ele>1697</ele>
        <time>2024-05-25T09:32:26Z</time>
      </trkpt>
      <trkpt lat="44.76098" lon="5.52353">
        <ele>1697</ele>
        <time>2024-05-25T09:32:36Z</time>
      </trkpt>
      <trkpt lat="44.76106" lon="5.52357">
        <ele>1697</ele>
        <time>2024-05-25T09:32:45Z</time>
      </trkpt>
      <trkpt lat="44.76115" lon="5.52359">
        <ele>1698</ele>
        <time>2024-05-25T09:32:55Z</time>
      </trkpt>
      <trkpt lat="44.76122" lon="5.52367">
        <ele>1700</ele>
        <time>2024-05-25T09:33:09Z</time>
      </trkpt>
      <trkpt lat="44.76131" lon="5.52372">
        <ele>1701</ele>
        <time>2024-05-25T09:33:20Z</time>
      </trkpt>
      <trkpt lat="44.76137" lon="5.52382">
        <ele>1702</ele>
        <time>2024-05-25T09:33:31Z</time>
      </trkpt>
      <trkpt lat="44.76143" lon="5.52392">
        <ele>1704</ele>
        <time>2024-05-25T09:33:41Z</time>
      </trkpt>
      <trkpt lat="44.76151" lon="5.52399">
        <ele>1704</ele>
        <time>2024-05-25T09:33:51Z</time>
      </trkpt>
      <trkpt lat="44.76158" lon="5.52407">
        <ele>1704</ele>
        <time>2024-05-25T09:34:02Z</time>
      </trkpt>
      <trkpt lat="44.76165" lon="5.52415">
        <ele>1703</ele>
        <time>2024-05-25T09:34:12Z</time>
      </trkpt>
      <trkpt lat="44.76174" lon="5.52418">
        <ele>1703</ele>
        <time>2024-05-25T09:34:22Z</time>
      </trkpt>
      <trkpt lat="44.76184" lon="5.52418">
        <ele>1703</ele>
        <time>2024-05-25T09:34:32Z</time>
      </trkpt>
      <trkpt lat="44.76193" lon="5.52419">
        <ele>1704</ele>
        <time>2024-05-25T09:34:43Z</time>
      </trkpt>
      <trkpt lat="44.76202" lon="5.52416">
        <ele>1703</ele>
        <time>2024-05-25T09:34:53Z</time>
      </trkpt>
      <trkpt lat="44.7621" lon="5.52408">
        <ele>1703</ele>
        <time>2024-05-25T09:35:03Z</time>
      </trkpt>
      <trkpt lat="44.76219" lon="5.52404">
        <ele>1702</ele>
        <time>2024-05-25T09:35:11Z</time>
      </trkpt>
      <trkpt lat="44.76228" lon="5.52403">
        <ele>1702</ele>
        <time>2024-05-25T09:35:22Z</time>
      </trkpt>
      <trkpt lat="44.76237" lon="5.52398">
        <ele>1702</ele>
        <time>2024-05-25T09:35:31Z</time>
      </trkpt>
      <trkpt lat="44.76245" lon="5.52392">
        <ele>1702</ele>
        <time>2024-05-25T09:35:40Z</time>
      </trkpt>
      <trkpt lat="44.76252" lon="5.52383">
        <ele>1702</ele>
        <time>2024-05-25T09:35:49Z</time>
      </trkpt>
      <trkpt lat="44.76259" lon="5.52373">
        <ele>1702</ele>
        <time>2024-05-25T09:36:00Z</time>
      </trkpt>
      <trkpt lat="44.76267" lon="5.52366">
        <ele>1701</ele>
        <time>2024-05-25T09:36:11Z</time>
      </trkpt>
      <trkpt lat="44.76274" lon="5.52369">
        <ele>1701</ele>
        <time>2024-05-25T09:36:37Z</time>
      </trkpt>
      <trkpt lat="44.7628" lon="5.52361">
        <ele>1701</ele>
        <time>2024-05-25T09:36:48Z</time>
      </trkpt>
      <trkpt lat="44.76283" lon="5.52348">
        <ele>1703</ele>
        <time>2024-05-25T09:36:59Z</time>
      </trkpt>
      <trkpt lat="44.76288" lon="5.52337">
        <ele>1704</ele>
        <time>2024-05-25T09:37:09Z</time>
      </trkpt>
      <trkpt lat="44.76295" lon="5.52332">
        <ele>1705</ele>
        <time>2024-05-25T09:37:25Z</time>
      </trkpt>
      <trkpt lat="44.76299" lon="5.52321">
        <ele>1704</ele>
        <time>2024-05-25T09:37:37Z</time>
      </trkpt>
      <trkpt lat="44.76308" lon="5.52317">
        <ele>1704</ele>
        <time>2024-05-25T09:37:47Z</time>
      </trkpt>
      <trkpt lat="44.76316" lon="5.52323">
        <ele>1703</ele>
        <time>2024-05-25T09:37:56Z</time>
      </trkpt>
      <trkpt lat="44.76324" lon="5.52331">
        <ele>1701</ele>
        <time>2024-05-25T09:38:08Z</time>
      </trkpt>
      <trkpt lat="44.76331" lon="5.52339">
        <ele>1700</ele>
        <time>2024-05-25T09:38:18Z</time>
      </trkpt>
      <trkpt lat="44.76338" lon="5.52348">
        <ele>1699</ele>
        <time>2024-05-25T09:38:28Z</time>
      </trkpt>
      <trkpt lat="44.76344" lon="5.52358">
        <ele>1698</ele>
        <time>2024-05-25T09:38:37Z</time>
      </trkpt>
      <trkpt lat="44.76352" lon="5.52366">
        <ele>1698</ele>
        <time>2024-05-25T09:38:45Z</time>
      </trkpt>
      <trkpt lat="44.76356" lon="5.52376">
        <ele>1697</ele>
        <time>2024-05-25T09:38:54Z</time>
      </trkpt>
      <trkpt lat="44.76353" lon="5.52386">
        <ele>1697</ele>
        <time>2024-05-25T09:39:16Z</time>
      </trkpt>
      <trkpt lat="44.7635" lon="5.52395">
        <ele>1696</ele>
        <time>2024-05-25T09:39:52Z</time>
      </trkpt>
      <trkpt lat="44.76349" lon="5.52393">
        <ele>1697</ele>
        <time>2024-05-25T09:41:00Z</time>
      </trkpt>
      <trkpt lat="44.76351" lon="5.52386">
        <ele>1697</ele>
        <time>2024-05-25T09:41:23Z</time>
      </trkpt>
      <trkpt lat="44.76346" lon="5.52384">
        <ele>1696</ele>
        <time>2024-05-25T09:42:50Z</time>
      </trkpt>
      <trkpt lat="44.76349" lon="5.52377">
        <ele>1696</ele>
        <time>2024-05-25T09:43:33Z</time>
      </trkpt>
      <trkpt lat="44.76358" lon="5.52379">
        <ele>1697</ele>
        <time>2024-05-25T09:43:44Z</time>
      </trkpt>
      <trkpt lat="44.76367" lon="5.52383">
        <ele>1697</ele>
        <time>2024-05-25T09:44:01Z</time>
      </trkpt>
      <trkpt lat="44.76375" lon="5.52391">
        <ele>1697</ele>
        <time>2024-05-25T09:44:11Z</time>
      </trkpt>
      <trkpt lat="44.76384" lon="5.52396">
        <ele>1698</ele>
        <time>2024-05-25T09:44:20Z</time>
      </trkpt>
      <trkpt lat="44.76392" lon="5.52404">
        <ele>1699</ele>
        <time>2024-05-25T09:44:34Z</time>
      </trkpt>
      <trkpt lat="44.764" lon="5.52411">
        <ele>1700</ele>
        <time>2024-05-25T09:44:44Z</time>
      </trkpt>
      <trkpt lat="44.76407" lon="5.52419">
        <ele>1703</ele>
        <time>2024-05-25T09:45:05Z</time>
      </trkpt>
      <trkpt lat="44.76416" lon="5.52422">
        <ele>1703</ele>
        <time>2024-05-25T09:45:13Z</time>
      </trkpt>
      <trkpt lat="44.76425" lon="5.5242">
        <ele>1704</ele>
        <time>2024-05-25T09:45:23Z</time>
      </trkpt>
      <trkpt lat="44.76433" lon="5.52416">
        <ele>1705</ele>
        <time>2024-05-25T09:45:34Z</time>
      </trkpt>
      <trkpt lat="44.76436" lon="5.52404">
        <ele>1707</ele>
        <time>2024-05-25T09:45:50Z</time>
      </trkpt>
      <trkpt lat="44.76439" lon="5.52394">
        <ele>1708</ele>
        <time>2024-05-25T09:46:00Z</time>
      </trkpt>
      <trkpt lat="44.76446" lon="5.52384">
        <ele>1709</ele>
        <time>2024-05-25T09:46:11Z</time>
      </trkpt>
      <trkpt lat="44.76454" lon="5.5238">
        <ele>1710</ele>
        <time>2024-05-25T09:46:22Z</time>
      </trkpt>
      <trkpt lat="44.76463" lon="5.52383">
        <ele>1711</ele>
        <time>2024-05-25T09:46:31Z</time>
      </trkpt>
      <trkpt lat="44.76471" lon="5.52387">
        <ele>1712</ele>
        <time>2024-05-25T09:46:45Z</time>
      </trkpt>
      <trkpt lat="44.7648" lon="5.52392">
        <ele>1714</ele>
        <time>2024-05-25T09:46:55Z</time>
      </trkpt>
      <trkpt lat="44.76483" lon="5.52403">
        <ele>1714</ele>
        <time>2024-05-25T09:47:06Z</time>
      </trkpt>
      <trkpt lat="44.76482" lon="5.52416">
        <ele>1716</ele>
        <time>2024-05-25T09:47:15Z</time>
      </trkpt>
      <trkpt lat="44.76481" lon="5.52429">
        <ele>1717</ele>
        <time>2024-05-25T09:47:25Z</time>
      </trkpt>
      <trkpt lat="44.7649" lon="5.52437">
        <ele>1718</ele>
        <time>2024-05-25T09:47:34Z</time>
      </trkpt>
      <trkpt lat="44.76498" lon="5.52444">
        <ele>1718</ele>
        <time>2024-05-25T09:47:42Z</time>
      </trkpt>
      <trkpt lat="44.76506" lon="5.52451">
        <ele>1719</ele>
        <time>2024-05-25T09:47:50Z</time>
      </trkpt>
      <trkpt lat="44.76514" lon="5.52459">
        <ele>1720</ele>
        <time>2024-05-25T09:48:00Z</time>
      </trkpt>
      <trkpt lat="44.76522" lon="5.52464">
        <ele>1721</ele>
        <time>2024-05-25T09:48:14Z</time>
      </trkpt>
      <trkpt lat="44.7653" lon="5.52471">
        <ele>1723</ele>
        <time>2024-05-25T09:48:26Z</time>
      </trkpt>
      <trkpt lat="44.76538" lon="5.52478">
        <ele>1723</ele>
        <time>2024-05-25T09:48:34Z</time>
      </trkpt>
      <trkpt lat="44.76546" lon="5.52486">
        <ele>1725</ele>
        <time>2024-05-25T09:48:55Z</time>
      </trkpt>
      <trkpt lat="44.76553" lon="5.52495">
        <ele>1726</ele>
        <time>2024-05-25T09:49:08Z</time>
      </trkpt>
      <trkpt lat="44.76559" lon="5.52505">
        <ele>1728</ele>
        <time>2024-05-25T09:49:22Z</time>
      </trkpt>
      <trkpt lat="44.76567" lon="5.52513">
        <ele>1728</ele>
        <time>2024-05-25T09:49:32Z</time>
      </trkpt>
      <trkpt lat="44.76573" lon="5.52522">
        <ele>1729</ele>
        <time>2024-05-25T09:49:43Z</time>
      </trkpt>
      <trkpt lat="44.76581" lon="5.52528">
        <ele>1730</ele>
        <time>2024-05-25T09:49:57Z</time>
      </trkpt>
      <trkpt lat="44.76589" lon="5.52536">
        <ele>1731</ele>
        <time>2024-05-25T09:50:07Z</time>
      </trkpt>
      <trkpt lat="44.76597" lon="5.52543">
        <ele>1732</ele>
        <time>2024-05-25T09:50:18Z</time>
      </trkpt>
      <trkpt lat="44.76607" lon="5.52546">
        <ele>1733</ele>
        <time>2024-05-25T09:50:34Z</time>
      </trkpt>
      <trkpt lat="44.76614" lon="5.52554">
        <ele>1733</ele>
        <time>2024-05-25T09:50:41Z</time>
      </trkpt>
      <trkpt lat="44.76622" lon="5.52561">
        <ele>1735</ele>
        <time>2024-05-25T09:50:56Z</time>
      </trkpt>
      <trkpt lat="44.7663" lon="5.52568">
        <ele>1736</ele>
        <time>2024-05-25T09:51:12Z</time>
      </trkpt>
      <trkpt lat="44.76639" lon="5.5257">
        <ele>1737</ele>
        <time>2024-05-25T09:51:25Z</time>
      </trkpt>
      <trkpt lat="44.76647" lon="5.52575">
        <ele>1738</ele>
        <time>2024-05-25T09:51:35Z</time>
      </trkpt>
      <trkpt lat="44.76657" lon="5.52578">
        <ele>1739</ele>
        <time>2024-05-25T09:51:45Z</time>
      </trkpt>
      <trkpt lat="44.76666" lon="5.52579">
        <ele>1740</ele>
        <time>2024-05-25T09:51:59Z</time>
      </trkpt>
      <trkpt lat="44.76675" lon="5.5258">
        <ele>1739</ele>
        <time>2024-05-25T09:52:09Z</time>
      </trkpt>
      <trkpt lat="44.76685" lon="5.52581">
        <ele>1739</ele>
        <time>2024-05-25T09:52:19Z</time>
      </trkpt>
      <trkpt lat="44.76694" lon="5.52585">
        <ele>1740</ele>
        <time>2024-05-25T09:52:26Z</time>
      </trkpt>
      <trkpt lat="44.76703" lon="5.52583">
        <ele>1740</ele>
        <time>2024-05-25T09:52:41Z</time>
      </trkpt>
      <trkpt lat="44.76711" lon="5.5258">
        <ele>1740</ele>
        <time>2024-05-25T09:52:49Z</time>
      </trkpt>
      <trkpt lat="44.7672" lon="5.52583">
        <ele>1741</ele>
        <time>2024-05-25T09:52:59Z</time>
      </trkpt>
      <trkpt lat="44.76729" lon="5.52583">
        <ele>1742</ele>
        <time>2024-05-25T09:53:16Z</time>
      </trkpt>
      <trkpt lat="44.76738" lon="5.52578">
        <ele>1744</ele>
        <time>2024-05-25T09:53:31Z</time>
      </trkpt>
      <trkpt lat="44.76746" lon="5.52575">
        <ele>1744</ele>
        <time>2024-05-25T09:53:41Z</time>
      </trkpt>
      <trkpt lat="44.76753" lon="5.52566">
        <ele>1744</ele>
        <time>2024-05-25T09:53:49Z</time>
      </trkpt>
      <trkpt lat="44.76762" lon="5.5256">
        <ele>1745</ele>
        <time>2024-05-25T09:54:00Z</time>
      </trkpt>
      <trkpt lat="44.7677" lon="5.52555">
        <ele>1745</ele>
        <time>2024-05-25T09:54:11Z</time>
      </trkpt>
      <trkpt lat="44.76773" lon="5.52543">
        <ele>1745</ele>
        <time>2024-05-25T09:54:21Z</time>
      </trkpt>
      <trkpt lat="44.76779" lon="5.52533">
        <ele>1746</ele>
        <time>2024-05-25T09:54:41Z</time>
      </trkpt>
      <trkpt lat="44.76788" lon="5.52529">
        <ele>1745</ele>
        <time>2024-05-25T09:54:51Z</time>
      </trkpt>
      <trkpt lat="44.76797" lon="5.52528">
        <ele>1745</ele>
        <time>2024-05-25T09:55:00Z</time>
      </trkpt>
      <trkpt lat="44.76805" lon="5.5252">
        <ele>1746</ele>
        <time>2024-05-25T09:55:12Z</time>
      </trkpt>
      <trkpt lat="44.76811" lon="5.5251">
        <ele>1747</ele>
        <time>2024-05-25T09:55:20Z</time>
      </trkpt>
      <trkpt lat="44.76817" lon="5.525">
        <ele>1747</ele>
        <time>2024-05-25T09:55:28Z</time>
      </trkpt>
      <trkpt lat="44.76823" lon="5.52489">
        <ele>1748</ele>
        <time>2024-05-25T09:55:42Z</time>
      </trkpt>
      <trkpt lat="44.76831" lon="5.52483">
        <ele>1750</ele>
        <time>2024-05-25T09:55:57Z</time>
      </trkpt>
      <trkpt lat="44.76837" lon="5.52474">
        <ele>1751</ele>
        <time>2024-05-25T09:56:07Z</time>
      </trkpt>
      <trkpt lat="44.76844" lon="5.52466">
        <ele>1753</ele>
        <time>2024-05-25T09:56:18Z</time>
      </trkpt>
      <trkpt lat="44.7685" lon="5.52455">
        <ele>1753</ele>
        <time>2024-05-25T09:56:27Z</time>
      </trkpt>
      <trkpt lat="44.76859" lon="5.5245">
        <ele>1753</ele>
        <time>2024-05-25T09:56:36Z</time>
      </trkpt>
      <trkpt lat="44.76866" lon="5.52442">
        <ele>1753</ele>
        <time>2024-05-25T09:56:45Z</time>
      </trkpt>
      <trkpt lat="44.76874" lon="5.52434">
        <ele>1753</ele>
        <time>2024-05-25T09:56:54Z</time>
      </trkpt>
      <trkpt lat="44.76878" lon="5.52423">
        <ele>1754</ele>
        <time>2024-05-25T09:57:02Z</time>
      </trkpt>
      <trkpt lat="44.76884" lon="5.52415">
        <ele>1755</ele>
        <time>2024-05-25T09:57:11Z</time>
      </trkpt>
      <trkpt lat="44.76893" lon="5.52411">
        <ele>1755</ele>
        <time>2024-05-25T09:57:21Z</time>
      </trkpt>
      <trkpt lat="44.76901" lon="5.52404">
        <ele>1756</ele>
        <time>2024-05-25T09:57:31Z</time>
      </trkpt>
      <trkpt lat="44.7691" lon="5.52399">
        <ele>1757</ele>
        <time>2024-05-25T09:57:40Z</time>
      </trkpt>
      <trkpt lat="44.76919" lon="5.52396">
        <ele>1757</ele>
        <time>2024-05-25T09:57:50Z</time>
      </trkpt>
      <trkpt lat="44.76922" lon="5.52385">
        <ele>1758</ele>
        <time>2024-05-25T09:58:00Z</time>
      </trkpt>
      <trkpt lat="44.76925" lon="5.52372">
        <ele>1759</ele>
        <time>2024-05-25T09:58:12Z</time>
      </trkpt>
      <trkpt lat="44.76929" lon="5.52361">
        <ele>1760</ele>
        <time>2024-05-25T09:58:23Z</time>
      </trkpt>
      <trkpt lat="44.76937" lon="5.52359">
        <ele>1761</ele>
        <time>2024-05-25T09:58:32Z</time>
      </trkpt>
      <trkpt lat="44.76947" lon="5.52357">
        <ele>1762</ele>
        <time>2024-05-25T09:58:42Z</time>
      </trkpt>
      <trkpt lat="44.76955" lon="5.52352">
        <ele>1762</ele>
        <time>2024-05-25T09:58:51Z</time>
      </trkpt>
      <trkpt lat="44.76963" lon="5.52346">
        <ele>1763</ele>
        <time>2024-05-25T09:59:05Z</time>
      </trkpt>
      <trkpt lat="44.76973" lon="5.52345">
        <ele>1764</ele>
        <time>2024-05-25T09:59:14Z</time>
      </trkpt>
      <trkpt lat="44.76982" lon="5.52345">
        <ele>1765</ele>
        <time>2024-05-25T09:59:24Z</time>
      </trkpt>
      <trkpt lat="44.76988" lon="5.52336">
        <ele>1766</ele>
        <time>2024-05-25T09:59:36Z</time>
      </trkpt>
      <trkpt lat="44.76995" lon="5.52328">
        <ele>1766</ele>
        <time>2024-05-25T09:59:46Z</time>
      </trkpt>
      <trkpt lat="44.77001" lon="5.52317">
        <ele>1766</ele>
        <time>2024-05-25T09:59:58Z</time>
      </trkpt>
      <trkpt lat="44.77006" lon="5.52307">
        <ele>1767</ele>
        <time>2024-05-25T10:00:25Z</time>
      </trkpt>
      <trkpt lat="44.77015" lon="5.52308">
        <ele>1767</ele>
        <time>2024-05-25T10:00:34Z</time>
      </trkpt>
      <trkpt lat="44.77025" lon="5.52306">
        <ele>1766</ele>
        <time>2024-05-25T10:00:43Z</time>
      </trkpt>
      <trkpt lat="44.77033" lon="5.52301">
        <ele>1766</ele>
        <time>2024-05-25T10:00:55Z</time>
      </trkpt>
      <trkpt lat="44.77042" lon="5.52302">
        <ele>1766</ele>
        <time>2024-05-25T10:01:03Z</time>
      </trkpt>
      <trkpt lat="44.77051" lon="5.523">
        <ele>1764</ele>
        <time>2024-05-25T10:01:12Z</time>
      </trkpt>
      <trkpt lat="44.7706" lon="5.52299">
        <ele>1764</ele>
        <time>2024-05-25T10:01:21Z</time>
      </trkpt>
      <trkpt lat="44.77069" lon="5.52299">
        <ele>1764</ele>
        <time>2024-05-25T10:01:29Z</time>
      </trkpt>
      <trkpt lat="44.77072" lon="5.52287">
        <ele>1765</ele>
        <time>2024-05-25T10:01:38Z</time>
      </trkpt>
      <trkpt lat="44.77077" lon="5.52277">
        <ele>1765</ele>
        <time>2024-05-25T10:01:47Z</time>
      </trkpt>
      <trkpt lat="44.7708" lon="5.52265">
        <ele>1766</ele>
        <time>2024-05-25T10:01:58Z</time>
      </trkpt>
      <trkpt lat="44.77084" lon="5.52253">
        <ele>1767</ele>
        <time>2024-05-25T10:02:08Z</time>
      </trkpt>
      <trkpt lat="44.77087" lon="5.52241">
        <ele>1768</ele>
        <time>2024-05-25T10:02:20Z</time>
      </trkpt>
      <trkpt lat="44.77092" lon="5.5223">
        <ele>1769</ele>
        <time>2024-05-25T10:02:30Z</time>
      </trkpt>
      <trkpt lat="44.77097" lon="5.5222">
        <ele>1770</ele>
        <time>2024-05-25T10:02:42Z</time>
      </trkpt>
      <trkpt lat="44.77106" lon="5.52222">
        <ele>1770</ele>
        <time>2024-05-25T10:02:53Z</time>
      </trkpt>
      <trkpt lat="44.77113" lon="5.52215">
        <ele>1770</ele>
        <time>2024-05-25T10:03:17Z</time>
      </trkpt>
      <trkpt lat="44.77122" lon="5.52215">
        <ele>1770</ele>
        <time>2024-05-25T10:03:41Z</time>
      </trkpt>
      <trkpt lat="44.77123" lon="5.5221">
        <ele>1768</ele>
        <time>2024-05-25T10:04:44Z</time>
      </trkpt>
      <trkpt lat="44.77124" lon="5.52208">
        <ele>1769</ele>
        <time>2024-05-25T10:07:37Z</time>
      </trkpt>
      <trkpt lat="44.77124" lon="5.52208">
        <ele>1769</ele>
        <time>2024-05-25T10:09:50Z</time>
      </trkpt>
      <trkpt lat="44.77125" lon="5.52208">
        <ele>1769</ele>
        <time>2024-05-25T10:10:46Z</time>
      </trkpt>
      <trkpt lat="44.77124" lon="5.5221">
        <ele>1769</ele>
        <time>2024-05-25T10:11:35Z</time>
      </trkpt>
      <trkpt lat="44.77126" lon="5.52209">
        <ele>1769</ele>
        <time>2024-05-25T10:13:38Z</time>
      </trkpt>
      <trkpt lat="44.77124" lon="5.52205">
        <ele>1769</ele>
        <time>2024-05-25T10:16:16Z</time>
      </trkpt>
      <trkpt lat="44.77122" lon="5.52207">
        <ele>1769</ele>
        <time>2024-05-25T10:17:27Z</time>
      </trkpt>
      <trkpt lat="44.77126" lon="5.52211">
        <ele>1769</ele>
        <time>2024-05-25T10:18:45Z</time>
      </trkpt>
      <trkpt lat="44.77127" lon="5.52208">
        <ele>1769</ele>
        <time>2024-05-25T10:19:38Z</time>
      </trkpt>
      <trkpt lat="44.77125" lon="5.52209">
        <ele>1769</ele>
        <time>2024-05-25T10:21:23Z</time>
      </trkpt>
      <trkpt lat="44.77125" lon="5.52208">
        <ele>1769</ele>
        <time>2024-05-25T10:23:30Z</time>
      </trkpt>
      <trkpt lat="44.77121" lon="5.52207">
        <ele>1769</ele>
        <time>2024-05-25T10:24:45Z</time>
      </trkpt>
      <trkpt lat="44.77125" lon="5.52208">
        <ele>1769</ele>
        <time>2024-05-25T10:27:49Z</time>
      </trkpt>
      <trkpt lat="44.77126" lon="5.52215">
        <ele>1769</ele>
        <time>2024-05-25T10:28:59Z</time>
      </trkpt>
      <trkpt lat="44.77125" lon="5.52207">
        <ele>1770</ele>
        <time>2024-05-25T10:31:52Z</time>
      </trkpt>
      <trkpt lat="44.77125" lon="5.52205">
        <ele>1769</ele>
        <time>2024-05-25T10:32:28Z</time>
      </trkpt>
      <trkpt lat="44.77125" lon="5.52205">
        <ele>1769</ele>
        <time>2024-05-25T10:35:11Z</time>
      </trkpt>
      <trkpt lat="44.77126" lon="5.52212">
        <ele>1769</ele>
        <time>2024-05-25T10:36:05Z</time>
      </trkpt>
      <trkpt lat="44.77124" lon="5.52206">
        <ele>1770</ele>
        <time>2024-05-25T10:37:03Z</time>
      </trkpt>
      <trkpt lat="44.77124" lon="5.52205">
        <ele>1769</ele>
        <time>2024-05-25T10:39:39Z</time>
      </trkpt>
      <trkpt lat="44.77124" lon="5.52207">
        <ele>1770</ele>
        <time>2024-05-25T10:41:22Z</time>
      </trkpt>
      <trkpt lat="44.77119" lon="5.52216">
        <ele>1770</ele>
        <time>2024-05-25T10:41:35Z</time>
      </trkpt>
      <trkpt lat="44.77109" lon="5.52219">
        <ele>1770</ele>
        <time>2024-05-25T10:41:43Z</time>
      </trkpt>
      <trkpt lat="44.77108" lon="5.52219">
        <ele>1770</ele>
        <time>2024-05-25T10:42:36Z</time>
      </trkpt>
      <trkpt lat="44.77114" lon="5.5221">
        <ele>1770</ele>
        <time>2024-05-25T10:43:05Z</time>
      </trkpt>
      <trkpt lat="44.77124" lon="5.52209">
        <ele>1770</ele>
        <time>2024-05-25T10:43:30Z</time>
      </trkpt>
      <trkpt lat="44.77125" lon="5.52208">
        <ele>1770</ele>
        <time>2024-05-25T10:44:37Z</time>
      </trkpt>
      <trkpt lat="44.77132" lon="5.5221">
        <ele>1769</ele>
        <time>2024-05-25T10:45:49Z</time>
      </trkpt>
      <trkpt lat="44.77141" lon="5.52214">
        <ele>1768</ele>
        <time>2024-05-25T10:46:00Z</time>
      </trkpt>
      <trkpt lat="44.77148" lon="5.52222">
        <ele>1767</ele>
        <time>2024-05-25T10:46:12Z</time>
      </trkpt>
      <trkpt lat="44.77154" lon="5.52233">
        <ele>1766</ele>
        <time>2024-05-25T10:46:21Z</time>
      </trkpt>
      <trkpt lat="44.7716" lon="5.52244">
        <ele>1766</ele>
        <time>2024-05-25T10:46:28Z</time>
      </trkpt>
      <trkpt lat="44.77165" lon="5.52255">
        <ele>1765</ele>
        <time>2024-05-25T10:46:40Z</time>
      </trkpt>
      <trkpt lat="44.77173" lon="5.52262">
        <ele>1764</ele>
        <time>2024-05-25T10:46:52Z</time>
      </trkpt>
      <trkpt lat="44.7718" lon="5.5227">
        <ele>1764</ele>
        <time>2024-05-25T10:47:01Z</time>
      </trkpt>
      <trkpt lat="44.77186" lon="5.5228">
        <ele>1764</ele>
        <time>2024-05-25T10:47:12Z</time>
      </trkpt>
      <trkpt lat="44.7719" lon="5.52291">
        <ele>1764</ele>
        <time>2024-05-25T10:47:25Z</time>
      </trkpt>
      <trkpt lat="44.77198" lon="5.52297">
        <ele>1764</ele>
        <time>2024-05-25T10:47:38Z</time>
      </trkpt>
      <trkpt lat="44.77208" lon="5.52299">
        <ele>1762</ele>
        <time>2024-05-25T10:47:47Z</time>
      </trkpt>
      <trkpt lat="44.77218" lon="5.52298">
        <ele>1762</ele>
        <time>2024-05-25T10:47:55Z</time>
      </trkpt>
      <trkpt lat="44.77227" lon="5.52303">
        <ele>1762</ele>
        <time>2024-05-25T10:48:01Z</time>
      </trkpt>
      <trkpt lat="44.77236" lon="5.52305">
        <ele>1762</ele>
        <time>2024-05-25T10:48:10Z</time>
      </trkpt>
      <trkpt lat="44.77243" lon="5.52308">
        <ele>1763</ele>
        <time>2024-05-25T10:48:32Z</time>
      </trkpt>
      <trkpt lat="44.77249" lon="5.52319">
        <ele>1763</ele>
        <time>2024-05-25T10:48:43Z</time>
      </trkpt>
      <trkpt lat="44.77252" lon="5.52331">
        <ele>1763</ele>
        <time>2024-05-25T10:48:53Z</time>
      </trkpt>
      <trkpt lat="44.77257" lon="5.52342">
        <ele>1763</ele>
        <time>2024-05-25T10:49:02Z</time>
      </trkpt>
      <trkpt lat="44.7726" lon="5.52354">
        <ele>1762</ele>
        <time>2024-05-25T10:49:15Z</time>
      </trkpt>
      <trkpt lat="44.77265" lon="5.52364">
        <ele>1761</ele>
        <time>2024-05-25T10:49:25Z</time>
      </trkpt>
      <trkpt lat="44.77274" lon="5.52369">
        <ele>1761</ele>
        <time>2024-05-25T10:49:34Z</time>
      </trkpt>
      <trkpt lat="44.77283" lon="5.52369">
        <ele>1762</ele>
        <time>2024-05-25T10:49:49Z</time>
      </trkpt>
      <trkpt lat="44.77292" lon="5.52372">
        <ele>1762</ele>
        <time>2024-05-25T10:50:00Z</time>
      </trkpt>
      <trkpt lat="44.77301" lon="5.5237">
        <ele>1761</ele>
        <time>2024-05-25T10:50:08Z</time>
      </trkpt>
      <trkpt lat="44.77311" lon="5.52368">
        <ele>1761</ele>
        <time>2024-05-25T10:50:17Z</time>
      </trkpt>
      <trkpt lat="44.77314" lon="5.52357">
        <ele>1762</ele>
        <time>2024-05-25T10:50:27Z</time>
      </trkpt>
      <trkpt lat="44.77314" lon="5.52344">
        <ele>1762</ele>
        <time>2024-05-25T10:50:34Z</time>
      </trkpt>
      <trkpt lat="44.77317" lon="5.52332">
        <ele>1762</ele>
        <time>2024-05-25T10:50:47Z</time>
      </trkpt>
      <trkpt lat="44.77325" lon="5.52325">
        <ele>1762</ele>
        <time>2024-05-25T10:50:57Z</time>
      </trkpt>
      <trkpt lat="44.77334" lon="5.52324">
        <ele>1762</ele>
        <time>2024-05-25T10:51:06Z</time>
      </trkpt>
      <trkpt lat="44.7734" lon="5.52315">
        <ele>1763</ele>
        <time>2024-05-25T10:51:16Z</time>
      </trkpt>
      <trkpt lat="44.77346" lon="5.52307">
        <ele>1762</ele>
        <time>2024-05-25T10:51:32Z</time>
      </trkpt>
      <trkpt lat="44.77355" lon="5.52305">
        <ele>1761</ele>
        <time>2024-05-25T10:51:44Z</time>
      </trkpt>
      <trkpt lat="44.77364" lon="5.52302">
        <ele>1760</ele>
        <time>2024-05-25T10:51:57Z</time>
      </trkpt>
      <trkpt lat="44.7737" lon="5.52292">
        <ele>1759</ele>
        <time>2024-05-25T10:52:07Z</time>
      </trkpt>
      <trkpt lat="44.77378" lon="5.52285">
        <ele>1758</ele>
        <time>2024-05-25T10:52:15Z</time>
      </trkpt>
      <trkpt lat="44.77385" lon="5.52276">
        <ele>1757</ele>
        <time>2024-05-25T10:52:28Z</time>
      </trkpt>
      <trkpt lat="44.77394" lon="5.52272">
        <ele>1757</ele>
        <time>2024-05-25T10:52:39Z</time>
      </trkpt>
      <trkpt lat="44.77402" lon="5.52276">
        <ele>1755</ele>
        <time>2024-05-25T10:52:51Z</time>
      </trkpt>
      <trkpt lat="44.7741" lon="5.52282">
        <ele>1755</ele>
        <time>2024-05-25T10:53:03Z</time>
      </trkpt>
      <trkpt lat="44.77418" lon="5.52278">
        <ele>1755</ele>
        <time>2024-05-25T10:53:10Z</time>
      </trkpt>
      <trkpt lat="44.77424" lon="5.52269">
        <ele>1755</ele>
        <time>2024-05-25T10:53:20Z</time>
      </trkpt>
      <trkpt lat="44.77431" lon="5.52259">
        <ele>1754</ele>
        <time>2024-05-25T10:53:31Z</time>
      </trkpt>
      <trkpt lat="44.77435" lon="5.52247">
        <ele>1754</ele>
        <time>2024-05-25T10:53:39Z</time>
      </trkpt>
      <trkpt lat="44.77439" lon="5.52234">
        <ele>1755</ele>
        <time>2024-05-25T10:53:46Z</time>
      </trkpt>
      <trkpt lat="44.77442" lon="5.52221">
        <ele>1755</ele>
        <time>2024-05-25T10:53:54Z</time>
      </trkpt>
      <trkpt lat="44.77447" lon="5.5221">
        <ele>1754</ele>
        <time>2024-05-25T10:54:09Z</time>
      </trkpt>
      <trkpt lat="44.77447" lon="5.52197">
        <ele>1753</ele>
        <time>2024-05-25T10:54:19Z</time>
      </trkpt>
      <trkpt lat="44.77451" lon="5.52184">
        <ele>1752</ele>
        <time>2024-05-25T10:54:27Z</time>
      </trkpt>
      <trkpt lat="44.77451" lon="5.52172">
        <ele>1751</ele>
        <time>2024-05-25T10:54:37Z</time>
      </trkpt>
      <trkpt lat="44.77445" lon="5.52161">
        <ele>1750</ele>
        <time>2024-05-25T10:54:52Z</time>
      </trkpt>
      <trkpt lat="44.77447" lon="5.52149">
        <ele>1750</ele>
        <time>2024-05-25T10:55:03Z</time>
      </trkpt>
      <trkpt lat="44.77449" lon="5.52136">
        <ele>1750</ele>
        <time>2024-05-25T10:55:09Z</time>
      </trkpt>
      <trkpt lat="44.77455" lon="5.52123">
        <ele>1750</ele>
        <time>2024-05-25T10:55:18Z</time>
      </trkpt>
      <trkpt lat="44.77458" lon="5.52112">
        <ele>1751</ele>
        <time>2024-05-25T10:55:34Z</time>
      </trkpt>
      <trkpt lat="44.77459" lon="5.52101">
        <ele>1751</ele>
        <time>2024-05-25T10:55:55Z</time>
      </trkpt>
      <trkpt lat="44.77462" lon="5.52089">
        <ele>1750</ele>
        <time>2024-05-25T10:56:08Z</time>
      </trkpt>
      <trkpt lat="44.77464" lon="5.52075">
        <ele>1748</ele>
        <time>2024-05-25T10:56:21Z</time>
      </trkpt>
      <trkpt lat="44.77467" lon="5.52063">
        <ele>1747</ele>
        <time>2024-05-25T10:56:33Z</time>
      </trkpt>
      <trkpt lat="44.77471" lon="5.52051">
        <ele>1746</ele>
        <time>2024-05-25T10:56:42Z</time>
      </trkpt>
      <trkpt lat="44.77474" lon="5.52039">
        <ele>1745</ele>
        <time>2024-05-25T10:56:51Z</time>
      </trkpt>
      <trkpt lat="44.77475" lon="5.52025">
        <ele>1744</ele>
        <time>2024-05-25T10:57:00Z</time>
      </trkpt>
      <trkpt lat="44.77479" lon="5.52013">
        <ele>1744</ele>
        <time>2024-05-25T10:57:09Z</time>
      </trkpt>
      <trkpt lat="44.77485" lon="5.52003">
        <ele>1744</ele>
        <time>2024-05-25T10:57:21Z</time>
      </trkpt>
      <trkpt lat="44.77486" lon="5.51994">
        <ele>1744</ele>
        <time>2024-05-25T10:57:55Z</time>
      </trkpt>
      <trkpt lat="44.77488" lon="5.51984">
        <ele>1744</ele>
        <time>2024-05-25T10:58:12Z</time>
      </trkpt>
      <trkpt lat="44.77491" lon="5.51972">
        <ele>1745</ele>
        <time>2024-05-25T10:58:21Z</time>
      </trkpt>
      <trkpt lat="44.77492" lon="5.51958">
        <ele>1744</ele>
        <time>2024-05-25T10:58:32Z</time>
      </trkpt>
      <trkpt lat="44.77493" lon="5.51946">
        <ele>1744</ele>
        <time>2024-05-25T10:58:43Z</time>
      </trkpt>
      <trkpt lat="44.77492" lon="5.51932">
        <ele>1743</ele>
        <time>2024-05-25T10:58:52Z</time>
      </trkpt>
      <trkpt lat="44.77488" lon="5.5192">
        <ele>1742</ele>
        <time>2024-05-25T10:59:02Z</time>
      </trkpt>
      <trkpt lat="44.77483" lon="5.51909">
        <ele>1741</ele>
        <time>2024-05-25T10:59:12Z</time>
      </trkpt>
      <trkpt lat="44.7748" lon="5.51896">
        <ele>1741</ele>
        <time>2024-05-25T10:59:22Z</time>
      </trkpt>
      <trkpt lat="44.77477" lon="5.51883">
        <ele>1741</ele>
        <time>2024-05-25T10:59:30Z</time>
      </trkpt>
      <trkpt lat="44.77472" lon="5.51871">
        <ele>1741</ele>
        <time>2024-05-25T10:59:38Z</time>
      </trkpt>
      <trkpt lat="44.77471" lon="5.51858">
        <ele>1741</ele>
        <time>2024-05-25T10:59:47Z</time>
      </trkpt>
      <trkpt lat="44.77473" lon="5.51845">
        <ele>1741</ele>
        <time>2024-05-25T10:59:54Z</time>
      </trkpt>
      <trkpt lat="44.77472" lon="5.51832">
        <ele>1742</ele>
        <time>2024-05-25T11:00:04Z</time>
      </trkpt>
      <trkpt lat="44.77468" lon="5.51819">
        <ele>1742</ele>
        <time>2024-05-25T11:00:13Z</time>
      </trkpt>
      <trkpt lat="44.77466" lon="5.51806">
        <ele>1742</ele>
        <time>2024-05-25T11:00:24Z</time>
      </trkpt>
      <trkpt lat="44.77474" lon="5.51806">
        <ele>1743</ele>
        <time>2024-05-25T11:01:19Z</time>
      </trkpt>
      <trkpt lat="44.77482" lon="5.51814">
        <ele>1745</ele>
        <time>2024-05-25T11:01:30Z</time>
      </trkpt>
      <trkpt lat="44.77488" lon="5.51824">
        <ele>1745</ele>
        <time>2024-05-25T11:01:42Z</time>
      </trkpt>
      <trkpt lat="44.77494" lon="5.51834">
        <ele>1745</ele>
        <time>2024-05-25T11:01:52Z</time>
      </trkpt>
      <trkpt lat="44.775" lon="5.51845">
        <ele>1745</ele>
        <time>2024-05-25T11:02:02Z</time>
      </trkpt>
      <trkpt lat="44.77505" lon="5.51856">
        <ele>1746</ele>
        <time>2024-05-25T11:02:13Z</time>
      </trkpt>
      <trkpt lat="44.77513" lon="5.51864">
        <ele>1748</ele>
        <time>2024-05-25T11:02:29Z</time>
      </trkpt>
      <trkpt lat="44.77522" lon="5.51862">
        <ele>1750</ele>
        <time>2024-05-25T11:02:39Z</time>
      </trkpt>
      <trkpt lat="44.77531" lon="5.51866">
        <ele>1751</ele>
        <time>2024-05-25T11:02:49Z</time>
      </trkpt>
      <trkpt lat="44.7754" lon="5.5187">
        <ele>1752</ele>
        <time>2024-05-25T11:03:00Z</time>
      </trkpt>
      <trkpt lat="44.77548" lon="5.51865">
        <ele>1754</ele>
        <time>2024-05-25T11:03:17Z</time>
      </trkpt>
      <trkpt lat="44.77554" lon="5.51855">
        <ele>1755</ele>
        <time>2024-05-25T11:03:31Z</time>
      </trkpt>
      <trkpt lat="44.7756" lon="5.51855">
        <ele>1757</ele>
        <time>2024-05-25T11:03:51Z</time>
      </trkpt>
      <trkpt lat="44.77562" lon="5.51867">
        <ele>1758</ele>
        <time>2024-05-25T11:04:04Z</time>
      </trkpt>
      <trkpt lat="44.77571" lon="5.51876">
        <ele>1761</ele>
        <time>2024-05-25T11:04:28Z</time>
      </trkpt>
      <trkpt lat="44.7758" lon="5.5188">
        <ele>1763</ele>
        <time>2024-05-25T11:04:42Z</time>
      </trkpt>
      <trkpt lat="44.77587" lon="5.51886">
        <ele>1765</ele>
        <time>2024-05-25T11:04:56Z</time>
      </trkpt>
      <trkpt lat="44.77594" lon="5.51895">
        <ele>1766</ele>
        <time>2024-05-25T11:05:12Z</time>
      </trkpt>
      <trkpt lat="44.776" lon="5.51905">
        <ele>1769</ele>
        <time>2024-05-25T11:05:33Z</time>
      </trkpt>
      <trkpt lat="44.77604" lon="5.51917">
        <ele>1771</ele>
        <time>2024-05-25T11:05:51Z</time>
      </trkpt>
      <trkpt lat="44.77606" lon="5.51929">
        <ele>1773</ele>
        <time>2024-05-25T11:06:06Z</time>
      </trkpt>
      <trkpt lat="44.77613" lon="5.51935">
        <ele>1774</ele>
        <time>2024-05-25T11:06:17Z</time>
      </trkpt>
      <trkpt lat="44.77621" lon="5.51943">
        <ele>1775</ele>
        <time>2024-05-25T11:06:28Z</time>
      </trkpt>
      <trkpt lat="44.77629" lon="5.5195">
        <ele>1777</ele>
        <time>2024-05-25T11:06:45Z</time>
      </trkpt>
      <trkpt lat="44.77633" lon="5.51961">
        <ele>1777</ele>
        <time>2024-05-25T11:06:58Z</time>
      </trkpt>
      <trkpt lat="44.77634" lon="5.51973">
        <ele>1779</ele>
        <time>2024-05-25T11:07:13Z</time>
      </trkpt>
      <trkpt lat="44.77635" lon="5.51986">
        <ele>1781</ele>
        <time>2024-05-25T11:07:30Z</time>
      </trkpt>
      <trkpt lat="44.77636" lon="5.51998">
        <ele>1782</ele>
        <time>2024-05-25T11:07:44Z</time>
      </trkpt>
      <trkpt lat="44.77642" lon="5.52008">
        <ele>1784</ele>
        <time>2024-05-25T11:07:59Z</time>
      </trkpt>
      <trkpt lat="44.77646" lon="5.52021">
        <ele>1787</ele>
        <time>2024-05-25T11:08:23Z</time>
      </trkpt>
      <trkpt lat="44.7765" lon="5.52033">
        <ele>1788</ele>
        <time>2024-05-25T11:08:33Z</time>
      </trkpt>
      <trkpt lat="44.77651" lon="5.52045">
        <ele>1789</ele>
        <time>2024-05-25T11:08:47Z</time>
      </trkpt>
      <trkpt lat="44.77655" lon="5.52057">
        <ele>1790</ele>
        <time>2024-05-25T11:08:58Z</time>
      </trkpt>
      <trkpt lat="44.77657" lon="5.52069">
        <ele>1791</ele>
        <time>2024-05-25T11:09:11Z</time>
      </trkpt>
      <trkpt lat="44.77663" lon="5.5208">
        <ele>1791</ele>
        <time>2024-05-25T11:09:22Z</time>
      </trkpt>
      <trkpt lat="44.77668" lon="5.52091">
        <ele>1792</ele>
        <time>2024-05-25T11:09:33Z</time>
      </trkpt>
      <trkpt lat="44.7767" lon="5.52104">
        <ele>1793</ele>
        <time>2024-05-25T11:09:46Z</time>
      </trkpt>
      <trkpt lat="44.77671" lon="5.52117">
        <ele>1796</ele>
        <time>2024-05-25T11:10:00Z</time>
      </trkpt>
      <trkpt lat="44.77676" lon="5.52128">
        <ele>1797</ele>
        <time>2024-05-25T11:10:12Z</time>
      </trkpt>
      <trkpt lat="44.77684" lon="5.52134">
        <ele>1799</ele>
        <time>2024-05-25T11:10:23Z</time>
      </trkpt>
      <trkpt lat="44.77691" lon="5.52143">
        <ele>1801</ele>
        <time>2024-05-25T11:10:35Z</time>
      </trkpt>
      <trkpt lat="44.77695" lon="5.52154">
        <ele>1802</ele>
        <time>2024-05-25T11:10:48Z</time>
      </trkpt>
      <trkpt lat="44.77699" lon="5.52165">
        <ele>1804</ele>
        <time>2024-05-25T11:11:03Z</time>
      </trkpt>
      <trkpt lat="44.77705" lon="5.52175">
        <ele>1805</ele>
        <time>2024-05-25T11:11:14Z</time>
      </trkpt>
      <trkpt lat="44.77703" lon="5.52187">
        <ele>1806</ele>
        <time>2024-05-25T11:11:25Z</time>
      </trkpt>
      <trkpt lat="44.77707" lon="5.52199">
        <ele>1806</ele>
        <time>2024-05-25T11:11:33Z</time>
      </trkpt>
      <trkpt lat="44.77706" lon="5.52212">
        <ele>1807</ele>
        <time>2024-05-25T11:11:42Z</time>
      </trkpt>
      <trkpt lat="44.77709" lon="5.52225">
        <ele>1807</ele>
        <time>2024-05-25T11:11:52Z</time>
      </trkpt>
      <trkpt lat="44.77713" lon="5.52237">
        <ele>1806</ele>
        <time>2024-05-25T11:12:03Z</time>
      </trkpt>
      <trkpt lat="44.77715" lon="5.5225">
        <ele>1806</ele>
        <time>2024-05-25T11:12:13Z</time>
      </trkpt>
      <trkpt lat="44.77721" lon="5.52261">
        <ele>1805</ele>
        <time>2024-05-25T11:12:25Z</time>
      </trkpt>
      <trkpt lat="44.77722" lon="5.52272">
        <ele>1805</ele>
        <time>2024-05-25T11:12:35Z</time>
      </trkpt>
      <trkpt lat="44.77723" lon="5.52281">
        <ele>1805</ele>
        <time>2024-05-25T11:12:49Z</time>
      </trkpt>
      <trkpt lat="44.77731" lon="5.52287">
        <ele>1806</ele>
        <time>2024-05-25T11:13:00Z</time>
      </trkpt>
      <trkpt lat="44.77732" lon="5.523">
        <ele>1807</ele>
        <time>2024-05-25T11:13:09Z</time>
      </trkpt>
      <trkpt lat="44.77738" lon="5.52309">
        <ele>1807</ele>
        <time>2024-05-25T11:13:19Z</time>
      </trkpt>
      <trkpt lat="44.77738" lon="5.52319">
        <ele>1809</ele>
        <time>2024-05-25T11:13:32Z</time>
      </trkpt>
      <trkpt lat="44.77737" lon="5.52332">
        <ele>1811</ele>
        <time>2024-05-25T11:13:44Z</time>
      </trkpt>
      <trkpt lat="44.77736" lon="5.52332">
        <ele>1811</ele>
        <time>2024-05-25T11:15:34Z</time>
      </trkpt>
      <trkpt lat="44.77739" lon="5.5234">
        <ele>1812</ele>
        <time>2024-05-25T11:16:56Z</time>
      </trkpt>
      <trkpt lat="44.77743" lon="5.52351">
        <ele>1811</ele>
        <time>2024-05-25T11:17:12Z</time>
      </trkpt>
      <trkpt lat="44.77747" lon="5.52363">
        <ele>1812</ele>
        <time>2024-05-25T11:17:25Z</time>
      </trkpt>
      <trkpt lat="44.77746" lon="5.52376">
        <ele>1813</ele>
        <time>2024-05-25T11:17:42Z</time>
      </trkpt>
      <trkpt lat="44.77748" lon="5.52388">
        <ele>1813</ele>
        <time>2024-05-25T11:17:56Z</time>
      </trkpt>
      <trkpt lat="44.77745" lon="5.524">
        <ele>1814</ele>
        <time>2024-05-25T11:18:07Z</time>
      </trkpt>
      <trkpt lat="44.77747" lon="5.52413">
        <ele>1815</ele>
        <time>2024-05-25T11:18:19Z</time>
      </trkpt>
      <trkpt lat="44.77748" lon="5.52427">
        <ele>1816</ele>
        <time>2024-05-25T11:18:29Z</time>
      </trkpt>
      <trkpt lat="44.77751" lon="5.52439">
        <ele>1817</ele>
        <time>2024-05-25T11:18:38Z</time>
      </trkpt>
      <trkpt lat="44.77755" lon="5.52451">
        <ele>1818</ele>
        <time>2024-05-25T11:18:49Z</time>
      </trkpt>
      <trkpt lat="44.77763" lon="5.52458">
        <ele>1816</ele>
        <time>2024-05-25T11:19:20Z</time>
      </trkpt>
      <trkpt lat="44.7777" lon="5.52465">
        <ele>1814</ele>
        <time>2024-05-25T11:19:31Z</time>
      </trkpt>
      <trkpt lat="44.77779" lon="5.52471">
        <ele>1812</ele>
        <time>2024-05-25T11:19:49Z</time>
      </trkpt>
      <trkpt lat="44.77781" lon="5.52483">
        <ele>1811</ele>
        <time>2024-05-25T11:19:59Z</time>
      </trkpt>
      <trkpt lat="44.77787" lon="5.52492">
        <ele>1810</ele>
        <time>2024-05-25T11:20:09Z</time>
      </trkpt>
      <trkpt lat="44.77791" lon="5.52498">
        <ele>1808</ele>
        <time>2024-05-25T11:20:27Z</time>
      </trkpt>
      <trkpt lat="44.778" lon="5.52496">
        <ele>1807</ele>
        <time>2024-05-25T11:20:37Z</time>
      </trkpt>
      <trkpt lat="44.7781" lon="5.52495">
        <ele>1806</ele>
        <time>2024-05-25T11:20:50Z</time>
      </trkpt>
      <trkpt lat="44.77819" lon="5.52494">
        <ele>1806</ele>
        <time>2024-05-25T11:21:03Z</time>
      </trkpt>
      <trkpt lat="44.77828" lon="5.52492">
        <ele>1806</ele>
        <time>2024-05-25T11:21:11Z</time>
      </trkpt>
      <trkpt lat="44.77837" lon="5.52494">
        <ele>1806</ele>
        <time>2024-05-25T11:21:19Z</time>
      </trkpt>
      <trkpt lat="44.77846" lon="5.52494">
        <ele>1806</ele>
        <time>2024-05-25T11:21:30Z</time>
      </trkpt>
      <trkpt lat="44.77854" lon="5.52501">
        <ele>1806</ele>
        <time>2024-05-25T11:21:41Z</time>
      </trkpt>
      <trkpt lat="44.77862" lon="5.52509">
        <ele>1806</ele>
        <time>2024-05-25T11:21:54Z</time>
      </trkpt>
      <trkpt lat="44.7787" lon="5.52512">
        <ele>1807</ele>
        <time>2024-05-25T11:22:06Z</time>
      </trkpt>
      <trkpt lat="44.77877" lon="5.52519">
        <ele>1807</ele>
        <time>2024-05-25T11:22:18Z</time>
      </trkpt>
      <trkpt lat="44.77885" lon="5.52526">
        <ele>1808</ele>
        <time>2024-05-25T11:22:26Z</time>
      </trkpt>
      <trkpt lat="44.77893" lon="5.52524">
        <ele>1808</ele>
        <time>2024-05-25T11:22:58Z</time>
      </trkpt>
      <trkpt lat="44.77896" lon="5.52519">
        <ele>1808</ele>
        <time>2024-05-25T11:24:07Z</time>
      </trkpt>
      <trkpt lat="44.77904" lon="5.52526">
        <ele>1809</ele>
        <time>2024-05-25T11:24:18Z</time>
      </trkpt>
      <trkpt lat="44.77911" lon="5.52535">
        <ele>1810</ele>
        <time>2024-05-25T11:24:28Z</time>
      </trkpt>
      <trkpt lat="44.7792" lon="5.52537">
        <ele>1812</ele>
        <time>2024-05-25T11:24:42Z</time>
      </trkpt>
      <trkpt lat="44.77929" lon="5.52538">
        <ele>1813</ele>
        <time>2024-05-25T11:24:53Z</time>
      </trkpt>
      <trkpt lat="44.77937" lon="5.52531">
        <ele>1816</ele>
        <time>2024-05-25T11:25:13Z</time>
      </trkpt>
      <trkpt lat="44.77946" lon="5.52527">
        <ele>1817</ele>
        <time>2024-05-25T11:25:24Z</time>
      </trkpt>
      <trkpt lat="44.77954" lon="5.52525">
        <ele>1820</ele>
        <time>2024-05-25T11:25:47Z</time>
      </trkpt>
      <trkpt lat="44.77963" lon="5.52522">
        <ele>1821</ele>
        <time>2024-05-25T11:26:04Z</time>
      </trkpt>
      <trkpt lat="44.77972" lon="5.52521">
        <ele>1822</ele>
        <time>2024-05-25T11:26:12Z</time>
      </trkpt>
      <trkpt lat="44.7798" lon="5.5253">
        <ele>1824</ele>
        <time>2024-05-25T11:26:26Z</time>
      </trkpt>
      <trkpt lat="44.77987" lon="5.52539">
        <ele>1825</ele>
        <time>2024-05-25T11:26:36Z</time>
      </trkpt>
      <trkpt lat="44.77994" lon="5.52548">
        <ele>1826</ele>
        <time>2024-05-25T11:26:43Z</time>
      </trkpt>
      <trkpt lat="44.78" lon="5.52558">
        <ele>1827</ele>
        <time>2024-05-25T11:26:58Z</time>
      </trkpt>
      <trkpt lat="44.78007" lon="5.52565">
        <ele>1828</ele>
        <time>2024-05-25T11:27:06Z</time>
      </trkpt>
      <trkpt lat="44.78015" lon="5.52572">
        <ele>1828</ele>
        <time>2024-05-25T11:27:15Z</time>
      </trkpt>
      <trkpt lat="44.78023" lon="5.52581">
        <ele>1829</ele>
        <time>2024-05-25T11:27:29Z</time>
      </trkpt>
      <trkpt lat="44.7803" lon="5.52589">
        <ele>1830</ele>
        <time>2024-05-25T11:27:39Z</time>
      </trkpt>
      <trkpt lat="44.78036" lon="5.52599">
        <ele>1831</ele>
        <time>2024-05-25T11:27:53Z</time>
      </trkpt>
      <trkpt lat="44.78042" lon="5.52609">
        <ele>1833</ele>
        <time>2024-05-25T11:28:08Z</time>
      </trkpt>
      <trkpt lat="44.78049" lon="5.5262">
        <ele>1835</ele>
        <time>2024-05-25T11:28:21Z</time>
      </trkpt>
      <trkpt lat="44.78056" lon="5.52628">
        <ele>1835</ele>
        <time>2024-05-25T11:28:30Z</time>
      </trkpt>
      <trkpt lat="44.7806" lon="5.5264">
        <ele>1835</ele>
        <time>2024-05-25T11:28:44Z</time>
      </trkpt>
      <trkpt lat="44.78066" lon="5.52649">
        <ele>1836</ele>
        <time>2024-05-25T11:28:59Z</time>
      </trkpt>
      <trkpt lat="44.78073" lon="5.52658">
        <ele>1838</ele>
        <time>2024-05-25T11:29:12Z</time>
      </trkpt>
      <trkpt lat="44.7808" lon="5.52667">
        <ele>1839</ele>
        <time>2024-05-25T11:29:24Z</time>
      </trkpt>
      <trkpt lat="44.78085" lon="5.52678">
        <ele>1839</ele>
        <time>2024-05-25T11:29:33Z</time>
      </trkpt>
      <trkpt lat="44.78091" lon="5.52688">
        <ele>1841</ele>
        <time>2024-05-25T11:29:44Z</time>
      </trkpt>
      <trkpt lat="44.78098" lon="5.52697">
        <ele>1841</ele>
        <time>2024-05-25T11:29:55Z</time>
      </trkpt>
      <trkpt lat="44.78096" lon="5.5271">
        <ele>1843</ele>
        <time>2024-05-25T11:30:05Z</time>
      </trkpt>
      <trkpt lat="44.78095" lon="5.52724">
        <ele>1843</ele>
        <time>2024-05-25T11:30:16Z</time>
      </trkpt>
      <trkpt lat="44.78101" lon="5.52733">
        <ele>1841</ele>
        <time>2024-05-25T11:30:24Z</time>
      </trkpt>
      <trkpt lat="44.78106" lon="5.52744">
        <ele>1840</ele>
        <time>2024-05-25T11:30:32Z</time>
      </trkpt>
      <trkpt lat="44.78108" lon="5.52757">
        <ele>1840</ele>
        <time>2024-05-25T11:30:44Z</time>
      </trkpt>
      <trkpt lat="44.78111" lon="5.52769">
        <ele>1840</ele>
        <time>2024-05-25T11:30:55Z</time>
      </trkpt>
      <trkpt lat="44.78113" lon="5.52782">
        <ele>1840</ele>
        <time>2024-05-25T11:31:07Z</time>
      </trkpt>
      <trkpt lat="44.78119" lon="5.52793">
        <ele>1840</ele>
        <time>2024-05-25T11:31:17Z</time>
      </trkpt>
      <trkpt lat="44.78127" lon="5.52799">
        <ele>1839</ele>
        <time>2024-05-25T11:31:30Z</time>
      </trkpt>
      <trkpt lat="44.78135" lon="5.52806">
        <ele>1838</ele>
        <time>2024-05-25T11:31:39Z</time>
      </trkpt>
      <trkpt lat="44.78143" lon="5.52812">
        <ele>1839</ele>
        <time>2024-05-25T11:31:52Z</time>
      </trkpt>
      <trkpt lat="44.78152" lon="5.52813">
        <ele>1838</ele>
        <time>2024-05-25T11:32:10Z</time>
      </trkpt>
      <trkpt lat="44.78161" lon="5.52817">
        <ele>1836</ele>
        <time>2024-05-25T11:32:38Z</time>
      </trkpt>
      <trkpt lat="44.78167" lon="5.52822">
        <ele>1836</ele>
        <time>2024-05-25T11:32:53Z</time>
      </trkpt>
      <trkpt lat="44.78176" lon="5.52823">
        <ele>1837</ele>
        <time>2024-05-25T11:33:11Z</time>
      </trkpt>
      <trkpt lat="44.78185" lon="5.52829">
        <ele>1838</ele>
        <time>2024-05-25T11:33:31Z</time>
      </trkpt>
      <trkpt lat="44.78194" lon="5.52834">
        <ele>1838</ele>
        <time>2024-05-25T11:33:41Z</time>
      </trkpt>
      <trkpt lat="44.78202" lon="5.52842">
        <ele>1838</ele>
        <time>2024-05-25T11:33:49Z</time>
      </trkpt>
      <trkpt lat="44.78206" lon="5.52853">
        <ele>1838</ele>
        <time>2024-05-25T11:34:02Z</time>
      </trkpt>
      <trkpt lat="44.7821" lon="5.52865">
        <ele>1838</ele>
        <time>2024-05-25T11:34:13Z</time>
      </trkpt>
      <trkpt lat="44.78215" lon="5.52874">
        <ele>1838</ele>
        <time>2024-05-25T11:34:23Z</time>
      </trkpt>
      <trkpt lat="44.78223" lon="5.52881">
        <ele>1838</ele>
        <time>2024-05-25T11:34:37Z</time>
      </trkpt>
      <trkpt lat="44.78225" lon="5.52893">
        <ele>1838</ele>
        <time>2024-05-25T11:34:47Z</time>
      </trkpt>
      <trkpt lat="44.78233" lon="5.52901">
        <ele>1839</ele>
        <time>2024-05-25T11:35:02Z</time>
      </trkpt>
      <trkpt lat="44.78241" lon="5.52907">
        <ele>1840</ele>
        <time>2024-05-25T11:35:10Z</time>
      </trkpt>
      <trkpt lat="44.78244" lon="5.52918">
        <ele>1840</ele>
        <time>2024-05-25T11:35:20Z</time>
      </trkpt>
      <trkpt lat="44.7825" lon="5.52927">
        <ele>1841</ele>
        <time>2024-05-25T11:35:33Z</time>
      </trkpt>
      <trkpt lat="44.78257" lon="5.52935">
        <ele>1841</ele>
        <time>2024-05-25T11:35:49Z</time>
      </trkpt>
      <trkpt lat="44.78265" lon="5.52941">
        <ele>1842</ele>
        <time>2024-05-25T11:35:59Z</time>
      </trkpt>
      <trkpt lat="44.78273" lon="5.52948">
        <ele>1843</ele>
        <time>2024-05-25T11:36:09Z</time>
      </trkpt>
      <trkpt lat="44.78276" lon="5.5296">
        <ele>1841</ele>
        <time>2024-05-25T11:36:18Z</time>
      </trkpt>
      <trkpt lat="44.78278" lon="5.52973">
        <ele>1841</ele>
        <time>2024-05-25T11:36:27Z</time>
      </trkpt>
      <trkpt lat="44.78284" lon="5.52982">
        <ele>1840</ele>
        <time>2024-05-25T11:36:37Z</time>
      </trkpt>
      <trkpt lat="44.78291" lon="5.52989">
        <ele>1840</ele>
        <time>2024-05-25T11:36:46Z</time>
      </trkpt>
      <trkpt lat="44.78288" lon="5.53">
        <ele>1841</ele>
        <time>2024-05-25T11:36:58Z</time>
      </trkpt>
      <trkpt lat="44.78289" lon="5.53013">
        <ele>1841</ele>
        <time>2024-05-25T11:37:07Z</time>
      </trkpt>
      <trkpt lat="44.78292" lon="5.53025">
        <ele>1840</ele>
        <time>2024-05-25T11:37:18Z</time>
      </trkpt>
      <trkpt lat="44.78297" lon="5.53036">
        <ele>1840</ele>
        <time>2024-05-25T11:37:28Z</time>
      </trkpt>
      <trkpt lat="44.78301" lon="5.53048">
        <ele>1839</ele>
        <time>2024-05-25T11:37:37Z</time>
      </trkpt>
      <trkpt lat="44.78305" lon="5.5306">
        <ele>1840</ele>
        <time>2024-05-25T11:37:45Z</time>
      </trkpt>
      <trkpt lat="44.78305" lon="5.53072">
        <ele>1840</ele>
        <time>2024-05-25T11:37:55Z</time>
      </trkpt>
      <trkpt lat="44.78302" lon="5.53085">
        <ele>1840</ele>
        <time>2024-05-25T11:38:06Z</time>
      </trkpt>
      <trkpt lat="44.78306" lon="5.53096">
        <ele>1840</ele>
        <time>2024-05-25T11:38:17Z</time>
      </trkpt>
      <trkpt lat="44.7831" lon="5.53108">
        <ele>1840</ele>
        <time>2024-05-25T11:38:27Z</time>
      </trkpt>
      <trkpt lat="44.78311" lon="5.5312">
        <ele>1840</ele>
        <time>2024-05-25T11:38:36Z</time>
      </trkpt>
      <trkpt lat="44.78312" lon="5.53133">
        <ele>1840</ele>
        <time>2024-05-25T11:38:47Z</time>
      </trkpt>
      <trkpt lat="44.7831" lon="5.53146">
        <ele>1840</ele>
        <time>2024-05-25T11:38:59Z</time>
      </trkpt>
      <trkpt lat="44.78311" lon="5.53159">
        <ele>1840</ele>
        <time>2024-05-25T11:39:09Z</time>
      </trkpt>
      <trkpt lat="44.78314" lon="5.53171">
        <ele>1841</ele>
        <time>2024-05-25T11:39:21Z</time>
      </trkpt>
      <trkpt lat="44.78313" lon="5.53183">
        <ele>1841</ele>
        <time>2024-05-25T11:39:37Z</time>
      </trkpt>
      <trkpt lat="44.78314" lon="5.53194">
        <ele>1841</ele>
        <time>2024-05-25T11:39:49Z</time>
      </trkpt>
      <trkpt lat="44.78317" lon="5.53204">
        <ele>1841</ele>
        <time>2024-05-25T11:40:00Z</time>
      </trkpt>
      <trkpt lat="44.78319" lon="5.53215">
        <ele>1840</ele>
        <time>2024-05-25T11:40:09Z</time>
      </trkpt>
      <trkpt lat="44.78319" lon="5.53228">
        <ele>1840</ele>
        <time>2024-05-25T11:40:21Z</time>
      </trkpt>
      <trkpt lat="44.78323" lon="5.53239">
        <ele>1840</ele>
        <time>2024-05-25T11:40:31Z</time>
      </trkpt>
      <trkpt lat="44.78327" lon="5.53252">
        <ele>1840</ele>
        <time>2024-05-25T11:40:41Z</time>
      </trkpt>
      <trkpt lat="44.78333" lon="5.53261">
        <ele>1840</ele>
        <time>2024-05-25T11:40:48Z</time>
      </trkpt>
      <trkpt lat="44.78336" lon="5.53274">
        <ele>1840</ele>
        <time>2024-05-25T11:40:58Z</time>
      </trkpt>
      <trkpt lat="44.78339" lon="5.53286">
        <ele>1840</ele>
        <time>2024-05-25T11:41:06Z</time>
      </trkpt>
      <trkpt lat="44.78345" lon="5.53296">
        <ele>1840</ele>
        <time>2024-05-25T11:41:18Z</time>
      </trkpt>
      <trkpt lat="44.78353" lon="5.53304">
        <ele>1840</ele>
        <time>2024-05-25T11:41:26Z</time>
      </trkpt>
      <trkpt lat="44.78358" lon="5.53315">
        <ele>1841</ele>
        <time>2024-05-25T11:41:38Z</time>
      </trkpt>
      <trkpt lat="44.78361" lon="5.53328">
        <ele>1841</ele>
        <time>2024-05-25T11:41:49Z</time>
      </trkpt>
      <trkpt lat="44.78363" lon="5.53341">
        <ele>1841</ele>
        <time>2024-05-25T11:42:04Z</time>
      </trkpt>
      <trkpt lat="44.78363" lon="5.53354">
        <ele>1839</ele>
        <time>2024-05-25T11:42:15Z</time>
      </trkpt>
      <trkpt lat="44.78369" lon="5.53364">
        <ele>1838</ele>
        <time>2024-05-25T11:42:23Z</time>
      </trkpt>
      <trkpt lat="44.78375" lon="5.53373">
        <ele>1838</ele>
        <time>2024-05-25T11:42:33Z</time>
      </trkpt>
      <trkpt lat="44.78381" lon="5.53383">
        <ele>1838</ele>
        <time>2024-05-25T11:42:43Z</time>
      </trkpt>
      <trkpt lat="44.78384" lon="5.53395">
        <ele>1838</ele>
        <time>2024-05-25T11:43:03Z</time>
      </trkpt>
      <trkpt lat="44.78387" lon="5.53406">
        <ele>1837</ele>
        <time>2024-05-25T11:43:13Z</time>
      </trkpt>
      <trkpt lat="44.78391" lon="5.53418">
        <ele>1837</ele>
        <time>2024-05-25T11:43:22Z</time>
      </trkpt>
      <trkpt lat="44.78398" lon="5.53429">
        <ele>1837</ele>
        <time>2024-05-25T11:43:30Z</time>
      </trkpt>
      <trkpt lat="44.78403" lon="5.53439">
        <ele>1837</ele>
        <time>2024-05-25T11:43:39Z</time>
      </trkpt>
      <trkpt lat="44.78406" lon="5.53452">
        <ele>1837</ele>
        <time>2024-05-25T11:43:49Z</time>
      </trkpt>
      <trkpt lat="44.78406" lon="5.53466">
        <ele>1837</ele>
        <time>2024-05-25T11:43:57Z</time>
      </trkpt>
      <trkpt lat="44.78406" lon="5.5348">
        <ele>1837</ele>
        <time>2024-05-25T11:44:06Z</time>
      </trkpt>
      <trkpt lat="44.78407" lon="5.53492">
        <ele>1837</ele>
        <time>2024-05-25T11:44:15Z</time>
      </trkpt>
      <trkpt lat="44.78411" lon="5.53503">
        <ele>1836</ele>
        <time>2024-05-25T11:44:25Z</time>
      </trkpt>
      <trkpt lat="44.78411" lon="5.53516">
        <ele>1836</ele>
        <time>2024-05-25T11:44:36Z</time>
      </trkpt>
      <trkpt lat="44.78415" lon="5.53528">
        <ele>1836</ele>
        <time>2024-05-25T11:44:48Z</time>
      </trkpt>
      <trkpt lat="44.78413" lon="5.53535">
        <ele>1835</ele>
        <time>2024-05-25T11:45:51Z</time>
      </trkpt>
      <trkpt lat="44.78414" lon="5.53536">
        <ele>1837</ele>
        <time>2024-05-25T11:46:40Z</time>
      </trkpt>
      <trkpt lat="44.78416" lon="5.53549">
        <ele>1837</ele>
        <time>2024-05-25T11:46:47Z</time>
      </trkpt>
      <trkpt lat="44.78418" lon="5.53563">
        <ele>1837</ele>
        <time>2024-05-25T11:46:56Z</time>
      </trkpt>
      <trkpt lat="44.78417" lon="5.53576">
        <ele>1838</ele>
        <time>2024-05-25T11:47:04Z</time>
      </trkpt>
      <trkpt lat="44.78419" lon="5.53589">
        <ele>1837</ele>
        <time>2024-05-25T11:47:22Z</time>
      </trkpt>
      <trkpt lat="44.78418" lon="5.53602">
        <ele>1836</ele>
        <time>2024-05-25T11:47:35Z</time>
      </trkpt>
      <trkpt lat="44.78424" lon="5.53611">
        <ele>1834</ele>
        <time>2024-05-25T11:47:46Z</time>
      </trkpt>
      <trkpt lat="44.78423" lon="5.53624">
        <ele>1833</ele>
        <time>2024-05-25T11:47:54Z</time>
      </trkpt>
      <trkpt lat="44.78422" lon="5.53637">
        <ele>1832</ele>
        <time>2024-05-25T11:48:03Z</time>
      </trkpt>
      <trkpt lat="44.78422" lon="5.5365">
        <ele>1831</ele>
        <time>2024-05-25T11:48:11Z</time>
      </trkpt>
      <trkpt lat="44.78421" lon="5.53663">
        <ele>1830</ele>
        <time>2024-05-25T11:48:20Z</time>
      </trkpt>
      <trkpt lat="44.78424" lon="5.53675">
        <ele>1830</ele>
        <time>2024-05-25T11:48:29Z</time>
      </trkpt>
      <trkpt lat="44.78424" lon="5.53688">
        <ele>1829</ele>
        <time>2024-05-25T11:48:38Z</time>
      </trkpt>
      <trkpt lat="44.78425" lon="5.53702">
        <ele>1829</ele>
        <time>2024-05-25T11:48:47Z</time>
      </trkpt>
      <trkpt lat="44.78431" lon="5.53713">
        <ele>1828</ele>
        <time>2024-05-25T11:48:55Z</time>
      </trkpt>
      <trkpt lat="44.78432" lon="5.53725">
        <ele>1828</ele>
        <time>2024-05-25T11:49:03Z</time>
      </trkpt>
      <trkpt lat="44.78429" lon="5.53738">
        <ele>1828</ele>
        <time>2024-05-25T11:49:12Z</time>
      </trkpt>
      <trkpt lat="44.78431" lon="5.5375">
        <ele>1829</ele>
        <time>2024-05-25T11:49:21Z</time>
      </trkpt>
      <trkpt lat="44.78433" lon="5.53763">
        <ele>1829</ele>
        <time>2024-05-25T11:49:30Z</time>
      </trkpt>
      <trkpt lat="44.78436" lon="5.53775">
        <ele>1829</ele>
        <time>2024-05-25T11:49:39Z</time>
      </trkpt>
      <trkpt lat="44.78437" lon="5.53788">
        <ele>1829</ele>
        <time>2024-05-25T11:49:48Z</time>
      </trkpt>
      <trkpt lat="44.7844" lon="5.53801">
        <ele>1829</ele>
        <time>2024-05-25T11:49:57Z</time>
      </trkpt>
      <trkpt lat="44.7844" lon="5.53814">
        <ele>1829</ele>
        <time>2024-05-25T11:50:07Z</time>
      </trkpt>
      <trkpt lat="44.7844" lon="5.53826">
        <ele>1829</ele>
        <time>2024-05-25T11:50:15Z</time>
      </trkpt>
      <trkpt lat="44.78446" lon="5.53836">
        <ele>1829</ele>
        <time>2024-05-25T11:50:25Z</time>
      </trkpt>
      <trkpt lat="44.78452" lon="5.53845">
        <ele>1828</ele>
        <time>2024-05-25T11:50:33Z</time>
      </trkpt>
      <trkpt lat="44.78447" lon="5.53856">
        <ele>1828</ele>
        <time>2024-05-25T11:50:39Z</time>
      </trkpt>
      <trkpt lat="44.78444" lon="5.53868">
        <ele>1827</ele>
        <time>2024-05-25T11:50:48Z</time>
      </trkpt>
      <trkpt lat="44.7844" lon="5.53881">
        <ele>1825</ele>
        <time>2024-05-25T11:50:58Z</time>
      </trkpt>
      <trkpt lat="44.7844" lon="5.53894">
        <ele>1824</ele>
        <time>2024-05-25T11:51:07Z</time>
      </trkpt>
      <trkpt lat="44.78441" lon="5.53907">
        <ele>1824</ele>
        <time>2024-05-25T11:51:15Z</time>
      </trkpt>
      <trkpt lat="44.78443" lon="5.53919">
        <ele>1822</ele>
        <time>2024-05-25T11:51:23Z</time>
      </trkpt>
      <trkpt lat="44.78449" lon="5.53929">
        <ele>1822</ele>
        <time>2024-05-25T11:51:30Z</time>
      </trkpt>
      <trkpt lat="44.78454" lon="5.5394">
        <ele>1821</ele>
        <time>2024-05-25T11:51:40Z</time>
      </trkpt>
      <trkpt lat="44.7846" lon="5.53951">
        <ele>1820</ele>
        <time>2024-05-25T11:51:48Z</time>
      </trkpt>
      <trkpt lat="44.78463" lon="5.53964">
        <ele>1820</ele>
        <time>2024-05-25T11:51:57Z</time>
      </trkpt>
      <trkpt lat="44.78466" lon="5.53976">
        <ele>1820</ele>
        <time>2024-05-25T11:52:08Z</time>
      </trkpt>
      <trkpt lat="44.78471" lon="5.53988">
        <ele>1820</ele>
        <time>2024-05-25T11:52:19Z</time>
      </trkpt>
      <trkpt lat="44.78475" lon="5.53999">
        <ele>1820</ele>
        <time>2024-05-25T11:52:28Z</time>
      </trkpt>
      <trkpt lat="44.78482" lon="5.54007">
        <ele>1821</ele>
        <time>2024-05-25T11:52:36Z</time>
      </trkpt>
      <trkpt lat="44.78489" lon="5.54016">
        <ele>1821</ele>
        <time>2024-05-25T11:52:44Z</time>
      </trkpt>
      <trkpt lat="44.78496" lon="5.54024">
        <ele>1821</ele>
        <time>2024-05-25T11:52:52Z</time>
      </trkpt>
      <trkpt lat="44.785" lon="5.54036">
        <ele>1822</ele>
        <time>2024-05-25T11:53:01Z</time>
      </trkpt>
      <trkpt lat="44.78504" lon="5.54048">
        <ele>1822</ele>
        <time>2024-05-25T11:53:08Z</time>
      </trkpt>
      <trkpt lat="44.78511" lon="5.54058">
        <ele>1822</ele>
        <time>2024-05-25T11:53:17Z</time>
      </trkpt>
      <trkpt lat="44.78516" lon="5.54069">
        <ele>1822</ele>
        <time>2024-05-25T11:53:25Z</time>
      </trkpt>
      <trkpt lat="44.78519" lon="5.54082">
        <ele>1822</ele>
        <time>2024-05-25T11:53:33Z</time>
      </trkpt>
      <trkpt lat="44.78526" lon="5.5409">
        <ele>1823</ele>
        <time>2024-05-25T11:53:42Z</time>
      </trkpt>
      <trkpt lat="44.78533" lon="5.541">
        <ele>1823</ele>
        <time>2024-05-25T11:53:50Z</time>
      </trkpt>
      <trkpt lat="44.78537" lon="5.54112">
        <ele>1823</ele>
        <time>2024-05-25T11:53:59Z</time>
      </trkpt>
      <trkpt lat="44.78545" lon="5.54121">
        <ele>1822</ele>
        <time>2024-05-25T11:54:08Z</time>
      </trkpt>
      <trkpt lat="44.78553" lon="5.54128">
        <ele>1822</ele>
        <time>2024-05-25T11:54:15Z</time>
      </trkpt>
      <trkpt lat="44.78558" lon="5.5414">
        <ele>1823</ele>
        <time>2024-05-25T11:54:25Z</time>
      </trkpt>
      <trkpt lat="44.7856" lon="5.54152">
        <ele>1823</ele>
        <time>2024-05-25T11:54:35Z</time>
      </trkpt>
      <trkpt lat="44.78564" lon="5.54164">
        <ele>1822</ele>
        <time>2024-05-25T11:54:45Z</time>
      </trkpt>
      <trkpt lat="44.7857" lon="5.54174">
        <ele>1822</ele>
        <time>2024-05-25T11:54:55Z</time>
      </trkpt>
      <trkpt lat="44.78578" lon="5.54181">
        <ele>1821</ele>
        <time>2024-05-25T11:55:02Z</time>
      </trkpt>
      <trkpt lat="44.78584" lon="5.5419">
        <ele>1821</ele>
        <time>2024-05-25T11:55:09Z</time>
      </trkpt>
      <trkpt lat="44.78588" lon="5.54202">
        <ele>1820</ele>
        <time>2024-05-25T11:55:16Z</time>
      </trkpt>
      <trkpt lat="44.78594" lon="5.54212">
        <ele>1820</ele>
        <time>2024-05-25T11:55:23Z</time>
      </trkpt>
      <trkpt lat="44.78602" lon="5.5422">
        <ele>1820</ele>
        <time>2024-05-25T11:55:31Z</time>
      </trkpt>
      <trkpt lat="44.78607" lon="5.54231">
        <ele>1819</ele>
        <time>2024-05-25T11:55:42Z</time>
      </trkpt>
      <trkpt lat="44.78612" lon="5.54242">
        <ele>1819</ele>
        <time>2024-05-25T11:55:51Z</time>
      </trkpt>
      <trkpt lat="44.78617" lon="5.54253">
        <ele>1820</ele>
        <time>2024-05-25T11:55:59Z</time>
      </trkpt>
      <trkpt lat="44.78617" lon="5.54266">
        <ele>1820</ele>
        <time>2024-05-25T11:56:08Z</time>
      </trkpt>
      <trkpt lat="44.78619" lon="5.5428">
        <ele>1820</ele>
        <time>2024-05-25T11:56:17Z</time>
      </trkpt>
      <trkpt lat="44.78624" lon="5.54291">
        <ele>1820</ele>
        <time>2024-05-25T11:56:24Z</time>
      </trkpt>
      <trkpt lat="44.78627" lon="5.54305">
        <ele>1820</ele>
        <time>2024-05-25T11:56:31Z</time>
      </trkpt>
      <trkpt lat="44.78628" lon="5.54319">
        <ele>1819</ele>
        <time>2024-05-25T11:56:41Z</time>
      </trkpt>
      <trkpt lat="44.7863" lon="5.54332">
        <ele>1819</ele>
        <time>2024-05-25T11:56:53Z</time>
      </trkpt>
      <trkpt lat="44.7863" lon="5.54346">
        <ele>1819</ele>
        <time>2024-05-25T11:57:03Z</time>
      </trkpt>
      <trkpt lat="44.78633" lon="5.54358">
        <ele>1819</ele>
        <time>2024-05-25T11:57:12Z</time>
      </trkpt>
      <trkpt lat="44.78631" lon="5.54367">
        <ele>1819</ele>
        <time>2024-05-25T11:57:29Z</time>
      </trkpt>
      <trkpt lat="44.78633" lon="5.54379">
        <ele>1818</ele>
        <time>2024-05-25T11:58:06Z</time>
      </trkpt>
      <trkpt lat="44.78637" lon="5.54389">
        <ele>1816</ele>
        <time>2024-05-25T11:58:35Z</time>
      </trkpt>
      <trkpt lat="44.78645" lon="5.54397">
        <ele>1813</ele>
        <time>2024-05-25T11:59:03Z</time>
      </trkpt>
      <trkpt lat="44.78648" lon="5.54397">
        <ele>1813</ele>
        <time>2024-05-25T11:59:43Z</time>
      </trkpt>
      <trkpt lat="44.78652" lon="5.54405">
        <ele>1811</ele>
        <time>2024-05-25T12:00:24Z</time>
      </trkpt>
      <trkpt lat="44.7866" lon="5.54412">
        <ele>1810</ele>
        <time>2024-05-25T12:00:33Z</time>
      </trkpt>
      <trkpt lat="44.78661" lon="5.54425">
        <ele>1808</ele>
        <time>2024-05-25T12:00:45Z</time>
      </trkpt>
      <trkpt lat="44.78666" lon="5.54435">
        <ele>1806</ele>
        <time>2024-05-25T12:00:58Z</time>
      </trkpt>
      <trkpt lat="44.78674" lon="5.54442">
        <ele>1804</ele>
        <time>2024-05-25T12:01:07Z</time>
      </trkpt>
      <trkpt lat="44.78679" lon="5.54453">
        <ele>1802</ele>
        <time>2024-05-25T12:01:18Z</time>
      </trkpt>
      <trkpt lat="44.78683" lon="5.54464">
        <ele>1800</ele>
        <time>2024-05-25T12:01:29Z</time>
      </trkpt>
      <trkpt lat="44.78684" lon="5.54478">
        <ele>1798</ele>
        <time>2024-05-25T12:01:40Z</time>
      </trkpt>
      <trkpt lat="44.78686" lon="5.5449">
        <ele>1796</ele>
        <time>2024-05-25T12:01:50Z</time>
      </trkpt>
      <trkpt lat="44.7869" lon="5.54502">
        <ele>1794</ele>
        <time>2024-05-25T12:02:03Z</time>
      </trkpt>
      <trkpt lat="44.78695" lon="5.54513">
        <ele>1793</ele>
        <time>2024-05-25T12:02:12Z</time>
      </trkpt>
      <trkpt lat="44.78701" lon="5.54523">
        <ele>1792</ele>
        <time>2024-05-25T12:02:20Z</time>
      </trkpt>
      <trkpt lat="44.78706" lon="5.54534">
        <ele>1791</ele>
        <time>2024-05-25T12:02:27Z</time>
      </trkpt>
      <trkpt lat="44.78706" lon="5.54547">
        <ele>1790</ele>
        <time>2024-05-25T12:02:36Z</time>
      </trkpt>
      <trkpt lat="44.78709" lon="5.54559">
        <ele>1790</ele>
        <time>2024-05-25T12:02:45Z</time>
      </trkpt>
      <trkpt lat="44.78712" lon="5.54572">
        <ele>1789</ele>
        <time>2024-05-25T12:02:54Z</time>
      </trkpt>
      <trkpt lat="44.78717" lon="5.54584">
        <ele>1789</ele>
        <time>2024-05-25T12:03:06Z</time>
      </trkpt>
      <trkpt lat="44.78721" lon="5.54596">
        <ele>1788</ele>
        <time>2024-05-25T12:03:15Z</time>
      </trkpt>
      <trkpt lat="44.78723" lon="5.5461">
        <ele>1788</ele>
        <time>2024-05-25T12:03:23Z</time>
      </trkpt>
      <trkpt lat="44.78726" lon="5.54621">
        <ele>1788</ele>
        <time>2024-05-25T12:03:31Z</time>
      </trkpt>
      <trkpt lat="44.78728" lon="5.54634">
        <ele>1788</ele>
        <time>2024-05-25T12:03:40Z</time>
      </trkpt>
      <trkpt lat="44.7873" lon="5.54647">
        <ele>1789</ele>
        <time>2024-05-25T12:03:50Z</time>
      </trkpt>
      <trkpt lat="44.78735" lon="5.54658">
        <ele>1789</ele>
        <time>2024-05-25T12:03:58Z</time>
      </trkpt>
      <trkpt lat="44.7874" lon="5.54668">
        <ele>1789</ele>
        <time>2024-05-25T12:04:08Z</time>
      </trkpt>
      <trkpt lat="44.78747" lon="5.54679">
        <ele>1788</ele>
        <time>2024-05-25T12:04:18Z</time>
      </trkpt>
      <trkpt lat="44.78753" lon="5.54689">
        <ele>1788</ele>
        <time>2024-05-25T12:04:27Z</time>
      </trkpt>
      <trkpt lat="44.78761" lon="5.54697">
        <ele>1788</ele>
        <time>2024-05-25T12:04:37Z</time>
      </trkpt>
      <trkpt lat="44.78767" lon="5.54708">
        <ele>1787</ele>
        <time>2024-05-25T12:04:47Z</time>
      </trkpt>
      <trkpt lat="44.78773" lon="5.54716">
        <ele>1786</ele>
        <time>2024-05-25T12:05:02Z</time>
      </trkpt>
      <trkpt lat="44.78773" lon="5.54728">
        <ele>1783</ele>
        <time>2024-05-25T12:05:27Z</time>
      </trkpt>
      <trkpt lat="44.78781" lon="5.54732">
        <ele>1781</ele>
        <time>2024-05-25T12:05:39Z</time>
      </trkpt>
      <trkpt lat="44.78785" lon="5.54744">
        <ele>1778</ele>
        <time>2024-05-25T12:05:55Z</time>
      </trkpt>
      <trkpt lat="44.78789" lon="5.54755">
        <ele>1775</ele>
        <time>2024-05-25T12:06:07Z</time>
      </trkpt>
      <trkpt lat="44.78794" lon="5.54766">
        <ele>1775</ele>
        <time>2024-05-25T12:06:15Z</time>
      </trkpt>
      <trkpt lat="44.78793" lon="5.54779">
        <ele>1774</ele>
        <time>2024-05-25T12:06:29Z</time>
      </trkpt>
      <trkpt lat="44.78794" lon="5.54791">
        <ele>1774</ele>
        <time>2024-05-25T12:06:43Z</time>
      </trkpt>
      <trkpt lat="44.78801" lon="5.54798">
        <ele>1774</ele>
        <time>2024-05-25T12:06:52Z</time>
      </trkpt>
      <trkpt lat="44.78804" lon="5.54804">
        <ele>1775</ele>
        <time>2024-05-25T12:07:27Z</time>
      </trkpt>
      <trkpt lat="44.78795" lon="5.54807">
        <ele>1771</ele>
        <time>2024-05-25T12:08:10Z</time>
      </trkpt>
      <trkpt lat="44.78794" lon="5.54816">
        <ele>1767</ele>
        <time>2024-05-25T12:08:31Z</time>
      </trkpt>
      <trkpt lat="44.788" lon="5.54823">
        <ele>1765</ele>
        <time>2024-05-25T12:08:53Z</time>
      </trkpt>
      <trkpt lat="44.78801" lon="5.54836">
        <ele>1762</ele>
        <time>2024-05-25T12:09:07Z</time>
      </trkpt>
      <trkpt lat="44.78808" lon="5.54844">
        <ele>1760</ele>
        <time>2024-05-25T12:09:20Z</time>
      </trkpt>
      <trkpt lat="44.78807" lon="5.54857">
        <ele>1756</ele>
        <time>2024-05-25T12:09:36Z</time>
      </trkpt>
      <trkpt lat="44.78812" lon="5.54864">
        <ele>1754</ele>
        <time>2024-05-25T12:09:50Z</time>
      </trkpt>
      <trkpt lat="44.78815" lon="5.54873">
        <ele>1750</ele>
        <time>2024-05-25T12:10:03Z</time>
      </trkpt>
      <trkpt lat="44.78816" lon="5.54885">
        <ele>1747</ele>
        <time>2024-05-25T12:10:16Z</time>
      </trkpt>
      <trkpt lat="44.78824" lon="5.5489">
        <ele>1746</ele>
        <time>2024-05-25T12:10:27Z</time>
      </trkpt>
      <trkpt lat="44.78829" lon="5.54902">
        <ele>1745</ele>
        <time>2024-05-25T12:10:38Z</time>
      </trkpt>
      <trkpt lat="44.78831" lon="5.54914">
        <ele>1742</ele>
        <time>2024-05-25T12:10:51Z</time>
      </trkpt>
      <trkpt lat="44.78824" lon="5.54923">
        <ele>1742</ele>
        <time>2024-05-25T12:11:00Z</time>
      </trkpt>
      <trkpt lat="44.78831" lon="5.54931">
        <ele>1739</ele>
        <time>2024-05-25T12:11:12Z</time>
      </trkpt>
      <trkpt lat="44.78838" lon="5.54939">
        <ele>1737</ele>
        <time>2024-05-25T12:11:25Z</time>
      </trkpt>
      <trkpt lat="44.78845" lon="5.54947">
        <ele>1736</ele>
        <time>2024-05-25T12:11:35Z</time>
      </trkpt>
      <trkpt lat="44.78854" lon="5.54952">
        <ele>1733</ele>
        <time>2024-05-25T12:12:15Z</time>
      </trkpt>
      <trkpt lat="44.78862" lon="5.54959">
        <ele>1732</ele>
        <time>2024-05-25T12:12:22Z</time>
      </trkpt>
      <trkpt lat="44.78869" lon="5.54967">
        <ele>1730</ele>
        <time>2024-05-25T12:12:33Z</time>
      </trkpt>
      <trkpt lat="44.78873" lon="5.54976">
        <ele>1729</ele>
        <time>2024-05-25T12:12:48Z</time>
      </trkpt>
      <trkpt lat="44.78869" lon="5.54985">
        <ele>1727</ele>
        <time>2024-05-25T12:13:17Z</time>
      </trkpt>
      <trkpt lat="44.78869" lon="5.54996">
        <ele>1727</ele>
        <time>2024-05-25T12:13:30Z</time>
      </trkpt>
      <trkpt lat="44.78867" lon="5.55007">
        <ele>1725</ele>
        <time>2024-05-25T12:13:40Z</time>
      </trkpt>
      <trkpt lat="44.7887" lon="5.55018">
        <ele>1724</ele>
        <time>2024-05-25T12:13:50Z</time>
      </trkpt>
      <trkpt lat="44.7887" lon="5.55031">
        <ele>1721</ele>
        <time>2024-05-25T12:14:02Z</time>
      </trkpt>
      <trkpt lat="44.78875" lon="5.55042">
        <ele>1719</ele>
        <time>2024-05-25T12:14:15Z</time>
      </trkpt>
      <trkpt lat="44.78878" lon="5.55056">
        <ele>1718</ele>
        <time>2024-05-25T12:14:25Z</time>
      </trkpt>
      <trkpt lat="44.78881" lon="5.55066">
        <ele>1716</ele>
        <time>2024-05-25T12:14:36Z</time>
      </trkpt>
      <trkpt lat="44.78889" lon="5.55066">
        <ele>1715</ele>
        <time>2024-05-25T12:14:51Z</time>
      </trkpt>
      <trkpt lat="44.789" lon="5.55065">
        <ele>1714</ele>
        <time>2024-05-25T12:14:59Z</time>
      </trkpt>
      <trkpt lat="44.78909" lon="5.55064">
        <ele>1713</ele>
        <time>2024-05-25T12:15:07Z</time>
      </trkpt>
      <trkpt lat="44.78915" lon="5.55059">
        <ele>1712</ele>
        <time>2024-05-25T12:15:27Z</time>
      </trkpt>
      <trkpt lat="44.78922" lon="5.55052">
        <ele>1713</ele>
        <time>2024-05-25T12:15:43Z</time>
      </trkpt>
      <trkpt lat="44.7893" lon="5.55047">
        <ele>1713</ele>
        <time>2024-05-25T12:16:07Z</time>
      </trkpt>
      <trkpt lat="44.78938" lon="5.5504">
        <ele>1713</ele>
        <time>2024-05-25T12:16:19Z</time>
      </trkpt>
      <trkpt lat="44.78945" lon="5.55034">
        <ele>1713</ele>
        <time>2024-05-25T12:16:32Z</time>
      </trkpt>
      <trkpt lat="44.78953" lon="5.55027">
        <ele>1711</ele>
        <time>2024-05-25T12:16:44Z</time>
      </trkpt>
      <trkpt lat="44.78959" lon="5.55024">
        <ele>1708</ele>
        <time>2024-05-25T12:17:10Z</time>
      </trkpt>
      <trkpt lat="44.78965" lon="5.55032">
        <ele>1703</ele>
        <time>2024-05-25T12:17:31Z</time>
      </trkpt>
      <trkpt lat="44.78973" lon="5.55039">
        <ele>1700</ele>
        <time>2024-05-25T12:17:51Z</time>
      </trkpt>
      <trkpt lat="44.78979" lon="5.55046">
        <ele>1698</ele>
        <time>2024-05-25T12:18:16Z</time>
      </trkpt>
      <trkpt lat="44.78985" lon="5.55057">
        <ele>1698</ele>
        <time>2024-05-25T12:18:25Z</time>
      </trkpt>
      <trkpt lat="44.78989" lon="5.55071">
        <ele>1696</ele>
        <time>2024-05-25T12:18:42Z</time>
      </trkpt>
      <trkpt lat="44.78985" lon="5.55081">
        <ele>1696</ele>
        <time>2024-05-25T12:18:56Z</time>
      </trkpt>
      <trkpt lat="44.78985" lon="5.55094">
        <ele>1696</ele>
        <time>2024-05-25T12:19:08Z</time>
      </trkpt>
      <trkpt lat="44.78986" lon="5.55107">
        <ele>1697</ele>
        <time>2024-05-25T12:19:20Z</time>
      </trkpt>
      <trkpt lat="44.78985" lon="5.5512">
        <ele>1698</ele>
        <time>2024-05-25T12:19:33Z</time>
      </trkpt>
      <trkpt lat="44.78989" lon="5.55132">
        <ele>1700</ele>
        <time>2024-05-25T12:19:46Z</time>
      </trkpt>
      <trkpt lat="44.78989" lon="5.55145">
        <ele>1701</ele>
        <time>2024-05-25T12:20:01Z</time>
      </trkpt>
      <trkpt lat="44.78994" lon="5.55157">
        <ele>1703</ele>
        <time>2024-05-25T12:20:12Z</time>
      </trkpt>
      <trkpt lat="44.78998" lon="5.55169">
        <ele>1703</ele>
        <time>2024-05-25T12:20:22Z</time>
      </trkpt>
      <trkpt lat="44.78998" lon="5.55182">
        <ele>1704</ele>
        <time>2024-05-25T12:20:36Z</time>
      </trkpt>
      <trkpt lat="44.78995" lon="5.55194">
        <ele>1705</ele>
        <time>2024-05-25T12:20:46Z</time>
      </trkpt>
      <trkpt lat="44.78993" lon="5.55202">
        <ele>1706</ele>
        <time>2024-05-25T12:20:59Z</time>
      </trkpt>
      <trkpt lat="44.78994" lon="5.55214">
        <ele>1709</ele>
        <time>2024-05-25T12:21:15Z</time>
      </trkpt>
      <trkpt lat="44.78996" lon="5.55227">
        <ele>1710</ele>
        <time>2024-05-25T12:21:26Z</time>
      </trkpt>
      <trkpt lat="44.79001" lon="5.55238">
        <ele>1711</ele>
        <time>2024-05-25T12:21:36Z</time>
      </trkpt>
      <trkpt lat="44.79005" lon="5.5525">
        <ele>1711</ele>
        <time>2024-05-25T12:21:45Z</time>
      </trkpt>
      <trkpt lat="44.79008" lon="5.55262">
        <ele>1712</ele>
        <time>2024-05-25T12:21:53Z</time>
      </trkpt>
      <trkpt lat="44.79013" lon="5.55274">
        <ele>1712</ele>
        <time>2024-05-25T12:22:03Z</time>
      </trkpt>
      <trkpt lat="44.79009" lon="5.55283">
        <ele>1713</ele>
        <time>2024-05-25T12:23:24Z</time>
      </trkpt>
      <trkpt lat="44.79007" lon="5.55282">
        <ele>1713</ele>
        <time>2024-05-25T12:25:03Z</time>
      </trkpt>
      <trkpt lat="44.79014" lon="5.55291">
        <ele>1712</ele>
        <time>2024-05-25T12:25:20Z</time>
      </trkpt>
      <trkpt lat="44.79021" lon="5.55298">
        <ele>1712</ele>
        <time>2024-05-25T12:25:34Z</time>
      </trkpt>
      <trkpt lat="44.79022" lon="5.55311">
        <ele>1711</ele>
        <time>2024-05-25T12:25:46Z</time>
      </trkpt>
      <trkpt lat="44.79023" lon="5.55324">
        <ele>1710</ele>
        <time>2024-05-25T12:25:59Z</time>
      </trkpt>
      <trkpt lat="44.79024" lon="5.55337">
        <ele>1710</ele>
        <time>2024-05-25T12:26:09Z</time>
      </trkpt>
      <trkpt lat="44.79028" lon="5.55349">
        <ele>1710</ele>
        <time>2024-05-25T12:26:22Z</time>
      </trkpt>
      <trkpt lat="44.79034" lon="5.55359">
        <ele>1710</ele>
        <time>2024-05-25T12:26:31Z</time>
      </trkpt>
      <trkpt lat="44.79038" lon="5.55372">
        <ele>1708</ele>
        <time>2024-05-25T12:26:47Z</time>
      </trkpt>
      <trkpt lat="44.79045" lon="5.55381">
        <ele>1706</ele>
        <time>2024-05-25T12:26:57Z</time>
      </trkpt>
      <trkpt lat="44.7905" lon="5.55392">
        <ele>1705</ele>
        <time>2024-05-25T12:27:07Z</time>
      </trkpt>
      <trkpt lat="44.79052" lon="5.55404">
        <ele>1705</ele>
        <time>2024-05-25T12:27:18Z</time>
      </trkpt>
      <trkpt lat="44.79057" lon="5.55415">
        <ele>1705</ele>
        <time>2024-05-25T12:27:29Z</time>
      </trkpt>
      <trkpt lat="44.79059" lon="5.55427">
        <ele>1705</ele>
        <time>2024-05-25T12:27:39Z</time>
      </trkpt>
      <trkpt lat="44.79064" lon="5.55438">
        <ele>1704</ele>
        <time>2024-05-25T12:27:59Z</time>
      </trkpt>
      <trkpt lat="44.79072" lon="5.55447">
        <ele>1704</ele>
        <time>2024-05-25T12:28:08Z</time>
      </trkpt>
      <trkpt lat="44.79076" lon="5.55458">
        <ele>1703</ele>
        <time>2024-05-25T12:28:20Z</time>
      </trkpt>
      <trkpt lat="44.7908" lon="5.55471">
        <ele>1703</ele>
        <time>2024-05-25T12:28:30Z</time>
      </trkpt>
      <trkpt lat="44.79083" lon="5.55484">
        <ele>1703</ele>
        <time>2024-05-25T12:28:40Z</time>
      </trkpt>
      <trkpt lat="44.79085" lon="5.55497">
        <ele>1703</ele>
        <time>2024-05-25T12:28:51Z</time>
      </trkpt>
      <trkpt lat="44.79089" lon="5.5551">
        <ele>1703</ele>
        <time>2024-05-25T12:29:01Z</time>
      </trkpt>
      <trkpt lat="44.79091" lon="5.55522">
        <ele>1702</ele>
        <time>2024-05-25T12:29:14Z</time>
      </trkpt>
      <trkpt lat="44.79094" lon="5.55533">
        <ele>1702</ele>
        <time>2024-05-25T12:29:25Z</time>
      </trkpt>
      <trkpt lat="44.79099" lon="5.55543">
        <ele>1702</ele>
        <time>2024-05-25T12:30:10Z</time>
      </trkpt>
      <trkpt lat="44.79103" lon="5.55548">
        <ele>1701</ele>
        <time>2024-05-25T12:30:37Z</time>
      </trkpt>
      <trkpt lat="44.79111" lon="5.55546">
        <ele>1699</ele>
        <time>2024-05-25T12:30:49Z</time>
      </trkpt>
      <trkpt lat="44.7912" lon="5.55542">
        <ele>1696</ele>
        <time>2024-05-25T12:31:09Z</time>
      </trkpt>
      <trkpt lat="44.79129" lon="5.55537">
        <ele>1693</ele>
        <time>2024-05-25T12:31:26Z</time>
      </trkpt>
      <trkpt lat="44.79139" lon="5.55537">
        <ele>1692</ele>
        <time>2024-05-25T12:31:38Z</time>
      </trkpt>
      <trkpt lat="44.79147" lon="5.55541">
        <ele>1690</ele>
        <time>2024-05-25T12:31:53Z</time>
      </trkpt>
      <trkpt lat="44.79157" lon="5.55545">
        <ele>1688</ele>
        <time>2024-05-25T12:32:05Z</time>
      </trkpt>
      <trkpt lat="44.79166" lon="5.55548">
        <ele>1688</ele>
        <time>2024-05-25T12:32:15Z</time>
      </trkpt>
      <trkpt lat="44.79174" lon="5.55557">
        <ele>1686</ele>
        <time>2024-05-25T12:32:25Z</time>
      </trkpt>
      <trkpt lat="44.79181" lon="5.55566">
        <ele>1686</ele>
        <time>2024-05-25T12:32:34Z</time>
      </trkpt>
      <trkpt lat="44.79186" lon="5.55575">
        <ele>1686</ele>
        <time>2024-05-25T12:32:45Z</time>
      </trkpt>
      <trkpt lat="44.79195" lon="5.55579">
        <ele>1686</ele>
        <time>2024-05-25T12:32:55Z</time>
      </trkpt>
      <trkpt lat="44.79202" lon="5.55586">
        <ele>1685</ele>
        <time>2024-05-25T12:33:15Z</time>
      </trkpt>
      <trkpt lat="44.7921" lon="5.55593">
        <ele>1684</ele>
        <time>2024-05-25T12:33:28Z</time>
      </trkpt>
      <trkpt lat="44.79218" lon="5.55599">
        <ele>1682</ele>
        <time>2024-05-25T12:33:37Z</time>
      </trkpt>
      <trkpt lat="44.79227" lon="5.55605">
        <ele>1681</ele>
        <time>2024-05-25T12:33:45Z</time>
      </trkpt>
      <trkpt lat="44.79233" lon="5.55615">
        <ele>1678</ele>
        <time>2024-05-25T12:33:56Z</time>
      </trkpt>
      <trkpt lat="44.79235" lon="5.55628">
        <ele>1677</ele>
        <time>2024-05-25T12:34:07Z</time>
      </trkpt>
      <trkpt lat="44.79241" lon="5.55638">
        <ele>1676</ele>
        <time>2024-05-25T12:34:25Z</time>
      </trkpt>
      <trkpt lat="44.79248" lon="5.55645">
        <ele>1675</ele>
        <time>2024-05-25T12:34:36Z</time>
      </trkpt>
      <trkpt lat="44.79253" lon="5.55656">
        <ele>1674</ele>
        <time>2024-05-25T12:34:45Z</time>
      </trkpt>
      <trkpt lat="44.79256" lon="5.55669">
        <ele>1674</ele>
        <time>2024-05-25T12:34:54Z</time>
      </trkpt>
      <trkpt lat="44.79263" lon="5.55678">
        <ele>1673</ele>
        <time>2024-05-25T12:35:02Z</time>
      </trkpt>
      <trkpt lat="44.79268" lon="5.55689">
        <ele>1673</ele>
        <time>2024-05-25T12:35:14Z</time>
      </trkpt>
      <trkpt lat="44.79272" lon="5.55702">
        <ele>1673</ele>
        <time>2024-05-25T12:35:25Z</time>
      </trkpt>
      <trkpt lat="44.79274" lon="5.55714">
        <ele>1673</ele>
        <time>2024-05-25T12:35:35Z</time>
      </trkpt>
      <trkpt lat="44.79277" lon="5.55728">
        <ele>1673</ele>
        <time>2024-05-25T12:35:46Z</time>
      </trkpt>
      <trkpt lat="44.79278" lon="5.55742">
        <ele>1672</ele>
        <time>2024-05-25T12:35:56Z</time>
      </trkpt>
      <trkpt lat="44.79284" lon="5.55753">
        <ele>1672</ele>
        <time>2024-05-25T12:36:04Z</time>
      </trkpt>
      <trkpt lat="44.79284" lon="5.55766">
        <ele>1672</ele>
        <time>2024-05-25T12:36:13Z</time>
      </trkpt>
      <trkpt lat="44.7928" lon="5.55778">
        <ele>1673</ele>
        <time>2024-05-25T12:36:22Z</time>
      </trkpt>
      <trkpt lat="44.79277" lon="5.55791">
        <ele>1673</ele>
        <time>2024-05-25T12:36:32Z</time>
      </trkpt>
      <trkpt lat="44.79273" lon="5.55803">
        <ele>1672</ele>
        <time>2024-05-25T12:36:40Z</time>
      </trkpt>
      <trkpt lat="44.79268" lon="5.55815">
        <ele>1672</ele>
        <time>2024-05-25T12:36:49Z</time>
      </trkpt>
      <trkpt lat="44.79265" lon="5.55826">
        <ele>1672</ele>
        <time>2024-05-25T12:36:58Z</time>
      </trkpt>
      <trkpt lat="44.79263" lon="5.55839">
        <ele>1671</ele>
        <time>2024-05-25T12:37:08Z</time>
      </trkpt>
      <trkpt lat="44.79261" lon="5.5585">
        <ele>1671</ele>
        <time>2024-05-25T12:37:40Z</time>
      </trkpt>
      <trkpt lat="44.79258" lon="5.55853">
        <ele>1671</ele>
        <time>2024-05-25T12:38:02Z</time>
      </trkpt>
      <trkpt lat="44.79258" lon="5.55853">
        <ele>1671</ele>
        <time>2024-05-25T12:38:50Z</time>
      </trkpt>
      <trkpt lat="44.79264" lon="5.55853">
        <ele>1671</ele>
        <time>2024-05-25T12:39:25Z</time>
      </trkpt>
      <trkpt lat="44.79258" lon="5.55856">
        <ele>1671</ele>
        <time>2024-05-25T12:40:30Z</time>
      </trkpt>
      <trkpt lat="44.79261" lon="5.55857">
        <ele>1671</ele>
        <time>2024-05-25T12:41:09Z</time>
      </trkpt>
      <trkpt lat="44.79255" lon="5.55854">
        <ele>1671</ele>
        <time>2024-05-25T12:41:36Z</time>
      </trkpt>
      <trkpt lat="44.79261" lon="5.55858">
        <ele>1671</ele>
        <time>2024-05-25T12:42:16Z</time>
      </trkpt>
      <trkpt lat="44.79264" lon="5.55861">
        <ele>1671</ele>
        <time>2024-05-25T12:42:56Z</time>
      </trkpt>
      <trkpt lat="44.79257" lon="5.55861">
        <ele>1672</ele>
        <time>2024-05-25T12:43:23Z</time>
      </trkpt>
      <trkpt lat="44.79254" lon="5.55854">
        <ele>1672</ele>
        <time>2024-05-25T12:44:19Z</time>
      </trkpt>
      <trkpt lat="44.79258" lon="5.55857">
        <ele>1672</ele>
        <time>2024-05-25T12:44:40Z</time>
      </trkpt>
      <trkpt lat="44.7926" lon="5.55848">
        <ele>1671</ele>
        <time>2024-05-25T12:45:57Z</time>
      </trkpt>
      <trkpt lat="44.79256" lon="5.55854">
        <ele>1672</ele>
        <time>2024-05-25T12:46:15Z</time>
      </trkpt>
      <trkpt lat="44.79263" lon="5.55856">
        <ele>1672</ele>
        <time>2024-05-25T12:46:30Z</time>
      </trkpt>
      <trkpt lat="44.79259" lon="5.55855">
        <ele>1673</ele>
        <time>2024-05-25T12:47:30Z</time>
      </trkpt>
      <trkpt lat="44.79263" lon="5.55859">
        <ele>1672</ele>
        <time>2024-05-25T12:48:17Z</time>
      </trkpt>
      <trkpt lat="44.79265" lon="5.55872">
        <ele>1670</ele>
        <time>2024-05-25T12:48:38Z</time>
      </trkpt>
      <trkpt lat="44.79273" lon="5.55876">
        <ele>1668</ele>
        <time>2024-05-25T12:48:53Z</time>
      </trkpt>
      <trkpt lat="44.79282" lon="5.55879">
        <ele>1666</ele>
        <time>2024-05-25T12:49:07Z</time>
      </trkpt>
      <trkpt lat="44.79286" lon="5.55887">
        <ele>1662</ele>
        <time>2024-05-25T12:49:33Z</time>
      </trkpt>
      <trkpt lat="44.79295" lon="5.5589">
        <ele>1659</ele>
        <time>2024-05-25T12:49:51Z</time>
      </trkpt>
      <trkpt lat="44.793" lon="5.55897">
        <ele>1657</ele>
        <time>2024-05-25T12:50:03Z</time>
      </trkpt>
      <trkpt lat="44.79293" lon="5.55903">
        <ele>1656</ele>
        <time>2024-05-25T12:50:12Z</time>
      </trkpt>
      <trkpt lat="44.79289" lon="5.55911">
        <ele>1653</ele>
        <time>2024-05-25T12:50:29Z</time>
      </trkpt>
      <trkpt lat="44.79298" lon="5.55912">
        <ele>1651</ele>
        <time>2024-05-25T12:50:40Z</time>
      </trkpt>
      <trkpt lat="44.79307" lon="5.55907">
        <ele>1649</ele>
        <time>2024-05-25T12:50:51Z</time>
      </trkpt>
      <trkpt lat="44.79316" lon="5.55907">
        <ele>1648</ele>
        <time>2024-05-25T12:51:02Z</time>
      </trkpt>
      <trkpt lat="44.79324" lon="5.55913">
        <ele>1646</ele>
        <time>2024-05-25T12:51:15Z</time>
      </trkpt>
      <trkpt lat="44.79331" lon="5.55922">
        <ele>1645</ele>
        <time>2024-05-25T12:51:24Z</time>
      </trkpt>
      <trkpt lat="44.79331" lon="5.55934">
        <ele>1642</ele>
        <time>2024-05-25T12:51:36Z</time>
      </trkpt>
      <trkpt lat="44.79326" lon="5.55945">
        <ele>1640</ele>
        <time>2024-05-25T12:51:48Z</time>
      </trkpt>
      <trkpt lat="44.79328" lon="5.55956">
        <ele>1638</ele>
        <time>2024-05-25T12:52:02Z</time>
      </trkpt>
      <trkpt lat="44.79337" lon="5.5596">
        <ele>1637</ele>
        <time>2024-05-25T12:52:10Z</time>
      </trkpt>
      <trkpt lat="44.79346" lon="5.55958">
        <ele>1635</ele>
        <time>2024-05-25T12:52:21Z</time>
      </trkpt>
      <trkpt lat="44.79355" lon="5.55957">
        <ele>1634</ele>
        <time>2024-05-25T12:52:31Z</time>
      </trkpt>
      <trkpt lat="44.79363" lon="5.5595">
        <ele>1632</ele>
        <time>2024-05-25T12:52:41Z</time>
      </trkpt>
      <trkpt lat="44.79371" lon="5.55943">
        <ele>1631</ele>
        <time>2024-05-25T12:52:52Z</time>
      </trkpt>
      <trkpt lat="44.7938" lon="5.55938">
        <ele>1629</ele>
        <time>2024-05-25T12:53:01Z</time>
      </trkpt>
      <trkpt lat="44.79383" lon="5.55927">
        <ele>1627</ele>
        <time>2024-05-25T12:53:13Z</time>
      </trkpt>
      <trkpt lat="44.79389" lon="5.55931">
        <ele>1625</ele>
        <time>2024-05-25T12:53:29Z</time>
      </trkpt>
      <trkpt lat="44.79399" lon="5.55933">
        <ele>1621</ele>
        <time>2024-05-25T12:53:46Z</time>
      </trkpt>
      <trkpt lat="44.79408" lon="5.55937">
        <ele>1620</ele>
        <time>2024-05-25T12:53:55Z</time>
      </trkpt>
      <trkpt lat="44.79417" lon="5.55937">
        <ele>1616</ele>
        <time>2024-05-25T12:54:13Z</time>
      </trkpt>
      <trkpt lat="44.79426" lon="5.55937">
        <ele>1613</ele>
        <time>2024-05-25T12:54:26Z</time>
      </trkpt>
      <trkpt lat="44.79433" lon="5.55941">
        <ele>1610</ele>
        <time>2024-05-25T12:54:45Z</time>
      </trkpt>
      <trkpt lat="44.79427" lon="5.5595">
        <ele>1607</ele>
        <time>2024-05-25T12:54:58Z</time>
      </trkpt>
      <trkpt lat="44.7943" lon="5.55955">
        <ele>1603</ele>
        <time>2024-05-25T12:55:18Z</time>
      </trkpt>
      <trkpt lat="44.79438" lon="5.55961">
        <ele>1601</ele>
        <time>2024-05-25T12:55:30Z</time>
      </trkpt>
      <trkpt lat="44.79436" lon="5.55963">
        <ele>1598</ele>
        <time>2024-05-25T12:55:43Z</time>
      </trkpt>
      <trkpt lat="44.79437" lon="5.55971">
        <ele>1595</ele>
        <time>2024-05-25T12:56:04Z</time>
      </trkpt>
      <trkpt lat="44.79435" lon="5.55981">
        <ele>1592</ele>
        <time>2024-05-25T12:56:17Z</time>
      </trkpt>
      <trkpt lat="44.79442" lon="5.55989">
        <ele>1589</ele>
        <time>2024-05-25T12:56:35Z</time>
      </trkpt>
      <trkpt lat="44.79452" lon="5.55994">
        <ele>1586</ele>
        <time>2024-05-25T12:56:46Z</time>
      </trkpt>
      <trkpt lat="44.79446" lon="5.56">
        <ele>1583</ele>
        <time>2024-05-25T12:57:05Z</time>
      </trkpt>
      <trkpt lat="44.7944" lon="5.56006">
        <ele>1580</ele>
        <time>2024-05-25T12:57:19Z</time>
      </trkpt>
      <trkpt lat="44.79437" lon="5.56018">
        <ele>1577</ele>
        <time>2024-05-25T12:57:32Z</time>
      </trkpt>
      <trkpt lat="44.79432" lon="5.5603">
        <ele>1575</ele>
        <time>2024-05-25T12:57:43Z</time>
      </trkpt>
      <trkpt lat="44.7943" lon="5.56042">
        <ele>1572</ele>
        <time>2024-05-25T12:58:05Z</time>
      </trkpt>
      <trkpt lat="44.79434" lon="5.5605">
        <ele>1566</ele>
        <time>2024-05-25T12:58:42Z</time>
      </trkpt>
      <trkpt lat="44.7944" lon="5.5604">
        <ele>1563</ele>
        <time>2024-05-25T12:59:00Z</time>
      </trkpt>
      <trkpt lat="44.79451" lon="5.5604">
        <ele>1561</ele>
        <time>2024-05-25T12:59:07Z</time>
      </trkpt>
      <trkpt lat="44.79458" lon="5.56044">
        <ele>1558</ele>
        <time>2024-05-25T12:59:27Z</time>
      </trkpt>
      <trkpt lat="44.79456" lon="5.56052">
        <ele>1555</ele>
        <time>2024-05-25T12:59:45Z</time>
      </trkpt>
      <trkpt lat="44.79453" lon="5.56062">
        <ele>1553</ele>
        <time>2024-05-25T13:00:00Z</time>
      </trkpt>
      <trkpt lat="44.79447" lon="5.5607">
        <ele>1549</ele>
        <time>2024-05-25T13:00:13Z</time>
      </trkpt>
      <trkpt lat="44.79446" lon="5.56082">
        <ele>1546</ele>
        <time>2024-05-25T13:00:28Z</time>
      </trkpt>
      <trkpt lat="44.79444" lon="5.56093">
        <ele>1543</ele>
        <time>2024-05-25T13:00:46Z</time>
      </trkpt>
      <trkpt lat="44.79443" lon="5.56105">
        <ele>1540</ele>
        <time>2024-05-25T13:01:04Z</time>
      </trkpt>
      <trkpt lat="44.79439" lon="5.56116">
        <ele>1538</ele>
        <time>2024-05-25T13:01:17Z</time>
      </trkpt>
      <trkpt lat="44.79441" lon="5.56129">
        <ele>1536</ele>
        <time>2024-05-25T13:01:29Z</time>
      </trkpt>
      <trkpt lat="44.79436" lon="5.5614">
        <ele>1534</ele>
        <time>2024-05-25T13:01:38Z</time>
      </trkpt>
      <trkpt lat="44.79434" lon="5.56151">
        <ele>1532</ele>
        <time>2024-05-25T13:01:49Z</time>
      </trkpt>
      <trkpt lat="44.79438" lon="5.56163">
        <ele>1531</ele>
        <time>2024-05-25T13:01:58Z</time>
      </trkpt>
      <trkpt lat="44.7943" lon="5.56169">
        <ele>1527</ele>
        <time>2024-05-25T13:02:17Z</time>
      </trkpt>
      <trkpt lat="44.79438" lon="5.56178">
        <ele>1525</ele>
        <time>2024-05-25T13:02:28Z</time>
      </trkpt>
      <trkpt lat="44.79447" lon="5.56178">
        <ele>1521</ele>
        <time>2024-05-25T13:02:56Z</time>
      </trkpt>
      <trkpt lat="44.79453" lon="5.56169">
        <ele>1518</ele>
        <time>2024-05-25T13:03:15Z</time>
      </trkpt>
      <trkpt lat="44.7946" lon="5.56162">
        <ele>1515</ele>
        <time>2024-05-25T13:03:26Z</time>
      </trkpt>
      <trkpt lat="44.79467" lon="5.56155">
        <ele>1513</ele>
        <time>2024-05-25T13:03:36Z</time>
      </trkpt>
      <trkpt lat="44.79471" lon="5.56144">
        <ele>1512</ele>
        <time>2024-05-25T13:03:52Z</time>
      </trkpt>
      <trkpt lat="44.79481" lon="5.56144">
        <ele>1509</ele>
        <time>2024-05-25T13:04:08Z</time>
      </trkpt>
      <trkpt lat="44.79486" lon="5.56153">
        <ele>1505</ele>
        <time>2024-05-25T13:04:30Z</time>
      </trkpt>
      <trkpt lat="44.79493" lon="5.56161">
        <ele>1502</ele>
        <time>2024-05-25T13:04:43Z</time>
      </trkpt>
      <trkpt lat="44.79501" lon="5.56166">
        <ele>1500</ele>
        <time>2024-05-25T13:04:55Z</time>
      </trkpt>
      <trkpt lat="44.79508" lon="5.56175">
        <ele>1498</ele>
        <time>2024-05-25T13:05:06Z</time>
      </trkpt>
      <trkpt lat="44.79516" lon="5.56182">
        <ele>1496</ele>
        <time>2024-05-25T13:05:17Z</time>
      </trkpt>
      <trkpt lat="44.79522" lon="5.56192">
        <ele>1494</ele>
        <time>2024-05-25T13:05:34Z</time>
      </trkpt>
      <trkpt lat="44.79529" lon="5.562">
        <ele>1492</ele>
        <time>2024-05-25T13:05:50Z</time>
      </trkpt>
      <trkpt lat="44.79535" lon="5.56209">
        <ele>1491</ele>
        <time>2024-05-25T13:06:03Z</time>
      </trkpt>
      <trkpt lat="44.79544" lon="5.56214">
        <ele>1490</ele>
        <time>2024-05-25T13:06:14Z</time>
      </trkpt>
      <trkpt lat="44.79552" lon="5.56211">
        <ele>1487</ele>
        <time>2024-05-25T13:06:26Z</time>
      </trkpt>
      <trkpt lat="44.79557" lon="5.56217">
        <ele>1484</ele>
        <time>2024-05-25T13:06:48Z</time>
      </trkpt>
      <trkpt lat="44.79551" lon="5.56225">
        <ele>1481</ele>
        <time>2024-05-25T13:07:01Z</time>
      </trkpt>
      <trkpt lat="44.79542" lon="5.56229">
        <ele>1480</ele>
        <time>2024-05-25T13:07:15Z</time>
      </trkpt>
      <trkpt lat="44.79534" lon="5.56224">
        <ele>1477</ele>
        <time>2024-05-25T13:07:27Z</time>
      </trkpt>
      <trkpt lat="44.79526" lon="5.56216">
        <ele>1475</ele>
        <time>2024-05-25T13:07:40Z</time>
      </trkpt>
      <trkpt lat="44.7952" lon="5.56224">
        <ele>1473</ele>
        <time>2024-05-25T13:07:49Z</time>
      </trkpt>
      <trkpt lat="44.79528" lon="5.56231">
        <ele>1470</ele>
        <time>2024-05-25T13:08:06Z</time>
      </trkpt>
      <trkpt lat="44.79535" lon="5.56239">
        <ele>1467</ele>
        <time>2024-05-25T13:08:22Z</time>
      </trkpt>
      <trkpt lat="44.79529" lon="5.56241">
        <ele>1464</ele>
        <time>2024-05-25T13:08:36Z</time>
      </trkpt>
      <trkpt lat="44.7952" lon="5.56239">
        <ele>1461</ele>
        <time>2024-05-25T13:08:51Z</time>
      </trkpt>
      <trkpt lat="44.79512" lon="5.56236">
        <ele>1460</ele>
        <time>2024-05-25T13:09:05Z</time>
      </trkpt>
      <trkpt lat="44.79512" lon="5.56249">
        <ele>1457</ele>
        <time>2024-05-25T13:09:18Z</time>
      </trkpt>
      <trkpt lat="44.79516" lon="5.56261">
        <ele>1454</ele>
        <time>2024-05-25T13:09:34Z</time>
      </trkpt>
      <trkpt lat="44.79524" lon="5.56269">
        <ele>1452</ele>
        <time>2024-05-25T13:09:45Z</time>
      </trkpt>
      <trkpt lat="44.79531" lon="5.56279">
        <ele>1448</ele>
        <time>2024-05-25T13:10:06Z</time>
      </trkpt>
      <trkpt lat="44.79538" lon="5.56286">
        <ele>1442</ele>
        <time>2024-05-25T13:10:37Z</time>
      </trkpt>
      <trkpt lat="44.79546" lon="5.56293">
        <ele>1441</ele>
        <time>2024-05-25T13:10:45Z</time>
      </trkpt>
      <trkpt lat="44.79555" lon="5.563">
        <ele>1437</ele>
        <time>2024-05-25T13:11:01Z</time>
      </trkpt>
      <trkpt lat="44.7956" lon="5.5631">
        <ele>1435</ele>
        <time>2024-05-25T13:11:12Z</time>
      </trkpt>
      <trkpt lat="44.79569" lon="5.56313">
        <ele>1433</ele>
        <time>2024-05-25T13:11:23Z</time>
      </trkpt>
      <trkpt lat="44.79579" lon="5.56315">
        <ele>1430</ele>
        <time>2024-05-25T13:11:36Z</time>
      </trkpt>
      <trkpt lat="44.79589" lon="5.56315">
        <ele>1425</ele>
        <time>2024-05-25T13:12:04Z</time>
      </trkpt>
      <trkpt lat="44.79598" lon="5.56314">
        <ele>1422</ele>
        <time>2024-05-25T13:12:18Z</time>
      </trkpt>
      <trkpt lat="44.79607" lon="5.56317">
        <ele>1419</ele>
        <time>2024-05-25T13:12:31Z</time>
      </trkpt>
      <trkpt lat="44.79608" lon="5.56326">
        <ele>1417</ele>
        <time>2024-05-25T13:12:43Z</time>
      </trkpt>
      <trkpt lat="44.79603" lon="5.56336">
        <ele>1415</ele>
        <time>2024-05-25T13:12:55Z</time>
      </trkpt>
      <trkpt lat="44.79596" lon="5.56343">
        <ele>1410</ele>
        <time>2024-05-25T13:13:16Z</time>
      </trkpt>
      <trkpt lat="44.7959" lon="5.56352">
        <ele>1408</ele>
        <time>2024-05-25T13:13:28Z</time>
      </trkpt>
      <trkpt lat="44.79583" lon="5.56362">
        <ele>1405</ele>
        <time>2024-05-25T13:13:42Z</time>
      </trkpt>
      <trkpt lat="44.79577" lon="5.56372">
        <ele>1402</ele>
        <time>2024-05-25T13:13:55Z</time>
      </trkpt>
      <trkpt lat="44.7957" lon="5.56381">
        <ele>1400</ele>
        <time>2024-05-25T13:14:03Z</time>
      </trkpt>
      <trkpt lat="44.7956" lon="5.56386">
        <ele>1398</ele>
        <time>2024-05-25T13:14:18Z</time>
      </trkpt>
      <trkpt lat="44.79552" lon="5.56389">
        <ele>1395</ele>
        <time>2024-05-25T13:14:39Z</time>
      </trkpt>
      <trkpt lat="44.79553" lon="5.56401">
        <ele>1392</ele>
        <time>2024-05-25T13:14:52Z</time>
      </trkpt>
      <trkpt lat="44.79551" lon="5.56412">
        <ele>1388</ele>
        <time>2024-05-25T13:15:13Z</time>
      </trkpt>
      <trkpt lat="44.79548" lon="5.56423">
        <ele>1386</ele>
        <time>2024-05-25T13:15:25Z</time>
      </trkpt>
      <trkpt lat="44.79552" lon="5.56436">
        <ele>1383</ele>
        <time>2024-05-25T13:15:36Z</time>
      </trkpt>
      <trkpt lat="44.79551" lon="5.56449">
        <ele>1381</ele>
        <time>2024-05-25T13:15:46Z</time>
      </trkpt>
      <trkpt lat="44.7955" lon="5.56462">
        <ele>1377</ele>
        <time>2024-05-25T13:16:10Z</time>
      </trkpt>
      <trkpt lat="44.79555" lon="5.56471">
        <ele>1374</ele>
        <time>2024-05-25T13:16:21Z</time>
      </trkpt>
      <trkpt lat="44.7956" lon="5.56483">
        <ele>1372</ele>
        <time>2024-05-25T13:16:29Z</time>
      </trkpt>
      <trkpt lat="44.79559" lon="5.56494">
        <ele>1370</ele>
        <time>2024-05-25T13:16:40Z</time>
      </trkpt>
      <trkpt lat="44.79553" lon="5.56501">
        <ele>1367</ele>
        <time>2024-05-25T13:16:52Z</time>
      </trkpt>
      <trkpt lat="44.79552" lon="5.56511">
        <ele>1364</ele>
        <time>2024-05-25T13:17:18Z</time>
      </trkpt>
      <trkpt lat="44.79549" lon="5.56522">
        <ele>1360</ele>
        <time>2024-05-25T13:17:36Z</time>
      </trkpt>
      <trkpt lat="44.79542" lon="5.5653">
        <ele>1359</ele>
        <time>2024-05-25T13:17:46Z</time>
      </trkpt>
      <trkpt lat="44.7955" lon="5.56535">
        <ele>1356</ele>
        <time>2024-05-25T13:18:04Z</time>
      </trkpt>
      <trkpt lat="44.79554" lon="5.56545">
        <ele>1354</ele>
        <time>2024-05-25T13:18:16Z</time>
      </trkpt>
      <trkpt lat="44.79555" lon="5.5655">
        <ele>1352</ele>
        <time>2024-05-25T13:19:12Z</time>
      </trkpt>
      <trkpt lat="44.79554" lon="5.56559">
        <ele>1352</ele>
        <time>2024-05-25T13:19:28Z</time>
      </trkpt>
      <trkpt lat="44.79546" lon="5.5656">
        <ele>1351</ele>
        <time>2024-05-25T13:19:37Z</time>
      </trkpt>
      <trkpt lat="44.79543" lon="5.56569">
        <ele>1349</ele>
        <time>2024-05-25T13:20:42Z</time>
      </trkpt>
      <trkpt lat="44.79547" lon="5.5657">
        <ele>1346</ele>
        <time>2024-05-25T13:21:39Z</time>
      </trkpt>
      <trkpt lat="44.79549" lon="5.56562">
        <ele>1346</ele>
        <time>2024-05-25T13:22:05Z</time>
      </trkpt>
      <trkpt lat="44.79549" lon="5.56573">
        <ele>1346</ele>
        <time>2024-05-25T13:22:16Z</time>
      </trkpt>
      <trkpt lat="44.79543" lon="5.56579">
        <ele>1347</ele>
        <time>2024-05-25T13:22:52Z</time>
      </trkpt>
      <trkpt lat="44.79548" lon="5.56579">
        <ele>1347</ele>
        <time>2024-05-25T13:23:26Z</time>
      </trkpt>
      <trkpt lat="44.79546" lon="5.56578">
        <ele>1347</ele>
        <time>2024-05-25T13:24:17Z</time>
      </trkpt>
      <trkpt lat="44.79553" lon="5.56587">
        <ele>1347</ele>
        <time>2024-05-25T13:24:34Z</time>
      </trkpt>
      <trkpt lat="44.79548" lon="5.56578">
        <ele>1347</ele>
        <time>2024-05-25T13:25:18Z</time>
      </trkpt>
      <trkpt lat="44.79545" lon="5.56582">
        <ele>1346</ele>
        <time>2024-05-25T13:25:41Z</time>
      </trkpt>
      <trkpt lat="44.79547" lon="5.56586">
        <ele>1345</ele>
        <time>2024-05-25T13:26:09Z</time>
      </trkpt>
      <trkpt lat="44.79546" lon="5.56593">
        <ele>1343</ele>
        <time>2024-05-25T13:26:32Z</time>
      </trkpt>
      <trkpt lat="44.79548" lon="5.56605">
        <ele>1337</ele>
        <time>2024-05-25T13:27:03Z</time>
      </trkpt>
      <trkpt lat="44.79543" lon="5.56615">
        <ele>1336</ele>
        <time>2024-05-25T13:27:14Z</time>
      </trkpt>
      <trkpt lat="44.79542" lon="5.56629">
        <ele>1333</ele>
        <time>2024-05-25T13:27:28Z</time>
      </trkpt>
      <trkpt lat="44.79538" lon="5.5664">
        <ele>1330</ele>
        <time>2024-05-25T13:27:42Z</time>
      </trkpt>
      <trkpt lat="44.79534" lon="5.56652">
        <ele>1328</ele>
        <time>2024-05-25T13:27:53Z</time>
      </trkpt>
      <trkpt lat="44.79526" lon="5.56658">
        <ele>1326</ele>
        <time>2024-05-25T13:28:05Z</time>
      </trkpt>
      <trkpt lat="44.79524" lon="5.56671">
        <ele>1324</ele>
        <time>2024-05-25T13:28:13Z</time>
      </trkpt>
      <trkpt lat="44.79528" lon="5.56683">
        <ele>1318</ele>
        <time>2024-05-25T13:28:36Z</time>
      </trkpt>
      <trkpt lat="44.79533" lon="5.56694">
        <ele>1316</ele>
        <time>2024-05-25T13:28:48Z</time>
      </trkpt>
      <trkpt lat="44.79532" lon="5.56705">
        <ele>1313</ele>
        <time>2024-05-25T13:29:04Z</time>
      </trkpt>
      <trkpt lat="44.79527" lon="5.56716">
        <ele>1309</ele>
        <time>2024-05-25T13:29:18Z</time>
      </trkpt>
      <trkpt lat="44.79524" lon="5.56728">
        <ele>1307</ele>
        <time>2024-05-25T13:29:28Z</time>
      </trkpt>
      <trkpt lat="44.79525" lon="5.56741">
        <ele>1305</ele>
        <time>2024-05-25T13:29:38Z</time>
      </trkpt>
      <trkpt lat="44.79533" lon="5.56748">
        <ele>1303</ele>
        <time>2024-05-25T13:29:49Z</time>
      </trkpt>
      <trkpt lat="44.79535" lon="5.56761">
        <ele>1300</ele>
        <time>2024-05-25T13:30:03Z</time>
      </trkpt>
      <trkpt lat="44.79544" lon="5.56765">
        <ele>1296</ele>
        <time>2024-05-25T13:30:25Z</time>
      </trkpt>
      <trkpt lat="44.79553" lon="5.56762">
        <ele>1294</ele>
        <time>2024-05-25T13:30:40Z</time>
      </trkpt>
      <trkpt lat="44.79563" lon="5.5676">
        <ele>1291</ele>
        <time>2024-05-25T13:30:53Z</time>
      </trkpt>
      <trkpt lat="44.7957" lon="5.56754">
        <ele>1288</ele>
        <time>2024-05-25T13:31:07Z</time>
      </trkpt>
      <trkpt lat="44.79578" lon="5.56748">
        <ele>1286</ele>
        <time>2024-05-25T13:31:17Z</time>
      </trkpt>
      <trkpt lat="44.79586" lon="5.5674">
        <ele>1284</ele>
        <time>2024-05-25T13:31:27Z</time>
      </trkpt>
      <trkpt lat="44.79595" lon="5.56743">
        <ele>1281</ele>
        <time>2024-05-25T13:31:37Z</time>
      </trkpt>
      <trkpt lat="44.79603" lon="5.56746">
        <ele>1280</ele>
        <time>2024-05-25T13:31:45Z</time>
      </trkpt>
      <trkpt lat="44.79612" lon="5.56748">
        <ele>1278</ele>
        <time>2024-05-25T13:32:00Z</time>
      </trkpt>
      <trkpt lat="44.79621" lon="5.56746">
        <ele>1275</ele>
        <time>2024-05-25T13:32:12Z</time>
      </trkpt>
      <trkpt lat="44.7963" lon="5.56742">
        <ele>1273</ele>
        <time>2024-05-25T13:32:30Z</time>
      </trkpt>
      <trkpt lat="44.79639" lon="5.56742">
        <ele>1272</ele>
        <time>2024-05-25T13:32:40Z</time>
      </trkpt>
      <trkpt lat="44.79649" lon="5.56746">
        <ele>1270</ele>
        <time>2024-05-25T13:32:50Z</time>
      </trkpt>
      <trkpt lat="44.79653" lon="5.56746">
        <ele>1269</ele>
        <time>2024-05-25T13:33:28Z</time>
      </trkpt>
      <trkpt lat="44.79655" lon="5.5675">
        <ele>1269</ele>
        <time>2024-05-25T13:33:55Z</time>
      </trkpt>
      <trkpt lat="44.79661" lon="5.56751">
        <ele>1269</ele>
        <time>2024-05-25T13:34:15Z</time>
      </trkpt>
      <trkpt lat="44.79657" lon="5.56752">
        <ele>1267</ele>
        <time>2024-05-25T13:34:56Z</time>
      </trkpt>
      <trkpt lat="44.79665" lon="5.56758">
        <ele>1265</ele>
        <time>2024-05-25T13:35:06Z</time>
      </trkpt>
      <trkpt lat="44.79674" lon="5.56761">
        <ele>1264</ele>
        <time>2024-05-25T13:35:15Z</time>
      </trkpt>
      <trkpt lat="44.79682" lon="5.56767">
        <ele>1262</ele>
        <time>2024-05-25T13:35:27Z</time>
      </trkpt>
      <trkpt lat="44.79691" lon="5.56764">
        <ele>1261</ele>
        <time>2024-05-25T13:35:36Z</time>
      </trkpt>
      <trkpt lat="44.797" lon="5.5676">
        <ele>1260</ele>
        <time>2024-05-25T13:35:46Z</time>
      </trkpt>
      <trkpt lat="44.7971" lon="5.56761">
        <ele>1258</ele>
        <time>2024-05-25T13:35:57Z</time>
      </trkpt>
      <trkpt lat="44.79719" lon="5.56758">
        <ele>1257</ele>
        <time>2024-05-25T13:36:07Z</time>
      </trkpt>
      <trkpt lat="44.79727" lon="5.56761">
        <ele>1257</ele>
        <time>2024-05-25T13:36:16Z</time>
      </trkpt>
      <trkpt lat="44.79734" lon="5.56771">
        <ele>1257</ele>
        <time>2024-05-25T13:36:22Z</time>
      </trkpt>
      <trkpt lat="44.79737" lon="5.56783">
        <ele>1257</ele>
        <time>2024-05-25T13:36:29Z</time>
      </trkpt>
      <trkpt lat="44.79742" lon="5.56794">
        <ele>1258</ele>
        <time>2024-05-25T13:36:36Z</time>
      </trkpt>
      <trkpt lat="44.79746" lon="5.56806">
        <ele>1258</ele>
        <time>2024-05-25T13:36:46Z</time>
      </trkpt>
      <trkpt lat="44.79751" lon="5.56819">
        <ele>1259</ele>
        <time>2024-05-25T13:36:55Z</time>
      </trkpt>
      <trkpt lat="44.79754" lon="5.56831">
        <ele>1260</ele>
        <time>2024-05-25T13:37:03Z</time>
      </trkpt>
      <trkpt lat="44.79757" lon="5.56843">
        <ele>1260</ele>
        <time>2024-05-25T13:37:42Z</time>
      </trkpt>
      <trkpt lat="44.79757" lon="5.56855">
        <ele>1259</ele>
        <time>2024-05-25T13:38:04Z</time>
      </trkpt>
      <trkpt lat="44.79761" lon="5.56867">
        <ele>1260</ele>
        <time>2024-05-25T13:38:21Z</time>
      </trkpt>
      <trkpt lat="44.79764" lon="5.56879">
        <ele>1260</ele>
        <time>2024-05-25T13:38:31Z</time>
      </trkpt>
      <trkpt lat="44.79767" lon="5.5689">
        <ele>1260</ele>
        <time>2024-05-25T13:38:44Z</time>
      </trkpt>
      <trkpt lat="44.79771" lon="5.56903">
        <ele>1258</ele>
        <time>2024-05-25T13:38:56Z</time>
      </trkpt>
      <trkpt lat="44.79779" lon="5.56912">
        <ele>1256</ele>
        <time>2024-05-25T13:39:06Z</time>
      </trkpt>
      <trkpt lat="44.79784" lon="5.56924">
        <ele>1255</ele>
        <time>2024-05-25T13:39:18Z</time>
      </trkpt>
      <trkpt lat="44.79784" lon="5.56937">
        <ele>1253</ele>
        <time>2024-05-25T13:39:29Z</time>
      </trkpt>
      <trkpt lat="44.79784" lon="5.5695">
        <ele>1250</ele>
        <time>2024-05-25T13:39:42Z</time>
      </trkpt>
      <trkpt lat="44.79786" lon="5.56963">
        <ele>1248</ele>
        <time>2024-05-25T13:39:51Z</time>
      </trkpt>
      <trkpt lat="44.79788" lon="5.56976">
        <ele>1246</ele>
        <time>2024-05-25T13:40:05Z</time>
      </trkpt>
      <trkpt lat="44.79794" lon="5.56987">
        <ele>1242</ele>
        <time>2024-05-25T13:40:20Z</time>
      </trkpt>
      <trkpt lat="44.79792" lon="5.57">
        <ele>1239</ele>
        <time>2024-05-25T13:40:32Z</time>
      </trkpt>
      <trkpt lat="44.79791" lon="5.57012">
        <ele>1236</ele>
        <time>2024-05-25T13:40:46Z</time>
      </trkpt>
      <trkpt lat="44.79787" lon="5.57025">
        <ele>1234</ele>
        <time>2024-05-25T13:41:00Z</time>
      </trkpt>
      <trkpt lat="44.7979" lon="5.57036">
        <ele>1231</ele>
        <time>2024-05-25T13:41:09Z</time>
      </trkpt>
      <trkpt lat="44.79792" lon="5.57047">
        <ele>1228</ele>
        <time>2024-05-25T13:41:24Z</time>
      </trkpt>
      <trkpt lat="44.79798" lon="5.57058">
        <ele>1226</ele>
        <time>2024-05-25T13:41:33Z</time>
      </trkpt>
      <trkpt lat="44.79798" lon="5.57071">
        <ele>1222</ele>
        <time>2024-05-25T13:41:48Z</time>
      </trkpt>
      <trkpt lat="44.79799" lon="5.57084">
        <ele>1220</ele>
        <time>2024-05-25T13:41:59Z</time>
      </trkpt>
      <trkpt lat="44.79805" lon="5.57091">
        <ele>1216</ele>
        <time>2024-05-25T13:42:12Z</time>
      </trkpt>
      <trkpt lat="44.79814" lon="5.57098">
        <ele>1214</ele>
        <time>2024-05-25T13:42:24Z</time>
      </trkpt>
      <trkpt lat="44.79821" lon="5.57105">
        <ele>1209</ele>
        <time>2024-05-25T13:42:41Z</time>
      </trkpt>
      <trkpt lat="44.79822" lon="5.57117">
        <ele>1208</ele>
        <time>2024-05-25T13:42:52Z</time>
      </trkpt>
      <trkpt lat="44.79819" lon="5.57129">
        <ele>1206</ele>
        <time>2024-05-25T13:43:01Z</time>
      </trkpt>
      <trkpt lat="44.7982" lon="5.57142">
        <ele>1204</ele>
        <time>2024-05-25T13:43:09Z</time>
      </trkpt>
      <trkpt lat="44.79824" lon="5.57153">
        <ele>1199</ele>
        <time>2024-05-25T13:43:31Z</time>
      </trkpt>
      <trkpt lat="44.79831" lon="5.5716">
        <ele>1197</ele>
        <time>2024-05-25T13:43:44Z</time>
      </trkpt>
      <trkpt lat="44.79839" lon="5.57165">
        <ele>1195</ele>
        <time>2024-05-25T13:43:54Z</time>
      </trkpt>
      <trkpt lat="44.79847" lon="5.57173">
        <ele>1191</ele>
        <time>2024-05-25T13:44:11Z</time>
      </trkpt>
      <trkpt lat="44.79854" lon="5.57183">
        <ele>1189</ele>
        <time>2024-05-25T13:44:20Z</time>
      </trkpt>
      <trkpt lat="44.79859" lon="5.57193">
        <ele>1186</ele>
        <time>2024-05-25T13:44:31Z</time>
      </trkpt>
      <trkpt lat="44.79865" lon="5.57203">
        <ele>1179</ele>
        <time>2024-05-25T13:45:09Z</time>
      </trkpt>
      <trkpt lat="44.79872" lon="5.57213">
        <ele>1177</ele>
        <time>2024-05-25T13:45:19Z</time>
      </trkpt>
      <trkpt lat="44.79877" lon="5.57224">
        <ele>1176</ele>
        <time>2024-05-25T13:45:26Z</time>
      </trkpt>
      <trkpt lat="44.79882" lon="5.57236">
        <ele>1175</ele>
        <time>2024-05-25T13:45:34Z</time>
      </trkpt>
      <trkpt lat="44.79885" lon="5.57248">
        <ele>1172</ele>
        <time>2024-05-25T13:45:49Z</time>
      </trkpt>
      <trkpt lat="44.79888" lon="5.57261">
        <ele>1169</ele>
        <time>2024-05-25T13:46:02Z</time>
      </trkpt>
      <trkpt lat="44.79891" lon="5.57272">
        <ele>1167</ele>
        <time>2024-05-25T13:46:14Z</time>
      </trkpt>
      <trkpt lat="44.79897" lon="5.57281">
        <ele>1164</ele>
        <time>2024-05-25T13:46:29Z</time>
      </trkpt>
      <trkpt lat="44.79902" lon="5.57295">
        <ele>1160</ele>
        <time>2024-05-25T13:46:47Z</time>
      </trkpt>
      <trkpt lat="44.79907" lon="5.57306">
        <ele>1158</ele>
        <time>2024-05-25T13:46:58Z</time>
      </trkpt>
      <trkpt lat="44.79913" lon="5.57316">
        <ele>1157</ele>
        <time>2024-05-25T13:47:07Z</time>
      </trkpt>
      <trkpt lat="44.79918" lon="5.57327">
        <ele>1155</ele>
        <time>2024-05-25T13:47:18Z</time>
      </trkpt>
      <trkpt lat="44.79921" lon="5.57338">
        <ele>1153</ele>
        <time>2024-05-25T13:47:29Z</time>
      </trkpt>
      <trkpt lat="44.79924" lon="5.57351">
        <ele>1151</ele>
        <time>2024-05-25T13:47:44Z</time>
      </trkpt>
      <trkpt lat="44.7993" lon="5.5736">
        <ele>1149</ele>
        <time>2024-05-25T13:47:57Z</time>
      </trkpt>
      <trkpt lat="44.79939" lon="5.57365">
        <ele>1147</ele>
        <time>2024-05-25T13:48:17Z</time>
      </trkpt>
      <trkpt lat="44.79943" lon="5.57376">
        <ele>1146</ele>
        <time>2024-05-25T13:48:51Z</time>
      </trkpt>
      <trkpt lat="44.79947" lon="5.57384">
        <ele>1146</ele>
        <time>2024-05-25T13:49:01Z</time>
      </trkpt>
      <trkpt lat="44.79946" lon="5.57375">
        <ele>1146</ele>
        <time>2024-05-25T13:50:02Z</time>
      </trkpt>
      <trkpt lat="44.79954" lon="5.57367">
        <ele>1145</ele>
        <time>2024-05-25T13:50:18Z</time>
      </trkpt>
      <trkpt lat="44.79962" lon="5.57362">
        <ele>1144</ele>
        <time>2024-05-25T13:50:26Z</time>
      </trkpt>
      <trkpt lat="44.7997" lon="5.57356">
        <ele>1144</ele>
        <time>2024-05-25T13:50:35Z</time>
      </trkpt>
      <trkpt lat="44.79978" lon="5.57348">
        <ele>1142</ele>
        <time>2024-05-25T13:50:49Z</time>
      </trkpt>
      <trkpt lat="44.79985" lon="5.57341">
        <ele>1141</ele>
        <time>2024-05-25T13:50:59Z</time>
      </trkpt>
      <trkpt lat="44.79993" lon="5.57334">
        <ele>1141</ele>
        <time>2024-05-25T13:51:07Z</time>
      </trkpt>
      <trkpt lat="44.79998" lon="5.57323">
        <ele>1140</ele>
        <time>2024-05-25T13:51:15Z</time>
      </trkpt>
      <trkpt lat="44.80005" lon="5.57314">
        <ele>1139</ele>
        <time>2024-05-25T13:51:24Z</time>
      </trkpt>
      <trkpt lat="44.80014" lon="5.57309">
        <ele>1138</ele>
        <time>2024-05-25T13:51:35Z</time>
      </trkpt>
      <trkpt lat="44.80021" lon="5.57301">
        <ele>1137</ele>
        <time>2024-05-25T13:51:46Z</time>
      </trkpt>
      <trkpt lat="44.80027" lon="5.57292">
        <ele>1136</ele>
        <time>2024-05-25T13:51:57Z</time>
      </trkpt>
      <trkpt lat="44.80033" lon="5.57281">
        <ele>1135</ele>
        <time>2024-05-25T13:52:06Z</time>
      </trkpt>
      <trkpt lat="44.80036" lon="5.57269">
        <ele>1134</ele>
        <time>2024-05-25T13:52:18Z</time>
      </trkpt>
      <trkpt lat="44.80045" lon="5.57261">
        <ele>1134</ele>
        <time>2024-05-25T13:52:29Z</time>
      </trkpt>
      <trkpt lat="44.80052" lon="5.57253">
        <ele>1132</ele>
        <time>2024-05-25T13:52:39Z</time>
      </trkpt>
      <trkpt lat="44.8006" lon="5.57246">
        <ele>1131</ele>
        <time>2024-05-25T13:52:49Z</time>
      </trkpt>
      <trkpt lat="44.80068" lon="5.57243">
        <ele>1131</ele>
        <time>2024-05-25T13:53:10Z</time>
      </trkpt>
      <trkpt lat="44.80077" lon="5.57239">
        <ele>1132</ele>
        <time>2024-05-25T13:53:20Z</time>
      </trkpt>
      <trkpt lat="44.80086" lon="5.57233">
        <ele>1133</ele>
        <time>2024-05-25T13:53:30Z</time>
      </trkpt>
      <trkpt lat="44.80093" lon="5.57225">
        <ele>1133</ele>
        <time>2024-05-25T13:53:43Z</time>
      </trkpt>
      <trkpt lat="44.80102" lon="5.57219">
        <ele>1133</ele>
        <time>2024-05-25T13:53:54Z</time>
      </trkpt>
      <trkpt lat="44.80111" lon="5.57215">
        <ele>1132</ele>
        <time>2024-05-25T13:54:04Z</time>
      </trkpt>
      <trkpt lat="44.80117" lon="5.57206">
        <ele>1132</ele>
        <time>2024-05-25T13:54:13Z</time>
      </trkpt>
      <trkpt lat="44.80126" lon="5.57207">
        <ele>1130</ele>
        <time>2024-05-25T13:54:25Z</time>
      </trkpt>
      <trkpt lat="44.80134" lon="5.57215">
        <ele>1129</ele>
        <time>2024-05-25T13:54:36Z</time>
      </trkpt>
      <trkpt lat="44.80138" lon="5.57228">
        <ele>1128</ele>
        <time>2024-05-25T13:54:46Z</time>
      </trkpt>
      <trkpt lat="44.80138" lon="5.57241">
        <ele>1128</ele>
        <time>2024-05-25T13:54:56Z</time>
      </trkpt>
      <trkpt lat="44.80137" lon="5.57254">
        <ele>1127</ele>
        <time>2024-05-25T13:55:08Z</time>
      </trkpt>
      <trkpt lat="44.80135" lon="5.57268">
        <ele>1125</ele>
        <time>2024-05-25T13:55:22Z</time>
      </trkpt>
      <trkpt lat="44.80132" lon="5.5728">
        <ele>1124</ele>
        <time>2024-05-25T13:55:31Z</time>
      </trkpt>
      <trkpt lat="44.8013" lon="5.57294">
        <ele>1124</ele>
        <time>2024-05-25T13:55:40Z</time>
      </trkpt>
      <trkpt lat="44.80125" lon="5.57307">
        <ele>1123</ele>
        <time>2024-05-25T13:55:47Z</time>
      </trkpt>
      <trkpt lat="44.80125" lon="5.5732">
        <ele>1123</ele>
        <time>2024-05-25T13:55:54Z</time>
      </trkpt>
      <trkpt lat="44.80127" lon="5.57332">
        <ele>1121</ele>
        <time>2024-05-25T13:56:06Z</time>
      </trkpt>
      <trkpt lat="44.80136" lon="5.57336">
        <ele>1120</ele>
        <time>2024-05-25T13:56:21Z</time>
      </trkpt>
      <trkpt lat="44.80145" lon="5.57332">
        <ele>1119</ele>
        <time>2024-05-25T13:56:31Z</time>
      </trkpt>
      <trkpt lat="44.80154" lon="5.57329">
        <ele>1118</ele>
        <time>2024-05-25T13:56:39Z</time>
      </trkpt>
      <trkpt lat="44.80163" lon="5.57324">
        <ele>1117</ele>
        <time>2024-05-25T13:56:47Z</time>
      </trkpt>
      <trkpt lat="44.80172" lon="5.57321">
        <ele>1116</ele>
        <time>2024-05-25T13:56:57Z</time>
      </trkpt>
      <trkpt lat="44.80182" lon="5.57324">
        <ele>1115</ele>
        <time>2024-05-25T13:57:10Z</time>
      </trkpt>
      <trkpt lat="44.8019" lon="5.57332">
        <ele>1115</ele>
        <time>2024-05-25T13:57:21Z</time>
      </trkpt>
      <trkpt lat="44.80199" lon="5.57334">
        <ele>1114</ele>
        <time>2024-05-25T13:57:28Z</time>
      </trkpt>
      <trkpt lat="44.80209" lon="5.57333">
        <ele>1114</ele>
        <time>2024-05-25T13:57:39Z</time>
      </trkpt>
      <trkpt lat="44.80219" lon="5.57333">
        <ele>1114</ele>
        <time>2024-05-25T13:57:46Z</time>
      </trkpt>
      <trkpt lat="44.80229" lon="5.57332">
        <ele>1114</ele>
        <time>2024-05-25T13:57:52Z</time>
      </trkpt>
      <trkpt lat="44.80238" lon="5.57332">
        <ele>1114</ele>
        <time>2024-05-25T13:57:58Z</time>
      </trkpt>
      <trkpt lat="44.80247" lon="5.57333">
        <ele>1114</ele>
        <time>2024-05-25T13:58:06Z</time>
      </trkpt>
      <trkpt lat="44.80256" lon="5.57332">
        <ele>1114</ele>
        <time>2024-05-25T13:58:14Z</time>
      </trkpt>
      <trkpt lat="44.80266" lon="5.57329">
        <ele>1114</ele>
        <time>2024-05-25T13:58:24Z</time>
      </trkpt>
      <trkpt lat="44.80274" lon="5.57326">
        <ele>1113</ele>
        <time>2024-05-25T13:58:32Z</time>
      </trkpt>
      <trkpt lat="44.80284" lon="5.57324">
        <ele>1113</ele>
        <time>2024-05-25T13:58:39Z</time>
      </trkpt>
      <trkpt lat="44.80293" lon="5.57323">
        <ele>1112</ele>
        <time>2024-05-25T13:58:48Z</time>
      </trkpt>
      <trkpt lat="44.80302" lon="5.57327">
        <ele>1111</ele>
        <time>2024-05-25T13:58:58Z</time>
      </trkpt>
      <trkpt lat="44.80312" lon="5.57324">
        <ele>1111</ele>
        <time>2024-05-25T13:59:08Z</time>
      </trkpt>
      <trkpt lat="44.80321" lon="5.5732">
        <ele>1110</ele>
        <time>2024-05-25T13:59:19Z</time>
      </trkpt>
      <trkpt lat="44.8033" lon="5.57315">
        <ele>1110</ele>
        <time>2024-05-25T13:59:26Z</time>
      </trkpt>
      <trkpt lat="44.80339" lon="5.5731">
        <ele>1110</ele>
        <time>2024-05-25T13:59:33Z</time>
      </trkpt>
      <trkpt lat="44.80348" lon="5.57304">
        <ele>1110</ele>
        <time>2024-05-25T13:59:41Z</time>
      </trkpt>
      <trkpt lat="44.80356" lon="5.57296">
        <ele>1110</ele>
        <time>2024-05-25T13:59:49Z</time>
      </trkpt>
      <trkpt lat="44.80365" lon="5.57292">
        <ele>1109</ele>
        <time>2024-05-25T13:59:58Z</time>
      </trkpt>
      <trkpt lat="44.80375" lon="5.57289">
        <ele>1109</ele>
        <time>2024-05-25T14:00:05Z</time>
      </trkpt>
      <trkpt lat="44.80385" lon="5.57291">
        <ele>1108</ele>
        <time>2024-05-25T14:00:12Z</time>
      </trkpt>
      <trkpt lat="44.80394" lon="5.57291">
        <ele>1108</ele>
        <time>2024-05-25T14:00:20Z</time>
      </trkpt>
      <trkpt lat="44.80403" lon="5.57288">
        <ele>1108</ele>
        <time>2024-05-25T14:00:28Z</time>
      </trkpt>
      <trkpt lat="44.80412" lon="5.57285">
        <ele>1107</ele>
        <time>2024-05-25T14:00:37Z</time>
      </trkpt>
      <trkpt lat="44.80422" lon="5.57284">
        <ele>1106</ele>
        <time>2024-05-25T14:00:46Z</time>
      </trkpt>
      <trkpt lat="44.80431" lon="5.57281">
        <ele>1106</ele>
        <time>2024-05-25T14:00:54Z</time>
      </trkpt>
      <trkpt lat="44.8044" lon="5.57278">
        <ele>1105</ele>
        <time>2024-05-25T14:01:02Z</time>
      </trkpt>
      <trkpt lat="44.80449" lon="5.57273">
        <ele>1105</ele>
        <time>2024-05-25T14:01:11Z</time>
      </trkpt>
      <trkpt lat="44.80457" lon="5.57268">
        <ele>1104</ele>
        <time>2024-05-25T14:01:19Z</time>
      </trkpt>
      <trkpt lat="44.80466" lon="5.57263">
        <ele>1103</ele>
        <time>2024-05-25T14:01:30Z</time>
      </trkpt>
      <trkpt lat="44.80475" lon="5.57262">
        <ele>1102</ele>
        <time>2024-05-25T14:01:40Z</time>
      </trkpt>
      <trkpt lat="44.80484" lon="5.5726">
        <ele>1101</ele>
        <time>2024-05-25T14:01:49Z</time>
      </trkpt>
      <trkpt lat="44.80494" lon="5.57261">
        <ele>1100</ele>
        <time>2024-05-25T14:01:57Z</time>
      </trkpt>
      <trkpt lat="44.80503" lon="5.57261">
        <ele>1100</ele>
        <time>2024-05-25T14:02:05Z</time>
      </trkpt>
      <trkpt lat="44.80513" lon="5.57256">
        <ele>1099</ele>
        <time>2024-05-25T14:02:14Z</time>
      </trkpt>
      <trkpt lat="44.80521" lon="5.57251">
        <ele>1099</ele>
        <time>2024-05-25T14:02:22Z</time>
      </trkpt>
      <trkpt lat="44.80529" lon="5.57245">
        <ele>1098</ele>
        <time>2024-05-25T14:02:31Z</time>
      </trkpt>
      <trkpt lat="44.80538" lon="5.5724">
        <ele>1097</ele>
        <time>2024-05-25T14:02:45Z</time>
      </trkpt>
      <trkpt lat="44.80544" lon="5.5724">
        <ele>1097</ele>
        <time>2024-05-25T14:03:00Z</time>
      </trkpt>
      <trkpt lat="44.80551" lon="5.57249">
        <ele>1096</ele>
        <time>2024-05-25T14:03:10Z</time>
      </trkpt>
      <trkpt lat="44.80558" lon="5.57259">
        <ele>1095</ele>
        <time>2024-05-25T14:03:20Z</time>
      </trkpt>
      <trkpt lat="44.80563" lon="5.5727">
        <ele>1093</ele>
        <time>2024-05-25T14:03:29Z</time>
      </trkpt>
      <trkpt lat="44.80569" lon="5.5728">
        <ele>1092</ele>
        <time>2024-05-25T14:03:37Z</time>
      </trkpt>
      <trkpt lat="44.80574" lon="5.57291">
        <ele>1091</ele>
        <time>2024-05-25T14:03:47Z</time>
      </trkpt>
      <trkpt lat="44.80581" lon="5.57301">
        <ele>1090</ele>
        <time>2024-05-25T14:03:57Z</time>
      </trkpt>
      <trkpt lat="44.80586" lon="5.57311">
        <ele>1088</ele>
        <time>2024-05-25T14:04:07Z</time>
      </trkpt>
      <trkpt lat="44.80595" lon="5.57316">
        <ele>1087</ele>
        <time>2024-05-25T14:04:17Z</time>
      </trkpt>
      <trkpt lat="44.80603" lon="5.57322">
        <ele>1087</ele>
        <time>2024-05-25T14:04:25Z</time>
      </trkpt>
      <trkpt lat="44.8061" lon="5.57332">
        <ele>1085</ele>
        <time>2024-05-25T14:04:33Z</time>
      </trkpt>
      <trkpt lat="44.80616" lon="5.57343">
        <ele>1084</ele>
        <time>2024-05-25T14:04:43Z</time>
      </trkpt>
      <trkpt lat="44.80622" lon="5.57352">
        <ele>1083</ele>
        <time>2024-05-25T14:04:51Z</time>
      </trkpt>
      <trkpt lat="44.80629" lon="5.57361">
        <ele>1082</ele>
        <time>2024-05-25T14:04:59Z</time>
      </trkpt>
      <trkpt lat="44.80634" lon="5.57371">
        <ele>1081</ele>
        <time>2024-05-25T14:05:08Z</time>
      </trkpt>
      <trkpt lat="44.80639" lon="5.57382">
        <ele>1079</ele>
        <time>2024-05-25T14:05:17Z</time>
      </trkpt>
      <trkpt lat="44.80645" lon="5.57392">
        <ele>1078</ele>
        <time>2024-05-25T14:05:27Z</time>
      </trkpt>
      <trkpt lat="44.80649" lon="5.57404">
        <ele>1076</ele>
        <time>2024-05-25T14:05:36Z</time>
      </trkpt>
      <trkpt lat="44.80657" lon="5.5741">
        <ele>1075</ele>
        <time>2024-05-25T14:05:44Z</time>
      </trkpt>
      <trkpt lat="44.80665" lon="5.57417">
        <ele>1073</ele>
        <time>2024-05-25T14:05:52Z</time>
      </trkpt>
      <trkpt lat="44.80671" lon="5.57427">
        <ele>1072</ele>
        <time>2024-05-25T14:06:02Z</time>
      </trkpt>
      <trkpt lat="44.80678" lon="5.57437">
        <ele>1071</ele>
        <time>2024-05-25T14:06:14Z</time>
      </trkpt>
      <trkpt lat="44.80685" lon="5.57445">
        <ele>1069</ele>
        <time>2024-05-25T14:06:22Z</time>
      </trkpt>
      <trkpt lat="44.80693" lon="5.57452">
        <ele>1068</ele>
        <time>2024-05-25T14:06:32Z</time>
      </trkpt>
      <trkpt lat="44.80702" lon="5.57458">
        <ele>1067</ele>
        <time>2024-05-25T14:06:40Z</time>
      </trkpt>
      <trkpt lat="44.8071" lon="5.57464">
        <ele>1066</ele>
        <time>2024-05-25T14:06:47Z</time>
      </trkpt>
      <trkpt lat="44.80718" lon="5.57468">
        <ele>1065</ele>
        <time>2024-05-25T14:06:54Z</time>
      </trkpt>
      <trkpt lat="44.80726" lon="5.57476">
        <ele>1063</ele>
        <time>2024-05-25T14:07:04Z</time>
      </trkpt>
      <trkpt lat="44.80734" lon="5.57483">
        <ele>1061</ele>
        <time>2024-05-25T14:07:14Z</time>
      </trkpt>
      <trkpt lat="44.80742" lon="5.5749">
        <ele>1060</ele>
        <time>2024-05-25T14:07:26Z</time>
      </trkpt>
      <trkpt lat="44.8075" lon="5.57498">
        <ele>1058</ele>
        <time>2024-05-25T14:07:37Z</time>
      </trkpt>
      <trkpt lat="44.80756" lon="5.57506">
        <ele>1057</ele>
        <time>2024-05-25T14:07:47Z</time>
      </trkpt>
      <trkpt lat="44.80764" lon="5.57512">
        <ele>1056</ele>
        <time>2024-05-25T14:07:56Z</time>
      </trkpt>
      <trkpt lat="44.80772" lon="5.5752">
        <ele>1055</ele>
        <time>2024-05-25T14:08:03Z</time>
      </trkpt>
      <trkpt lat="44.80778" lon="5.57532">
        <ele>1054</ele>
        <time>2024-05-25T14:08:11Z</time>
      </trkpt>
      <trkpt lat="44.80783" lon="5.57543">
        <ele>1053</ele>
        <time>2024-05-25T14:08:18Z</time>
      </trkpt>
      <trkpt lat="44.80788" lon="5.57556">
        <ele>1052</ele>
        <time>2024-05-25T14:08:26Z</time>
      </trkpt>
      <trkpt lat="44.80792" lon="5.57567">
        <ele>1051</ele>
        <time>2024-05-25T14:08:33Z</time>
      </trkpt>
      <trkpt lat="44.80798" lon="5.57578">
        <ele>1050</ele>
        <time>2024-05-25T14:08:42Z</time>
      </trkpt>
      <trkpt lat="44.80805" lon="5.57587">
        <ele>1049</ele>
        <time>2024-05-25T14:08:53Z</time>
      </trkpt>
      <trkpt lat="44.80812" lon="5.57595">
        <ele>1048</ele>
        <time>2024-05-25T14:09:04Z</time>
      </trkpt>
      <trkpt lat="44.8082" lon="5.57602">
        <ele>1047</ele>
        <time>2024-05-25T14:09:12Z</time>
      </trkpt>
      <trkpt lat="44.80827" lon="5.57608">
        <ele>1046</ele>
        <time>2024-05-25T14:09:19Z</time>
      </trkpt>
      <trkpt lat="44.80835" lon="5.57615">
        <ele>1046</ele>
        <time>2024-05-25T14:09:25Z</time>
      </trkpt>
      <trkpt lat="44.80843" lon="5.57623">
        <ele>1044</ele>
        <time>2024-05-25T14:09:32Z</time>
      </trkpt>
      <trkpt lat="44.80849" lon="5.57632">
        <ele>1043</ele>
        <time>2024-05-25T14:09:42Z</time>
      </trkpt>
      <trkpt lat="44.80856" lon="5.57642">
        <ele>1042</ele>
        <time>2024-05-25T14:09:51Z</time>
      </trkpt>
      <trkpt lat="44.80863" lon="5.57649">
        <ele>1041</ele>
        <time>2024-05-25T14:10:00Z</time>
      </trkpt>
      <trkpt lat="44.80871" lon="5.57656">
        <ele>1039</ele>
        <time>2024-05-25T14:10:11Z</time>
      </trkpt>
      <trkpt lat="44.80881" lon="5.57658">
        <ele>1038</ele>
        <time>2024-05-25T14:10:21Z</time>
      </trkpt>
      <trkpt lat="44.8089" lon="5.57659">
        <ele>1037</ele>
        <time>2024-05-25T14:10:30Z</time>
      </trkpt>
      <trkpt lat="44.80899" lon="5.57661">
        <ele>1036</ele>
        <time>2024-05-25T14:10:40Z</time>
      </trkpt>
      <trkpt lat="44.80908" lon="5.57666">
        <ele>1034</ele>
        <time>2024-05-25T14:10:51Z</time>
      </trkpt>
      <trkpt lat="44.80915" lon="5.57675">
        <ele>1032</ele>
        <time>2024-05-25T14:11:01Z</time>
      </trkpt>
      <trkpt lat="44.80923" lon="5.57683">
        <ele>1032</ele>
        <time>2024-05-25T14:11:09Z</time>
      </trkpt>
      <trkpt lat="44.8093" lon="5.57692">
        <ele>1030</ele>
        <time>2024-05-25T14:11:16Z</time>
      </trkpt>
      <trkpt lat="44.80937" lon="5.57702">
        <ele>1030</ele>
        <time>2024-05-25T14:11:25Z</time>
      </trkpt>
      <trkpt lat="44.80945" lon="5.57708">
        <ele>1029</ele>
        <time>2024-05-25T14:11:33Z</time>
      </trkpt>
      <trkpt lat="44.80953" lon="5.57716">
        <ele>1028</ele>
        <time>2024-05-25T14:11:42Z</time>
      </trkpt>
      <trkpt lat="44.80961" lon="5.57721">
        <ele>1027</ele>
        <time>2024-05-25T14:11:51Z</time>
      </trkpt>
      <trkpt lat="44.8097" lon="5.57724">
        <ele>1026</ele>
        <time>2024-05-25T14:12:01Z</time>
      </trkpt>
      <trkpt lat="44.80978" lon="5.57717">
        <ele>1026</ele>
        <time>2024-05-25T14:12:28Z</time>
      </trkpt>
      <trkpt lat="44.80986" lon="5.57711">
        <ele>1025</ele>
        <time>2024-05-25T14:12:38Z</time>
      </trkpt>
      <trkpt lat="44.80995" lon="5.57704">
        <ele>1025</ele>
        <time>2024-05-25T14:12:48Z</time>
      </trkpt>
      <trkpt lat="44.81002" lon="5.57696">
        <ele>1024</ele>
        <time>2024-05-25T14:12:56Z</time>
      </trkpt>
      <trkpt lat="44.81008" lon="5.57685">
        <ele>1024</ele>
        <time>2024-05-25T14:13:05Z</time>
      </trkpt>
      <trkpt lat="44.81016" lon="5.57678">
        <ele>1023</ele>
        <time>2024-05-25T14:13:15Z</time>
      </trkpt>
      <trkpt lat="44.81022" lon="5.57667">
        <ele>1023</ele>
        <time>2024-05-25T14:13:24Z</time>
      </trkpt>
      <trkpt lat="44.81027" lon="5.57656">
        <ele>1022</ele>
        <time>2024-05-25T14:13:32Z</time>
      </trkpt>
      <trkpt lat="44.81035" lon="5.57648">
        <ele>1021</ele>
        <time>2024-05-25T14:13:41Z</time>
      </trkpt>
      <trkpt lat="44.81039" lon="5.57636">
        <ele>1021</ele>
        <time>2024-05-25T14:13:51Z</time>
      </trkpt>
      <trkpt lat="44.81044" lon="5.57624">
        <ele>1020</ele>
        <time>2024-05-25T14:14:01Z</time>
      </trkpt>
      <trkpt lat="44.81049" lon="5.57613">
        <ele>1019</ele>
        <time>2024-05-25T14:14:10Z</time>
      </trkpt>
      <trkpt lat="44.81054" lon="5.57602">
        <ele>1018</ele>
        <time>2024-05-25T14:14:19Z</time>
      </trkpt>
      <trkpt lat="44.81056" lon="5.57588">
        <ele>1017</ele>
        <time>2024-05-25T14:14:28Z</time>
      </trkpt>
      <trkpt lat="44.81058" lon="5.57575">
        <ele>1016</ele>
        <time>2024-05-25T14:14:37Z</time>
      </trkpt>
      <trkpt lat="44.81062" lon="5.57563">
        <ele>1015</ele>
        <time>2024-05-25T14:14:46Z</time>
      </trkpt>
      <trkpt lat="44.81064" lon="5.57549">
        <ele>1015</ele>
        <time>2024-05-25T14:14:55Z</time>
      </trkpt>
      <trkpt lat="44.81062" lon="5.57536">
        <ele>1014</ele>
        <time>2024-05-25T14:15:04Z</time>
      </trkpt>
      <trkpt lat="44.81061" lon="5.57522">
        <ele>1012</ele>
        <time>2024-05-25T14:15:16Z</time>
      </trkpt>
      <trkpt lat="44.81064" lon="5.57509">
        <ele>1011</ele>
        <time>2024-05-25T14:15:25Z</time>
      </trkpt>
      <trkpt lat="44.81062" lon="5.57496">
        <ele>1010</ele>
        <time>2024-05-25T14:15:33Z</time>
      </trkpt>
      <trkpt lat="44.81059" lon="5.57484">
        <ele>1010</ele>
        <time>2024-05-25T14:15:40Z</time>
      </trkpt>
      <trkpt lat="44.81059" lon="5.5747">
        <ele>1009</ele>
        <time>2024-05-25T14:15:49Z</time>
      </trkpt>
      <trkpt lat="44.81059" lon="5.57457">
        <ele>1008</ele>
        <time>2024-05-25T14:15:57Z</time>
      </trkpt>
      <trkpt lat="44.81057" lon="5.57444">
        <ele>1007</ele>
        <time>2024-05-25T14:16:07Z</time>
      </trkpt>
      <trkpt lat="44.81061" lon="5.57431">
        <ele>1007</ele>
        <time>2024-05-25T14:16:14Z</time>
      </trkpt>
      <trkpt lat="44.81063" lon="5.57419">
        <ele>1007</ele>
        <time>2024-05-25T14:16:24Z</time>
      </trkpt>
      <trkpt lat="44.81066" lon="5.57407">
        <ele>1007</ele>
        <time>2024-05-25T14:16:31Z</time>
      </trkpt>
      <trkpt lat="44.8107" lon="5.57395">
        <ele>1007</ele>
        <time>2024-05-25T14:16:37Z</time>
      </trkpt>
      <trkpt lat="44.81073" lon="5.57383">
        <ele>1007</ele>
        <time>2024-05-25T14:16:45Z</time>
      </trkpt>
      <trkpt lat="44.81079" lon="5.57374">
        <ele>1006</ele>
        <time>2024-05-25T14:16:55Z</time>
      </trkpt>
      <trkpt lat="44.81086" lon="5.57363">
        <ele>1006</ele>
        <time>2024-05-25T14:17:04Z</time>
      </trkpt>
      <trkpt lat="44.81092" lon="5.57354">
        <ele>1006</ele>
        <time>2024-05-25T14:17:11Z</time>
      </trkpt>
      <trkpt lat="44.81097" lon="5.57344">
        <ele>1006</ele>
        <time>2024-05-25T14:17:19Z</time>
      </trkpt>
      <trkpt lat="44.81105" lon="5.57336">
        <ele>1006</ele>
        <time>2024-05-25T14:17:29Z</time>
      </trkpt>
      <trkpt lat="44.81112" lon="5.57336">
        <ele>1006</ele>
        <time>2024-05-25T14:17:46Z</time>
      </trkpt>
      <trkpt lat="44.81116" lon="5.57348">
        <ele>1006</ele>
        <time>2024-05-25T14:17:59Z</time>
      </trkpt>
      <trkpt lat="44.81116" lon="5.57352">
        <ele>1007</ele>
        <time>2024-05-25T14:18:48Z</time>
      </trkpt>
      <trkpt lat="44.81116" lon="5.57362">
        <ele>1007</ele>
        <time>2024-05-25T14:19:14Z</time>
        <extensions>
          <visugpx:TrkExtension xmlns:visugpx="https://www.visugpx.com/editgpx/">
            <visugpx:node>1</visugpx:node>
            </visugpx:TrkExtension>
        </extensions>
      </trkpt>
      <trkpt lat="44.81142" lon="5.57333">
        <ele>947</ele>
        <time>2024-05-26T05:55:47Z</time>
      </trkpt>
      <trkpt lat="44.81143" lon="5.57319">
        <ele>947</ele>
        <time>2024-05-26T05:55:56Z</time>
      </trkpt>
      <trkpt lat="44.81142" lon="5.57306">
        <ele>947</ele>
        <time>2024-05-26T05:56:04Z</time>
      </trkpt>
      <trkpt lat="44.81145" lon="5.57294">
        <ele>948</ele>
        <time>2024-05-26T05:56:15Z</time>
      </trkpt>
      <trkpt lat="44.81146" lon="5.5728">
        <ele>949</ele>
        <time>2024-05-26T05:56:24Z</time>
      </trkpt>
      <trkpt lat="44.81152" lon="5.57271">
        <ele>949</ele>
        <time>2024-05-26T05:56:32Z</time>
      </trkpt>
      <trkpt lat="44.81162" lon="5.57267">
        <ele>950</ele>
        <time>2024-05-26T05:56:39Z</time>
      </trkpt>
      <trkpt lat="44.81169" lon="5.57258">
        <ele>950</ele>
        <time>2024-05-26T05:56:51Z</time>
      </trkpt>
      <trkpt lat="44.81173" lon="5.57247">
        <ele>952</ele>
        <time>2024-05-26T05:57:05Z</time>
      </trkpt>
      <trkpt lat="44.8118" lon="5.57223">
        <ele>954</ele>
        <time>2024-05-26T05:57:27Z</time>
      </trkpt>
      <trkpt lat="44.81186" lon="5.57201">
        <ele>955</ele>
        <time>2024-05-26T05:57:46Z</time>
      </trkpt>
      <trkpt lat="44.81193" lon="5.57192">
        <ele>957</ele>
        <time>2024-05-26T05:57:57Z</time>
      </trkpt>
      <trkpt lat="44.81199" lon="5.57181">
        <ele>957</ele>
        <time>2024-05-26T05:58:09Z</time>
      </trkpt>
      <trkpt lat="44.81206" lon="5.57174">
        <ele>958</ele>
        <time>2024-05-26T05:58:20Z</time>
      </trkpt>
      <trkpt lat="44.8122" lon="5.57157">
        <ele>960</ele>
        <time>2024-05-26T05:58:47Z</time>
      </trkpt>
      <trkpt lat="44.81227" lon="5.57149">
        <ele>962</ele>
        <time>2024-05-26T05:58:58Z</time>
      </trkpt>
      <trkpt lat="44.81233" lon="5.57139">
        <ele>963</ele>
        <time>2024-05-26T05:59:07Z</time>
      </trkpt>
      <trkpt lat="44.81239" lon="5.57128">
        <ele>963</ele>
        <time>2024-05-26T05:59:15Z</time>
      </trkpt>
      <trkpt lat="44.81244" lon="5.57117">
        <ele>964</ele>
        <time>2024-05-26T05:59:25Z</time>
      </trkpt>
      <trkpt lat="44.81254" lon="5.571">
        <ele>966</ele>
        <time>2024-05-26T05:59:45Z</time>
      </trkpt>
      <trkpt lat="44.81262" lon="5.57093">
        <ele>967</ele>
        <time>2024-05-26T05:59:54Z</time>
      </trkpt>
      <trkpt lat="44.81271" lon="5.57089">
        <ele>968</ele>
        <time>2024-05-26T06:00:04Z</time>
      </trkpt>
      <trkpt lat="44.8128" lon="5.57084">
        <ele>969</ele>
        <time>2024-05-26T06:00:14Z</time>
      </trkpt>
      <trkpt lat="44.81289" lon="5.57081">
        <ele>969</ele>
        <time>2024-05-26T06:00:24Z</time>
      </trkpt>
      <trkpt lat="44.81297" lon="5.57076">
        <ele>968</ele>
        <time>2024-05-26T06:00:33Z</time>
      </trkpt>
      <trkpt lat="44.81312" lon="5.57065">
        <ele>968</ele>
        <time>2024-05-26T06:00:50Z</time>
      </trkpt>
      <trkpt lat="44.81321" lon="5.57059">
        <ele>968</ele>
        <time>2024-05-26T06:01:01Z</time>
      </trkpt>
      <trkpt lat="44.81329" lon="5.57053">
        <ele>969</ele>
        <time>2024-05-26T06:01:12Z</time>
      </trkpt>
      <trkpt lat="44.81347" lon="5.57048">
        <ele>969</ele>
        <time>2024-05-26T06:01:28Z</time>
      </trkpt>
      <trkpt lat="44.81352" lon="5.57025">
        <ele>970</ele>
        <time>2024-05-26T06:01:45Z</time>
      </trkpt>
      <trkpt lat="44.81351" lon="5.57012">
        <ele>970</ele>
        <time>2024-05-26T06:01:54Z</time>
      </trkpt>
      <trkpt lat="44.81348" lon="5.56998">
        <ele>971</ele>
        <time>2024-05-26T06:02:04Z</time>
      </trkpt>
      <trkpt lat="44.81359" lon="5.56982">
        <ele>972</ele>
        <time>2024-05-26T06:02:24Z</time>
      </trkpt>
      <trkpt lat="44.81368" lon="5.56978">
        <ele>973</ele>
        <time>2024-05-26T06:02:33Z</time>
      </trkpt>
      <trkpt lat="44.81376" lon="5.56971">
        <ele>973</ele>
        <time>2024-05-26T06:02:43Z</time>
      </trkpt>
      <trkpt lat="44.81385" lon="5.56967">
        <ele>973</ele>
        <time>2024-05-26T06:02:49Z</time>
      </trkpt>
      <trkpt lat="44.81392" lon="5.56944">
        <ele>974</ele>
        <time>2024-05-26T06:03:09Z</time>
      </trkpt>
      <trkpt lat="44.8139" lon="5.56931">
        <ele>975</ele>
        <time>2024-05-26T06:03:19Z</time>
      </trkpt>
      <trkpt lat="44.81397" lon="5.56921">
        <ele>976</ele>
        <time>2024-05-26T06:03:29Z</time>
      </trkpt>
      <trkpt lat="44.81402" lon="5.56911">
        <ele>976</ele>
        <time>2024-05-26T06:03:39Z</time>
      </trkpt>
      <trkpt lat="44.81401" lon="5.56898">
        <ele>976</ele>
        <time>2024-05-26T06:03:48Z</time>
      </trkpt>
      <trkpt lat="44.81406" lon="5.56886">
        <ele>978</ele>
        <time>2024-05-26T06:03:56Z</time>
      </trkpt>
      <trkpt lat="44.81415" lon="5.56866">
        <ele>979</ele>
        <time>2024-05-26T06:04:17Z</time>
      </trkpt>
      <trkpt lat="44.81422" lon="5.56857">
        <ele>978</ele>
        <time>2024-05-26T06:04:24Z</time>
      </trkpt>
      <trkpt lat="44.81428" lon="5.56848">
        <ele>976</ele>
        <time>2024-05-26T06:04:33Z</time>
      </trkpt>
      <trkpt lat="44.81438" lon="5.56844">
        <ele>977</ele>
        <time>2024-05-26T06:04:40Z</time>
      </trkpt>
      <trkpt lat="44.81447" lon="5.56839">
        <ele>978</ele>
        <time>2024-05-26T06:04:51Z</time>
      </trkpt>
      <trkpt lat="44.81463" lon="5.56828">
        <ele>978</ele>
        <time>2024-05-26T06:05:07Z</time>
      </trkpt>
      <trkpt lat="44.8147" lon="5.56822">
        <ele>979</ele>
        <time>2024-05-26T06:05:14Z</time>
      </trkpt>
      <trkpt lat="44.81486" lon="5.56807">
        <ele>979</ele>
        <time>2024-05-26T06:05:45Z</time>
      </trkpt>
      <trkpt lat="44.815" lon="5.56791">
        <ele>980</ele>
        <time>2024-05-26T06:06:03Z</time>
      </trkpt>
      <trkpt lat="44.81507" lon="5.56783">
        <ele>980</ele>
        <time>2024-05-26T06:06:13Z</time>
      </trkpt>
      <trkpt lat="44.81514" lon="5.56775">
        <ele>980</ele>
        <time>2024-05-26T06:06:19Z</time>
      </trkpt>
      <trkpt lat="44.81522" lon="5.56766">
        <ele>981</ele>
        <time>2024-05-26T06:06:27Z</time>
      </trkpt>
      <trkpt lat="44.81529" lon="5.56757">
        <ele>981</ele>
        <time>2024-05-26T06:06:35Z</time>
      </trkpt>
      <trkpt lat="44.8154" lon="5.56738">
        <ele>982</ele>
        <time>2024-05-26T06:06:53Z</time>
      </trkpt>
      <trkpt lat="44.81549" lon="5.56732">
        <ele>982</ele>
        <time>2024-05-26T06:07:00Z</time>
      </trkpt>
      <trkpt lat="44.81557" lon="5.56725">
        <ele>982</ele>
        <time>2024-05-26T06:07:10Z</time>
      </trkpt>
      <trkpt lat="44.81566" lon="5.56721">
        <ele>982</ele>
        <time>2024-05-26T06:07:17Z</time>
      </trkpt>
      <trkpt lat="44.81575" lon="5.56715">
        <ele>982</ele>
        <time>2024-05-26T06:07:27Z</time>
      </trkpt>
      <trkpt lat="44.81587" lon="5.56698">
        <ele>983</ele>
        <time>2024-05-26T06:07:48Z</time>
      </trkpt>
      <trkpt lat="44.81587" lon="5.56684">
        <ele>984</ele>
        <time>2024-05-26T06:07:58Z</time>
      </trkpt>
      <trkpt lat="44.81587" lon="5.5666">
        <ele>986</ele>
        <time>2024-05-26T06:08:28Z</time>
      </trkpt>
      <trkpt lat="44.8159" lon="5.56635">
        <ele>987</ele>
        <time>2024-05-26T06:08:43Z</time>
      </trkpt>
      <trkpt lat="44.8159" lon="5.56622">
        <ele>987</ele>
        <time>2024-05-26T06:08:49Z</time>
      </trkpt>
      <trkpt lat="44.81591" lon="5.56609">
        <ele>988</ele>
        <time>2024-05-26T06:08:57Z</time>
      </trkpt>
      <trkpt lat="44.81591" lon="5.56595">
        <ele>988</ele>
        <time>2024-05-26T06:09:06Z</time>
      </trkpt>
      <trkpt lat="44.81592" lon="5.56582">
        <ele>989</ele>
        <time>2024-05-26T06:09:16Z</time>
      </trkpt>
      <trkpt lat="44.81593" lon="5.56556">
        <ele>991</ele>
        <time>2024-05-26T06:09:32Z</time>
      </trkpt>
      <trkpt lat="44.8159" lon="5.56544">
        <ele>992</ele>
        <time>2024-05-26T06:09:41Z</time>
      </trkpt>
      <trkpt lat="44.8159" lon="5.56531">
        <ele>994</ele>
        <time>2024-05-26T06:09:51Z</time>
      </trkpt>
      <trkpt lat="44.81587" lon="5.56519">
        <ele>995</ele>
        <time>2024-05-26T06:10:01Z</time>
      </trkpt>
      <trkpt lat="44.81587" lon="5.56505">
        <ele>995</ele>
        <time>2024-05-26T06:10:10Z</time>
      </trkpt>
      <trkpt lat="44.81585" lon="5.56492">
        <ele>996</ele>
        <time>2024-05-26T06:10:22Z</time>
      </trkpt>
      <trkpt lat="44.81588" lon="5.56479">
        <ele>997</ele>
        <time>2024-05-26T06:10:36Z</time>
      </trkpt>
      <trkpt lat="44.81583" lon="5.56458">
        <ele>999</ele>
        <time>2024-05-26T06:10:55Z</time>
      </trkpt>
      <trkpt lat="44.81584" lon="5.56444">
        <ele>1000</ele>
        <time>2024-05-26T06:11:06Z</time>
      </trkpt>
      <trkpt lat="44.81582" lon="5.56431">
        <ele>1001</ele>
        <time>2024-05-26T06:11:18Z</time>
      </trkpt>
      <trkpt lat="44.81577" lon="5.5642">
        <ele>1002</ele>
        <time>2024-05-26T06:11:28Z</time>
      </trkpt>
      <trkpt lat="44.81573" lon="5.56408">
        <ele>1003</ele>
        <time>2024-05-26T06:11:39Z</time>
      </trkpt>
      <trkpt lat="44.81579" lon="5.56385">
        <ele>1005</ele>
        <time>2024-05-26T06:11:58Z</time>
      </trkpt>
      <trkpt lat="44.81572" lon="5.56375">
        <ele>1005</ele>
        <time>2024-05-26T06:12:06Z</time>
      </trkpt>
      <trkpt lat="44.81566" lon="5.56364">
        <ele>1006</ele>
        <time>2024-05-26T06:12:13Z</time>
      </trkpt>
      <trkpt lat="44.81561" lon="5.56354">
        <ele>1007</ele>
        <time>2024-05-26T06:12:20Z</time>
      </trkpt>
      <trkpt lat="44.81568" lon="5.56333">
        <ele>1009</ele>
        <time>2024-05-26T06:12:41Z</time>
      </trkpt>
      <trkpt lat="44.81565" lon="5.5631">
        <ele>1012</ele>
        <time>2024-05-26T06:13:03Z</time>
      </trkpt>
      <trkpt lat="44.81563" lon="5.56285">
        <ele>1014</ele>
        <time>2024-05-26T06:13:23Z</time>
      </trkpt>
      <trkpt lat="44.81562" lon="5.56272">
        <ele>1015</ele>
        <time>2024-05-26T06:13:34Z</time>
      </trkpt>
      <trkpt lat="44.8156" lon="5.56259">
        <ele>1016</ele>
        <time>2024-05-26T06:13:43Z</time>
      </trkpt>
      <trkpt lat="44.81564" lon="5.56247">
        <ele>1016</ele>
        <time>2024-05-26T06:13:55Z</time>
      </trkpt>
      <trkpt lat="44.81558" lon="5.56236">
        <ele>1017</ele>
        <time>2024-05-26T06:14:02Z</time>
      </trkpt>
      <trkpt lat="44.81555" lon="5.5621">
        <ele>1019</ele>
        <time>2024-05-26T06:14:25Z</time>
      </trkpt>
      <trkpt lat="44.81559" lon="5.56197">
        <ele>1020</ele>
        <time>2024-05-26T06:14:35Z</time>
      </trkpt>
      <trkpt lat="44.81559" lon="5.56185">
        <ele>1021</ele>
        <time>2024-05-26T06:14:45Z</time>
      </trkpt>
      <trkpt lat="44.81559" lon="5.56161">
        <ele>1025</ele>
        <time>2024-05-26T06:15:09Z</time>
      </trkpt>
      <trkpt lat="44.81559" lon="5.56148">
        <ele>1026</ele>
        <time>2024-05-26T06:15:20Z</time>
      </trkpt>
      <trkpt lat="44.81557" lon="5.56135">
        <ele>1027</ele>
        <time>2024-05-26T06:15:31Z</time>
      </trkpt>
      <trkpt lat="44.81557" lon="5.56109">
        <ele>1029</ele>
        <time>2024-05-26T06:15:52Z</time>
      </trkpt>
      <trkpt lat="44.81558" lon="5.56096">
        <ele>1029</ele>
        <time>2024-05-26T06:16:01Z</time>
      </trkpt>
      <trkpt lat="44.8156" lon="5.56083">
        <ele>1031</ele>
        <time>2024-05-26T06:16:12Z</time>
      </trkpt>
      <trkpt lat="44.81561" lon="5.5607">
        <ele>1032</ele>
        <time>2024-05-26T06:16:24Z</time>
      </trkpt>
      <trkpt lat="44.81563" lon="5.56057">
        <ele>1033</ele>
        <time>2024-05-26T06:16:34Z</time>
      </trkpt>
      <trkpt lat="44.81562" lon="5.56044">
        <ele>1034</ele>
        <time>2024-05-26T06:16:46Z</time>
      </trkpt>
      <trkpt lat="44.81563" lon="5.5603">
        <ele>1035</ele>
        <time>2024-05-26T06:16:57Z</time>
      </trkpt>
      <trkpt lat="44.81567" lon="5.56018">
        <ele>1035</ele>
        <time>2024-05-26T06:17:05Z</time>
      </trkpt>
      <trkpt lat="44.81565" lon="5.55993">
        <ele>1038</ele>
        <time>2024-05-26T06:17:27Z</time>
      </trkpt>
      <trkpt lat="44.81564" lon="5.5598">
        <ele>1039</ele>
        <time>2024-05-26T06:17:38Z</time>
      </trkpt>
      <trkpt lat="44.81566" lon="5.55955">
        <ele>1043</ele>
        <time>2024-05-26T06:18:08Z</time>
      </trkpt>
      <trkpt lat="44.81562" lon="5.55929">
        <ele>1044</ele>
        <time>2024-05-26T06:18:23Z</time>
      </trkpt>
      <trkpt lat="44.81562" lon="5.55917">
        <ele>1045</ele>
        <time>2024-05-26T06:18:32Z</time>
      </trkpt>
      <trkpt lat="44.81559" lon="5.55904">
        <ele>1046</ele>
        <time>2024-05-26T06:18:45Z</time>
      </trkpt>
      <trkpt lat="44.81555" lon="5.55892">
        <ele>1047</ele>
        <time>2024-05-26T06:18:55Z</time>
      </trkpt>
      <trkpt lat="44.81552" lon="5.5588">
        <ele>1049</ele>
        <time>2024-05-26T06:19:10Z</time>
      </trkpt>
      <trkpt lat="44.81546" lon="5.55857">
        <ele>1051</ele>
        <time>2024-05-26T06:19:30Z</time>
      </trkpt>
      <trkpt lat="44.8154" lon="5.55833">
        <ele>1054</ele>
        <time>2024-05-26T06:19:55Z</time>
      </trkpt>
      <trkpt lat="44.81537" lon="5.5582">
        <ele>1055</ele>
        <time>2024-05-26T06:20:08Z</time>
      </trkpt>
      <trkpt lat="44.81534" lon="5.55807">
        <ele>1057</ele>
        <time>2024-05-26T06:20:18Z</time>
      </trkpt>
      <trkpt lat="44.81534" lon="5.55794">
        <ele>1058</ele>
        <time>2024-05-26T06:20:31Z</time>
      </trkpt>
      <trkpt lat="44.81529" lon="5.55783">
        <ele>1060</ele>
        <time>2024-05-26T06:20:42Z</time>
      </trkpt>
      <trkpt lat="44.81525" lon="5.55771">
        <ele>1061</ele>
        <time>2024-05-26T06:20:55Z</time>
      </trkpt>
      <trkpt lat="44.81523" lon="5.55759">
        <ele>1062</ele>
        <time>2024-05-26T06:21:07Z</time>
      </trkpt>
      <trkpt lat="44.81518" lon="5.55748">
        <ele>1064</ele>
        <time>2024-05-26T06:21:18Z</time>
      </trkpt>
      <trkpt lat="44.81514" lon="5.55736">
        <ele>1065</ele>
        <time>2024-05-26T06:21:31Z</time>
      </trkpt>
      <trkpt lat="44.81499" lon="5.55725">
        <ele>1067</ele>
        <time>2024-05-26T06:21:52Z</time>
      </trkpt>
      <trkpt lat="44.81507" lon="5.55738">
        <ele>1066</ele>
        <time>2024-05-26T06:22:49Z</time>
      </trkpt>
      <trkpt lat="44.81512" lon="5.55749">
        <ele>1065</ele>
        <time>2024-05-26T06:22:58Z</time>
      </trkpt>
      <trkpt lat="44.81529" lon="5.55759">
        <ele>1063</ele>
        <time>2024-05-26T06:25:07Z</time>
      </trkpt>
      <trkpt lat="44.81538" lon="5.55764">
        <ele>1062</ele>
        <time>2024-05-26T06:25:14Z</time>
      </trkpt>
      <trkpt lat="44.81536" lon="5.55749">
        <ele>1064</ele>
        <time>2024-05-26T06:25:52Z</time>
      </trkpt>
      <trkpt lat="44.81551" lon="5.55737">
        <ele>1062</ele>
        <time>2024-05-26T06:26:32Z</time>
      </trkpt>
      <trkpt lat="44.8156" lon="5.55734">
        <ele>1062</ele>
        <time>2024-05-26T06:26:47Z</time>
      </trkpt>
      <trkpt lat="44.81577" lon="5.55732">
        <ele>1063</ele>
        <time>2024-05-26T06:27:10Z</time>
      </trkpt>
      <trkpt lat="44.81581" lon="5.55709">
        <ele>1066</ele>
        <time>2024-05-26T06:27:54Z</time>
      </trkpt>
      <trkpt lat="44.81579" lon="5.55694">
        <ele>1068</ele>
        <time>2024-05-26T06:28:11Z</time>
      </trkpt>
      <trkpt lat="44.81586" lon="5.55683">
        <ele>1070</ele>
        <time>2024-05-26T06:28:30Z</time>
      </trkpt>
      <trkpt lat="44.81588" lon="5.5567">
        <ele>1073</ele>
        <time>2024-05-26T06:28:42Z</time>
      </trkpt>
      <trkpt lat="44.81602" lon="5.55655">
        <ele>1076</ele>
        <time>2024-05-26T06:29:06Z</time>
      </trkpt>
      <trkpt lat="44.81611" lon="5.55635">
        <ele>1081</ele>
        <time>2024-05-26T06:29:44Z</time>
      </trkpt>
      <trkpt lat="44.81607" lon="5.55623">
        <ele>1083</ele>
        <time>2024-05-26T06:30:06Z</time>
      </trkpt>
      <trkpt lat="44.81599" lon="5.55615">
        <ele>1085</ele>
        <time>2024-05-26T06:30:14Z</time>
      </trkpt>
      <trkpt lat="44.81592" lon="5.55608">
        <ele>1086</ele>
        <time>2024-05-26T06:30:24Z</time>
      </trkpt>
      <trkpt lat="44.81585" lon="5.55585">
        <ele>1091</ele>
        <time>2024-05-26T06:30:56Z</time>
      </trkpt>
      <trkpt lat="44.8158" lon="5.55575">
        <ele>1093</ele>
        <time>2024-05-26T06:31:14Z</time>
      </trkpt>
      <trkpt lat="44.81574" lon="5.55564">
        <ele>1094</ele>
        <time>2024-05-26T06:31:22Z</time>
      </trkpt>
      <trkpt lat="44.81567" lon="5.55554">
        <ele>1095</ele>
        <time>2024-05-26T06:31:35Z</time>
      </trkpt>
      <trkpt lat="44.81553" lon="5.55539">
        <ele>1097</ele>
        <time>2024-05-26T06:31:53Z</time>
      </trkpt>
      <trkpt lat="44.81545" lon="5.55533">
        <ele>1099</ele>
        <time>2024-05-26T06:32:08Z</time>
      </trkpt>
      <trkpt lat="44.81542" lon="5.5552">
        <ele>1099</ele>
        <time>2024-05-26T06:32:17Z</time>
      </trkpt>
      <trkpt lat="44.81538" lon="5.55495">
        <ele>1099</ele>
        <time>2024-05-26T06:32:34Z</time>
      </trkpt>
      <trkpt lat="44.81535" lon="5.55483">
        <ele>1099</ele>
        <time>2024-05-26T06:32:44Z</time>
      </trkpt>
      <trkpt lat="44.81531" lon="5.55471">
        <ele>1099</ele>
        <time>2024-05-26T06:32:55Z</time>
      </trkpt>
      <trkpt lat="44.81531" lon="5.55458">
        <ele>1099</ele>
        <time>2024-05-26T06:33:07Z</time>
      </trkpt>
      <trkpt lat="44.81528" lon="5.55445">
        <ele>1098</ele>
        <time>2024-05-26T06:33:18Z</time>
      </trkpt>
      <trkpt lat="44.81522" lon="5.55435">
        <ele>1098</ele>
        <time>2024-05-26T06:33:27Z</time>
      </trkpt>
      <trkpt lat="44.81516" lon="5.55425">
        <ele>1098</ele>
        <time>2024-05-26T06:33:33Z</time>
      </trkpt>
      <trkpt lat="44.81512" lon="5.55412">
        <ele>1098</ele>
        <time>2024-05-26T06:33:42Z</time>
      </trkpt>
      <trkpt lat="44.81514" lon="5.55387">
        <ele>1098</ele>
        <time>2024-05-26T06:34:03Z</time>
      </trkpt>
      <trkpt lat="44.81508" lon="5.55366">
        <ele>1098</ele>
        <time>2024-05-26T06:34:20Z</time>
      </trkpt>
      <trkpt lat="44.81505" lon="5.55353">
        <ele>1098</ele>
        <time>2024-05-26T06:34:30Z</time>
      </trkpt>
      <trkpt lat="44.81509" lon="5.55337">
        <ele>1100</ele>
        <time>2024-05-26T06:34:42Z</time>
      </trkpt>
      <trkpt lat="44.81518" lon="5.55331">
        <ele>1100</ele>
        <time>2024-05-26T06:34:49Z</time>
      </trkpt>
      <trkpt lat="44.8153" lon="5.55313">
        <ele>1102</ele>
        <time>2024-05-26T06:35:05Z</time>
      </trkpt>
      <trkpt lat="44.81539" lon="5.55306">
        <ele>1103</ele>
        <time>2024-05-26T06:35:15Z</time>
      </trkpt>
      <trkpt lat="44.8155" lon="5.55285">
        <ele>1104</ele>
        <time>2024-05-26T06:35:30Z</time>
      </trkpt>
      <trkpt lat="44.81547" lon="5.55273">
        <ele>1105</ele>
        <time>2024-05-26T06:35:37Z</time>
      </trkpt>
      <trkpt lat="44.8155" lon="5.55251">
        <ele>1106</ele>
        <time>2024-05-26T06:35:57Z</time>
      </trkpt>
      <trkpt lat="44.81545" lon="5.55239">
        <ele>1106</ele>
        <time>2024-05-26T06:36:05Z</time>
      </trkpt>
      <trkpt lat="44.81543" lon="5.55216">
        <ele>1111</ele>
        <time>2024-05-26T06:36:43Z</time>
      </trkpt>
      <trkpt lat="44.8153" lon="5.55197">
        <ele>1113</ele>
        <time>2024-05-26T06:37:06Z</time>
      </trkpt>
      <trkpt lat="44.81526" lon="5.55186">
        <ele>1114</ele>
        <time>2024-05-26T06:37:19Z</time>
      </trkpt>
      <trkpt lat="44.81523" lon="5.55173">
        <ele>1115</ele>
        <time>2024-05-26T06:37:28Z</time>
      </trkpt>
      <trkpt lat="44.81518" lon="5.55163">
        <ele>1116</ele>
        <time>2024-05-26T06:37:45Z</time>
      </trkpt>
      <trkpt lat="44.81515" lon="5.55151">
        <ele>1116</ele>
        <time>2024-05-26T06:37:55Z</time>
      </trkpt>
      <trkpt lat="44.81511" lon="5.55139">
        <ele>1117</ele>
        <time>2024-05-26T06:38:03Z</time>
      </trkpt>
      <trkpt lat="44.81515" lon="5.55126">
        <ele>1118</ele>
        <time>2024-05-26T06:38:18Z</time>
      </trkpt>
      <trkpt lat="44.81518" lon="5.55114">
        <ele>1118</ele>
        <time>2024-05-26T06:38:30Z</time>
      </trkpt>
      <trkpt lat="44.81519" lon="5.55101">
        <ele>1118</ele>
        <time>2024-05-26T06:38:39Z</time>
      </trkpt>
      <trkpt lat="44.81518" lon="5.55087">
        <ele>1119</ele>
        <time>2024-05-26T06:38:50Z</time>
      </trkpt>
      <trkpt lat="44.81519" lon="5.55075">
        <ele>1120</ele>
        <time>2024-05-26T06:39:03Z</time>
      </trkpt>
      <trkpt lat="44.8152" lon="5.55062">
        <ele>1121</ele>
        <time>2024-05-26T06:39:12Z</time>
      </trkpt>
      <trkpt lat="44.81523" lon="5.55037">
        <ele>1122</ele>
        <time>2024-05-26T06:39:35Z</time>
      </trkpt>
      <trkpt lat="44.81523" lon="5.55024">
        <ele>1121</ele>
        <time>2024-05-26T06:39:46Z</time>
      </trkpt>
      <trkpt lat="44.81515" lon="5.55015">
        <ele>1120</ele>
        <time>2024-05-26T06:39:53Z</time>
      </trkpt>
      <trkpt lat="44.81508" lon="5.55005">
        <ele>1120</ele>
        <time>2024-05-26T06:40:04Z</time>
      </trkpt>
      <trkpt lat="44.815" lon="5.54998">
        <ele>1118</ele>
        <time>2024-05-26T06:40:15Z</time>
      </trkpt>
      <trkpt lat="44.81492" lon="5.54994">
        <ele>1117</ele>
        <time>2024-05-26T06:40:27Z</time>
      </trkpt>
      <trkpt lat="44.81483" lon="5.54989">
        <ele>1116</ele>
        <time>2024-05-26T06:40:40Z</time>
      </trkpt>
      <trkpt lat="44.81474" lon="5.54984">
        <ele>1115</ele>
        <time>2024-05-26T06:40:51Z</time>
      </trkpt>
      <trkpt lat="44.81464" lon="5.54977">
        <ele>1115</ele>
        <time>2024-05-26T06:40:58Z</time>
      </trkpt>
      <trkpt lat="44.81456" lon="5.5497">
        <ele>1115</ele>
        <time>2024-05-26T06:41:04Z</time>
      </trkpt>
      <trkpt lat="44.81451" lon="5.54959">
        <ele>1115</ele>
        <time>2024-05-26T06:41:10Z</time>
      </trkpt>
      <trkpt lat="44.81453" lon="5.54935">
        <ele>1114</ele>
        <time>2024-05-26T06:41:27Z</time>
      </trkpt>
      <trkpt lat="44.81454" lon="5.54909">
        <ele>1111</ele>
        <time>2024-05-26T06:41:48Z</time>
      </trkpt>
      <trkpt lat="44.81451" lon="5.54896">
        <ele>1111</ele>
        <time>2024-05-26T06:41:55Z</time>
      </trkpt>
      <trkpt lat="44.81454" lon="5.54882">
        <ele>1111</ele>
        <time>2024-05-26T06:42:02Z</time>
      </trkpt>
      <trkpt lat="44.81461" lon="5.54872">
        <ele>1110</ele>
        <time>2024-05-26T06:42:09Z</time>
      </trkpt>
      <trkpt lat="44.81466" lon="5.54862">
        <ele>1110</ele>
        <time>2024-05-26T06:42:18Z</time>
      </trkpt>
      <trkpt lat="44.81474" lon="5.54842">
        <ele>1109</ele>
        <time>2024-05-26T06:42:39Z</time>
      </trkpt>
      <trkpt lat="44.81467" lon="5.54819">
        <ele>1108</ele>
        <time>2024-05-26T06:42:56Z</time>
      </trkpt>
      <trkpt lat="44.81471" lon="5.54807">
        <ele>1108</ele>
        <time>2024-05-26T06:43:03Z</time>
      </trkpt>
      <trkpt lat="44.81474" lon="5.54795">
        <ele>1108</ele>
        <time>2024-05-26T06:43:11Z</time>
      </trkpt>
      <trkpt lat="44.81473" lon="5.54782">
        <ele>1108</ele>
        <time>2024-05-26T06:43:19Z</time>
      </trkpt>
      <trkpt lat="44.81479" lon="5.54772">
        <ele>1108</ele>
        <time>2024-05-26T06:43:32Z</time>
      </trkpt>
      <trkpt lat="44.8148" lon="5.5475">
        <ele>1109</ele>
        <time>2024-05-26T06:43:49Z</time>
      </trkpt>
      <trkpt lat="44.81475" lon="5.54726">
        <ele>1109</ele>
        <time>2024-05-26T06:44:11Z</time>
      </trkpt>
      <trkpt lat="44.81479" lon="5.54703">
        <ele>1108</ele>
        <time>2024-05-26T06:44:26Z</time>
      </trkpt>
      <trkpt lat="44.81477" lon="5.54689">
        <ele>1108</ele>
        <time>2024-05-26T06:44:34Z</time>
      </trkpt>
      <trkpt lat="44.81477" lon="5.54675">
        <ele>1108</ele>
        <time>2024-05-26T06:44:43Z</time>
      </trkpt>
      <trkpt lat="44.81477" lon="5.54661">
        <ele>1108</ele>
        <time>2024-05-26T06:44:51Z</time>
      </trkpt>
      <trkpt lat="44.81476" lon="5.54647">
        <ele>1108</ele>
        <time>2024-05-26T06:44:58Z</time>
      </trkpt>
      <trkpt lat="44.81474" lon="5.54634">
        <ele>1108</ele>
        <time>2024-05-26T06:45:06Z</time>
      </trkpt>
      <trkpt lat="44.81479" lon="5.54622">
        <ele>1109</ele>
        <time>2024-05-26T06:45:14Z</time>
      </trkpt>
      <trkpt lat="44.81479" lon="5.54609">
        <ele>1110</ele>
        <time>2024-05-26T06:45:24Z</time>
      </trkpt>
      <trkpt lat="44.81484" lon="5.54598">
        <ele>1111</ele>
        <time>2024-05-26T06:45:36Z</time>
      </trkpt>
      <trkpt lat="44.81488" lon="5.54586">
        <ele>1112</ele>
        <time>2024-05-26T06:45:45Z</time>
      </trkpt>
      <trkpt lat="44.81493" lon="5.54574">
        <ele>1113</ele>
        <time>2024-05-26T06:45:56Z</time>
      </trkpt>
      <trkpt lat="44.81495" lon="5.54561">
        <ele>1114</ele>
        <time>2024-05-26T06:46:05Z</time>
      </trkpt>
      <trkpt lat="44.81494" lon="5.54548">
        <ele>1114</ele>
        <time>2024-05-26T06:46:15Z</time>
      </trkpt>
      <trkpt lat="44.81494" lon="5.54536">
        <ele>1115</ele>
        <time>2024-05-26T06:46:24Z</time>
      </trkpt>
      <trkpt lat="44.81493" lon="5.54523">
        <ele>1115</ele>
        <time>2024-05-26T06:46:36Z</time>
      </trkpt>
      <trkpt lat="44.81491" lon="5.54509">
        <ele>1116</ele>
        <time>2024-05-26T06:46:45Z</time>
      </trkpt>
      <trkpt lat="44.81487" lon="5.54497">
        <ele>1116</ele>
        <time>2024-05-26T06:46:52Z</time>
      </trkpt>
      <trkpt lat="44.81482" lon="5.54473">
        <ele>1116</ele>
        <time>2024-05-26T06:47:12Z</time>
      </trkpt>
      <trkpt lat="44.8148" lon="5.54459">
        <ele>1116</ele>
        <time>2024-05-26T06:47:19Z</time>
      </trkpt>
      <trkpt lat="44.8148" lon="5.54446">
        <ele>1116</ele>
        <time>2024-05-26T06:47:26Z</time>
      </trkpt>
      <trkpt lat="44.81484" lon="5.54433">
        <ele>1116</ele>
        <time>2024-05-26T06:47:33Z</time>
      </trkpt>
      <trkpt lat="44.8149" lon="5.54422">
        <ele>1116</ele>
        <time>2024-05-26T06:47:41Z</time>
      </trkpt>
      <trkpt lat="44.81495" lon="5.54412">
        <ele>1116</ele>
        <time>2024-05-26T06:47:52Z</time>
      </trkpt>
      <trkpt lat="44.81504" lon="5.5439">
        <ele>1116</ele>
        <time>2024-05-26T06:48:07Z</time>
      </trkpt>
      <trkpt lat="44.81504" lon="5.54377">
        <ele>1115</ele>
        <time>2024-05-26T06:48:17Z</time>
      </trkpt>
      <trkpt lat="44.81506" lon="5.54364">
        <ele>1115</ele>
        <time>2024-05-26T06:48:25Z</time>
      </trkpt>
      <trkpt lat="44.81507" lon="5.54351">
        <ele>1115</ele>
        <time>2024-05-26T06:48:31Z</time>
      </trkpt>
      <trkpt lat="44.81512" lon="5.54339">
        <ele>1115</ele>
        <time>2024-05-26T06:48:40Z</time>
      </trkpt>
      <trkpt lat="44.81515" lon="5.54326">
        <ele>1115</ele>
        <time>2024-05-26T06:48:50Z</time>
      </trkpt>
      <trkpt lat="44.81515" lon="5.54301">
        <ele>1116</ele>
        <time>2024-05-26T06:49:07Z</time>
      </trkpt>
      <trkpt lat="44.81514" lon="5.54287">
        <ele>1116</ele>
        <time>2024-05-26T06:49:16Z</time>
      </trkpt>
      <trkpt lat="44.81514" lon="5.54274">
        <ele>1116</ele>
        <time>2024-05-26T06:49:23Z</time>
      </trkpt>
      <trkpt lat="44.81515" lon="5.54261">
        <ele>1116</ele>
        <time>2024-05-26T06:49:32Z</time>
      </trkpt>
      <trkpt lat="44.81514" lon="5.54237">
        <ele>1116</ele>
        <time>2024-05-26T06:49:50Z</time>
      </trkpt>
      <trkpt lat="44.81514" lon="5.54213">
        <ele>1117</ele>
        <time>2024-05-26T06:50:07Z</time>
      </trkpt>
      <trkpt lat="44.81521" lon="5.54206">
        <ele>1117</ele>
        <time>2024-05-26T06:50:15Z</time>
      </trkpt>
      <trkpt lat="44.81518" lon="5.54181">
        <ele>1116</ele>
        <time>2024-05-26T06:50:29Z</time>
      </trkpt>
      <trkpt lat="44.81524" lon="5.54171">
        <ele>1116</ele>
        <time>2024-05-26T06:50:35Z</time>
      </trkpt>
      <trkpt lat="44.81531" lon="5.54162">
        <ele>1116</ele>
        <time>2024-05-26T06:50:41Z</time>
      </trkpt>
      <trkpt lat="44.81531" lon="5.5414">
        <ele>1114</ele>
        <time>2024-05-26T06:51:05Z</time>
      </trkpt>
      <trkpt lat="44.81518" lon="5.54135">
        <ele>1116</ele>
        <time>2024-05-26T06:51:44Z</time>
      </trkpt>
      <trkpt lat="44.81509" lon="5.54131">
        <ele>1116</ele>
        <time>2024-05-26T06:51:51Z</time>
      </trkpt>
      <trkpt lat="44.81515" lon="5.54112">
        <ele>1120</ele>
        <time>2024-05-26T06:52:20Z</time>
      </trkpt>
      <trkpt lat="44.81527" lon="5.54094">
        <ele>1123</ele>
        <time>2024-05-26T06:52:41Z</time>
      </trkpt>
      <trkpt lat="44.81529" lon="5.54076">
        <ele>1126</ele>
        <time>2024-05-26T06:53:05Z</time>
      </trkpt>
      <trkpt lat="44.81535" lon="5.54066">
        <ele>1126</ele>
        <time>2024-05-26T06:53:15Z</time>
      </trkpt>
      <trkpt lat="44.8154" lon="5.54056">
        <ele>1127</ele>
        <time>2024-05-26T06:53:22Z</time>
      </trkpt>
      <trkpt lat="44.81545" lon="5.54045">
        <ele>1127</ele>
        <time>2024-05-26T06:53:31Z</time>
      </trkpt>
      <trkpt lat="44.81544" lon="5.54032">
        <ele>1127</ele>
        <time>2024-05-26T06:53:40Z</time>
      </trkpt>
      <trkpt lat="44.81542" lon="5.5402">
        <ele>1127</ele>
        <time>2024-05-26T06:53:51Z</time>
      </trkpt>
      <trkpt lat="44.81533" lon="5.54">
        <ele>1128</ele>
        <time>2024-05-26T06:54:11Z</time>
      </trkpt>
      <trkpt lat="44.81541" lon="5.53988">
        <ele>1130</ele>
        <time>2024-05-26T06:54:36Z</time>
      </trkpt>
      <trkpt lat="44.81548" lon="5.53996">
        <ele>1128</ele>
        <time>2024-05-26T06:54:51Z</time>
      </trkpt>
      <trkpt lat="44.81553" lon="5.54007">
        <ele>1127</ele>
        <time>2024-05-26T06:54:58Z</time>
      </trkpt>
      <trkpt lat="44.81561" lon="5.54014">
        <ele>1125</ele>
        <time>2024-05-26T06:55:08Z</time>
      </trkpt>
      <trkpt lat="44.8157" lon="5.54014">
        <ele>1124</ele>
        <time>2024-05-26T06:55:21Z</time>
      </trkpt>
      <trkpt lat="44.81577" lon="5.53997">
        <ele>1123</ele>
        <time>2024-05-26T06:55:40Z</time>
      </trkpt>
      <trkpt lat="44.81574" lon="5.53979">
        <ele>1121</ele>
        <time>2024-05-26T06:57:04Z</time>
      </trkpt>
      <trkpt lat="44.8156" lon="5.53966">
        <ele>1123</ele>
        <time>2024-05-26T06:57:57Z</time>
      </trkpt>
      <trkpt lat="44.81555" lon="5.5395">
        <ele>1127</ele>
        <time>2024-05-26T06:58:41Z</time>
      </trkpt>
      <trkpt lat="44.81547" lon="5.5393">
        <ele>1130</ele>
        <time>2024-05-26T06:59:05Z</time>
      </trkpt>
      <trkpt lat="44.81532" lon="5.53918">
        <ele>1134</ele>
        <time>2024-05-26T06:59:39Z</time>
      </trkpt>
      <trkpt lat="44.81525" lon="5.5391">
        <ele>1137</ele>
        <time>2024-05-26T06:59:55Z</time>
      </trkpt>
      <trkpt lat="44.81521" lon="5.53898">
        <ele>1138</ele>
        <time>2024-05-26T07:00:04Z</time>
      </trkpt>
      <trkpt lat="44.81527" lon="5.53889">
        <ele>1139</ele>
        <time>2024-05-26T07:00:14Z</time>
      </trkpt>
      <trkpt lat="44.8153" lon="5.53867">
        <ele>1140</ele>
        <time>2024-05-26T07:00:39Z</time>
      </trkpt>
      <trkpt lat="44.81525" lon="5.53855">
        <ele>1140</ele>
        <time>2024-05-26T07:00:46Z</time>
      </trkpt>
      <trkpt lat="44.81521" lon="5.53842">
        <ele>1140</ele>
        <time>2024-05-26T07:00:57Z</time>
      </trkpt>
      <trkpt lat="44.81522" lon="5.53819">
        <ele>1141</ele>
        <time>2024-05-26T07:01:18Z</time>
      </trkpt>
      <trkpt lat="44.81518" lon="5.53807">
        <ele>1141</ele>
        <time>2024-05-26T07:01:27Z</time>
      </trkpt>
      <trkpt lat="44.81522" lon="5.53796">
        <ele>1141</ele>
        <time>2024-05-26T07:01:35Z</time>
      </trkpt>
      <trkpt lat="44.81529" lon="5.53788">
        <ele>1140</ele>
        <time>2024-05-26T07:01:47Z</time>
      </trkpt>
      <trkpt lat="44.81536" lon="5.53778">
        <ele>1140</ele>
        <time>2024-05-26T07:01:57Z</time>
      </trkpt>
      <trkpt lat="44.81538" lon="5.53765">
        <ele>1139</ele>
        <time>2024-05-26T07:02:04Z</time>
      </trkpt>
      <trkpt lat="44.81537" lon="5.53753">
        <ele>1139</ele>
        <time>2024-05-26T07:02:12Z</time>
      </trkpt>
      <trkpt lat="44.81532" lon="5.5374">
        <ele>1139</ele>
        <time>2024-05-26T07:02:20Z</time>
      </trkpt>
      <trkpt lat="44.81528" lon="5.53729">
        <ele>1139</ele>
        <time>2024-05-26T07:02:27Z</time>
      </trkpt>
      <trkpt lat="44.81524" lon="5.53705">
        <ele>1141</ele>
        <time>2024-05-26T07:02:54Z</time>
      </trkpt>
      <trkpt lat="44.81534" lon="5.53684">
        <ele>1141</ele>
        <time>2024-05-26T07:03:21Z</time>
      </trkpt>
      <trkpt lat="44.81538" lon="5.53672">
        <ele>1140</ele>
        <time>2024-05-26T07:03:30Z</time>
      </trkpt>
      <trkpt lat="44.81543" lon="5.53648">
        <ele>1139</ele>
        <time>2024-05-26T07:03:50Z</time>
      </trkpt>
      <trkpt lat="44.81549" lon="5.53638">
        <ele>1139</ele>
        <time>2024-05-26T07:04:01Z</time>
      </trkpt>
      <trkpt lat="44.81555" lon="5.53629">
        <ele>1138</ele>
        <time>2024-05-26T07:04:13Z</time>
      </trkpt>
      <trkpt lat="44.81561" lon="5.53618">
        <ele>1136</ele>
        <time>2024-05-26T07:04:23Z</time>
      </trkpt>
      <trkpt lat="44.81569" lon="5.53613">
        <ele>1134</ele>
        <time>2024-05-26T07:04:32Z</time>
      </trkpt>
      <trkpt lat="44.8158" lon="5.53592">
        <ele>1130</ele>
        <time>2024-05-26T07:04:53Z</time>
      </trkpt>
      <trkpt lat="44.81587" lon="5.53584">
        <ele>1128</ele>
        <time>2024-05-26T07:05:06Z</time>
      </trkpt>
      <trkpt lat="44.81594" lon="5.53575">
        <ele>1126</ele>
        <time>2024-05-26T07:05:19Z</time>
      </trkpt>
      <trkpt lat="44.81603" lon="5.53553">
        <ele>1121</ele>
        <time>2024-05-26T07:05:43Z</time>
      </trkpt>
      <trkpt lat="44.81609" lon="5.53543">
        <ele>1121</ele>
        <time>2024-05-26T07:05:52Z</time>
      </trkpt>
      <trkpt lat="44.81617" lon="5.5352">
        <ele>1118</ele>
        <time>2024-05-26T07:06:20Z</time>
      </trkpt>
      <trkpt lat="44.81611" lon="5.53504">
        <ele>1120</ele>
        <time>2024-05-26T07:06:48Z</time>
      </trkpt>
      <trkpt lat="44.81608" lon="5.53481">
        <ele>1123</ele>
        <time>2024-05-26T07:07:13Z</time>
      </trkpt>
      <trkpt lat="44.81606" lon="5.53468">
        <ele>1123</ele>
        <time>2024-05-26T07:07:24Z</time>
      </trkpt>
      <trkpt lat="44.81603" lon="5.53456">
        <ele>1124</ele>
        <time>2024-05-26T07:07:32Z</time>
      </trkpt>
      <trkpt lat="44.81602" lon="5.53442">
        <ele>1125</ele>
        <time>2024-05-26T07:07:41Z</time>
      </trkpt>
      <trkpt lat="44.816" lon="5.53428">
        <ele>1126</ele>
        <time>2024-05-26T07:07:50Z</time>
      </trkpt>
      <trkpt lat="44.81603" lon="5.53416">
        <ele>1127</ele>
        <time>2024-05-26T07:08:01Z</time>
      </trkpt>
      <trkpt lat="44.81605" lon="5.53403">
        <ele>1128</ele>
        <time>2024-05-26T07:08:11Z</time>
      </trkpt>
      <trkpt lat="44.81609" lon="5.5339">
        <ele>1129</ele>
        <time>2024-05-26T07:08:19Z</time>
      </trkpt>
      <trkpt lat="44.81618" lon="5.53383">
        <ele>1129</ele>
        <time>2024-05-26T07:08:26Z</time>
      </trkpt>
      <trkpt lat="44.81619" lon="5.5336">
        <ele>1130</ele>
        <time>2024-05-26T07:08:42Z</time>
      </trkpt>
      <trkpt lat="44.81623" lon="5.53336">
        <ele>1133</ele>
        <time>2024-05-26T07:09:11Z</time>
      </trkpt>
      <trkpt lat="44.81623" lon="5.5331">
        <ele>1136</ele>
        <time>2024-05-26T07:09:27Z</time>
      </trkpt>
      <trkpt lat="44.81619" lon="5.53299">
        <ele>1136</ele>
        <time>2024-05-26T07:09:37Z</time>
      </trkpt>
      <trkpt lat="44.81618" lon="5.53286">
        <ele>1137</ele>
        <time>2024-05-26T07:09:46Z</time>
      </trkpt>
      <trkpt lat="44.81622" lon="5.53274">
        <ele>1138</ele>
        <time>2024-05-26T07:10:00Z</time>
      </trkpt>
      <trkpt lat="44.81622" lon="5.53261">
        <ele>1140</ele>
        <time>2024-05-26T07:10:15Z</time>
      </trkpt>
      <trkpt lat="44.81625" lon="5.53248">
        <ele>1142</ele>
        <time>2024-05-26T07:10:25Z</time>
      </trkpt>
      <trkpt lat="44.81624" lon="5.53225">
        <ele>1145</ele>
        <time>2024-05-26T07:10:54Z</time>
      </trkpt>
      <trkpt lat="44.81619" lon="5.53202">
        <ele>1147</ele>
        <time>2024-05-26T07:11:13Z</time>
      </trkpt>
      <trkpt lat="44.81617" lon="5.53179">
        <ele>1151</ele>
        <time>2024-05-26T07:11:41Z</time>
      </trkpt>
      <trkpt lat="44.81609" lon="5.53172">
        <ele>1154</ele>
        <time>2024-05-26T07:11:52Z</time>
      </trkpt>
      <trkpt lat="44.8161" lon="5.53148">
        <ele>1157</ele>
        <time>2024-05-26T07:12:14Z</time>
      </trkpt>
      <trkpt lat="44.81607" lon="5.53126">
        <ele>1158</ele>
        <time>2024-05-26T07:12:39Z</time>
      </trkpt>
      <trkpt lat="44.81601" lon="5.53116">
        <ele>1159</ele>
        <time>2024-05-26T07:12:49Z</time>
      </trkpt>
      <trkpt lat="44.81593" lon="5.53109">
        <ele>1160</ele>
        <time>2024-05-26T07:12:59Z</time>
      </trkpt>
      <trkpt lat="44.81587" lon="5.53086">
        <ele>1164</ele>
        <time>2024-05-26T07:13:25Z</time>
      </trkpt>
      <trkpt lat="44.81584" lon="5.53073">
        <ele>1166</ele>
        <time>2024-05-26T07:13:35Z</time>
      </trkpt>
      <trkpt lat="44.8158" lon="5.5306">
        <ele>1167</ele>
        <time>2024-05-26T07:13:45Z</time>
      </trkpt>
      <trkpt lat="44.81575" lon="5.53038">
        <ele>1170</ele>
        <time>2024-05-26T07:14:11Z</time>
      </trkpt>
      <trkpt lat="44.81572" lon="5.53026">
        <ele>1173</ele>
        <time>2024-05-26T07:14:28Z</time>
      </trkpt>
      <trkpt lat="44.81571" lon="5.53013">
        <ele>1175</ele>
        <time>2024-05-26T07:14:46Z</time>
      </trkpt>
      <trkpt lat="44.81567" lon="5.53">
        <ele>1177</ele>
        <time>2024-05-26T07:14:59Z</time>
      </trkpt>
      <trkpt lat="44.81569" lon="5.52988">
        <ele>1178</ele>
        <time>2024-05-26T07:15:10Z</time>
      </trkpt>
      <trkpt lat="44.81565" lon="5.52976">
        <ele>1179</ele>
        <time>2024-05-26T07:15:21Z</time>
      </trkpt>
      <trkpt lat="44.81558" lon="5.52966">
        <ele>1182</ele>
        <time>2024-05-26T07:15:35Z</time>
      </trkpt>
      <trkpt lat="44.81548" lon="5.52948">
        <ele>1185</ele>
        <time>2024-05-26T07:16:23Z</time>
      </trkpt>
      <trkpt lat="44.81546" lon="5.52935">
        <ele>1185</ele>
        <time>2024-05-26T07:16:31Z</time>
      </trkpt>
      <trkpt lat="44.81547" lon="5.52922">
        <ele>1186</ele>
        <time>2024-05-26T07:16:42Z</time>
      </trkpt>
      <trkpt lat="44.81545" lon="5.52909">
        <ele>1187</ele>
        <time>2024-05-26T07:16:52Z</time>
      </trkpt>
      <trkpt lat="44.81544" lon="5.52896">
        <ele>1189</ele>
        <time>2024-05-26T07:17:02Z</time>
      </trkpt>
      <trkpt lat="44.81546" lon="5.52883">
        <ele>1189</ele>
        <time>2024-05-26T07:17:13Z</time>
      </trkpt>
      <trkpt lat="44.81549" lon="5.5287">
        <ele>1190</ele>
        <time>2024-05-26T07:17:23Z</time>
      </trkpt>
      <trkpt lat="44.8155" lon="5.52858">
        <ele>1191</ele>
        <time>2024-05-26T07:17:34Z</time>
      </trkpt>
      <trkpt lat="44.81547" lon="5.52845">
        <ele>1192</ele>
        <time>2024-05-26T07:17:43Z</time>
      </trkpt>
      <trkpt lat="44.81551" lon="5.52834">
        <ele>1192</ele>
        <time>2024-05-26T07:17:54Z</time>
      </trkpt>
      <trkpt lat="44.81557" lon="5.52824">
        <ele>1193</ele>
        <time>2024-05-26T07:18:03Z</time>
      </trkpt>
      <trkpt lat="44.81553" lon="5.52812">
        <ele>1194</ele>
        <time>2024-05-26T07:18:12Z</time>
      </trkpt>
      <trkpt lat="44.81552" lon="5.52799">
        <ele>1195</ele>
        <time>2024-05-26T07:18:24Z</time>
      </trkpt>
      <trkpt lat="44.81554" lon="5.52787">
        <ele>1195</ele>
        <time>2024-05-26T07:18:33Z</time>
      </trkpt>
      <trkpt lat="44.81557" lon="5.52773">
        <ele>1195</ele>
        <time>2024-05-26T07:18:43Z</time>
      </trkpt>
      <trkpt lat="44.81558" lon="5.5276">
        <ele>1195</ele>
        <time>2024-05-26T07:18:51Z</time>
      </trkpt>
      <trkpt lat="44.8156" lon="5.52746">
        <ele>1196</ele>
        <time>2024-05-26T07:18:59Z</time>
      </trkpt>
      <trkpt lat="44.81567" lon="5.52736">
        <ele>1196</ele>
        <time>2024-05-26T07:19:07Z</time>
      </trkpt>
      <trkpt lat="44.81571" lon="5.52723">
        <ele>1197</ele>
        <time>2024-05-26T07:19:17Z</time>
      </trkpt>
      <trkpt lat="44.81569" lon="5.5271">
        <ele>1197</ele>
        <time>2024-05-26T07:19:26Z</time>
      </trkpt>
      <trkpt lat="44.81573" lon="5.52698">
        <ele>1197</ele>
        <time>2024-05-26T07:19:36Z</time>
      </trkpt>
      <trkpt lat="44.81577" lon="5.52686">
        <ele>1197</ele>
        <time>2024-05-26T07:19:45Z</time>
      </trkpt>
      <trkpt lat="44.81579" lon="5.52673">
        <ele>1196</ele>
        <time>2024-05-26T07:19:55Z</time>
      </trkpt>
      <trkpt lat="44.81582" lon="5.5266">
        <ele>1195</ele>
        <time>2024-05-26T07:20:04Z</time>
      </trkpt>
      <trkpt lat="44.81573" lon="5.52637">
        <ele>1194</ele>
        <time>2024-05-26T07:20:26Z</time>
      </trkpt>
      <trkpt lat="44.81565" lon="5.52614">
        <ele>1193</ele>
        <time>2024-05-26T07:20:45Z</time>
      </trkpt>
      <trkpt lat="44.81561" lon="5.52602">
        <ele>1192</ele>
        <time>2024-05-26T07:20:56Z</time>
      </trkpt>
      <trkpt lat="44.81558" lon="5.52589">
        <ele>1191</ele>
        <time>2024-05-26T07:21:06Z</time>
      </trkpt>
      <trkpt lat="44.81556" lon="5.52575">
        <ele>1191</ele>
        <time>2024-05-26T07:21:15Z</time>
      </trkpt>
      <trkpt lat="44.81554" lon="5.52562">
        <ele>1191</ele>
        <time>2024-05-26T07:21:24Z</time>
      </trkpt>
      <trkpt lat="44.8155" lon="5.52551">
        <ele>1190</ele>
        <time>2024-05-26T07:21:32Z</time>
      </trkpt>
      <trkpt lat="44.81545" lon="5.52539">
        <ele>1190</ele>
        <time>2024-05-26T07:21:42Z</time>
      </trkpt>
      <trkpt lat="44.81541" lon="5.52527">
        <ele>1189</ele>
        <time>2024-05-26T07:21:54Z</time>
      </trkpt>
      <trkpt lat="44.81537" lon="5.52515">
        <ele>1189</ele>
        <time>2024-05-26T07:22:05Z</time>
      </trkpt>
      <trkpt lat="44.8153" lon="5.52504">
        <ele>1189</ele>
        <time>2024-05-26T07:22:11Z</time>
      </trkpt>
      <trkpt lat="44.81528" lon="5.52491">
        <ele>1188</ele>
        <time>2024-05-26T07:22:19Z</time>
      </trkpt>
      <trkpt lat="44.81527" lon="5.52478">
        <ele>1188</ele>
        <time>2024-05-26T07:22:30Z</time>
      </trkpt>
      <trkpt lat="44.81525" lon="5.52453">
        <ele>1188</ele>
        <time>2024-05-26T07:22:47Z</time>
      </trkpt>
      <trkpt lat="44.81522" lon="5.52441">
        <ele>1188</ele>
        <time>2024-05-26T07:22:56Z</time>
      </trkpt>
      <trkpt lat="44.81516" lon="5.5243">
        <ele>1188</ele>
        <time>2024-05-26T07:23:04Z</time>
      </trkpt>
      <trkpt lat="44.81512" lon="5.52417">
        <ele>1188</ele>
        <time>2024-05-26T07:23:14Z</time>
      </trkpt>
      <trkpt lat="44.81507" lon="5.52406">
        <ele>1187</ele>
        <time>2024-05-26T07:23:24Z</time>
      </trkpt>
      <trkpt lat="44.81499" lon="5.52383">
        <ele>1186</ele>
        <time>2024-05-26T07:23:44Z</time>
      </trkpt>
      <trkpt lat="44.81499" lon="5.5237">
        <ele>1186</ele>
        <time>2024-05-26T07:23:52Z</time>
      </trkpt>
      <trkpt lat="44.8149" lon="5.52348">
        <ele>1183</ele>
        <time>2024-05-26T07:24:10Z</time>
      </trkpt>
      <trkpt lat="44.81485" lon="5.52336">
        <ele>1183</ele>
        <time>2024-05-26T07:24:19Z</time>
      </trkpt>
      <trkpt lat="44.81479" lon="5.52313">
        <ele>1180</ele>
        <time>2024-05-26T07:24:37Z</time>
      </trkpt>
      <trkpt lat="44.81468" lon="5.52292">
        <ele>1177</ele>
        <time>2024-05-26T07:25:00Z</time>
      </trkpt>
      <trkpt lat="44.81455" lon="5.52275">
        <ele>1178</ele>
        <time>2024-05-26T07:25:21Z</time>
      </trkpt>
      <trkpt lat="44.8145" lon="5.52265">
        <ele>1178</ele>
        <time>2024-05-26T07:25:30Z</time>
      </trkpt>
      <trkpt lat="44.81436" lon="5.52251">
        <ele>1179</ele>
        <time>2024-05-26T07:25:52Z</time>
      </trkpt>
      <trkpt lat="44.81428" lon="5.5223">
        <ele>1181</ele>
        <time>2024-05-26T07:26:14Z</time>
      </trkpt>
      <trkpt lat="44.81417" lon="5.5221">
        <ele>1185</ele>
        <time>2024-05-26T07:26:37Z</time>
      </trkpt>
      <trkpt lat="44.81415" lon="5.52197">
        <ele>1185</ele>
        <time>2024-05-26T07:26:44Z</time>
      </trkpt>
      <trkpt lat="44.81421" lon="5.52178">
        <ele>1184</ele>
        <time>2024-05-26T07:27:06Z</time>
      </trkpt>
      <trkpt lat="44.8143" lon="5.52177">
        <ele>1185</ele>
        <time>2024-05-26T07:27:19Z</time>
      </trkpt>
      <trkpt lat="44.81439" lon="5.5218">
        <ele>1185</ele>
        <time>2024-05-26T07:27:29Z</time>
      </trkpt>
      <trkpt lat="44.81447" lon="5.52185">
        <ele>1185</ele>
        <time>2024-05-26T07:27:41Z</time>
      </trkpt>
      <trkpt lat="44.81465" lon="5.52187">
        <ele>1187</ele>
        <time>2024-05-26T07:28:05Z</time>
      </trkpt>
      <trkpt lat="44.81473" lon="5.52192">
        <ele>1187</ele>
        <time>2024-05-26T07:28:17Z</time>
      </trkpt>
      <trkpt lat="44.81481" lon="5.52198">
        <ele>1187</ele>
        <time>2024-05-26T07:28:27Z</time>
      </trkpt>
      <trkpt lat="44.8149" lon="5.52202">
        <ele>1185</ele>
        <time>2024-05-26T07:28:35Z</time>
      </trkpt>
      <trkpt lat="44.81499" lon="5.52206">
        <ele>1184</ele>
        <time>2024-05-26T07:28:46Z</time>
      </trkpt>
      <trkpt lat="44.81508" lon="5.52202">
        <ele>1183</ele>
        <time>2024-05-26T07:28:55Z</time>
      </trkpt>
      <trkpt lat="44.81517" lon="5.52205">
        <ele>1183</ele>
        <time>2024-05-26T07:29:07Z</time>
      </trkpt>
      <trkpt lat="44.81524" lon="5.52214">
        <ele>1181</ele>
        <time>2024-05-26T07:29:17Z</time>
      </trkpt>
      <trkpt lat="44.81533" lon="5.52219">
        <ele>1181</ele>
        <time>2024-05-26T07:29:24Z</time>
      </trkpt>
      <trkpt lat="44.81543" lon="5.52221">
        <ele>1180</ele>
        <time>2024-05-26T07:29:32Z</time>
      </trkpt>
      <trkpt lat="44.81557" lon="5.52237">
        <ele>1178</ele>
        <time>2024-05-26T07:29:51Z</time>
      </trkpt>
      <trkpt lat="44.81565" lon="5.52246">
        <ele>1177</ele>
        <time>2024-05-26T07:30:00Z</time>
      </trkpt>
      <trkpt lat="44.81582" lon="5.52253">
        <ele>1174</ele>
        <time>2024-05-26T07:30:18Z</time>
      </trkpt>
      <trkpt lat="44.81593" lon="5.52263">
        <ele>1173</ele>
        <time>2024-05-26T07:31:10Z</time>
      </trkpt>
      <trkpt lat="44.81599" lon="5.52252">
        <ele>1173</ele>
        <time>2024-05-26T07:31:21Z</time>
      </trkpt>
      <trkpt lat="44.81598" lon="5.52239">
        <ele>1174</ele>
        <time>2024-05-26T07:31:35Z</time>
      </trkpt>
      <trkpt lat="44.81595" lon="5.52227">
        <ele>1176</ele>
        <time>2024-05-26T07:31:46Z</time>
      </trkpt>
      <trkpt lat="44.81591" lon="5.52212">
        <ele>1179</ele>
        <time>2024-05-26T07:32:06Z</time>
      </trkpt>
      <trkpt lat="44.81588" lon="5.52199">
        <ele>1183</ele>
        <time>2024-05-26T07:32:22Z</time>
      </trkpt>
      <trkpt lat="44.81587" lon="5.52187">
        <ele>1184</ele>
        <time>2024-05-26T07:32:34Z</time>
      </trkpt>
      <trkpt lat="44.81575" lon="5.52172">
        <ele>1189</ele>
        <time>2024-05-26T07:33:11Z</time>
      </trkpt>
      <trkpt lat="44.81565" lon="5.52172">
        <ele>1191</ele>
        <time>2024-05-26T07:33:20Z</time>
      </trkpt>
      <trkpt lat="44.81556" lon="5.5217">
        <ele>1192</ele>
        <time>2024-05-26T07:33:31Z</time>
      </trkpt>
      <trkpt lat="44.81548" lon="5.52163">
        <ele>1194</ele>
        <time>2024-05-26T07:33:41Z</time>
      </trkpt>
      <trkpt lat="44.81541" lon="5.52156">
        <ele>1196</ele>
        <time>2024-05-26T07:33:54Z</time>
      </trkpt>
      <trkpt lat="44.81531" lon="5.52158">
        <ele>1200</ele>
        <time>2024-05-26T07:34:08Z</time>
      </trkpt>
      <trkpt lat="44.81514" lon="5.52158">
        <ele>1203</ele>
        <time>2024-05-26T07:34:32Z</time>
      </trkpt>
      <trkpt lat="44.81504" lon="5.52159">
        <ele>1205</ele>
        <time>2024-05-26T07:34:49Z</time>
      </trkpt>
      <trkpt lat="44.81495" lon="5.52157">
        <ele>1206</ele>
        <time>2024-05-26T07:34:58Z</time>
      </trkpt>
      <trkpt lat="44.81486" lon="5.52155">
        <ele>1208</ele>
        <time>2024-05-26T07:35:10Z</time>
      </trkpt>
      <trkpt lat="44.8148" lon="5.52146">
        <ele>1210</ele>
        <time>2024-05-26T07:35:28Z</time>
      </trkpt>
      <trkpt lat="44.81471" lon="5.52143">
        <ele>1212</ele>
        <time>2024-05-26T07:35:39Z</time>
      </trkpt>
      <trkpt lat="44.81463" lon="5.52138">
        <ele>1214</ele>
        <time>2024-05-26T07:35:51Z</time>
      </trkpt>
      <trkpt lat="44.81459" lon="5.52119">
        <ele>1218</ele>
        <time>2024-05-26T07:36:14Z</time>
      </trkpt>
      <trkpt lat="44.81471" lon="5.52101">
        <ele>1225</ele>
        <time>2024-05-26T07:37:00Z</time>
      </trkpt>
      <trkpt lat="44.81462" lon="5.52081">
        <ele>1230</ele>
        <time>2024-05-26T07:37:27Z</time>
      </trkpt>
      <trkpt lat="44.81462" lon="5.52068">
        <ele>1231</ele>
        <time>2024-05-26T07:37:37Z</time>
      </trkpt>
      <trkpt lat="44.81453" lon="5.52046">
        <ele>1234</ele>
        <time>2024-05-26T07:38:02Z</time>
      </trkpt>
      <trkpt lat="44.81445" lon="5.52038">
        <ele>1236</ele>
        <time>2024-05-26T07:38:25Z</time>
      </trkpt>
      <trkpt lat="44.81436" lon="5.52046">
        <ele>1240</ele>
        <time>2024-05-26T07:38:57Z</time>
      </trkpt>
      <trkpt lat="44.81429" lon="5.52056">
        <ele>1242</ele>
        <time>2024-05-26T07:39:13Z</time>
      </trkpt>
      <trkpt lat="44.81419" lon="5.52058">
        <ele>1245</ele>
        <time>2024-05-26T07:39:26Z</time>
      </trkpt>
      <trkpt lat="44.81411" lon="5.52053">
        <ele>1248</ele>
        <time>2024-05-26T07:39:41Z</time>
      </trkpt>
      <trkpt lat="44.81402" lon="5.52029">
        <ele>1251</ele>
        <time>2024-05-26T07:40:05Z</time>
      </trkpt>
      <trkpt lat="44.81398" lon="5.52018">
        <ele>1253</ele>
        <time>2024-05-26T07:40:20Z</time>
      </trkpt>
      <trkpt lat="44.81397" lon="5.52005">
        <ele>1254</ele>
        <time>2024-05-26T07:40:34Z</time>
      </trkpt>
      <trkpt lat="44.81386" lon="5.51985">
        <ele>1259</ele>
        <time>2024-05-26T07:41:10Z</time>
      </trkpt>
      <trkpt lat="44.81378" lon="5.51978">
        <ele>1263</ele>
        <time>2024-05-26T07:41:30Z</time>
      </trkpt>
      <trkpt lat="44.8137" lon="5.51971">
        <ele>1265</ele>
        <time>2024-05-26T07:41:43Z</time>
      </trkpt>
      <trkpt lat="44.81354" lon="5.51968">
        <ele>1270</ele>
        <time>2024-05-26T07:42:13Z</time>
      </trkpt>
      <trkpt lat="44.81339" lon="5.51957">
        <ele>1274</ele>
        <time>2024-05-26T07:42:46Z</time>
      </trkpt>
      <trkpt lat="44.81345" lon="5.51936">
        <ele>1280</ele>
        <time>2024-05-26T07:43:18Z</time>
      </trkpt>
      <trkpt lat="44.81348" lon="5.51923">
        <ele>1283</ele>
        <time>2024-05-26T07:43:38Z</time>
      </trkpt>
      <trkpt lat="44.81348" lon="5.51899">
        <ele>1289</ele>
        <time>2024-05-26T07:44:20Z</time>
      </trkpt>
      <trkpt lat="44.81332" lon="5.5189">
        <ele>1295</ele>
        <time>2024-05-26T07:44:57Z</time>
      </trkpt>
      <trkpt lat="44.81323" lon="5.51889">
        <ele>1297</ele>
        <time>2024-05-26T07:45:12Z</time>
      </trkpt>
      <trkpt lat="44.81323" lon="5.5187">
        <ele>1302</ele>
        <time>2024-05-26T07:45:48Z</time>
      </trkpt>
      <trkpt lat="44.81328" lon="5.5185">
        <ele>1307</ele>
        <time>2024-05-26T07:46:23Z</time>
      </trkpt>
      <trkpt lat="44.81334" lon="5.51829">
        <ele>1313</ele>
        <time>2024-05-26T07:47:00Z</time>
      </trkpt>
      <trkpt lat="44.81321" lon="5.5182">
        <ele>1317</ele>
        <time>2024-05-26T07:47:29Z</time>
      </trkpt>
      <trkpt lat="44.81313" lon="5.51813">
        <ele>1318</ele>
        <time>2024-05-26T07:47:43Z</time>
      </trkpt>
      <trkpt lat="44.81325" lon="5.51796">
        <ele>1325</ele>
        <time>2024-05-26T07:48:22Z</time>
      </trkpt>
      <trkpt lat="44.81328" lon="5.51772">
        <ele>1332</ele>
        <time>2024-05-26T07:49:19Z</time>
      </trkpt>
      <trkpt lat="44.81319" lon="5.51766">
        <ele>1335</ele>
        <time>2024-05-26T07:49:32Z</time>
      </trkpt>
      <trkpt lat="44.81306" lon="5.51754">
        <ele>1338</ele>
        <time>2024-05-26T07:50:04Z</time>
      </trkpt>
      <trkpt lat="44.81298" lon="5.51748">
        <ele>1341</ele>
        <time>2024-05-26T07:50:20Z</time>
      </trkpt>
      <trkpt lat="44.81295" lon="5.51736">
        <ele>1343</ele>
        <time>2024-05-26T07:50:33Z</time>
      </trkpt>
      <trkpt lat="44.81298" lon="5.51724">
        <ele>1344</ele>
        <time>2024-05-26T07:50:44Z</time>
      </trkpt>
      <trkpt lat="44.81287" lon="5.517">
        <ele>1350</ele>
        <time>2024-05-26T07:51:26Z</time>
      </trkpt>
      <trkpt lat="44.81279" lon="5.51677">
        <ele>1357</ele>
        <time>2024-05-26T07:52:13Z</time>
      </trkpt>
      <trkpt lat="44.8127" lon="5.51658">
        <ele>1360</ele>
        <time>2024-05-26T07:52:41Z</time>
      </trkpt>
      <trkpt lat="44.81266" lon="5.51633">
        <ele>1367</ele>
        <time>2024-05-26T07:53:35Z</time>
      </trkpt>
      <trkpt lat="44.81259" lon="5.51614">
        <ele>1374</ele>
        <time>2024-05-26T07:54:21Z</time>
      </trkpt>
      <trkpt lat="44.81258" lon="5.51602">
        <ele>1380</ele>
        <time>2024-05-26T07:55:08Z</time>
      </trkpt>
      <trkpt lat="44.8125" lon="5.51583">
        <ele>1385</ele>
        <time>2024-05-26T07:55:43Z</time>
      </trkpt>
      <trkpt lat="44.81242" lon="5.51554">
        <ele>1397</ele>
        <time>2024-05-26T07:57:04Z</time>
      </trkpt>
      <trkpt lat="44.81231" lon="5.51534">
        <ele>1404</ele>
        <time>2024-05-26T07:57:48Z</time>
      </trkpt>
      <trkpt lat="44.81226" lon="5.51524">
        <ele>1406</ele>
        <time>2024-05-26T07:58:06Z</time>
      </trkpt>
      <trkpt lat="44.8122" lon="5.51514">
        <ele>1408</ele>
        <time>2024-05-26T07:58:15Z</time>
      </trkpt>
      <trkpt lat="44.81216" lon="5.51497">
        <ele>1416</ele>
        <time>2024-05-26T07:59:06Z</time>
      </trkpt>
      <trkpt lat="44.81199" lon="5.51491">
        <ele>1423</ele>
        <time>2024-05-26T07:59:45Z</time>
      </trkpt>
      <trkpt lat="44.81205" lon="5.5148">
        <ele>1426</ele>
        <time>2024-05-26T08:00:53Z</time>
      </trkpt>
      <trkpt lat="44.81195" lon="5.51484">
        <ele>1425</ele>
        <time>2024-05-26T08:02:11Z</time>
      </trkpt>
      <trkpt lat="44.81202" lon="5.51475">
        <ele>1426</ele>
        <time>2024-05-26T08:04:13Z</time>
      </trkpt>
      <trkpt lat="44.81191" lon="5.51486">
        <ele>1426</ele>
        <time>2024-05-26T08:05:20Z</time>
      </trkpt>
      <trkpt lat="44.81186" lon="5.51465">
        <ele>1430</ele>
        <time>2024-05-26T08:05:52Z</time>
      </trkpt>
      <trkpt lat="44.81179" lon="5.51458">
        <ele>1435</ele>
        <time>2024-05-26T08:06:16Z</time>
      </trkpt>
      <trkpt lat="44.81173" lon="5.51447">
        <ele>1438</ele>
        <time>2024-05-26T08:06:34Z</time>
      </trkpt>
      <trkpt lat="44.81164" lon="5.51444">
        <ele>1441</ele>
        <time>2024-05-26T08:06:52Z</time>
      </trkpt>
      <trkpt lat="44.81155" lon="5.51429">
        <ele>1447</ele>
        <time>2024-05-26T08:07:33Z</time>
      </trkpt>
      <trkpt lat="44.81143" lon="5.51417">
        <ele>1453</ele>
        <time>2024-05-26T08:08:08Z</time>
      </trkpt>
      <trkpt lat="44.81136" lon="5.51401">
        <ele>1458</ele>
        <time>2024-05-26T08:08:41Z</time>
      </trkpt>
      <trkpt lat="44.81124" lon="5.51387">
        <ele>1467</ele>
        <time>2024-05-26T08:09:27Z</time>
      </trkpt>
      <trkpt lat="44.81114" lon="5.51386">
        <ele>1471</ele>
        <time>2024-05-26T08:09:49Z</time>
      </trkpt>
      <trkpt lat="44.81104" lon="5.51385">
        <ele>1472</ele>
        <time>2024-05-26T08:09:57Z</time>
      </trkpt>
      <trkpt lat="44.81095" lon="5.51371">
        <ele>1477</ele>
        <time>2024-05-26T08:10:35Z</time>
      </trkpt>
      <trkpt lat="44.81083" lon="5.51359">
        <ele>1484</ele>
        <time>2024-05-26T08:11:05Z</time>
      </trkpt>
      <trkpt lat="44.81089" lon="5.5135">
        <ele>1486</ele>
        <time>2024-05-26T08:11:18Z</time>
      </trkpt>
      <trkpt lat="44.81085" lon="5.51334">
        <ele>1494</ele>
        <time>2024-05-26T08:11:58Z</time>
      </trkpt>
      <trkpt lat="44.81076" lon="5.51333">
        <ele>1498</ele>
        <time>2024-05-26T08:12:16Z</time>
      </trkpt>
      <trkpt lat="44.81061" lon="5.51322">
        <ele>1502</ele>
        <time>2024-05-26T08:12:40Z</time>
      </trkpt>
      <trkpt lat="44.81049" lon="5.51307">
        <ele>1506</ele>
        <time>2024-05-26T08:13:05Z</time>
      </trkpt>
      <trkpt lat="44.81032" lon="5.51308">
        <ele>1511</ele>
        <time>2024-05-26T08:13:34Z</time>
      </trkpt>
      <trkpt lat="44.81018" lon="5.51298">
        <ele>1519</ele>
        <time>2024-05-26T08:14:12Z</time>
      </trkpt>
      <trkpt lat="44.81007" lon="5.51291">
        <ele>1524</ele>
        <time>2024-05-26T08:14:50Z</time>
      </trkpt>
      <trkpt lat="44.80998" lon="5.51289">
        <ele>1530</ele>
        <time>2024-05-26T08:15:13Z</time>
      </trkpt>
      <trkpt lat="44.81005" lon="5.51275">
        <ele>1537</ele>
        <time>2024-05-26T08:16:04Z</time>
      </trkpt>
      <trkpt lat="44.80992" lon="5.51272">
        <ele>1546</ele>
        <time>2024-05-26T08:16:56Z</time>
      </trkpt>
      <trkpt lat="44.80977" lon="5.51273">
        <ele>1551</ele>
        <time>2024-05-26T08:18:14Z</time>
      </trkpt>
      <trkpt lat="44.80973" lon="5.51256">
        <ele>1558</ele>
        <time>2024-05-26T08:18:52Z</time>
      </trkpt>
      <trkpt lat="44.80963" lon="5.51257">
        <ele>1562</ele>
        <time>2024-05-26T08:19:13Z</time>
      </trkpt>
      <trkpt lat="44.80949" lon="5.51251">
        <ele>1565</ele>
        <time>2024-05-26T08:19:35Z</time>
      </trkpt>
      <trkpt lat="44.80939" lon="5.5125">
        <ele>1565</ele>
        <time>2024-05-26T08:19:46Z</time>
      </trkpt>
      <trkpt lat="44.8094" lon="5.51236">
        <ele>1566</ele>
        <time>2024-05-26T08:20:45Z</time>
      </trkpt>
      <trkpt lat="44.80926" lon="5.51234">
        <ele>1567</ele>
        <time>2024-05-26T08:22:03Z</time>
      </trkpt>
      <trkpt lat="44.80917" lon="5.5123">
        <ele>1567</ele>
        <time>2024-05-26T08:22:13Z</time>
      </trkpt>
      <trkpt lat="44.80908" lon="5.51231">
        <ele>1568</ele>
        <time>2024-05-26T08:22:26Z</time>
      </trkpt>
      <trkpt lat="44.80891" lon="5.51233">
        <ele>1570</ele>
        <time>2024-05-26T08:22:53Z</time>
      </trkpt>
      <trkpt lat="44.80881" lon="5.51236">
        <ele>1570</ele>
        <time>2024-05-26T08:23:04Z</time>
      </trkpt>
      <trkpt lat="44.80872" lon="5.5124">
        <ele>1571</ele>
        <time>2024-05-26T08:23:12Z</time>
      </trkpt>
      <trkpt lat="44.80864" lon="5.51237">
        <ele>1571</ele>
        <time>2024-05-26T08:23:22Z</time>
      </trkpt>
      <trkpt lat="44.80854" lon="5.51239">
        <ele>1572</ele>
        <time>2024-05-26T08:23:30Z</time>
      </trkpt>
      <trkpt lat="44.80843" lon="5.51243">
        <ele>1576</ele>
        <time>2024-05-26T08:23:56Z</time>
      </trkpt>
      <trkpt lat="44.80827" lon="5.51235">
        <ele>1580</ele>
        <time>2024-05-26T08:24:20Z</time>
      </trkpt>
      <trkpt lat="44.80818" lon="5.5123">
        <ele>1582</ele>
        <time>2024-05-26T08:24:32Z</time>
      </trkpt>
      <trkpt lat="44.80814" lon="5.51247">
        <ele>1586</ele>
        <time>2024-05-26T08:25:12Z</time>
      </trkpt>
      <trkpt lat="44.80805" lon="5.51247">
        <ele>1590</ele>
        <time>2024-05-26T08:26:07Z</time>
      </trkpt>
      <trkpt lat="44.80801" lon="5.51242">
        <ele>1590</ele>
        <time>2024-05-26T08:47:15Z</time>
      </trkpt>
      <trkpt lat="44.80801" lon="5.51256">
        <ele>1590</ele>
        <time>2024-05-26T08:47:32Z</time>
      </trkpt>
      <trkpt lat="44.80797" lon="5.51247">
        <ele>1590</ele>
        <time>2024-05-26T08:49:31Z</time>
      </trkpt>
      <trkpt lat="44.80792" lon="5.51257">
        <ele>1591</ele>
        <time>2024-05-26T08:53:57Z</time>
      </trkpt>
      <trkpt lat="44.808" lon="5.51251">
        <ele>1590</ele>
        <time>2024-05-26T08:55:10Z</time>
      </trkpt>
      <trkpt lat="44.80787" lon="5.51241">
        <ele>1592</ele>
        <time>2024-05-26T08:55:51Z</time>
      </trkpt>
      <trkpt lat="44.80778" lon="5.51242">
        <ele>1591</ele>
        <time>2024-05-26T08:56:01Z</time>
      </trkpt>
      <trkpt lat="44.80768" lon="5.51244">
        <ele>1590</ele>
        <time>2024-05-26T08:56:12Z</time>
      </trkpt>
      <trkpt lat="44.8076" lon="5.51242">
        <ele>1590</ele>
        <time>2024-05-26T08:56:32Z</time>
      </trkpt>
      <trkpt lat="44.8075" lon="5.51243">
        <ele>1590</ele>
        <time>2024-05-26T08:56:42Z</time>
      </trkpt>
      <trkpt lat="44.80741" lon="5.51243">
        <ele>1591</ele>
        <time>2024-05-26T08:56:51Z</time>
      </trkpt>
      <trkpt lat="44.80731" lon="5.5124">
        <ele>1593</ele>
        <time>2024-05-26T08:57:03Z</time>
      </trkpt>
      <trkpt lat="44.80722" lon="5.51238">
        <ele>1594</ele>
        <time>2024-05-26T08:57:13Z</time>
      </trkpt>
      <trkpt lat="44.80713" lon="5.51234">
        <ele>1594</ele>
        <time>2024-05-26T08:57:24Z</time>
      </trkpt>
      <trkpt lat="44.80703" lon="5.51233">
        <ele>1594</ele>
        <time>2024-05-26T08:57:33Z</time>
      </trkpt>
      <trkpt lat="44.80694" lon="5.51234">
        <ele>1594</ele>
        <time>2024-05-26T08:57:59Z</time>
      </trkpt>
      <trkpt lat="44.80684" lon="5.51232">
        <ele>1594</ele>
        <time>2024-05-26T08:58:06Z</time>
      </trkpt>
      <trkpt lat="44.80675" lon="5.51231">
        <ele>1595</ele>
        <time>2024-05-26T08:58:19Z</time>
      </trkpt>
      <trkpt lat="44.80666" lon="5.51233">
        <ele>1596</ele>
        <time>2024-05-26T08:58:27Z</time>
      </trkpt>
      <trkpt lat="44.80657" lon="5.51234">
        <ele>1596</ele>
        <time>2024-05-26T08:58:37Z</time>
      </trkpt>
      <trkpt lat="44.80639" lon="5.51234">
        <ele>1597</ele>
        <time>2024-05-26T08:59:04Z</time>
      </trkpt>
      <trkpt lat="44.80631" lon="5.51229">
        <ele>1598</ele>
        <time>2024-05-26T08:59:13Z</time>
      </trkpt>
      <trkpt lat="44.80623" lon="5.51223">
        <ele>1600</ele>
        <time>2024-05-26T08:59:22Z</time>
      </trkpt>
      <trkpt lat="44.80614" lon="5.51217">
        <ele>1600</ele>
        <time>2024-05-26T08:59:29Z</time>
      </trkpt>
      <trkpt lat="44.80606" lon="5.51201">
        <ele>1604</ele>
        <time>2024-05-26T09:00:22Z</time>
      </trkpt>
      <trkpt lat="44.80589" lon="5.51198">
        <ele>1605</ele>
        <time>2024-05-26T09:00:41Z</time>
      </trkpt>
      <trkpt lat="44.80579" lon="5.51199">
        <ele>1606</ele>
        <time>2024-05-26T09:00:49Z</time>
      </trkpt>
      <trkpt lat="44.8057" lon="5.512">
        <ele>1607</ele>
        <time>2024-05-26T09:01:00Z</time>
      </trkpt>
      <trkpt lat="44.80581" lon="5.51201">
        <ele>1613</ele>
        <time>2024-05-26T09:01:50Z</time>
      </trkpt>
      <trkpt lat="44.80564" lon="5.51206">
        <ele>1613</ele>
        <time>2024-05-26T09:02:11Z</time>
      </trkpt>
      <trkpt lat="44.80547" lon="5.51216">
        <ele>1612</ele>
        <time>2024-05-26T09:02:29Z</time>
      </trkpt>
      <trkpt lat="44.80538" lon="5.51214">
        <ele>1612</ele>
        <time>2024-05-26T09:02:38Z</time>
      </trkpt>
      <trkpt lat="44.80544" lon="5.51191">
        <ele>1613</ele>
        <time>2024-05-26T09:03:11Z</time>
      </trkpt>
      <trkpt lat="44.80529" lon="5.51187">
        <ele>1612</ele>
        <time>2024-05-26T09:03:32Z</time>
      </trkpt>
      <trkpt lat="44.80536" lon="5.51158">
        <ele>1614</ele>
        <time>2024-05-26T09:05:21Z</time>
      </trkpt>
      <trkpt lat="44.80532" lon="5.51134">
        <ele>1616</ele>
        <time>2024-05-26T09:05:53Z</time>
      </trkpt>
      <trkpt lat="44.80534" lon="5.51121">
        <ele>1618</ele>
        <time>2024-05-26T09:06:06Z</time>
      </trkpt>
      <trkpt lat="44.80536" lon="5.51098">
        <ele>1619</ele>
        <time>2024-05-26T09:06:28Z</time>
      </trkpt>
      <trkpt lat="44.80527" lon="5.51095">
        <ele>1620</ele>
        <time>2024-05-26T09:06:36Z</time>
      </trkpt>
      <trkpt lat="44.80521" lon="5.51078">
        <ele>1622</ele>
        <time>2024-05-26T09:07:08Z</time>
      </trkpt>
      <trkpt lat="44.8052" lon="5.51057">
        <ele>1625</ele>
        <time>2024-05-26T09:07:28Z</time>
      </trkpt>
      <trkpt lat="44.80523" lon="5.51044">
        <ele>1626</ele>
        <time>2024-05-26T09:07:39Z</time>
      </trkpt>
      <trkpt lat="44.80529" lon="5.51034">
        <ele>1627</ele>
        <time>2024-05-26T09:07:51Z</time>
      </trkpt>
      <trkpt lat="44.80535" lon="5.51025">
        <ele>1628</ele>
        <time>2024-05-26T09:08:00Z</time>
      </trkpt>
      <trkpt lat="44.80535" lon="5.51">
        <ele>1629</ele>
        <time>2024-05-26T09:08:23Z</time>
      </trkpt>
      <trkpt lat="44.80535" lon="5.50987">
        <ele>1629</ele>
        <time>2024-05-26T09:08:31Z</time>
      </trkpt>
      <trkpt lat="44.80542" lon="5.50979">
        <ele>1628</ele>
        <time>2024-05-26T09:08:41Z</time>
      </trkpt>
      <trkpt lat="44.80542" lon="5.50965">
        <ele>1628</ele>
        <time>2024-05-26T09:08:49Z</time>
      </trkpt>
      <trkpt lat="44.80539" lon="5.50953">
        <ele>1627</ele>
        <time>2024-05-26T09:08:59Z</time>
      </trkpt>
      <trkpt lat="44.80536" lon="5.5094">
        <ele>1626</ele>
        <time>2024-05-26T09:09:12Z</time>
      </trkpt>
      <trkpt lat="44.80534" lon="5.50927">
        <ele>1626</ele>
        <time>2024-05-26T09:09:22Z</time>
      </trkpt>
      <trkpt lat="44.80536" lon="5.50915">
        <ele>1626</ele>
        <time>2024-05-26T09:09:33Z</time>
      </trkpt>
      <trkpt lat="44.80544" lon="5.50905">
        <ele>1626</ele>
        <time>2024-05-26T09:09:40Z</time>
      </trkpt>
      <trkpt lat="44.8055" lon="5.50895">
        <ele>1626</ele>
        <time>2024-05-26T09:09:48Z</time>
      </trkpt>
      <trkpt lat="44.8055" lon="5.50882">
        <ele>1626</ele>
        <time>2024-05-26T09:10:04Z</time>
      </trkpt>
      <trkpt lat="44.80556" lon="5.50864">
        <ele>1625</ele>
        <time>2024-05-26T09:10:25Z</time>
      </trkpt>
      <trkpt lat="44.80563" lon="5.50855">
        <ele>1623</ele>
        <time>2024-05-26T09:10:35Z</time>
      </trkpt>
      <trkpt lat="44.80567" lon="5.50843">
        <ele>1621</ele>
        <time>2024-05-26T09:10:47Z</time>
      </trkpt>
      <trkpt lat="44.80571" lon="5.5083">
        <ele>1620</ele>
        <time>2024-05-26T09:10:56Z</time>
      </trkpt>
      <trkpt lat="44.80574" lon="5.50818">
        <ele>1620</ele>
        <time>2024-05-26T09:11:04Z</time>
      </trkpt>
      <trkpt lat="44.80579" lon="5.50805">
        <ele>1619</ele>
        <time>2024-05-26T09:11:13Z</time>
      </trkpt>
      <trkpt lat="44.80578" lon="5.50792">
        <ele>1618</ele>
        <time>2024-05-26T09:11:26Z</time>
      </trkpt>
      <trkpt lat="44.80587" lon="5.50771">
        <ele>1622</ele>
        <time>2024-05-26T09:11:58Z</time>
      </trkpt>
      <trkpt lat="44.80594" lon="5.50761">
        <ele>1621</ele>
        <time>2024-05-26T09:12:10Z</time>
      </trkpt>
      <trkpt lat="44.80598" lon="5.50749">
        <ele>1621</ele>
        <time>2024-05-26T09:12:19Z</time>
      </trkpt>
      <trkpt lat="44.80596" lon="5.50737">
        <ele>1620</ele>
        <time>2024-05-26T09:12:28Z</time>
      </trkpt>
      <trkpt lat="44.80596" lon="5.50712">
        <ele>1619</ele>
        <time>2024-05-26T09:12:51Z</time>
      </trkpt>
      <trkpt lat="44.80598" lon="5.50689">
        <ele>1618</ele>
        <time>2024-05-26T09:13:09Z</time>
      </trkpt>
      <trkpt lat="44.80601" lon="5.50677">
        <ele>1617</ele>
        <time>2024-05-26T09:13:23Z</time>
      </trkpt>
      <trkpt lat="44.80605" lon="5.50666">
        <ele>1616</ele>
        <time>2024-05-26T09:13:33Z</time>
      </trkpt>
      <trkpt lat="44.80602" lon="5.50654">
        <ele>1615</ele>
        <time>2024-05-26T09:13:40Z</time>
      </trkpt>
      <trkpt lat="44.80603" lon="5.50629">
        <ele>1615</ele>
        <time>2024-05-26T09:14:02Z</time>
      </trkpt>
      <trkpt lat="44.80609" lon="5.50618">
        <ele>1615</ele>
        <time>2024-05-26T09:14:13Z</time>
      </trkpt>
      <trkpt lat="44.8061" lon="5.50605">
        <ele>1615</ele>
        <time>2024-05-26T09:14:24Z</time>
      </trkpt>
      <trkpt lat="44.8061" lon="5.50579">
        <ele>1616</ele>
        <time>2024-05-26T09:14:44Z</time>
      </trkpt>
      <trkpt lat="44.80608" lon="5.50566">
        <ele>1616</ele>
        <time>2024-05-26T09:14:54Z</time>
      </trkpt>
      <trkpt lat="44.80604" lon="5.50555">
        <ele>1615</ele>
        <time>2024-05-26T09:15:01Z</time>
      </trkpt>
      <trkpt lat="44.806" lon="5.50543">
        <ele>1615</ele>
        <time>2024-05-26T09:15:09Z</time>
      </trkpt>
      <trkpt lat="44.80598" lon="5.5053">
        <ele>1615</ele>
        <time>2024-05-26T09:15:17Z</time>
      </trkpt>
      <trkpt lat="44.80599" lon="5.50517">
        <ele>1615</ele>
        <time>2024-05-26T09:15:24Z</time>
      </trkpt>
      <trkpt lat="44.80597" lon="5.50504">
        <ele>1615</ele>
        <time>2024-05-26T09:15:34Z</time>
      </trkpt>
      <trkpt lat="44.80594" lon="5.50492">
        <ele>1616</ele>
        <time>2024-05-26T09:15:44Z</time>
      </trkpt>
      <trkpt lat="44.80588" lon="5.50481">
        <ele>1616</ele>
        <time>2024-05-26T09:15:55Z</time>
      </trkpt>
      <trkpt lat="44.80584" lon="5.50469">
        <ele>1615</ele>
        <time>2024-05-26T09:16:04Z</time>
      </trkpt>
      <trkpt lat="44.80583" lon="5.50456">
        <ele>1616</ele>
        <time>2024-05-26T09:16:13Z</time>
      </trkpt>
      <trkpt lat="44.80577" lon="5.50445">
        <ele>1617</ele>
        <time>2024-05-26T09:16:23Z</time>
      </trkpt>
      <trkpt lat="44.80568" lon="5.50422">
        <ele>1617</ele>
        <time>2024-05-26T09:16:41Z</time>
      </trkpt>
      <trkpt lat="44.80564" lon="5.50411">
        <ele>1617</ele>
        <time>2024-05-26T09:16:50Z</time>
      </trkpt>
      <trkpt lat="44.80553" lon="5.5039">
        <ele>1616</ele>
        <time>2024-05-26T09:17:09Z</time>
      </trkpt>
      <trkpt lat="44.80547" lon="5.5038">
        <ele>1615</ele>
        <time>2024-05-26T09:17:18Z</time>
      </trkpt>
      <trkpt lat="44.8054" lon="5.5037">
        <ele>1615</ele>
        <time>2024-05-26T09:17:26Z</time>
      </trkpt>
      <trkpt lat="44.80535" lon="5.50359">
        <ele>1615</ele>
        <time>2024-05-26T09:17:35Z</time>
      </trkpt>
      <trkpt lat="44.8053" lon="5.50347">
        <ele>1615</ele>
        <time>2024-05-26T09:17:45Z</time>
      </trkpt>
      <trkpt lat="44.80527" lon="5.50334">
        <ele>1616</ele>
        <time>2024-05-26T09:17:55Z</time>
      </trkpt>
      <trkpt lat="44.80522" lon="5.50322">
        <ele>1616</ele>
        <time>2024-05-26T09:18:05Z</time>
      </trkpt>
      <trkpt lat="44.80519" lon="5.5031">
        <ele>1615</ele>
        <time>2024-05-26T09:18:12Z</time>
      </trkpt>
      <trkpt lat="44.80518" lon="5.50297">
        <ele>1615</ele>
        <time>2024-05-26T09:18:20Z</time>
      </trkpt>
      <trkpt lat="44.80512" lon="5.50288">
        <ele>1615</ele>
        <time>2024-05-26T09:18:28Z</time>
      </trkpt>
      <trkpt lat="44.80498" lon="5.50274">
        <ele>1615</ele>
        <time>2024-05-26T09:18:43Z</time>
      </trkpt>
      <trkpt lat="44.80491" lon="5.50263">
        <ele>1614</ele>
        <time>2024-05-26T09:18:54Z</time>
      </trkpt>
      <trkpt lat="44.80479" lon="5.50246">
        <ele>1612</ele>
        <time>2024-05-26T09:19:16Z</time>
      </trkpt>
      <trkpt lat="44.80473" lon="5.50237">
        <ele>1612</ele>
        <time>2024-05-26T09:19:24Z</time>
      </trkpt>
      <trkpt lat="44.80464" lon="5.50232">
        <ele>1612</ele>
        <time>2024-05-26T09:19:31Z</time>
      </trkpt>
      <trkpt lat="44.80456" lon="5.50226">
        <ele>1612</ele>
        <time>2024-05-26T09:19:39Z</time>
      </trkpt>
      <trkpt lat="44.80448" lon="5.50217">
        <ele>1611</ele>
        <time>2024-05-26T09:19:48Z</time>
      </trkpt>
      <trkpt lat="44.80442" lon="5.50208">
        <ele>1612</ele>
        <time>2024-05-26T09:19:58Z</time>
      </trkpt>
      <trkpt lat="44.80426" lon="5.50199">
        <ele>1613</ele>
        <time>2024-05-26T09:20:17Z</time>
      </trkpt>
      <trkpt lat="44.80416" lon="5.502">
        <ele>1613</ele>
        <time>2024-05-26T09:20:26Z</time>
      </trkpt>
      <trkpt lat="44.80407" lon="5.50203">
        <ele>1613</ele>
        <time>2024-05-26T09:20:33Z</time>
      </trkpt>
      <trkpt lat="44.80398" lon="5.50201">
        <ele>1613</ele>
        <time>2024-05-26T09:20:43Z</time>
      </trkpt>
      <trkpt lat="44.80391" lon="5.50192">
        <ele>1613</ele>
        <time>2024-05-26T09:20:52Z</time>
      </trkpt>
      <trkpt lat="44.80384" lon="5.50182">
        <ele>1613</ele>
        <time>2024-05-26T09:21:01Z</time>
      </trkpt>
      <trkpt lat="44.80378" lon="5.50171">
        <ele>1613</ele>
        <time>2024-05-26T09:21:09Z</time>
      </trkpt>
      <trkpt lat="44.80363" lon="5.50155">
        <ele>1613</ele>
        <time>2024-05-26T09:21:25Z</time>
      </trkpt>
      <trkpt lat="44.80355" lon="5.50148">
        <ele>1612</ele>
        <time>2024-05-26T09:21:34Z</time>
      </trkpt>
      <trkpt lat="44.80346" lon="5.50142">
        <ele>1612</ele>
        <time>2024-05-26T09:21:44Z</time>
      </trkpt>
      <trkpt lat="44.80339" lon="5.50132">
        <ele>1612</ele>
        <time>2024-05-26T09:21:52Z</time>
      </trkpt>
      <trkpt lat="44.80334" lon="5.50123">
        <ele>1612</ele>
        <time>2024-05-26T09:22:02Z</time>
      </trkpt>
      <trkpt lat="44.80328" lon="5.5011">
        <ele>1612</ele>
        <time>2024-05-26T09:22:09Z</time>
      </trkpt>
      <trkpt lat="44.80323" lon="5.50099">
        <ele>1613</ele>
        <time>2024-05-26T09:22:19Z</time>
      </trkpt>
      <trkpt lat="44.80317" lon="5.50089">
        <ele>1612</ele>
        <time>2024-05-26T09:22:29Z</time>
      </trkpt>
      <trkpt lat="44.80311" lon="5.5008">
        <ele>1612</ele>
        <time>2024-05-26T09:22:40Z</time>
      </trkpt>
      <trkpt lat="44.80303" lon="5.50071">
        <ele>1612</ele>
        <time>2024-05-26T09:22:49Z</time>
      </trkpt>
      <trkpt lat="44.80296" lon="5.50061">
        <ele>1612</ele>
        <time>2024-05-26T09:22:58Z</time>
      </trkpt>
      <trkpt lat="44.80289" lon="5.50051">
        <ele>1612</ele>
        <time>2024-05-26T09:23:06Z</time>
      </trkpt>
      <trkpt lat="44.80283" lon="5.50042">
        <ele>1611</ele>
        <time>2024-05-26T09:23:15Z</time>
      </trkpt>
      <trkpt lat="44.80279" lon="5.50031">
        <ele>1611</ele>
        <time>2024-05-26T09:23:23Z</time>
      </trkpt>
      <trkpt lat="44.80274" lon="5.5002">
        <ele>1610</ele>
        <time>2024-05-26T09:23:32Z</time>
      </trkpt>
      <trkpt lat="44.80269" lon="5.50009">
        <ele>1610</ele>
        <time>2024-05-26T09:23:40Z</time>
      </trkpt>
      <trkpt lat="44.80263" lon="5.49998">
        <ele>1610</ele>
        <time>2024-05-26T09:23:48Z</time>
      </trkpt>
      <trkpt lat="44.80258" lon="5.49986">
        <ele>1609</ele>
        <time>2024-05-26T09:23:56Z</time>
      </trkpt>
      <trkpt lat="44.80251" lon="5.49979">
        <ele>1609</ele>
        <time>2024-05-26T09:24:05Z</time>
      </trkpt>
      <trkpt lat="44.80244" lon="5.49969">
        <ele>1609</ele>
        <time>2024-05-26T09:24:14Z</time>
      </trkpt>
      <trkpt lat="44.8024" lon="5.49958">
        <ele>1609</ele>
        <time>2024-05-26T09:24:26Z</time>
      </trkpt>
      <trkpt lat="44.80227" lon="5.4994">
        <ele>1610</ele>
        <time>2024-05-26T09:24:45Z</time>
      </trkpt>
      <trkpt lat="44.80223" lon="5.49928">
        <ele>1610</ele>
        <time>2024-05-26T09:24:54Z</time>
      </trkpt>
      <trkpt lat="44.80217" lon="5.49918">
        <ele>1610</ele>
        <time>2024-05-26T09:25:02Z</time>
      </trkpt>
      <trkpt lat="44.80202" lon="5.49903">
        <ele>1611</ele>
        <time>2024-05-26T09:25:21Z</time>
      </trkpt>
      <trkpt lat="44.80196" lon="5.49894">
        <ele>1611</ele>
        <time>2024-05-26T09:25:27Z</time>
      </trkpt>
      <trkpt lat="44.80188" lon="5.49886">
        <ele>1611</ele>
        <time>2024-05-26T09:25:34Z</time>
      </trkpt>
      <trkpt lat="44.80182" lon="5.49876">
        <ele>1611</ele>
        <time>2024-05-26T09:25:43Z</time>
      </trkpt>
      <trkpt lat="44.80176" lon="5.49865">
        <ele>1610</ele>
        <time>2024-05-26T09:25:51Z</time>
      </trkpt>
      <trkpt lat="44.80171" lon="5.49854">
        <ele>1610</ele>
        <time>2024-05-26T09:26:00Z</time>
      </trkpt>
      <trkpt lat="44.80167" lon="5.49842">
        <ele>1609</ele>
        <time>2024-05-26T09:26:08Z</time>
      </trkpt>
      <trkpt lat="44.80164" lon="5.4983">
        <ele>1609</ele>
        <time>2024-05-26T09:26:16Z</time>
      </trkpt>
      <trkpt lat="44.8016" lon="5.49818">
        <ele>1609</ele>
        <time>2024-05-26T09:26:25Z</time>
      </trkpt>
      <trkpt lat="44.80154" lon="5.49807">
        <ele>1609</ele>
        <time>2024-05-26T09:26:34Z</time>
      </trkpt>
      <trkpt lat="44.80147" lon="5.49798">
        <ele>1609</ele>
        <time>2024-05-26T09:26:42Z</time>
      </trkpt>
      <trkpt lat="44.80141" lon="5.49788">
        <ele>1609</ele>
        <time>2024-05-26T09:26:52Z</time>
      </trkpt>
      <trkpt lat="44.80134" lon="5.49777">
        <ele>1609</ele>
        <time>2024-05-26T09:27:02Z</time>
      </trkpt>
      <trkpt lat="44.80124" lon="5.49756">
        <ele>1609</ele>
        <time>2024-05-26T09:27:20Z</time>
      </trkpt>
      <trkpt lat="44.80117" lon="5.49747">
        <ele>1607</ele>
        <time>2024-05-26T09:27:30Z</time>
      </trkpt>
      <trkpt lat="44.80111" lon="5.49738">
        <ele>1607</ele>
        <time>2024-05-26T09:27:37Z</time>
      </trkpt>
      <trkpt lat="44.80105" lon="5.49727">
        <ele>1607</ele>
        <time>2024-05-26T09:27:47Z</time>
      </trkpt>
      <trkpt lat="44.801" lon="5.49717">
        <ele>1606</ele>
        <time>2024-05-26T09:27:55Z</time>
      </trkpt>
      <trkpt lat="44.80093" lon="5.49693">
        <ele>1606</ele>
        <time>2024-05-26T09:28:20Z</time>
      </trkpt>
      <trkpt lat="44.80095" lon="5.49669">
        <ele>1605</ele>
        <time>2024-05-26T09:28:39Z</time>
      </trkpt>
      <trkpt lat="44.80099" lon="5.49657">
        <ele>1604</ele>
        <time>2024-05-26T09:28:46Z</time>
      </trkpt>
      <trkpt lat="44.80101" lon="5.49644">
        <ele>1604</ele>
        <time>2024-05-26T09:28:55Z</time>
      </trkpt>
      <trkpt lat="44.80099" lon="5.49632">
        <ele>1604</ele>
        <time>2024-05-26T09:29:04Z</time>
      </trkpt>
      <trkpt lat="44.801" lon="5.49619">
        <ele>1605</ele>
        <time>2024-05-26T09:29:16Z</time>
      </trkpt>
      <trkpt lat="44.80099" lon="5.49606">
        <ele>1605</ele>
        <time>2024-05-26T09:29:28Z</time>
      </trkpt>
      <trkpt lat="44.80101" lon="5.49593">
        <ele>1606</ele>
        <time>2024-05-26T09:29:42Z</time>
      </trkpt>
      <trkpt lat="44.80108" lon="5.49583">
        <ele>1608</ele>
        <time>2024-05-26T09:29:54Z</time>
      </trkpt>
      <trkpt lat="44.80115" lon="5.49575">
        <ele>1610</ele>
        <time>2024-05-26T09:30:07Z</time>
      </trkpt>
      <trkpt lat="44.80118" lon="5.4955">
        <ele>1613</ele>
        <time>2024-05-26T09:31:01Z</time>
      </trkpt>
      <trkpt lat="44.80119" lon="5.4953">
        <ele>1611</ele>
        <time>2024-05-26T09:32:39Z</time>
      </trkpt>
      <trkpt lat="44.80117" lon="5.49518">
        <ele>1610</ele>
        <time>2024-05-26T09:32:59Z</time>
      </trkpt>
      <trkpt lat="44.80126" lon="5.49504">
        <ele>1611</ele>
        <time>2024-05-26T09:35:42Z</time>
      </trkpt>
      <trkpt lat="44.80135" lon="5.49507">
        <ele>1610</ele>
        <time>2024-05-26T09:35:55Z</time>
      </trkpt>
      <trkpt lat="44.80144" lon="5.49503">
        <ele>1610</ele>
        <time>2024-05-26T09:36:32Z</time>
      </trkpt>
      <trkpt lat="44.80153" lon="5.49508">
        <ele>1609</ele>
        <time>2024-05-26T09:36:48Z</time>
      </trkpt>
      <trkpt lat="44.80161" lon="5.49516">
        <ele>1608</ele>
        <time>2024-05-26T09:36:57Z</time>
      </trkpt>
      <trkpt lat="44.8017" lon="5.49514">
        <ele>1607</ele>
        <time>2024-05-26T09:37:06Z</time>
      </trkpt>
      <trkpt lat="44.80173" lon="5.49501">
        <ele>1606</ele>
        <time>2024-05-26T09:37:11Z</time>
      </trkpt>
      <trkpt lat="44.80173" lon="5.49488">
        <ele>1606</ele>
        <time>2024-05-26T09:37:18Z</time>
      </trkpt>
      <trkpt lat="44.80171" lon="5.49474">
        <ele>1605</ele>
        <time>2024-05-26T09:37:27Z</time>
      </trkpt>
      <trkpt lat="44.80172" lon="5.49462">
        <ele>1605</ele>
        <time>2024-05-26T09:37:36Z</time>
      </trkpt>
      <trkpt lat="44.80176" lon="5.4945">
        <ele>1605</ele>
        <time>2024-05-26T09:37:46Z</time>
      </trkpt>
      <trkpt lat="44.80181" lon="5.49438">
        <ele>1605</ele>
        <time>2024-05-26T09:37:55Z</time>
      </trkpt>
      <trkpt lat="44.80186" lon="5.49428">
        <ele>1604</ele>
        <time>2024-05-26T09:38:06Z</time>
      </trkpt>
      <trkpt lat="44.80192" lon="5.49418">
        <ele>1603</ele>
        <time>2024-05-26T09:38:17Z</time>
      </trkpt>
      <trkpt lat="44.80202" lon="5.49397">
        <ele>1603</ele>
        <time>2024-05-26T09:38:35Z</time>
      </trkpt>
      <trkpt lat="44.80208" lon="5.49387">
        <ele>1604</ele>
        <time>2024-05-26T09:38:45Z</time>
      </trkpt>
      <trkpt lat="44.80212" lon="5.49375">
        <ele>1604</ele>
        <time>2024-05-26T09:38:56Z</time>
      </trkpt>
      <trkpt lat="44.80214" lon="5.49363">
        <ele>1605</ele>
        <time>2024-05-26T09:39:05Z</time>
      </trkpt>
      <trkpt lat="44.80215" lon="5.49349">
        <ele>1605</ele>
        <time>2024-05-26T09:39:15Z</time>
      </trkpt>
      <trkpt lat="44.8022" lon="5.49337">
        <ele>1606</ele>
        <time>2024-05-26T09:39:26Z</time>
      </trkpt>
      <trkpt lat="44.80221" lon="5.49324">
        <ele>1607</ele>
        <time>2024-05-26T09:39:36Z</time>
      </trkpt>
      <trkpt lat="44.80223" lon="5.49299">
        <ele>1609</ele>
        <time>2024-05-26T09:39:58Z</time>
      </trkpt>
      <trkpt lat="44.80229" lon="5.4929">
        <ele>1610</ele>
        <time>2024-05-26T09:40:09Z</time>
      </trkpt>
      <trkpt lat="44.80237" lon="5.49282">
        <ele>1613</ele>
        <time>2024-05-26T09:40:25Z</time>
      </trkpt>
      <trkpt lat="44.80235" lon="5.49258">
        <ele>1611</ele>
        <time>2024-05-26T09:40:57Z</time>
      </trkpt>
      <trkpt lat="44.80236" lon="5.49245">
        <ele>1611</ele>
        <time>2024-05-26T09:41:05Z</time>
      </trkpt>
      <trkpt lat="44.80243" lon="5.49236">
        <ele>1611</ele>
        <time>2024-05-26T09:41:14Z</time>
      </trkpt>
      <trkpt lat="44.80246" lon="5.49224">
        <ele>1611</ele>
        <time>2024-05-26T09:41:25Z</time>
      </trkpt>
      <trkpt lat="44.80249" lon="5.49211">
        <ele>1610</ele>
        <time>2024-05-26T09:41:38Z</time>
      </trkpt>
      <trkpt lat="44.80252" lon="5.49199">
        <ele>1609</ele>
        <time>2024-05-26T09:41:49Z</time>
      </trkpt>
      <trkpt lat="44.80254" lon="5.49175">
        <ele>1605</ele>
        <time>2024-05-26T09:42:11Z</time>
      </trkpt>
      <trkpt lat="44.80257" lon="5.49156">
        <ele>1604</ele>
        <time>2024-05-26T09:43:35Z</time>
      </trkpt>
      <trkpt lat="44.80262" lon="5.49133">
        <ele>1602</ele>
        <time>2024-05-26T09:43:58Z</time>
      </trkpt>
      <trkpt lat="44.80266" lon="5.49122">
        <ele>1602</ele>
        <time>2024-05-26T09:44:10Z</time>
      </trkpt>
      <trkpt lat="44.80273" lon="5.49111">
        <ele>1601</ele>
        <time>2024-05-26T09:44:21Z</time>
      </trkpt>
      <trkpt lat="44.80281" lon="5.4909">
        <ele>1599</ele>
        <time>2024-05-26T09:44:41Z</time>
      </trkpt>
      <trkpt lat="44.80279" lon="5.49078">
        <ele>1598</ele>
        <time>2024-05-26T09:44:52Z</time>
      </trkpt>
      <trkpt lat="44.80283" lon="5.49066">
        <ele>1598</ele>
        <time>2024-05-26T09:45:01Z</time>
      </trkpt>
      <trkpt lat="44.80285" lon="5.49053">
        <ele>1599</ele>
        <time>2024-05-26T09:45:15Z</time>
      </trkpt>
      <trkpt lat="44.80288" lon="5.49041">
        <ele>1597</ele>
        <time>2024-05-26T09:45:26Z</time>
      </trkpt>
      <trkpt lat="44.80288" lon="5.49028">
        <ele>1596</ele>
        <time>2024-05-26T09:45:38Z</time>
      </trkpt>
      <trkpt lat="44.80289" lon="5.49015">
        <ele>1595</ele>
        <time>2024-05-26T09:45:57Z</time>
      </trkpt>
      <trkpt lat="44.8029" lon="5.49002">
        <ele>1594</ele>
        <time>2024-05-26T09:46:05Z</time>
      </trkpt>
      <trkpt lat="44.80289" lon="5.48989">
        <ele>1593</ele>
        <time>2024-05-26T09:46:12Z</time>
      </trkpt>
      <trkpt lat="44.80288" lon="5.48975">
        <ele>1593</ele>
        <time>2024-05-26T09:46:22Z</time>
      </trkpt>
      <trkpt lat="44.80284" lon="5.48962">
        <ele>1594</ele>
        <time>2024-05-26T09:46:32Z</time>
      </trkpt>
      <trkpt lat="44.80284" lon="5.48949">
        <ele>1594</ele>
        <time>2024-05-26T09:46:43Z</time>
      </trkpt>
      <trkpt lat="44.80286" lon="5.48936">
        <ele>1596</ele>
        <time>2024-05-26T09:46:55Z</time>
      </trkpt>
      <trkpt lat="44.80288" lon="5.48922">
        <ele>1598</ele>
        <time>2024-05-26T09:47:20Z</time>
      </trkpt>
      <trkpt lat="44.80288" lon="5.48909">
        <ele>1598</ele>
        <time>2024-05-26T09:47:29Z</time>
      </trkpt>
      <trkpt lat="44.80285" lon="5.48885">
        <ele>1599</ele>
        <time>2024-05-26T09:47:57Z</time>
      </trkpt>
      <trkpt lat="44.80286" lon="5.48867">
        <ele>1600</ele>
        <time>2024-05-26T09:48:22Z</time>
      </trkpt>
      <trkpt lat="44.80289" lon="5.48855">
        <ele>1598</ele>
        <time>2024-05-26T09:48:32Z</time>
      </trkpt>
      <trkpt lat="44.80288" lon="5.48842">
        <ele>1598</ele>
        <time>2024-05-26T09:48:46Z</time>
      </trkpt>
      <trkpt lat="44.80283" lon="5.48817">
        <ele>1598</ele>
        <time>2024-05-26T09:49:08Z</time>
      </trkpt>
      <trkpt lat="44.80285" lon="5.48793">
        <ele>1596</ele>
        <time>2024-05-26T09:49:38Z</time>
      </trkpt>
      <trkpt lat="44.80281" lon="5.48769">
        <ele>1594</ele>
        <time>2024-05-26T09:50:08Z</time>
      </trkpt>
      <trkpt lat="44.80281" lon="5.48756">
        <ele>1593</ele>
        <time>2024-05-26T09:50:24Z</time>
      </trkpt>
      <trkpt lat="44.80274" lon="5.48745">
        <ele>1591</ele>
        <time>2024-05-26T09:50:33Z</time>
      </trkpt>
      <trkpt lat="44.80271" lon="5.48733">
        <ele>1592</ele>
        <time>2024-05-26T09:50:43Z</time>
      </trkpt>
      <trkpt lat="44.80268" lon="5.48721">
        <ele>1593</ele>
        <time>2024-05-26T09:50:53Z</time>
      </trkpt>
      <trkpt lat="44.80265" lon="5.48709">
        <ele>1593</ele>
        <time>2024-05-26T09:51:04Z</time>
      </trkpt>
      <trkpt lat="44.80261" lon="5.48685">
        <ele>1593</ele>
        <time>2024-05-26T09:51:24Z</time>
      </trkpt>
      <trkpt lat="44.80259" lon="5.48672">
        <ele>1593</ele>
        <time>2024-05-26T09:51:39Z</time>
      </trkpt>
      <trkpt lat="44.80253" lon="5.48648">
        <ele>1594</ele>
        <time>2024-05-26T09:52:08Z</time>
      </trkpt>
      <trkpt lat="44.80256" lon="5.48635">
        <ele>1595</ele>
        <time>2024-05-26T09:52:18Z</time>
      </trkpt>
      <trkpt lat="44.80257" lon="5.4861">
        <ele>1597</ele>
        <time>2024-05-26T09:52:45Z</time>
      </trkpt>
      <trkpt lat="44.80256" lon="5.48585">
        <ele>1599</ele>
        <time>2024-05-26T09:53:06Z</time>
      </trkpt>
      <trkpt lat="44.80252" lon="5.4856">
        <ele>1601</ele>
        <time>2024-05-26T09:53:29Z</time>
      </trkpt>
      <trkpt lat="44.80248" lon="5.48548">
        <ele>1602</ele>
        <time>2024-05-26T09:53:40Z</time>
      </trkpt>
      <trkpt lat="44.80244" lon="5.48536">
        <ele>1602</ele>
        <time>2024-05-26T09:53:53Z</time>
      </trkpt>
      <trkpt lat="44.80235" lon="5.4853">
        <ele>1602</ele>
        <time>2024-05-26T09:54:02Z</time>
      </trkpt>
      <trkpt lat="44.80227" lon="5.48524">
        <ele>1601</ele>
        <time>2024-05-26T09:54:11Z</time>
      </trkpt>
      <trkpt lat="44.80219" lon="5.48518">
        <ele>1600</ele>
        <time>2024-05-26T09:54:23Z</time>
      </trkpt>
      <trkpt lat="44.80209" lon="5.48514">
        <ele>1599</ele>
        <time>2024-05-26T09:54:33Z</time>
      </trkpt>
      <trkpt lat="44.802" lon="5.4851">
        <ele>1598</ele>
        <time>2024-05-26T09:54:46Z</time>
      </trkpt>
      <trkpt lat="44.80194" lon="5.48502">
        <ele>1599</ele>
        <time>2024-05-26T09:54:59Z</time>
      </trkpt>
      <trkpt lat="44.80186" lon="5.48494">
        <ele>1598</ele>
        <time>2024-05-26T09:55:07Z</time>
      </trkpt>
      <trkpt lat="44.80184" lon="5.48482">
        <ele>1597</ele>
        <time>2024-05-26T09:55:18Z</time>
      </trkpt>
      <trkpt lat="44.80183" lon="5.48456">
        <ele>1595</ele>
        <time>2024-05-26T09:55:42Z</time>
      </trkpt>
      <trkpt lat="44.80177" lon="5.48445">
        <ele>1594</ele>
        <time>2024-05-26T09:55:50Z</time>
      </trkpt>
      <trkpt lat="44.80171" lon="5.48435">
        <ele>1594</ele>
        <time>2024-05-26T09:56:02Z</time>
      </trkpt>
      <trkpt lat="44.80164" lon="5.48428">
        <ele>1594</ele>
        <time>2024-05-26T09:56:13Z</time>
      </trkpt>
      <trkpt lat="44.8016" lon="5.48416">
        <ele>1594</ele>
        <time>2024-05-26T09:56:24Z</time>
      </trkpt>
      <trkpt lat="44.80165" lon="5.48405">
        <ele>1595</ele>
        <time>2024-05-26T09:56:32Z</time>
      </trkpt>
      <trkpt lat="44.80161" lon="5.48393">
        <ele>1596</ele>
        <time>2024-05-26T09:56:42Z</time>
      </trkpt>
      <trkpt lat="44.80158" lon="5.48381">
        <ele>1597</ele>
        <time>2024-05-26T09:56:53Z</time>
      </trkpt>
      <trkpt lat="44.8015" lon="5.48374">
        <ele>1597</ele>
        <time>2024-05-26T09:57:05Z</time>
      </trkpt>
      <trkpt lat="44.80142" lon="5.48367">
        <ele>1597</ele>
        <time>2024-05-26T09:57:13Z</time>
      </trkpt>
      <trkpt lat="44.80126" lon="5.48357">
        <ele>1599</ele>
        <time>2024-05-26T09:57:41Z</time>
      </trkpt>
      <trkpt lat="44.80122" lon="5.4834">
        <ele>1602</ele>
        <time>2024-05-26T09:58:12Z</time>
      </trkpt>
      <trkpt lat="44.80119" lon="5.48327">
        <ele>1602</ele>
        <time>2024-05-26T09:58:21Z</time>
      </trkpt>
      <trkpt lat="44.80115" lon="5.48316">
        <ele>1603</ele>
        <time>2024-05-26T09:58:30Z</time>
      </trkpt>
      <trkpt lat="44.80107" lon="5.48309">
        <ele>1603</ele>
        <time>2024-05-26T09:58:37Z</time>
      </trkpt>
      <trkpt lat="44.80105" lon="5.48286">
        <ele>1605</ele>
        <time>2024-05-26T09:59:06Z</time>
      </trkpt>
      <trkpt lat="44.80114" lon="5.48264">
        <ele>1605</ele>
        <time>2024-05-26T09:59:28Z</time>
      </trkpt>
      <trkpt lat="44.80112" lon="5.48251">
        <ele>1606</ele>
        <time>2024-05-26T09:59:39Z</time>
      </trkpt>
      <trkpt lat="44.80103" lon="5.48236">
        <ele>1607</ele>
        <time>2024-05-26T10:00:07Z</time>
      </trkpt>
      <trkpt lat="44.8011" lon="5.4822">
        <ele>1607</ele>
        <time>2024-05-26T10:01:32Z</time>
      </trkpt>
      <trkpt lat="44.80118" lon="5.48222">
        <ele>1606</ele>
        <time>2024-05-26T10:03:43Z</time>
      </trkpt>
      <trkpt lat="44.80133" lon="5.48233">
        <ele>1606</ele>
        <time>2024-05-26T10:04:54Z</time>
      </trkpt>
      <trkpt lat="44.80135" lon="5.48229">
        <ele>1607</ele>
        <time>2024-05-26T10:15:13Z</time>
      </trkpt>
      <trkpt lat="44.80126" lon="5.4823">
        <ele>1607</ele>
        <time>2024-05-26T10:16:08Z</time>
      </trkpt>
      <trkpt lat="44.80136" lon="5.48235">
        <ele>1606</ele>
        <time>2024-05-26T10:17:17Z</time>
      </trkpt>
      <trkpt lat="44.80129" lon="5.48224">
        <ele>1606</ele>
        <time>2024-05-26T10:18:38Z</time>
      </trkpt>
      <trkpt lat="44.80137" lon="5.4822">
        <ele>1606</ele>
        <time>2024-05-26T10:24:08Z</time>
      </trkpt>
      <trkpt lat="44.8013" lon="5.48217">
        <ele>1606</ele>
        <time>2024-05-26T10:32:00Z</time>
      </trkpt>
      <trkpt lat="44.80135" lon="5.4821">
        <ele>1607</ele>
        <time>2024-05-26T10:36:22Z</time>
      </trkpt>
      <trkpt lat="44.80138" lon="5.48226">
        <ele>1607</ele>
        <time>2024-05-26T10:39:17Z</time>
      </trkpt>
      <trkpt lat="44.80127" lon="5.4821">
        <ele>1606</ele>
        <time>2024-05-26T10:39:37Z</time>
      </trkpt>
      <trkpt lat="44.80132" lon="5.48218">
        <ele>1607</ele>
        <time>2024-05-26T10:42:20Z</time>
      </trkpt>
      <trkpt lat="44.8013" lon="5.48206">
        <ele>1607</ele>
        <time>2024-05-26T10:43:01Z</time>
      </trkpt>
      <trkpt lat="44.80144" lon="5.48209">
        <ele>1606</ele>
        <time>2024-05-26T10:45:03Z</time>
      </trkpt>
      <trkpt lat="44.80139" lon="5.48219">
        <ele>1607</ele>
        <time>2024-05-26T10:45:09Z</time>
      </trkpt>
      <trkpt lat="44.80128" lon="5.48209">
        <ele>1607</ele>
        <time>2024-05-26T10:46:55Z</time>
      </trkpt>
      <trkpt lat="44.80138" lon="5.48225">
        <ele>1606</ele>
        <time>2024-05-26T10:47:58Z</time>
      </trkpt>
      <trkpt lat="44.80144" lon="5.48234">
        <ele>1606</ele>
        <time>2024-05-26T10:48:01Z</time>
      </trkpt>
      <trkpt lat="44.80137" lon="5.48217">
        <ele>1607</ele>
        <time>2024-05-26T10:49:28Z</time>
      </trkpt>
      <trkpt lat="44.80128" lon="5.48212">
        <ele>1607</ele>
        <time>2024-05-26T10:50:31Z</time>
      </trkpt>
      <trkpt lat="44.80121" lon="5.48218">
        <ele>1607</ele>
        <time>2024-05-26T10:53:00Z</time>
      </trkpt>
      <trkpt lat="44.80125" lon="5.4823">
        <ele>1607</ele>
        <time>2024-05-26T10:53:12Z</time>
      </trkpt>
      <trkpt lat="44.80137" lon="5.48233">
        <ele>1607</ele>
        <time>2024-05-26T10:54:11Z</time>
      </trkpt>
      <trkpt lat="44.80129" lon="5.48225">
        <ele>1607</ele>
        <time>2024-05-26T10:54:24Z</time>
      </trkpt>
      <trkpt lat="44.80135" lon="5.48198">
        <ele>1605</ele>
        <time>2024-05-26T10:55:25Z</time>
      </trkpt>
      <trkpt lat="44.80132" lon="5.48186">
        <ele>1605</ele>
        <time>2024-05-26T10:55:42Z</time>
      </trkpt>
      <trkpt lat="44.8013" lon="5.48161">
        <ele>1609</ele>
        <time>2024-05-26T10:56:11Z</time>
      </trkpt>
      <trkpt lat="44.80129" lon="5.48145">
        <ele>1611</ele>
        <time>2024-05-26T10:56:36Z</time>
      </trkpt>
      <trkpt lat="44.80132" lon="5.48123">
        <ele>1612</ele>
        <time>2024-05-26T10:57:03Z</time>
      </trkpt>
      <trkpt lat="44.80128" lon="5.48099">
        <ele>1610</ele>
        <time>2024-05-26T10:57:29Z</time>
      </trkpt>
      <trkpt lat="44.80123" lon="5.48087">
        <ele>1609</ele>
        <time>2024-05-26T10:57:40Z</time>
      </trkpt>
      <trkpt lat="44.80118" lon="5.48076">
        <ele>1607</ele>
        <time>2024-05-26T10:57:49Z</time>
      </trkpt>
      <trkpt lat="44.80112" lon="5.48066">
        <ele>1607</ele>
        <time>2024-05-26T10:57:58Z</time>
      </trkpt>
      <trkpt lat="44.80106" lon="5.48056">
        <ele>1607</ele>
        <time>2024-05-26T10:58:07Z</time>
      </trkpt>
      <trkpt lat="44.80106" lon="5.48043">
        <ele>1607</ele>
        <time>2024-05-26T10:58:16Z</time>
      </trkpt>
      <trkpt lat="44.80108" lon="5.48018">
        <ele>1610</ele>
        <time>2024-05-26T10:58:36Z</time>
      </trkpt>
      <trkpt lat="44.8011" lon="5.48005">
        <ele>1612</ele>
        <time>2024-05-26T10:58:53Z</time>
      </trkpt>
      <trkpt lat="44.80114" lon="5.47993">
        <ele>1615</ele>
        <time>2024-05-26T10:59:08Z</time>
      </trkpt>
      <trkpt lat="44.80115" lon="5.4798">
        <ele>1616</ele>
        <time>2024-05-26T10:59:19Z</time>
      </trkpt>
      <trkpt lat="44.80114" lon="5.47967">
        <ele>1617</ele>
        <time>2024-05-26T10:59:29Z</time>
      </trkpt>
      <trkpt lat="44.80114" lon="5.47953">
        <ele>1618</ele>
        <time>2024-05-26T10:59:41Z</time>
      </trkpt>
      <trkpt lat="44.80114" lon="5.4794">
        <ele>1619</ele>
        <time>2024-05-26T10:59:50Z</time>
      </trkpt>
      <trkpt lat="44.80114" lon="5.47927">
        <ele>1620</ele>
        <time>2024-05-26T11:00:02Z</time>
      </trkpt>
      <trkpt lat="44.80109" lon="5.47916">
        <ele>1620</ele>
        <time>2024-05-26T11:00:14Z</time>
      </trkpt>
      <trkpt lat="44.80107" lon="5.47903">
        <ele>1620</ele>
        <time>2024-05-26T11:00:24Z</time>
      </trkpt>
      <trkpt lat="44.80106" lon="5.4789">
        <ele>1621</ele>
        <time>2024-05-26T11:00:32Z</time>
      </trkpt>
      <trkpt lat="44.80102" lon="5.47878">
        <ele>1621</ele>
        <time>2024-05-26T11:00:40Z</time>
      </trkpt>
      <trkpt lat="44.801" lon="5.47865">
        <ele>1622</ele>
        <time>2024-05-26T11:00:51Z</time>
      </trkpt>
      <trkpt lat="44.80091" lon="5.4784">
        <ele>1625</ele>
        <time>2024-05-26T11:01:17Z</time>
      </trkpt>
      <trkpt lat="44.8009" lon="5.47827">
        <ele>1627</ele>
        <time>2024-05-26T11:01:32Z</time>
      </trkpt>
      <trkpt lat="44.80087" lon="5.47815">
        <ele>1628</ele>
        <time>2024-05-26T11:01:44Z</time>
      </trkpt>
      <trkpt lat="44.80081" lon="5.47792">
        <ele>1632</ele>
        <time>2024-05-26T11:02:15Z</time>
      </trkpt>
      <trkpt lat="44.80078" lon="5.4778">
        <ele>1631</ele>
        <time>2024-05-26T11:02:31Z</time>
      </trkpt>
      <trkpt lat="44.80079" lon="5.47754">
        <ele>1629</ele>
        <time>2024-05-26T11:02:54Z</time>
      </trkpt>
      <trkpt lat="44.80091" lon="5.47735">
        <ele>1631</ele>
        <time>2024-05-26T11:03:20Z</time>
      </trkpt>
      <trkpt lat="44.80097" lon="5.47725">
        <ele>1632</ele>
        <time>2024-05-26T11:03:36Z</time>
      </trkpt>
      <trkpt lat="44.80101" lon="5.47714">
        <ele>1633</ele>
        <time>2024-05-26T11:03:47Z</time>
      </trkpt>
      <trkpt lat="44.80111" lon="5.47698">
        <ele>1633</ele>
        <time>2024-05-26T11:04:17Z</time>
      </trkpt>
      <trkpt lat="44.80127" lon="5.47689">
        <ele>1636</ele>
        <time>2024-05-26T11:04:41Z</time>
      </trkpt>
      <trkpt lat="44.80135" lon="5.47682">
        <ele>1637</ele>
        <time>2024-05-26T11:04:55Z</time>
      </trkpt>
      <trkpt lat="44.80143" lon="5.47688">
        <ele>1638</ele>
        <time>2024-05-26T11:05:09Z</time>
      </trkpt>
      <trkpt lat="44.80153" lon="5.47688">
        <ele>1638</ele>
        <time>2024-05-26T11:05:18Z</time>
      </trkpt>
      <trkpt lat="44.8017" lon="5.47689">
        <ele>1638</ele>
        <time>2024-05-26T11:05:45Z</time>
      </trkpt>
      <trkpt lat="44.80187" lon="5.47686">
        <ele>1634</ele>
        <time>2024-05-26T11:06:35Z</time>
      </trkpt>
      <trkpt lat="44.80205" lon="5.47679">
        <ele>1629</ele>
        <time>2024-05-26T11:06:59Z</time>
      </trkpt>
      <trkpt lat="44.80213" lon="5.47673">
        <ele>1626</ele>
        <time>2024-05-26T11:07:12Z</time>
      </trkpt>
      <trkpt lat="44.80221" lon="5.47666">
        <ele>1623</ele>
        <time>2024-05-26T11:07:25Z</time>
      </trkpt>
      <trkpt lat="44.80229" lon="5.47659">
        <ele>1620</ele>
        <time>2024-05-26T11:07:36Z</time>
      </trkpt>
      <trkpt lat="44.80239" lon="5.47659">
        <ele>1619</ele>
        <time>2024-05-26T11:07:48Z</time>
      </trkpt>
      <trkpt lat="44.80248" lon="5.47657">
        <ele>1619</ele>
        <time>2024-05-26T11:07:56Z</time>
      </trkpt>
      <trkpt lat="44.80253" lon="5.47646">
        <ele>1618</ele>
        <time>2024-05-26T11:08:06Z</time>
      </trkpt>
      <trkpt lat="44.80262" lon="5.47641">
        <ele>1617</ele>
        <time>2024-05-26T11:08:17Z</time>
      </trkpt>
      <trkpt lat="44.80279" lon="5.47633">
        <ele>1612</ele>
        <time>2024-05-26T11:08:36Z</time>
      </trkpt>
      <trkpt lat="44.80287" lon="5.47628">
        <ele>1610</ele>
        <time>2024-05-26T11:08:47Z</time>
      </trkpt>
      <trkpt lat="44.80296" lon="5.47623">
        <ele>1607</ele>
        <time>2024-05-26T11:09:00Z</time>
      </trkpt>
      <trkpt lat="44.80305" lon="5.47623">
        <ele>1606</ele>
        <time>2024-05-26T11:09:09Z</time>
      </trkpt>
      <trkpt lat="44.80315" lon="5.4762">
        <ele>1605</ele>
        <time>2024-05-26T11:09:22Z</time>
      </trkpt>
      <trkpt lat="44.80322" lon="5.47613">
        <ele>1604</ele>
        <time>2024-05-26T11:09:31Z</time>
      </trkpt>
      <trkpt lat="44.8033" lon="5.47606">
        <ele>1604</ele>
        <time>2024-05-26T11:09:39Z</time>
      </trkpt>
      <trkpt lat="44.8034" lon="5.47608">
        <ele>1603</ele>
        <time>2024-05-26T11:09:48Z</time>
      </trkpt>
      <trkpt lat="44.8035" lon="5.47608">
        <ele>1602</ele>
        <time>2024-05-26T11:09:56Z</time>
      </trkpt>
      <trkpt lat="44.80359" lon="5.47601">
        <ele>1602</ele>
        <time>2024-05-26T11:10:04Z</time>
      </trkpt>
      <trkpt lat="44.80368" lon="5.47596">
        <ele>1601</ele>
        <time>2024-05-26T11:10:10Z</time>
      </trkpt>
      <trkpt lat="44.80377" lon="5.47592">
        <ele>1600</ele>
        <time>2024-05-26T11:10:19Z</time>
      </trkpt>
      <trkpt lat="44.80386" lon="5.47593">
        <ele>1598</ele>
        <time>2024-05-26T11:10:28Z</time>
      </trkpt>
      <trkpt lat="44.80396" lon="5.47591">
        <ele>1597</ele>
        <time>2024-05-26T11:10:38Z</time>
      </trkpt>
      <trkpt lat="44.80413" lon="5.47583">
        <ele>1595</ele>
        <time>2024-05-26T11:10:59Z</time>
      </trkpt>
      <trkpt lat="44.80422" lon="5.47576">
        <ele>1594</ele>
        <time>2024-05-26T11:11:07Z</time>
      </trkpt>
      <trkpt lat="44.8044" lon="5.47576">
        <ele>1593</ele>
        <time>2024-05-26T11:11:22Z</time>
      </trkpt>
      <trkpt lat="44.80449" lon="5.47581">
        <ele>1593</ele>
        <time>2024-05-26T11:11:31Z</time>
      </trkpt>
      <trkpt lat="44.80458" lon="5.47587">
        <ele>1593</ele>
        <time>2024-05-26T11:11:39Z</time>
      </trkpt>
      <trkpt lat="44.80465" lon="5.47595">
        <ele>1593</ele>
        <time>2024-05-26T11:11:48Z</time>
      </trkpt>
      <trkpt lat="44.80472" lon="5.47604">
        <ele>1591</ele>
        <time>2024-05-26T11:11:59Z</time>
      </trkpt>
      <trkpt lat="44.8048" lon="5.47612">
        <ele>1590</ele>
        <time>2024-05-26T11:12:10Z</time>
      </trkpt>
      <trkpt lat="44.80498" lon="5.4762">
        <ele>1589</ele>
        <time>2024-05-26T11:12:26Z</time>
      </trkpt>
      <trkpt lat="44.80507" lon="5.47621">
        <ele>1590</ele>
        <time>2024-05-26T11:12:35Z</time>
      </trkpt>
      <trkpt lat="44.80524" lon="5.47622">
        <ele>1593</ele>
        <time>2024-05-26T11:12:59Z</time>
      </trkpt>
      <trkpt lat="44.80532" lon="5.47615">
        <ele>1595</ele>
        <time>2024-05-26T11:13:10Z</time>
      </trkpt>
      <trkpt lat="44.80541" lon="5.4761">
        <ele>1596</ele>
        <time>2024-05-26T11:13:23Z</time>
      </trkpt>
      <trkpt lat="44.80549" lon="5.47604">
        <ele>1598</ele>
        <time>2024-05-26T11:13:35Z</time>
      </trkpt>
      <trkpt lat="44.80557" lon="5.47598">
        <ele>1600</ele>
        <time>2024-05-26T11:13:48Z</time>
      </trkpt>
      <trkpt lat="44.80565" lon="5.47593">
        <ele>1601</ele>
        <time>2024-05-26T11:14:03Z</time>
      </trkpt>
      <trkpt lat="44.80574" lon="5.47591">
        <ele>1602</ele>
        <time>2024-05-26T11:14:13Z</time>
      </trkpt>
      <trkpt lat="44.80592" lon="5.47594">
        <ele>1605</ele>
        <time>2024-05-26T11:14:35Z</time>
      </trkpt>
      <trkpt lat="44.80602" lon="5.47597">
        <ele>1606</ele>
        <time>2024-05-26T11:14:46Z</time>
      </trkpt>
      <trkpt lat="44.80611" lon="5.47598">
        <ele>1607</ele>
        <time>2024-05-26T11:15:00Z</time>
      </trkpt>
      <trkpt lat="44.8062" lon="5.47598">
        <ele>1606</ele>
        <time>2024-05-26T11:15:07Z</time>
      </trkpt>
      <trkpt lat="44.8063" lon="5.47597">
        <ele>1606</ele>
        <time>2024-05-26T11:15:15Z</time>
      </trkpt>
      <trkpt lat="44.80639" lon="5.47595">
        <ele>1605</ele>
        <time>2024-05-26T11:15:22Z</time>
      </trkpt>
      <trkpt lat="44.80657" lon="5.47596">
        <ele>1605</ele>
        <time>2024-05-26T11:15:39Z</time>
      </trkpt>
      <trkpt lat="44.80665" lon="5.47599">
        <ele>1605</ele>
        <time>2024-05-26T11:15:47Z</time>
      </trkpt>
      <trkpt lat="44.80675" lon="5.47602">
        <ele>1604</ele>
        <time>2024-05-26T11:15:58Z</time>
      </trkpt>
      <trkpt lat="44.80684" lon="5.47603">
        <ele>1603</ele>
        <time>2024-05-26T11:16:12Z</time>
      </trkpt>
      <trkpt lat="44.80693" lon="5.47602">
        <ele>1603</ele>
        <time>2024-05-26T11:16:22Z</time>
      </trkpt>
      <trkpt lat="44.80703" lon="5.476">
        <ele>1601</ele>
        <time>2024-05-26T11:16:36Z</time>
      </trkpt>
      <trkpt lat="44.80716" lon="5.47583">
        <ele>1598</ele>
        <time>2024-05-26T11:16:56Z</time>
      </trkpt>
      <trkpt lat="44.80722" lon="5.47574">
        <ele>1596</ele>
        <time>2024-05-26T11:17:08Z</time>
      </trkpt>
      <trkpt lat="44.8073" lon="5.47568">
        <ele>1595</ele>
        <time>2024-05-26T11:17:19Z</time>
      </trkpt>
      <trkpt lat="44.80741" lon="5.4756">
        <ele>1593</ele>
        <time>2024-05-26T11:19:36Z</time>
      </trkpt>
      <trkpt lat="44.80745" lon="5.47548">
        <ele>1589</ele>
        <time>2024-05-26T11:19:48Z</time>
      </trkpt>
      <trkpt lat="44.80756" lon="5.47529">
        <ele>1584</ele>
        <time>2024-05-26T11:20:15Z</time>
      </trkpt>
      <trkpt lat="44.80763" lon="5.47519">
        <ele>1581</ele>
        <time>2024-05-26T11:20:26Z</time>
      </trkpt>
      <trkpt lat="44.80763" lon="5.47506">
        <ele>1579</ele>
        <time>2024-05-26T11:20:42Z</time>
      </trkpt>
      <trkpt lat="44.80767" lon="5.47494">
        <ele>1577</ele>
        <time>2024-05-26T11:20:53Z</time>
      </trkpt>
      <trkpt lat="44.80771" lon="5.47483">
        <ele>1574</ele>
        <time>2024-05-26T11:21:03Z</time>
      </trkpt>
      <trkpt lat="44.80777" lon="5.47472">
        <ele>1573</ele>
        <time>2024-05-26T11:21:13Z</time>
      </trkpt>
      <trkpt lat="44.80782" lon="5.47461">
        <ele>1572</ele>
        <time>2024-05-26T11:21:24Z</time>
      </trkpt>
      <trkpt lat="44.80785" lon="5.47448">
        <ele>1569</ele>
        <time>2024-05-26T11:21:36Z</time>
      </trkpt>
      <trkpt lat="44.80787" lon="5.47435">
        <ele>1567</ele>
        <time>2024-05-26T11:21:46Z</time>
      </trkpt>
      <trkpt lat="44.80794" lon="5.47426">
        <ele>1566</ele>
        <time>2024-05-26T11:21:54Z</time>
      </trkpt>
      <trkpt lat="44.80802" lon="5.4742">
        <ele>1563</ele>
        <time>2024-05-26T11:22:15Z</time>
      </trkpt>
      <trkpt lat="44.80812" lon="5.47417">
        <ele>1560</ele>
        <time>2024-05-26T11:22:29Z</time>
      </trkpt>
      <trkpt lat="44.8082" lon="5.47412">
        <ele>1557</ele>
        <time>2024-05-26T11:22:42Z</time>
      </trkpt>
      <trkpt lat="44.80825" lon="5.47401">
        <ele>1555</ele>
        <time>2024-05-26T11:22:54Z</time>
      </trkpt>
      <trkpt lat="44.80816" lon="5.47381">
        <ele>1552</ele>
        <time>2024-05-26T11:23:10Z</time>
      </trkpt>
      <trkpt lat="44.80814" lon="5.47369">
        <ele>1548</ele>
        <time>2024-05-26T11:23:28Z</time>
      </trkpt>
      <trkpt lat="44.80831" lon="5.47366">
        <ele>1543</ele>
        <time>2024-05-26T11:23:49Z</time>
      </trkpt>
      <trkpt lat="44.8084" lon="5.47364">
        <ele>1541</ele>
        <time>2024-05-26T11:24:02Z</time>
      </trkpt>
      <trkpt lat="44.80848" lon="5.47357">
        <ele>1538</ele>
        <time>2024-05-26T11:24:19Z</time>
      </trkpt>
      <trkpt lat="44.80854" lon="5.47347">
        <ele>1535</ele>
        <time>2024-05-26T11:24:32Z</time>
      </trkpt>
      <trkpt lat="44.80862" lon="5.47343">
        <ele>1533</ele>
        <time>2024-05-26T11:24:41Z</time>
      </trkpt>
      <trkpt lat="44.80872" lon="5.4734">
        <ele>1532</ele>
        <time>2024-05-26T11:24:55Z</time>
      </trkpt>
      <trkpt lat="44.80881" lon="5.47335">
        <ele>1530</ele>
        <time>2024-05-26T11:25:03Z</time>
      </trkpt>
      <trkpt lat="44.8089" lon="5.47329">
        <ele>1530</ele>
        <time>2024-05-26T11:25:10Z</time>
      </trkpt>
      <trkpt lat="44.80898" lon="5.47326">
        <ele>1526</ele>
        <time>2024-05-26T11:25:25Z</time>
      </trkpt>
      <trkpt lat="44.80904" lon="5.47314">
        <ele>1525</ele>
        <time>2024-05-26T11:25:33Z</time>
      </trkpt>
      <trkpt lat="44.80911" lon="5.47302">
        <ele>1525</ele>
        <time>2024-05-26T11:25:38Z</time>
      </trkpt>
      <trkpt lat="44.80917" lon="5.47293">
        <ele>1523</ele>
        <time>2024-05-26T11:25:47Z</time>
      </trkpt>
      <trkpt lat="44.80925" lon="5.47285">
        <ele>1522</ele>
        <time>2024-05-26T11:25:59Z</time>
      </trkpt>
      <trkpt lat="44.80934" lon="5.47265">
        <ele>1520</ele>
        <time>2024-05-26T11:26:17Z</time>
      </trkpt>
      <trkpt lat="44.80942" lon="5.47257">
        <ele>1520</ele>
        <time>2024-05-26T11:26:23Z</time>
      </trkpt>
      <trkpt lat="44.80948" lon="5.47236">
        <ele>1517</ele>
        <time>2024-05-26T11:27:15Z</time>
      </trkpt>
      <trkpt lat="44.80941" lon="5.47213">
        <ele>1511</ele>
        <time>2024-05-26T11:27:50Z</time>
      </trkpt>
      <trkpt lat="44.80937" lon="5.47199">
        <ele>1507</ele>
        <time>2024-05-26T11:28:16Z</time>
      </trkpt>
      <trkpt lat="44.8093" lon="5.47192">
        <ele>1507</ele>
        <time>2024-05-26T11:28:28Z</time>
      </trkpt>
      <trkpt lat="44.80922" lon="5.47185">
        <ele>1505</ele>
        <time>2024-05-26T11:28:40Z</time>
      </trkpt>
      <trkpt lat="44.80913" lon="5.47163">
        <ele>1502</ele>
        <time>2024-05-26T11:29:02Z</time>
      </trkpt>
      <trkpt lat="44.80905" lon="5.47155">
        <ele>1501</ele>
        <time>2024-05-26T11:29:10Z</time>
      </trkpt>
      <trkpt lat="44.80901" lon="5.47142">
        <ele>1496</ele>
        <time>2024-05-26T11:29:40Z</time>
      </trkpt>
      <trkpt lat="44.80916" lon="5.47144">
        <ele>1492</ele>
        <time>2024-05-26T11:30:08Z</time>
      </trkpt>
      <trkpt lat="44.80923" lon="5.4713">
        <ele>1486</ele>
        <time>2024-05-26T11:30:36Z</time>
      </trkpt>
      <trkpt lat="44.80928" lon="5.47119">
        <ele>1484</ele>
        <time>2024-05-26T11:30:47Z</time>
      </trkpt>
      <trkpt lat="44.80932" lon="5.47107">
        <ele>1480</ele>
        <time>2024-05-26T11:31:01Z</time>
      </trkpt>
      <trkpt lat="44.80932" lon="5.47083">
        <ele>1477</ele>
        <time>2024-05-26T11:31:23Z</time>
      </trkpt>
      <trkpt lat="44.80942" lon="5.47066">
        <ele>1473</ele>
        <time>2024-05-26T11:31:50Z</time>
      </trkpt>
      <trkpt lat="44.80945" lon="5.47053">
        <ele>1470</ele>
        <time>2024-05-26T11:32:01Z</time>
      </trkpt>
      <trkpt lat="44.80946" lon="5.4704">
        <ele>1469</ele>
        <time>2024-05-26T11:32:13Z</time>
      </trkpt>
      <trkpt lat="44.8095" lon="5.47029">
        <ele>1466</ele>
        <time>2024-05-26T11:32:31Z</time>
      </trkpt>
      <trkpt lat="44.80953" lon="5.47015">
        <ele>1464</ele>
        <time>2024-05-26T11:32:40Z</time>
      </trkpt>
      <trkpt lat="44.80954" lon="5.46989">
        <ele>1461</ele>
        <time>2024-05-26T11:33:02Z</time>
      </trkpt>
      <trkpt lat="44.80956" lon="5.46977">
        <ele>1459</ele>
        <time>2024-05-26T11:33:12Z</time>
      </trkpt>
      <trkpt lat="44.80956" lon="5.46964">
        <ele>1458</ele>
        <time>2024-05-26T11:33:24Z</time>
      </trkpt>
      <trkpt lat="44.80953" lon="5.46965">
        <ele>1454</ele>
        <time>2024-05-26T11:34:29Z</time>
      </trkpt>
      <trkpt lat="44.80938" lon="5.46963">
        <ele>1452</ele>
        <time>2024-05-26T11:35:00Z</time>
      </trkpt>
      <trkpt lat="44.80933" lon="5.4697">
        <ele>1451</ele>
        <time>2024-05-26T11:36:11Z</time>
      </trkpt>
      <trkpt lat="44.80922" lon="5.46974">
        <ele>1447</ele>
        <time>2024-05-26T11:36:50Z</time>
      </trkpt>
      <trkpt lat="44.8092" lon="5.46961">
        <ele>1448</ele>
        <time>2024-05-26T11:37:03Z</time>
      </trkpt>
      <trkpt lat="44.8091" lon="5.46941">
        <ele>1447</ele>
        <time>2024-05-26T11:37:23Z</time>
      </trkpt>
      <trkpt lat="44.80901" lon="5.46933">
        <ele>1447</ele>
        <time>2024-05-26T11:37:30Z</time>
      </trkpt>
      <trkpt lat="44.80897" lon="5.46922">
        <ele>1447</ele>
        <time>2024-05-26T11:37:39Z</time>
      </trkpt>
      <trkpt lat="44.8089" lon="5.46913">
        <ele>1447</ele>
        <time>2024-05-26T11:37:48Z</time>
      </trkpt>
      <trkpt lat="44.80883" lon="5.46905">
        <ele>1446</ele>
        <time>2024-05-26T11:37:59Z</time>
      </trkpt>
      <trkpt lat="44.80876" lon="5.46897">
        <ele>1446</ele>
        <time>2024-05-26T11:38:08Z</time>
      </trkpt>
      <trkpt lat="44.80861" lon="5.46883">
        <ele>1447</ele>
        <time>2024-05-26T11:38:28Z</time>
      </trkpt>
      <trkpt lat="44.80856" lon="5.46871">
        <ele>1448</ele>
        <time>2024-05-26T11:38:37Z</time>
      </trkpt>
      <trkpt lat="44.80857" lon="5.46846">
        <ele>1449</ele>
        <time>2024-05-26T11:39:02Z</time>
      </trkpt>
      <trkpt lat="44.80855" lon="5.46833">
        <ele>1452</ele>
        <time>2024-05-26T11:39:11Z</time>
      </trkpt>
      <trkpt lat="44.8085" lon="5.46821">
        <ele>1452</ele>
        <time>2024-05-26T11:39:19Z</time>
      </trkpt>
      <trkpt lat="44.80841" lon="5.46815">
        <ele>1453</ele>
        <time>2024-05-26T11:39:24Z</time>
      </trkpt>
      <trkpt lat="44.80833" lon="5.46807">
        <ele>1453</ele>
        <time>2024-05-26T11:39:29Z</time>
      </trkpt>
      <trkpt lat="44.80833" lon="5.46793">
        <ele>1452</ele>
        <time>2024-05-26T11:39:36Z</time>
      </trkpt>
      <trkpt lat="44.80836" lon="5.4678">
        <ele>1451</ele>
        <time>2024-05-26T11:39:41Z</time>
      </trkpt>
      <trkpt lat="44.80841" lon="5.46769">
        <ele>1451</ele>
        <time>2024-05-26T11:39:46Z</time>
      </trkpt>
      <trkpt lat="44.80847" lon="5.46757">
        <ele>1451</ele>
        <time>2024-05-26T11:39:54Z</time>
      </trkpt>
      <trkpt lat="44.80851" lon="5.46745">
        <ele>1451</ele>
        <time>2024-05-26T11:40:00Z</time>
      </trkpt>
      <trkpt lat="44.80851" lon="5.46732">
        <ele>1451</ele>
        <time>2024-05-26T11:40:06Z</time>
      </trkpt>
      <trkpt lat="44.80854" lon="5.4672">
        <ele>1452</ele>
        <time>2024-05-26T11:40:17Z</time>
      </trkpt>
      <trkpt lat="44.80859" lon="5.46708">
        <ele>1453</ele>
        <time>2024-05-26T11:40:27Z</time>
      </trkpt>
      <trkpt lat="44.80865" lon="5.46697">
        <ele>1454</ele>
        <time>2024-05-26T11:40:35Z</time>
      </trkpt>
      <trkpt lat="44.80872" lon="5.46688">
        <ele>1455</ele>
        <time>2024-05-26T11:40:44Z</time>
      </trkpt>
      <trkpt lat="44.80879" lon="5.46678">
        <ele>1455</ele>
        <time>2024-05-26T11:41:18Z</time>
      </trkpt>
      <trkpt lat="44.80876" lon="5.46659">
        <ele>1454</ele>
        <time>2024-05-26T11:41:41Z</time>
      </trkpt>
      <trkpt lat="44.8087" lon="5.4665">
        <ele>1453</ele>
        <time>2024-05-26T11:41:53Z</time>
      </trkpt>
      <trkpt lat="44.8086" lon="5.46628">
        <ele>1452</ele>
        <time>2024-05-26T11:42:19Z</time>
      </trkpt>
      <trkpt lat="44.80854" lon="5.46617">
        <ele>1452</ele>
        <time>2024-05-26T11:42:29Z</time>
      </trkpt>
      <trkpt lat="44.80845" lon="5.46596">
        <ele>1448</ele>
        <time>2024-05-26T11:42:54Z</time>
      </trkpt>
      <trkpt lat="44.80847" lon="5.46583">
        <ele>1447</ele>
        <time>2024-05-26T11:43:03Z</time>
      </trkpt>
      <trkpt lat="44.8085" lon="5.46571">
        <ele>1447</ele>
        <time>2024-05-26T11:43:11Z</time>
      </trkpt>
      <trkpt lat="44.80847" lon="5.46558">
        <ele>1446</ele>
        <time>2024-05-26T11:43:21Z</time>
      </trkpt>
      <trkpt lat="44.80836" lon="5.4654">
        <ele>1445</ele>
        <time>2024-05-26T11:43:37Z</time>
      </trkpt>
      <trkpt lat="44.80828" lon="5.46534">
        <ele>1444</ele>
        <time>2024-05-26T11:43:42Z</time>
      </trkpt>
      <trkpt lat="44.80823" lon="5.4651">
        <ele>1443</ele>
        <time>2024-05-26T11:43:57Z</time>
      </trkpt>
      <trkpt lat="44.80819" lon="5.46498">
        <ele>1443</ele>
        <time>2024-05-26T11:44:07Z</time>
      </trkpt>
      <trkpt lat="44.80814" lon="5.46487">
        <ele>1442</ele>
        <time>2024-05-26T11:44:16Z</time>
      </trkpt>
      <trkpt lat="44.80806" lon="5.46479">
        <ele>1441</ele>
        <time>2024-05-26T11:44:29Z</time>
      </trkpt>
      <trkpt lat="44.80792" lon="5.46464">
        <ele>1438</ele>
        <time>2024-05-26T11:45:04Z</time>
      </trkpt>
      <trkpt lat="44.80788" lon="5.46452">
        <ele>1437</ele>
        <time>2024-05-26T11:45:14Z</time>
      </trkpt>
      <trkpt lat="44.80772" lon="5.46438">
        <ele>1437</ele>
        <time>2024-05-26T11:45:33Z</time>
      </trkpt>
      <trkpt lat="44.80764" lon="5.4643">
        <ele>1436</ele>
        <time>2024-05-26T11:45:41Z</time>
      </trkpt>
      <trkpt lat="44.80755" lon="5.46425">
        <ele>1435</ele>
        <time>2024-05-26T11:45:47Z</time>
      </trkpt>
      <trkpt lat="44.80746" lon="5.46419">
        <ele>1435</ele>
        <time>2024-05-26T11:45:55Z</time>
      </trkpt>
      <trkpt lat="44.80738" lon="5.46415">
        <ele>1433</ele>
        <time>2024-05-26T11:46:02Z</time>
      </trkpt>
      <trkpt lat="44.80729" lon="5.46411">
        <ele>1432</ele>
        <time>2024-05-26T11:46:10Z</time>
      </trkpt>
      <trkpt lat="44.80713" lon="5.46396">
        <ele>1430</ele>
        <time>2024-05-26T11:46:33Z</time>
      </trkpt>
      <trkpt lat="44.80719" lon="5.46376">
        <ele>1428</ele>
        <time>2024-05-26T11:46:49Z</time>
      </trkpt>
      <trkpt lat="44.80717" lon="5.46363">
        <ele>1427</ele>
        <time>2024-05-26T11:46:59Z</time>
      </trkpt>
      <trkpt lat="44.80712" lon="5.46352">
        <ele>1427</ele>
        <time>2024-05-26T11:47:06Z</time>
      </trkpt>
      <trkpt lat="44.80707" lon="5.46341">
        <ele>1426</ele>
        <time>2024-05-26T11:47:16Z</time>
      </trkpt>
      <trkpt lat="44.80703" lon="5.46329">
        <ele>1425</ele>
        <time>2024-05-26T11:47:28Z</time>
      </trkpt>
      <trkpt lat="44.807" lon="5.46317">
        <ele>1423</ele>
        <time>2024-05-26T11:47:38Z</time>
      </trkpt>
      <trkpt lat="44.80686" lon="5.46299">
        <ele>1415</ele>
        <time>2024-05-26T11:48:23Z</time>
      </trkpt>
      <trkpt lat="44.8068" lon="5.46282">
        <ele>1412</ele>
        <time>2024-05-26T11:48:46Z</time>
      </trkpt>
      <trkpt lat="44.80664" lon="5.46272">
        <ele>1410</ele>
        <time>2024-05-26T11:49:06Z</time>
      </trkpt>
      <trkpt lat="44.80657" lon="5.46263">
        <ele>1409</ele>
        <time>2024-05-26T11:49:15Z</time>
      </trkpt>
      <trkpt lat="44.8066" lon="5.4625">
        <ele>1408</ele>
        <time>2024-05-26T11:49:23Z</time>
      </trkpt>
      <trkpt lat="44.80662" lon="5.46237">
        <ele>1408</ele>
        <time>2024-05-26T11:49:35Z</time>
      </trkpt>
      <trkpt lat="44.80663" lon="5.46214">
        <ele>1405</ele>
        <time>2024-05-26T11:50:00Z</time>
      </trkpt>
      <trkpt lat="44.80669" lon="5.46204">
        <ele>1405</ele>
        <time>2024-05-26T11:50:07Z</time>
      </trkpt>
      <trkpt lat="44.80673" lon="5.46183">
        <ele>1404</ele>
        <time>2024-05-26T11:50:28Z</time>
      </trkpt>
      <trkpt lat="44.8068" lon="5.46175">
        <ele>1404</ele>
        <time>2024-05-26T11:50:38Z</time>
      </trkpt>
      <trkpt lat="44.80685" lon="5.46164">
        <ele>1404</ele>
        <time>2024-05-26T11:50:46Z</time>
      </trkpt>
      <trkpt lat="44.80684" lon="5.46138">
        <ele>1404</ele>
        <time>2024-05-26T11:51:00Z</time>
      </trkpt>
      <trkpt lat="44.80685" lon="5.46125">
        <ele>1405</ele>
        <time>2024-05-26T11:51:07Z</time>
      </trkpt>
      <trkpt lat="44.80687" lon="5.461">
        <ele>1405</ele>
        <time>2024-05-26T11:51:28Z</time>
      </trkpt>
      <trkpt lat="44.80689" lon="5.46076">
        <ele>1405</ele>
        <time>2024-05-26T11:51:51Z</time>
      </trkpt>
      <trkpt lat="44.80689" lon="5.46063">
        <ele>1405</ele>
        <time>2024-05-26T11:52:00Z</time>
      </trkpt>
      <trkpt lat="44.80686" lon="5.46051">
        <ele>1404</ele>
        <time>2024-05-26T11:52:10Z</time>
      </trkpt>
      <trkpt lat="44.80681" lon="5.4604">
        <ele>1402</ele>
        <time>2024-05-26T11:52:18Z</time>
      </trkpt>
      <trkpt lat="44.80675" lon="5.4603">
        <ele>1401</ele>
        <time>2024-05-26T11:52:29Z</time>
      </trkpt>
      <trkpt lat="44.80663" lon="5.46013">
        <ele>1400</ele>
        <time>2024-05-26T11:52:51Z</time>
      </trkpt>
      <trkpt lat="44.80654" lon="5.4601">
        <ele>1399</ele>
        <time>2024-05-26T11:53:02Z</time>
      </trkpt>
      <trkpt lat="44.80657" lon="5.45988">
        <ele>1398</ele>
        <time>2024-05-26T11:53:18Z</time>
      </trkpt>
      <trkpt lat="44.80655" lon="5.45975">
        <ele>1398</ele>
        <time>2024-05-26T11:53:29Z</time>
      </trkpt>
      <trkpt lat="44.80656" lon="5.4595">
        <ele>1398</ele>
        <time>2024-05-26T11:53:49Z</time>
      </trkpt>
      <trkpt lat="44.80651" lon="5.45929">
        <ele>1395</ele>
        <time>2024-05-26T11:54:17Z</time>
      </trkpt>
      <trkpt lat="44.80665" lon="5.45912">
        <ele>1395</ele>
        <time>2024-05-26T11:54:35Z</time>
      </trkpt>
      <trkpt lat="44.80673" lon="5.45905">
        <ele>1395</ele>
        <time>2024-05-26T11:54:38Z</time>
      </trkpt>
      <trkpt lat="44.80682" lon="5.45896">
        <ele>1395</ele>
        <time>2024-05-26T11:54:42Z</time>
      </trkpt>
      <trkpt lat="44.80689" lon="5.45886">
        <ele>1395</ele>
        <time>2024-05-26T11:54:48Z</time>
      </trkpt>
      <trkpt lat="44.80695" lon="5.45876">
        <ele>1395</ele>
        <time>2024-05-26T11:54:53Z</time>
      </trkpt>
      <trkpt lat="44.8069" lon="5.45853">
        <ele>1397</ele>
        <time>2024-05-26T11:55:09Z</time>
      </trkpt>
      <trkpt lat="44.80679" lon="5.45824">
        <ele>1212</ele>
        <time>2024-05-26T12:11:40Z</time>
      </trkpt>
      <trkpt lat="44.80677" lon="5.45801">
        <ele>1187</ele>
        <time>2024-05-26T12:13:30Z</time>
      </trkpt>
      <trkpt lat="44.80682" lon="5.45787">
        <ele>1177</ele>
        <time>2024-05-26T12:14:07Z</time>
      </trkpt>
      <trkpt lat="44.80675" lon="5.45774">
        <ele>1169</ele>
        <time>2024-05-26T12:14:54Z</time>
      </trkpt>
      <trkpt lat="44.80673" lon="5.45751">
        <ele>1160</ele>
        <time>2024-05-26T12:15:32Z</time>
      </trkpt>
      <trkpt lat="44.80679" lon="5.4574">
        <ele>1157</ele>
        <time>2024-05-26T12:15:48Z</time>
      </trkpt>
      <trkpt lat="44.80692" lon="5.45736">
        <ele>1149</ele>
        <time>2024-05-26T12:16:23Z</time>
      </trkpt>
      <trkpt lat="44.80708" lon="5.45739">
        <ele>1143</ele>
        <time>2024-05-26T12:16:55Z</time>
      </trkpt>
      <trkpt lat="44.80716" lon="5.45733">
        <ele>1141</ele>
        <time>2024-05-26T12:17:04Z</time>
      </trkpt>
      <trkpt lat="44.80724" lon="5.4571">
        <ele>1127</ele>
        <time>2024-05-26T12:18:09Z</time>
      </trkpt>
      <trkpt lat="44.80736" lon="5.45696">
        <ele>1117</ele>
        <time>2024-05-26T12:18:53Z</time>
      </trkpt>
      <trkpt lat="44.80752" lon="5.4569">
        <ele>1106</ele>
        <time>2024-05-26T12:19:50Z</time>
      </trkpt>
      <trkpt lat="44.8076" lon="5.45682">
        <ele>1104</ele>
        <time>2024-05-26T12:19:57Z</time>
      </trkpt>
      <trkpt lat="44.80775" lon="5.45692">
        <ele>1097</ele>
        <time>2024-05-26T12:20:25Z</time>
      </trkpt>
      <trkpt lat="44.8078" lon="5.45677">
        <ele>1091</ele>
        <time>2024-05-26T12:20:55Z</time>
      </trkpt>
      <trkpt lat="44.8078" lon="5.45655">
        <ele>1083</ele>
        <time>2024-05-26T12:21:25Z</time>
      </trkpt>
      <trkpt lat="44.80789" lon="5.45651">
        <ele>1081</ele>
        <time>2024-05-26T12:21:32Z</time>
      </trkpt>
      <trkpt lat="44.80798" lon="5.45655">
        <ele>1080</ele>
        <time>2024-05-26T12:21:40Z</time>
      </trkpt>
      <trkpt lat="44.80806" lon="5.45661">
        <ele>1078</ele>
        <time>2024-05-26T12:21:47Z</time>
      </trkpt>
      <trkpt lat="44.80815" lon="5.45666">
        <ele>1077</ele>
        <time>2024-05-26T12:21:55Z</time>
      </trkpt>
      <trkpt lat="44.80821" lon="5.45684">
        <ele>1068</ele>
        <time>2024-05-26T12:22:40Z</time>
      </trkpt>
      <trkpt lat="44.80816" lon="5.45673">
        <ele>1064</ele>
        <time>2024-05-26T12:22:57Z</time>
      </trkpt>
      <trkpt lat="44.80814" lon="5.45651">
        <ele>1059</ele>
        <time>2024-05-26T12:23:25Z</time>
      </trkpt>
      <trkpt lat="44.80819" lon="5.45639">
        <ele>1053</ele>
        <time>2024-05-26T12:23:48Z</time>
      </trkpt>
      <trkpt lat="44.80828" lon="5.45638">
        <ele>1051</ele>
        <time>2024-05-26T12:23:59Z</time>
      </trkpt>
      <trkpt lat="44.80837" lon="5.45653">
        <ele>1043</ele>
        <time>2024-05-26T12:24:37Z</time>
      </trkpt>
      <trkpt lat="44.80845" lon="5.45656">
        <ele>1043</ele>
        <time>2024-05-26T12:24:43Z</time>
      </trkpt>
      <trkpt lat="44.80855" lon="5.45659">
        <ele>1041</ele>
        <time>2024-05-26T12:24:50Z</time>
      </trkpt>
      <trkpt lat="44.80863" lon="5.45664">
        <ele>1036</ele>
        <time>2024-05-26T12:25:10Z</time>
      </trkpt>
      <trkpt lat="44.80874" lon="5.45655">
        <ele>1025</ele>
        <time>2024-05-26T12:26:06Z</time>
      </trkpt>
      <trkpt lat="44.80889" lon="5.45668">
        <ele>1020</ele>
        <time>2024-05-26T12:26:34Z</time>
      </trkpt>
      <trkpt lat="44.80897" lon="5.45675">
        <ele>1017</ele>
        <time>2024-05-26T12:26:45Z</time>
      </trkpt>
      <trkpt lat="44.80907" lon="5.45677">
        <ele>1011</ele>
        <time>2024-05-26T12:27:17Z</time>
      </trkpt>
      <trkpt lat="44.8091" lon="5.45652">
        <ele>1006</ele>
        <time>2024-05-26T12:27:38Z</time>
      </trkpt>
      <trkpt lat="44.809" lon="5.45629">
        <ele>1004</ele>
        <time>2024-05-26T12:28:03Z</time>
      </trkpt>
      <trkpt lat="44.80902" lon="5.45603">
        <ele>1004</ele>
        <time>2024-05-26T12:28:19Z</time>
      </trkpt>
      <trkpt lat="44.80909" lon="5.45593">
        <ele>1003</ele>
        <time>2024-05-26T12:28:25Z</time>
      </trkpt>
      <trkpt lat="44.80916" lon="5.45586">
        <ele>1003</ele>
        <time>2024-05-26T12:28:30Z</time>
      </trkpt>
      <trkpt lat="44.80925" lon="5.45581">
        <ele>1002</ele>
        <time>2024-05-26T12:28:38Z</time>
      </trkpt>
      <trkpt lat="44.80935" lon="5.45575">
        <ele>1000</ele>
        <time>2024-05-26T12:28:50Z</time>
      </trkpt>
      <trkpt lat="44.80947" lon="5.45571">
        <ele>1000</ele>
        <time>2024-05-26T12:28:53Z</time>
      </trkpt>
      <trkpt lat="44.80956" lon="5.45564">
        <ele>999</ele>
        <time>2024-05-26T12:29:03Z</time>
      </trkpt>
      <trkpt lat="44.80957" lon="5.45549">
        <ele>999</ele>
        <time>2024-05-26T12:40:35Z</time>
      </trkpt>
      <trkpt lat="44.80948" lon="5.45545">
        <ele>998</ele>
        <time>2024-05-26T12:40:44Z</time>
      </trkpt>
      <trkpt lat="44.80938" lon="5.45542">
        <ele>998</ele>
        <time>2024-05-26T12:40:56Z</time>
      </trkpt>
      <trkpt lat="44.80929" lon="5.45541">
        <ele>999</ele>
        <time>2024-05-26T12:41:06Z</time>
      </trkpt>
      <trkpt lat="44.80919" lon="5.45539">
        <ele>999</ele>
        <time>2024-05-26T12:41:14Z</time>
      </trkpt>
      <trkpt lat="44.8091" lon="5.45535">
        <ele>999</ele>
        <time>2024-05-26T12:41:24Z</time>
      </trkpt>
      <trkpt lat="44.809" lon="5.45533">
        <ele>1001</ele>
        <time>2024-05-26T12:41:36Z</time>
      </trkpt>
      <trkpt lat="44.80891" lon="5.45533">
        <ele>1002</ele>
        <time>2024-05-26T12:41:45Z</time>
      </trkpt>
      <trkpt lat="44.80882" lon="5.45539">
        <ele>1003</ele>
        <time>2024-05-26T12:42:03Z</time>
      </trkpt>
      <trkpt lat="44.80873" lon="5.4554">
        <ele>1004</ele>
        <time>2024-05-26T12:42:17Z</time>
      </trkpt>
      <trkpt lat="44.80864" lon="5.45539">
        <ele>1005</ele>
        <time>2024-05-26T12:42:25Z</time>
      </trkpt>
      <trkpt lat="44.80855" lon="5.45544">
        <ele>1006</ele>
        <time>2024-05-26T12:42:39Z</time>
      </trkpt>
      <trkpt lat="44.80846" lon="5.45547">
        <ele>1007</ele>
        <time>2024-05-26T12:42:59Z</time>
      </trkpt>
      <trkpt lat="44.80836" lon="5.45548">
        <ele>1008</ele>
        <time>2024-05-26T12:43:14Z</time>
      </trkpt>
      <trkpt lat="44.80827" lon="5.45548">
        <ele>1010</ele>
        <time>2024-05-26T12:43:22Z</time>
      </trkpt>
      <trkpt lat="44.80811" lon="5.45541">
        <ele>1012</ele>
        <time>2024-05-26T12:43:49Z</time>
      </trkpt>
      <trkpt lat="44.80803" lon="5.45537">
        <ele>1013</ele>
        <time>2024-05-26T12:43:57Z</time>
      </trkpt>
      <trkpt lat="44.80793" lon="5.45534">
        <ele>1014</ele>
        <time>2024-05-26T12:44:02Z</time>
      </trkpt>
      <trkpt lat="44.80783" lon="5.45529">
        <ele>1014</ele>
        <time>2024-05-26T12:44:07Z</time>
      </trkpt>
      <trkpt lat="44.80778" lon="5.45516">
        <ele>1015</ele>
        <time>2024-05-26T12:44:14Z</time>
      </trkpt>
      <trkpt lat="44.80787" lon="5.45495">
        <ele>1016</ele>
        <time>2024-05-26T12:44:33Z</time>
      </trkpt>
      <trkpt lat="44.80793" lon="5.45485">
        <ele>1017</ele>
        <time>2024-05-26T12:44:42Z</time>
      </trkpt>
      <trkpt lat="44.80797" lon="5.45474">
        <ele>1017</ele>
        <time>2024-05-26T12:44:51Z</time>
      </trkpt>
      <trkpt lat="44.80802" lon="5.45462">
        <ele>1018</ele>
        <time>2024-05-26T12:45:01Z</time>
      </trkpt>
      <trkpt lat="44.80807" lon="5.45451">
        <ele>1019</ele>
        <time>2024-05-26T12:45:13Z</time>
      </trkpt>
      <trkpt lat="44.80813" lon="5.45441">
        <ele>1019</ele>
        <time>2024-05-26T12:45:23Z</time>
      </trkpt>
      <trkpt lat="44.80825" lon="5.45422">
        <ele>1021</ele>
        <time>2024-05-26T12:45:44Z</time>
      </trkpt>
      <trkpt lat="44.80822" lon="5.4541">
        <ele>1022</ele>
        <time>2024-05-26T12:45:55Z</time>
      </trkpt>
      <trkpt lat="44.80817" lon="5.45399">
        <ele>1022</ele>
        <time>2024-05-26T12:46:08Z</time>
      </trkpt>
      <trkpt lat="44.80813" lon="5.45386">
        <ele>1023</ele>
        <time>2024-05-26T12:46:17Z</time>
      </trkpt>
      <trkpt lat="44.80817" lon="5.45374">
        <ele>1024</ele>
        <time>2024-05-26T12:46:28Z</time>
      </trkpt>
      <trkpt lat="44.80826" lon="5.45365">
        <ele>1025</ele>
        <time>2024-05-26T12:46:32Z</time>
      </trkpt>
      <trkpt lat="44.8083" lon="5.45341">
        <ele>1026</ele>
        <time>2024-05-26T12:46:53Z</time>
      </trkpt>
      <trkpt lat="44.80837" lon="5.45332">
        <ele>1027</ele>
        <time>2024-05-26T12:47:01Z</time>
      </trkpt>
      <trkpt lat="44.80836" lon="5.45319">
        <ele>1027</ele>
        <time>2024-05-26T12:47:08Z</time>
      </trkpt>
      <trkpt lat="44.80844" lon="5.45296">
        <ele>1029</ele>
        <time>2024-05-26T12:47:29Z</time>
      </trkpt>
      <trkpt lat="44.80848" lon="5.45284">
        <ele>1030</ele>
        <time>2024-05-26T12:47:41Z</time>
      </trkpt>
      <trkpt lat="44.80855" lon="5.45274">
        <ele>1030</ele>
        <time>2024-05-26T12:47:51Z</time>
      </trkpt>
      <trkpt lat="44.80856" lon="5.45261">
        <ele>1031</ele>
        <time>2024-05-26T12:48:02Z</time>
      </trkpt>
      <trkpt lat="44.80855" lon="5.45247">
        <ele>1031</ele>
        <time>2024-05-26T12:48:11Z</time>
      </trkpt>
      <trkpt lat="44.80858" lon="5.45235">
        <ele>1032</ele>
        <time>2024-05-26T12:48:20Z</time>
      </trkpt>
      <trkpt lat="44.80859" lon="5.45222">
        <ele>1033</ele>
        <time>2024-05-26T12:48:30Z</time>
      </trkpt>
      <trkpt lat="44.80861" lon="5.45197">
        <ele>1034</ele>
        <time>2024-05-26T12:48:48Z</time>
      </trkpt>
      <trkpt lat="44.80867" lon="5.45174">
        <ele>1036</ele>
        <time>2024-05-26T12:49:07Z</time>
      </trkpt>
      <trkpt lat="44.80868" lon="5.4516">
        <ele>1037</ele>
        <time>2024-05-26T12:49:18Z</time>
      </trkpt>
      <trkpt lat="44.80871" lon="5.45148">
        <ele>1038</ele>
        <time>2024-05-26T12:49:28Z</time>
      </trkpt>
      <trkpt lat="44.80873" lon="5.45122">
        <ele>1041</ele>
        <time>2024-05-26T12:49:51Z</time>
      </trkpt>
      <trkpt lat="44.80878" lon="5.4511">
        <ele>1042</ele>
        <time>2024-05-26T12:50:00Z</time>
      </trkpt>
      <trkpt lat="44.80882" lon="5.45098">
        <ele>1042</ele>
        <time>2024-05-26T12:50:09Z</time>
      </trkpt>
      <trkpt lat="44.80881" lon="5.45085">
        <ele>1043</ele>
        <time>2024-05-26T12:50:17Z</time>
      </trkpt>
      <trkpt lat="44.80875" lon="5.45076">
        <ele>1043</ele>
        <time>2024-05-26T12:50:25Z</time>
      </trkpt>
      <trkpt lat="44.80867" lon="5.45068">
        <ele>1042</ele>
        <time>2024-05-26T12:50:33Z</time>
      </trkpt>
      <trkpt lat="44.80859" lon="5.4506">
        <ele>1042</ele>
        <time>2024-05-26T12:50:39Z</time>
      </trkpt>
      <trkpt lat="44.8085" lon="5.45053">
        <ele>1041</ele>
        <time>2024-05-26T12:50:50Z</time>
      </trkpt>
      <trkpt lat="44.80836" lon="5.4504">
        <ele>1038</ele>
        <time>2024-05-26T12:51:14Z</time>
      </trkpt>
      <trkpt lat="44.80826" lon="5.45037">
        <ele>1037</ele>
        <time>2024-05-26T12:51:23Z</time>
      </trkpt>
      <trkpt lat="44.80817" lon="5.45034">
        <ele>1036</ele>
        <time>2024-05-26T12:51:38Z</time>
      </trkpt>
      <trkpt lat="44.80807" lon="5.45035">
        <ele>1035</ele>
        <time>2024-05-26T12:51:50Z</time>
      </trkpt>
      <trkpt lat="44.80798" lon="5.45033">
        <ele>1034</ele>
        <time>2024-05-26T12:51:58Z</time>
      </trkpt>
      <trkpt lat="44.80788" lon="5.45029">
        <ele>1033</ele>
        <time>2024-05-26T12:52:05Z</time>
      </trkpt>
      <trkpt lat="44.80779" lon="5.45027">
        <ele>1033</ele>
        <time>2024-05-26T12:52:14Z</time>
      </trkpt>
      <trkpt lat="44.8077" lon="5.45022">
        <ele>1032</ele>
        <time>2024-05-26T12:52:23Z</time>
      </trkpt>
      <trkpt lat="44.80761" lon="5.45017">
        <ele>1031</ele>
        <time>2024-05-26T12:52:32Z</time>
      </trkpt>
      <trkpt lat="44.80754" lon="5.45009">
        <ele>1029</ele>
        <time>2024-05-26T12:52:46Z</time>
      </trkpt>
      <trkpt lat="44.80746" lon="5.45002">
        <ele>1027</ele>
        <time>2024-05-26T12:53:01Z</time>
      </trkpt>
      <trkpt lat="44.80737" lon="5.44997">
        <ele>1026</ele>
        <time>2024-05-26T12:53:08Z</time>
      </trkpt>
      <trkpt lat="44.80729" lon="5.44991">
        <ele>1025</ele>
        <time>2024-05-26T12:53:16Z</time>
      </trkpt>
      <trkpt lat="44.80722" lon="5.44982">
        <ele>1024</ele>
        <time>2024-05-26T12:53:26Z</time>
      </trkpt>
      <trkpt lat="44.80715" lon="5.44972">
        <ele>1022</ele>
        <time>2024-05-26T12:53:37Z</time>
      </trkpt>
      <trkpt lat="44.80705" lon="5.44968">
        <ele>1021</ele>
        <time>2024-05-26T12:53:44Z</time>
      </trkpt>
      <trkpt lat="44.80695" lon="5.44967">
        <ele>1021</ele>
        <time>2024-05-26T12:53:49Z</time>
      </trkpt>
      <trkpt lat="44.80686" lon="5.44964">
        <ele>1020</ele>
        <time>2024-05-26T12:53:54Z</time>
      </trkpt>
      <trkpt lat="44.80685" lon="5.44951">
        <ele>1019</ele>
        <time>2024-05-26T12:54:03Z</time>
      </trkpt>
      <trkpt lat="44.80687" lon="5.44939">
        <ele>1018</ele>
        <time>2024-05-26T12:54:11Z</time>
      </trkpt>
      <trkpt lat="44.80692" lon="5.44927">
        <ele>1017</ele>
        <time>2024-05-26T12:54:18Z</time>
      </trkpt>
      <trkpt lat="44.80695" lon="5.44914">
        <ele>1017</ele>
        <time>2024-05-26T12:54:25Z</time>
      </trkpt>
      <trkpt lat="44.80697" lon="5.44901">
        <ele>1016</ele>
        <time>2024-05-26T12:54:34Z</time>
      </trkpt>
      <trkpt lat="44.807" lon="5.44887">
        <ele>1013</ele>
        <time>2024-05-26T12:54:46Z</time>
      </trkpt>
      <trkpt lat="44.80697" lon="5.44874">
        <ele>1012</ele>
        <time>2024-05-26T12:54:56Z</time>
      </trkpt>
      <trkpt lat="44.80696" lon="5.44861">
        <ele>1010</ele>
        <time>2024-05-26T12:55:06Z</time>
      </trkpt>
      <trkpt lat="44.80693" lon="5.44848">
        <ele>1008</ele>
        <time>2024-05-26T12:55:20Z</time>
      </trkpt>
      <trkpt lat="44.80685" lon="5.4484">
        <ele>1006</ele>
        <time>2024-05-26T12:55:31Z</time>
      </trkpt>
      <trkpt lat="44.80679" lon="5.44831">
        <ele>1005</ele>
        <time>2024-05-26T12:55:43Z</time>
      </trkpt>
      <trkpt lat="44.80671" lon="5.44825">
        <ele>1004</ele>
        <time>2024-05-26T12:55:52Z</time>
      </trkpt>
      <trkpt lat="44.80663" lon="5.44817">
        <ele>1003</ele>
        <time>2024-05-26T12:56:00Z</time>
      </trkpt>
      <trkpt lat="44.80656" lon="5.44809">
        <ele>1002</ele>
        <time>2024-05-26T12:56:09Z</time>
      </trkpt>
      <trkpt lat="44.80651" lon="5.44799">
        <ele>1000</ele>
        <time>2024-05-26T12:56:22Z</time>
      </trkpt>
      <trkpt lat="44.80645" lon="5.44788">
        <ele>998</ele>
        <time>2024-05-26T12:56:32Z</time>
      </trkpt>
      <trkpt lat="44.80641" lon="5.44776">
        <ele>997</ele>
        <time>2024-05-26T12:56:40Z</time>
      </trkpt>
      <trkpt lat="44.80636" lon="5.44765">
        <ele>996</ele>
        <time>2024-05-26T12:56:52Z</time>
      </trkpt>
      <trkpt lat="44.80629" lon="5.44756">
        <ele>995</ele>
        <time>2024-05-26T12:57:02Z</time>
      </trkpt>
      <trkpt lat="44.80622" lon="5.44748">
        <ele>994</ele>
        <time>2024-05-26T12:57:13Z</time>
      </trkpt>
      <trkpt lat="44.80614" lon="5.44741">
        <ele>992</ele>
        <time>2024-05-26T12:57:24Z</time>
      </trkpt>
      <trkpt lat="44.80603" lon="5.44721">
        <ele>988</ele>
        <time>2024-05-26T12:57:46Z</time>
      </trkpt>
      <trkpt lat="44.80596" lon="5.447">
        <ele>986</ele>
        <time>2024-05-26T12:58:08Z</time>
      </trkpt>
      <trkpt lat="44.80593" lon="5.44674">
        <ele>983</ele>
        <time>2024-05-26T12:58:25Z</time>
      </trkpt>
      <trkpt lat="44.80588" lon="5.44663">
        <ele>982</ele>
        <time>2024-05-26T12:58:32Z</time>
      </trkpt>
      <trkpt lat="44.8059" lon="5.4465">
        <ele>981</ele>
        <time>2024-05-26T12:58:41Z</time>
      </trkpt>
      <trkpt lat="44.80581" lon="5.44628">
        <ele>979</ele>
        <time>2024-05-26T12:58:57Z</time>
      </trkpt>
      <trkpt lat="44.80576" lon="5.44616">
        <ele>979</ele>
        <time>2024-05-26T12:59:05Z</time>
      </trkpt>
      <trkpt lat="44.80577" lon="5.44603">
        <ele>977</ele>
        <time>2024-05-26T12:59:16Z</time>
      </trkpt>
      <trkpt lat="44.80575" lon="5.4459">
        <ele>975</ele>
        <time>2024-05-26T12:59:27Z</time>
      </trkpt>
      <trkpt lat="44.8057" lon="5.44577">
        <ele>975</ele>
        <time>2024-05-26T12:59:35Z</time>
      </trkpt>
      <trkpt lat="44.80566" lon="5.44565">
        <ele>974</ele>
        <time>2024-05-26T12:59:42Z</time>
      </trkpt>
      <trkpt lat="44.80567" lon="5.44539">
        <ele>972</ele>
        <time>2024-05-26T13:00:00Z</time>
      </trkpt>
      <trkpt lat="44.80578" lon="5.4453">
        <ele>970</ele>
        <time>2024-05-26T13:00:23Z</time>
      </trkpt>
      <trkpt lat="44.80587" lon="5.44536">
        <ele>969</ele>
        <time>2024-05-26T13:00:32Z</time>
      </trkpt>
      <trkpt lat="44.80592" lon="5.44546">
        <ele>968</ele>
        <time>2024-05-26T13:00:43Z</time>
      </trkpt>
      <trkpt lat="44.80597" lon="5.44559">
        <ele>967</ele>
        <time>2024-05-26T13:00:51Z</time>
      </trkpt>
      <trkpt lat="44.806" lon="5.44572">
        <ele>967</ele>
        <time>2024-05-26T13:01:00Z</time>
      </trkpt>
      <trkpt lat="44.80603" lon="5.44584">
        <ele>966</ele>
        <time>2024-05-26T13:01:10Z</time>
      </trkpt>
      <trkpt lat="44.80615" lon="5.44603">
        <ele>965</ele>
        <time>2024-05-26T13:01:26Z</time>
      </trkpt>
      <trkpt lat="44.80619" lon="5.44615">
        <ele>965</ele>
        <time>2024-05-26T13:01:38Z</time>
      </trkpt>
      <trkpt lat="44.80624" lon="5.44626">
        <ele>964</ele>
        <time>2024-05-26T13:01:48Z</time>
      </trkpt>
      <trkpt lat="44.80624" lon="5.44639">
        <ele>964</ele>
        <time>2024-05-26T13:01:58Z</time>
      </trkpt>
      <trkpt lat="44.80638" lon="5.44651">
        <ele>958</ele>
        <time>2024-05-26T13:02:36Z</time>
      </trkpt>
      <trkpt lat="44.80647" lon="5.44644">
        <ele>957</ele>
        <time>2024-05-26T13:02:50Z</time>
        <extensions>
          <visugpx:TrkExtension xmlns:visugpx="https://www.visugpx.com/editgpx/">
            <visugpx:node>1</visugpx:node>
            </visugpx:TrkExtension>
        </extensions>
      </trkpt>
    </trkseg>
  </trk>
</gpx>